<?xml version="1.0" encoding="utf-8"?>
<gpx xsi:schemaLocation="http://www.topografix.com/GPX/1/1 http://www.topografix.com/GPX/1/1/gpx.xsd http://www.garmin.com/xmlschemas/GpxExtensions/v3 http://www.garmin.com/xmlschemas/GpxExtensionsv3.xsd http://www.garmin.com/xmlschemas/TrackPointExtension/v1 http://www.garmin.com/xmlschemas/TrackPointExtensionv1.xsd" version="1.1" creator="Sports Tracker" xmlns="http://www.topografix.com/GPX/1/1" xmlns:xsi="http://www.w3.org/2001/XMLSchema-instance" xmlns:gpxtpx="http://www.garmin.com/xmlschemas/TrackPointExtension/v1" xmlns:gpxx="http://www.garmin.com/xmlschemas/GpxExtensions/v3">
  <metadata>
    <name>Mountain biking 29/09/2011/17:01:23.72</name>
    <desc>segev KKL</desc>
    <author>
      <name>Slavik Talal</name>
    </author>
    <link href="www.sports-tracker.com">
      <text>Sports Tracker</text>
    </link>
  </metadata>
  <trk>
    <trkseg>
      <trkpt lat="32.86105666666667" lon="35.259838333333335">
        <ele>40.5</ele>
        <time>2011-09-29T17:01:23.72</time>
      </trkpt>
      <trkpt lat="32.86105666666667" lon="35.259838333333335">
        <ele>40.5</ele>
        <time>2011-09-29T17:01:29.25</time>
      </trkpt>
      <trkpt lat="32.861165" lon="35.25931">
        <ele>108</ele>
        <time>2011-09-29T17:01:34.58</time>
      </trkpt>
      <trkpt lat="32.861153333333334" lon="35.2593">
        <ele>111.5</ele>
        <time>2011-09-29T17:01:35.23</time>
      </trkpt>
      <trkpt lat="32.861156666666666" lon="35.259295">
        <ele>113</ele>
        <time>2011-09-29T17:01:36.22</time>
      </trkpt>
      <trkpt lat="32.86116166666667" lon="35.259295">
        <ele>113.5</ele>
        <time>2011-09-29T17:01:37.22</time>
      </trkpt>
      <trkpt lat="32.86116666666667" lon="35.259296666666664">
        <ele>113.5</ele>
        <time>2011-09-29T17:01:38.23</time>
      </trkpt>
      <trkpt lat="32.861171666666664" lon="35.259295">
        <ele>114</ele>
        <time>2011-09-29T17:01:39.22</time>
      </trkpt>
      <trkpt lat="32.86117333333333" lon="35.259295">
        <ele>114</ele>
        <time>2011-09-29T17:01:40.21</time>
      </trkpt>
      <trkpt lat="32.861176666666665" lon="35.259296666666664">
        <ele>114</ele>
        <time>2011-09-29T17:01:41.21</time>
      </trkpt>
      <trkpt lat="32.86116" lon="35.25929166666667">
        <ele>114.5</ele>
        <time>2011-09-29T17:01:43.22</time>
      </trkpt>
      <trkpt lat="32.861156666666666" lon="35.25928833333333">
        <ele>114.5</ele>
        <time>2011-09-29T17:01:44.21</time>
      </trkpt>
      <trkpt lat="32.861155" lon="35.25928833333333">
        <ele>114.5</ele>
        <time>2011-09-29T17:01:45.21</time>
      </trkpt>
      <trkpt lat="32.86118333333334" lon="35.259348333333335">
        <ele>114.5</ele>
        <time>2011-09-29T17:01:47.21</time>
      </trkpt>
      <trkpt lat="32.86118666666667" lon="35.25935666666667">
        <ele>114.5</ele>
        <time>2011-09-29T17:01:48.21</time>
      </trkpt>
      <trkpt lat="32.86118833333333" lon="35.25936">
        <ele>114.5</ele>
        <time>2011-09-29T17:01:49.19</time>
      </trkpt>
      <trkpt lat="32.86118666666667" lon="35.25936333333333">
        <ele>114.5</ele>
        <time>2011-09-29T17:01:50.19</time>
      </trkpt>
      <trkpt lat="32.86112166666667" lon="35.25940833333333">
        <ele>114.5</ele>
        <time>2011-09-29T17:01:52.21</time>
      </trkpt>
      <trkpt lat="32.86111" lon="35.259418333333336">
        <ele>114.5</ele>
        <time>2011-09-29T17:01:53.21</time>
      </trkpt>
      <trkpt lat="32.861108333333334" lon="35.25942666666667">
        <ele>114.5</ele>
        <time>2011-09-29T17:01:54.21</time>
      </trkpt>
      <trkpt lat="32.861081666666664" lon="35.259496666666664">
        <ele>115</ele>
        <time>2011-09-29T17:01:56.22</time>
      </trkpt>
      <trkpt lat="32.861081666666664" lon="35.259501666666665">
        <ele>115</ele>
        <time>2011-09-29T17:01:57.22</time>
      </trkpt>
      <trkpt lat="32.86107666666667" lon="35.259495">
        <ele>115</ele>
        <time>2011-09-29T17:01:58.22</time>
      </trkpt>
      <trkpt lat="32.86109833333333" lon="35.25948833333333">
        <ele>115</ele>
        <time>2011-09-29T17:01:59.22</time>
      </trkpt>
      <trkpt lat="32.861105" lon="35.25949333333333">
        <ele>115</ele>
        <time>2011-09-29T17:02:00.22</time>
      </trkpt>
      <trkpt lat="32.86111" lon="35.259495">
        <ele>115</ele>
        <time>2011-09-29T17:02:01.21</time>
      </trkpt>
      <trkpt lat="32.861113333333336" lon="35.25949833333333">
        <ele>115</ele>
        <time>2011-09-29T17:02:02.22</time>
      </trkpt>
      <trkpt lat="32.86111" lon="35.259495">
        <ele>115</ele>
        <time>2011-09-29T17:02:03.22</time>
      </trkpt>
      <trkpt lat="32.86119333333333" lon="35.259515">
        <ele>115</ele>
        <time>2011-09-29T17:02:06.22</time>
      </trkpt>
      <trkpt lat="32.86118666666667" lon="35.25959666666667">
        <ele>115</ele>
        <time>2011-09-29T17:02:08.22</time>
      </trkpt>
      <trkpt lat="32.86118" lon="35.259605">
        <ele>115</ele>
        <time>2011-09-29T17:02:09.21</time>
      </trkpt>
      <trkpt lat="32.861176666666665" lon="35.25960666666667">
        <ele>115</ele>
        <time>2011-09-29T17:02:10.22</time>
      </trkpt>
      <trkpt lat="32.861156666666666" lon="35.25960833333333">
        <ele>115</ele>
        <time>2011-09-29T17:02:11.21</time>
      </trkpt>
      <trkpt lat="32.86117" lon="35.25957">
        <ele>115</ele>
        <time>2011-09-29T17:02:13.21</time>
      </trkpt>
      <trkpt lat="32.861165" lon="35.259545">
        <ele>115</ele>
        <time>2011-09-29T17:02:14.22</time>
      </trkpt>
      <trkpt lat="32.861158333333336" lon="35.25952">
        <ele>115</ele>
        <time>2011-09-29T17:02:15.22</time>
      </trkpt>
      <trkpt lat="32.86087333333333" lon="35.258425">
        <ele>125.5</ele>
        <time>2011-09-29T17:02:48.22</time>
      </trkpt>
      <trkpt lat="32.860836666666664" lon="35.25834">
        <ele>128.5</ele>
        <time>2011-09-29T17:02:52.22</time>
      </trkpt>
      <trkpt lat="32.860838333333334" lon="35.25832833333333">
        <ele>132.5</ele>
        <time>2011-09-29T17:02:55.21</time>
      </trkpt>
      <trkpt lat="32.86083166666667" lon="35.25831">
        <ele>136</ele>
        <time>2011-09-29T17:02:56.22</time>
      </trkpt>
      <trkpt lat="32.86082" lon="35.258226666666665">
        <ele>141</ele>
        <time>2011-09-29T17:02:58.21</time>
      </trkpt>
      <trkpt lat="32.86082" lon="35.25823833333333">
        <ele>142.5</ele>
        <time>2011-09-29T17:02:59.21</time>
      </trkpt>
      <trkpt lat="32.86081333333333" lon="35.25823166666667">
        <ele>144</ele>
        <time>2011-09-29T17:03:00.21</time>
      </trkpt>
      <trkpt lat="32.86080333333334" lon="35.25825">
        <ele>146</ele>
        <time>2011-09-29T17:03:02.21</time>
      </trkpt>
      <trkpt lat="32.860815" lon="35.25832166666667">
        <ele>148</ele>
        <time>2011-09-29T17:03:04.21</time>
      </trkpt>
      <trkpt lat="32.860821666666666" lon="35.25832166666667">
        <ele>148.5</ele>
        <time>2011-09-29T17:03:05.21</time>
      </trkpt>
      <trkpt lat="32.860818333333334" lon="35.25830666666667">
        <ele>149</ele>
        <time>2011-09-29T17:03:06.21</time>
      </trkpt>
      <trkpt lat="32.86082" lon="35.25832333333334">
        <ele>149</ele>
        <time>2011-09-29T17:03:07.21</time>
      </trkpt>
      <trkpt lat="32.86082" lon="35.258325">
        <ele>149.5</ele>
        <time>2011-09-29T17:03:08.21</time>
      </trkpt>
      <trkpt lat="32.86081333333333" lon="35.258291666666665">
        <ele>149.5</ele>
        <time>2011-09-29T17:03:10.21</time>
      </trkpt>
      <trkpt lat="32.860815" lon="35.25828166666667">
        <ele>150</ele>
        <time>2011-09-29T17:03:11.21</time>
      </trkpt>
      <trkpt lat="32.860823333333336" lon="35.25828666666666">
        <ele>150.5</ele>
        <time>2011-09-29T17:03:12.20</time>
      </trkpt>
      <trkpt lat="32.86083" lon="35.2583">
        <ele>151</ele>
        <time>2011-09-29T17:03:13.21</time>
      </trkpt>
      <trkpt lat="32.860836666666664" lon="35.258313333333334">
        <ele>151.5</ele>
        <time>2011-09-29T17:03:14.21</time>
      </trkpt>
      <trkpt lat="32.86084" lon="35.258313333333334">
        <ele>152.5</ele>
        <time>2011-09-29T17:03:15.21</time>
      </trkpt>
      <trkpt lat="32.860843333333335" lon="35.258318333333335">
        <ele>153</ele>
        <time>2011-09-29T17:03:16.21</time>
      </trkpt>
      <trkpt lat="32.860836666666664" lon="35.258293333333334">
        <ele>153.5</ele>
        <time>2011-09-29T17:03:17.21</time>
      </trkpt>
      <trkpt lat="32.860836666666664" lon="35.258293333333334">
        <ele>154.5</ele>
        <time>2011-09-29T17:03:18.21</time>
      </trkpt>
      <trkpt lat="32.860838333333334" lon="35.258295">
        <ele>155</ele>
        <time>2011-09-29T17:03:19.21</time>
      </trkpt>
      <trkpt lat="32.860843333333335" lon="35.258295">
        <ele>156</ele>
        <time>2011-09-29T17:03:20.21</time>
      </trkpt>
      <trkpt lat="32.86084" lon="35.258273333333335">
        <ele>156</ele>
        <time>2011-09-29T17:03:21.21</time>
      </trkpt>
      <trkpt lat="32.86084" lon="35.258275">
        <ele>156</ele>
        <time>2011-09-29T17:03:22.20</time>
      </trkpt>
      <trkpt lat="32.86082666666667" lon="35.25823">
        <ele>156</ele>
        <time>2011-09-29T17:03:24.21</time>
      </trkpt>
      <trkpt lat="32.860823333333336" lon="35.25821">
        <ele>158.5</ele>
        <time>2011-09-29T17:03:27.21</time>
      </trkpt>
      <trkpt lat="32.86082" lon="35.25819833333333">
        <ele>160</ele>
        <time>2011-09-29T17:03:28.21</time>
      </trkpt>
      <trkpt lat="32.860818333333334" lon="35.25819166666667">
        <ele>162.5</ele>
        <time>2011-09-29T17:03:39.20</time>
      </trkpt>
      <trkpt lat="32.860816666666665" lon="35.25818">
        <ele>163.5</ele>
        <time>2011-09-29T17:03:40.20</time>
      </trkpt>
      <trkpt lat="32.860818333333334" lon="35.25816833333333">
        <ele>167</ele>
        <time>2011-09-29T17:03:52.20</time>
      </trkpt>
      <trkpt lat="32.86083" lon="35.258165">
        <ele>169.5</ele>
        <time>2011-09-29T17:03:53.20</time>
      </trkpt>
      <trkpt lat="32.860843333333335" lon="35.258158333333334">
        <ele>172.5</ele>
        <time>2011-09-29T17:03:55.20</time>
      </trkpt>
      <trkpt lat="32.86085166666667" lon="35.258155">
        <ele>178</ele>
        <time>2011-09-29T17:03:56.20</time>
      </trkpt>
      <trkpt lat="32.860866666666666" lon="35.25815166666667">
        <ele>183.5</ele>
        <time>2011-09-29T17:04:00.20</time>
      </trkpt>
      <trkpt lat="32.860865" lon="35.258175">
        <ele>184.5</ele>
        <time>2011-09-29T17:04:01.19</time>
      </trkpt>
      <trkpt lat="32.86087166666667" lon="35.25809666666667">
        <ele>191</ele>
        <time>2011-09-29T17:04:04.19</time>
      </trkpt>
      <trkpt lat="32.86087666666667" lon="35.258085">
        <ele>192</ele>
        <time>2011-09-29T17:04:05.19</time>
      </trkpt>
      <trkpt lat="32.86089" lon="35.25807666666667">
        <ele>192.5</ele>
        <time>2011-09-29T17:04:06.19</time>
      </trkpt>
      <trkpt lat="32.860905" lon="35.25807">
        <ele>192.5</ele>
        <time>2011-09-29T17:04:07.20</time>
      </trkpt>
      <trkpt lat="32.860913333333336" lon="35.258093333333335">
        <ele>193.5</ele>
        <time>2011-09-29T17:04:08.19</time>
      </trkpt>
      <trkpt lat="32.860926666666664" lon="35.25811">
        <ele>193.5</ele>
        <time>2011-09-29T17:04:09.19</time>
      </trkpt>
      <trkpt lat="32.86094" lon="35.25814">
        <ele>195</ele>
        <time>2011-09-29T17:04:10.19</time>
      </trkpt>
      <trkpt lat="32.86096333333333" lon="35.25815">
        <ele>196</ele>
        <time>2011-09-29T17:04:11.19</time>
      </trkpt>
      <trkpt lat="32.86100166666667" lon="35.25809">
        <ele>205</ele>
        <time>2011-09-29T17:04:13.19</time>
      </trkpt>
      <trkpt lat="32.861015" lon="35.25808">
        <ele>210</ele>
        <time>2011-09-29T17:04:14.19</time>
      </trkpt>
      <trkpt lat="32.86105166666667" lon="35.258008333333336">
        <ele>214.5</ele>
        <time>2011-09-29T17:04:16.19</time>
      </trkpt>
      <trkpt lat="32.861045" lon="35.257981666666666">
        <ele>217.5</ele>
        <time>2011-09-29T17:04:17.19</time>
      </trkpt>
      <trkpt lat="32.861025" lon="35.257935">
        <ele>218.5</ele>
        <time>2011-09-29T17:04:19.19</time>
      </trkpt>
      <trkpt lat="32.86101166666667" lon="35.257915">
        <ele>220</ele>
        <time>2011-09-29T17:04:20.19</time>
      </trkpt>
      <trkpt lat="32.86099" lon="35.25790833333333">
        <ele>219.5</ele>
        <time>2011-09-29T17:04:21.18</time>
      </trkpt>
      <trkpt lat="32.860973333333334" lon="35.25788333333333">
        <ele>221</ele>
        <time>2011-09-29T17:04:22.19</time>
      </trkpt>
      <trkpt lat="32.86096666666667" lon="35.257873333333336">
        <ele>222</ele>
        <time>2011-09-29T17:04:23.19</time>
      </trkpt>
      <trkpt lat="32.86094166666667" lon="35.25785333333334">
        <ele>224</ele>
        <time>2011-09-29T17:04:24.19</time>
      </trkpt>
      <trkpt lat="32.86093666666667" lon="35.25783666666667">
        <ele>227</ele>
        <time>2011-09-29T17:04:25.19</time>
      </trkpt>
      <trkpt lat="32.86093" lon="35.257798333333334">
        <ele>232</ele>
        <time>2011-09-29T17:04:26.19</time>
      </trkpt>
      <trkpt lat="32.860915" lon="35.257798333333334">
        <ele>246</ele>
        <time>2011-09-29T17:04:27.19</time>
      </trkpt>
      <trkpt lat="32.86091666666667" lon="35.257776666666665">
        <ele>246</ele>
        <time>2011-09-29T17:04:28.19</time>
      </trkpt>
      <trkpt lat="32.860926666666664" lon="35.257776666666665">
        <ele>246.5</ele>
        <time>2011-09-29T17:04:29.18</time>
      </trkpt>
      <trkpt lat="32.86094" lon="35.25778">
        <ele>248</ele>
        <time>2011-09-29T17:04:30.19</time>
      </trkpt>
      <trkpt lat="32.860953333333335" lon="35.257775">
        <ele>248.5</ele>
        <time>2011-09-29T17:04:31.19</time>
      </trkpt>
      <trkpt lat="32.860971666666664" lon="35.257781666666666">
        <ele>253.5</ele>
        <time>2011-09-29T17:04:32.19</time>
      </trkpt>
      <trkpt lat="32.860975" lon="35.25778833333333">
        <ele>255</ele>
        <time>2011-09-29T17:04:33.19</time>
      </trkpt>
      <trkpt lat="32.860971666666664" lon="35.25779">
        <ele>256</ele>
        <time>2011-09-29T17:04:34.18</time>
      </trkpt>
      <trkpt lat="32.86097" lon="35.25778833333333">
        <ele>257.5</ele>
        <time>2011-09-29T17:04:35.18</time>
      </trkpt>
      <trkpt lat="32.860976666666666" lon="35.25779166666667">
        <ele>259.5</ele>
        <time>2011-09-29T17:04:36.18</time>
      </trkpt>
      <trkpt lat="32.86098166666667" lon="35.257798333333334">
        <ele>261.5</ele>
        <time>2011-09-29T17:04:37.18</time>
      </trkpt>
      <trkpt lat="32.86101" lon="35.25781">
        <ele>270</ele>
        <time>2011-09-29T17:04:38.19</time>
      </trkpt>
      <trkpt lat="32.861021666666666" lon="35.25780833333334">
        <ele>270.5</ele>
        <time>2011-09-29T17:04:39.18</time>
      </trkpt>
      <trkpt lat="32.861036666666664" lon="35.25781">
        <ele>271</ele>
        <time>2011-09-29T17:04:40.18</time>
      </trkpt>
      <trkpt lat="32.86105833333333" lon="35.25781333333333">
        <ele>275</ele>
        <time>2011-09-29T17:04:41.18</time>
      </trkpt>
      <trkpt lat="32.861081666666664" lon="35.25781333333333">
        <ele>277</ele>
        <time>2011-09-29T17:04:42.18</time>
      </trkpt>
      <trkpt lat="32.861131666666665" lon="35.25777166666666">
        <ele>283</ele>
        <time>2011-09-29T17:04:44.18</time>
      </trkpt>
      <trkpt lat="32.861145" lon="35.257751666666664">
        <ele>285</ele>
        <time>2011-09-29T17:04:45.17</time>
      </trkpt>
      <trkpt lat="32.861153333333334" lon="35.257736666666666">
        <ele>287</ele>
        <time>2011-09-29T17:04:46.18</time>
      </trkpt>
      <trkpt lat="32.86116" lon="35.25772333333333">
        <ele>287.5</ele>
        <time>2011-09-29T17:04:47.18</time>
      </trkpt>
      <trkpt lat="32.86116833333333" lon="35.25770833333333">
        <ele>288</ele>
        <time>2011-09-29T17:04:48.18</time>
      </trkpt>
      <trkpt lat="32.86116333333333" lon="35.257648333333336">
        <ele>289.5</ele>
        <time>2011-09-29T17:04:50.18</time>
      </trkpt>
      <trkpt lat="32.861178333333335" lon="35.257605">
        <ele>293</ele>
        <time>2011-09-29T17:04:52.17</time>
      </trkpt>
      <trkpt lat="32.861178333333335" lon="35.25759333333333">
        <ele>293.5</ele>
        <time>2011-09-29T17:04:53.17</time>
      </trkpt>
      <trkpt lat="32.861178333333335" lon="35.25758">
        <ele>294.5</ele>
        <time>2011-09-29T17:04:54.18</time>
      </trkpt>
      <trkpt lat="32.861165" lon="35.257565">
        <ele>296</ele>
        <time>2011-09-29T17:04:55.17</time>
      </trkpt>
      <trkpt lat="32.861151666666665" lon="35.257545">
        <ele>297.5</ele>
        <time>2011-09-29T17:04:56.20</time>
      </trkpt>
      <trkpt lat="32.861156666666666" lon="35.257525">
        <ele>297.5</ele>
        <time>2011-09-29T17:04:57.17</time>
      </trkpt>
      <trkpt lat="32.86117" lon="35.2575">
        <ele>300</ele>
        <time>2011-09-29T17:04:58.18</time>
      </trkpt>
      <trkpt lat="32.861176666666665" lon="35.25747166666667">
        <ele>305</ele>
        <time>2011-09-29T17:04:59.17</time>
      </trkpt>
      <trkpt lat="32.86117333333333" lon="35.25746">
        <ele>306</ele>
        <time>2011-09-29T17:05:00.17</time>
      </trkpt>
      <trkpt lat="32.86116333333333" lon="35.257441666666665">
        <ele>307.5</ele>
        <time>2011-09-29T17:05:01.17</time>
      </trkpt>
      <trkpt lat="32.86116333333333" lon="35.257423333333335">
        <ele>308</ele>
        <time>2011-09-29T17:05:02.17</time>
      </trkpt>
      <trkpt lat="32.86116" lon="35.257405">
        <ele>308.5</ele>
        <time>2011-09-29T17:05:03.17</time>
      </trkpt>
      <trkpt lat="32.861153333333334" lon="35.257378333333335">
        <ele>311.5</ele>
        <time>2011-09-29T17:05:04.17</time>
      </trkpt>
      <trkpt lat="32.86114166666667" lon="35.257355">
        <ele>313</ele>
        <time>2011-09-29T17:05:05.18</time>
      </trkpt>
      <trkpt lat="32.86112833333333" lon="35.25733">
        <ele>314</ele>
        <time>2011-09-29T17:05:06.18</time>
      </trkpt>
      <trkpt lat="32.861111666666666" lon="35.257305">
        <ele>314.5</ele>
        <time>2011-09-29T17:05:07.18</time>
      </trkpt>
      <trkpt lat="32.861086666666665" lon="35.257281666666664">
        <ele>314.5</ele>
        <time>2011-09-29T17:05:08.17</time>
      </trkpt>
      <trkpt lat="32.861068333333336" lon="35.257263333333334">
        <ele>316</ele>
        <time>2011-09-29T17:05:09.17</time>
      </trkpt>
      <trkpt lat="32.86099" lon="35.25722666666667">
        <ele>313.5</ele>
        <time>2011-09-29T17:05:11.18</time>
      </trkpt>
      <trkpt lat="32.86095666666667" lon="35.25718333333333">
        <ele>311</ele>
        <time>2011-09-29T17:05:12.17</time>
      </trkpt>
      <trkpt lat="32.86094" lon="35.25714833333333">
        <ele>311.5</ele>
        <time>2011-09-29T17:05:13.17</time>
      </trkpt>
      <trkpt lat="32.860915" lon="35.257131666666666">
        <ele>311.5</ele>
        <time>2011-09-29T17:05:14.17</time>
      </trkpt>
      <trkpt lat="32.86090166666666" lon="35.257115">
        <ele>311.5</ele>
        <time>2011-09-29T17:05:15.17</time>
      </trkpt>
      <trkpt lat="32.860881666666664" lon="35.25709833333333">
        <ele>311.5</ele>
        <time>2011-09-29T17:05:18.89</time>
      </trkpt>
      <trkpt lat="32.86087333333333" lon="35.257086666666666">
        <ele>312.5</ele>
        <time>2011-09-29T17:05:19.10</time>
      </trkpt>
      <trkpt lat="32.860861666666665" lon="35.25707166666667">
        <ele>315.5</ele>
        <time>2011-09-29T17:05:20.10</time>
      </trkpt>
      <trkpt lat="32.860843333333335" lon="35.257063333333335">
        <ele>317</ele>
        <time>2011-09-29T17:05:21.88</time>
      </trkpt>
      <trkpt lat="32.86074166666667" lon="35.25705">
        <ele>318</ele>
        <time>2011-09-29T17:05:23.98</time>
      </trkpt>
      <trkpt lat="32.86069666666667" lon="35.257041666666666">
        <ele>317.5</ele>
        <time>2011-09-29T17:05:24.88</time>
      </trkpt>
      <trkpt lat="32.86066" lon="35.257023333333336">
        <ele>318</ele>
        <time>2011-09-29T17:05:25.98</time>
      </trkpt>
      <trkpt lat="32.86062833333333" lon="35.257005">
        <ele>319</ele>
        <time>2011-09-29T17:05:26.10</time>
      </trkpt>
      <trkpt lat="32.8606" lon="35.256995">
        <ele>318.5</ele>
        <time>2011-09-29T17:05:27.98</time>
      </trkpt>
      <trkpt lat="32.86058" lon="35.257">
        <ele>319.5</ele>
        <time>2011-09-29T17:05:28.98</time>
      </trkpt>
      <trkpt lat="32.860501666666664" lon="35.25696166666667">
        <ele>318.5</ele>
        <time>2011-09-29T17:05:30.98</time>
      </trkpt>
      <trkpt lat="32.860461666666666" lon="35.25693833333333">
        <ele>318</ele>
        <time>2011-09-29T17:05:31.10</time>
      </trkpt>
      <trkpt lat="32.86040833333333" lon="35.256926666666665">
        <ele>317.5</ele>
        <time>2011-09-29T17:05:32.98</time>
      </trkpt>
      <trkpt lat="32.86036333333333" lon="35.256906666666666">
        <ele>317</ele>
        <time>2011-09-29T17:05:33.98</time>
      </trkpt>
      <trkpt lat="32.86033333333334" lon="35.256885">
        <ele>317</ele>
        <time>2011-09-29T17:05:34.98</time>
      </trkpt>
      <trkpt lat="32.86031166666667" lon="35.256841666666666">
        <ele>317</ele>
        <time>2011-09-29T17:05:35.98</time>
      </trkpt>
      <trkpt lat="32.86027833333333" lon="35.256798333333336">
        <ele>315</ele>
        <time>2011-09-29T17:05:36.98</time>
      </trkpt>
      <trkpt lat="32.860265" lon="35.256755">
        <ele>316.5</ele>
        <time>2011-09-29T17:05:37.98</time>
      </trkpt>
      <trkpt lat="32.86024666666667" lon="35.25672333333333">
        <ele>318.5</ele>
        <time>2011-09-29T17:05:38.98</time>
      </trkpt>
      <trkpt lat="32.860235" lon="35.25669">
        <ele>320.5</ele>
        <time>2011-09-29T17:05:39.88</time>
      </trkpt>
      <trkpt lat="32.86022166666667" lon="35.25667">
        <ele>320.5</ele>
        <time>2011-09-29T17:05:40.88</time>
      </trkpt>
      <trkpt lat="32.86022833333333" lon="35.256661666666666">
        <ele>319.5</ele>
        <time>2011-09-29T17:05:41.98</time>
      </trkpt>
      <trkpt lat="32.860231666666664" lon="35.256645">
        <ele>317.5</ele>
        <time>2011-09-29T17:05:43.88</time>
      </trkpt>
      <trkpt lat="32.86022666666667" lon="35.25664666666667">
        <ele>315.5</ele>
        <time>2011-09-29T17:05:44.88</time>
      </trkpt>
      <trkpt lat="32.86022666666667" lon="35.256631666666664">
        <ele>314</ele>
        <time>2011-09-29T17:05:45.88</time>
      </trkpt>
      <trkpt lat="32.86024666666667" lon="35.256616666666666">
        <ele>314</ele>
        <time>2011-09-29T17:05:46.98</time>
      </trkpt>
      <trkpt lat="32.860255" lon="35.256595">
        <ele>314.5</ele>
        <time>2011-09-29T17:05:47.98</time>
      </trkpt>
      <trkpt lat="32.86024" lon="35.25656">
        <ele>314.5</ele>
        <time>2011-09-29T17:05:48.88</time>
      </trkpt>
      <trkpt lat="32.86023333333333" lon="35.25651666666667">
        <ele>315.5</ele>
        <time>2011-09-29T17:05:49.88</time>
      </trkpt>
      <trkpt lat="32.860216666666666" lon="35.256478333333334">
        <ele>315.5</ele>
        <time>2011-09-29T17:05:50.98</time>
      </trkpt>
      <trkpt lat="32.860205" lon="35.25644833333333">
        <ele>314.5</ele>
        <time>2011-09-29T17:05:51.98</time>
      </trkpt>
      <trkpt lat="32.86025166666667" lon="35.256365">
        <ele>316</ele>
        <time>2011-09-29T17:05:53.88</time>
      </trkpt>
      <trkpt lat="32.86024" lon="35.256325">
        <ele>317</ele>
        <time>2011-09-29T17:05:54.98</time>
      </trkpt>
      <trkpt lat="32.86024" lon="35.256278333333334">
        <ele>319.5</ele>
        <time>2011-09-29T17:05:55.98</time>
      </trkpt>
      <trkpt lat="32.86022" lon="35.256231666666665">
        <ele>318.5</ele>
        <time>2011-09-29T17:05:56.88</time>
      </trkpt>
      <trkpt lat="32.860215" lon="35.25618333333333">
        <ele>318.5</ele>
        <time>2011-09-29T17:05:57.98</time>
      </trkpt>
      <trkpt lat="32.86020833333333" lon="35.25613833333333">
        <ele>318.5</ele>
        <time>2011-09-29T17:05:58.98</time>
      </trkpt>
      <trkpt lat="32.860195" lon="35.25608833333333">
        <ele>319</ele>
        <time>2011-09-29T17:05:59.88</time>
      </trkpt>
      <trkpt lat="32.860185" lon="35.25604666666667">
        <ele>317.5</ele>
        <time>2011-09-29T17:06:00.88</time>
      </trkpt>
      <trkpt lat="32.86017833333333" lon="35.25600166666667">
        <ele>317.5</ele>
        <time>2011-09-29T17:06:01.98</time>
      </trkpt>
      <trkpt lat="32.860165" lon="35.25597166666667">
        <ele>315</ele>
        <time>2011-09-29T17:06:02.88</time>
      </trkpt>
      <trkpt lat="32.86014333333333" lon="35.25592666666667">
        <ele>314</ele>
        <time>2011-09-29T17:06:03.88</time>
      </trkpt>
      <trkpt lat="32.86013666666667" lon="35.25588166666667">
        <ele>313</ele>
        <time>2011-09-29T17:06:04.88</time>
      </trkpt>
      <trkpt lat="32.86013166666667" lon="35.25583">
        <ele>313</ele>
        <time>2011-09-29T17:06:05.88</time>
      </trkpt>
      <trkpt lat="32.86013166666667" lon="35.25577833333333">
        <ele>313</ele>
        <time>2011-09-29T17:06:06.88</time>
      </trkpt>
      <trkpt lat="32.860103333333335" lon="35.25572">
        <ele>313</ele>
        <time>2011-09-29T17:06:07.88</time>
      </trkpt>
      <trkpt lat="32.86008833333333" lon="35.25566">
        <ele>313</ele>
        <time>2011-09-29T17:06:08.88</time>
      </trkpt>
      <trkpt lat="32.860078333333334" lon="35.25559833333333">
        <ele>313</ele>
        <time>2011-09-29T17:06:09.88</time>
      </trkpt>
      <trkpt lat="32.86007" lon="35.255541666666666">
        <ele>312.5</ele>
        <time>2011-09-29T17:06:10.88</time>
      </trkpt>
      <trkpt lat="32.860045" lon="35.2555">
        <ele>310.5</ele>
        <time>2011-09-29T17:06:11.88</time>
      </trkpt>
      <trkpt lat="32.86002666666667" lon="35.25545">
        <ele>311</ele>
        <time>2011-09-29T17:06:12.88</time>
      </trkpt>
      <trkpt lat="32.86005333333333" lon="35.25533166666666">
        <ele>308</ele>
        <time>2011-09-29T17:06:14.88</time>
      </trkpt>
      <trkpt lat="32.860045" lon="35.25526833333333">
        <ele>308</ele>
        <time>2011-09-29T17:06:15.88</time>
      </trkpt>
      <trkpt lat="32.86003" lon="35.255215">
        <ele>308.5</ele>
        <time>2011-09-29T17:06:16.88</time>
      </trkpt>
      <trkpt lat="32.860018333333336" lon="35.25517333333333">
        <ele>308.5</ele>
        <time>2011-09-29T17:06:17.88</time>
      </trkpt>
      <trkpt lat="32.85999666666667" lon="35.255136666666665">
        <ele>308.5</ele>
        <time>2011-09-29T17:06:18.78</time>
      </trkpt>
      <trkpt lat="32.85998166666667" lon="35.2551">
        <ele>308.5</ele>
        <time>2011-09-29T17:06:19.78</time>
      </trkpt>
      <trkpt lat="32.859993333333335" lon="35.255073333333335">
        <ele>308.5</ele>
        <time>2011-09-29T17:06:20.88</time>
      </trkpt>
      <trkpt lat="32.86000666666666" lon="35.25505166666667">
        <ele>309</ele>
        <time>2011-09-29T17:06:21.88</time>
      </trkpt>
      <trkpt lat="32.860011666666665" lon="35.25503">
        <ele>309</ele>
        <time>2011-09-29T17:06:22.88</time>
      </trkpt>
      <trkpt lat="32.860025" lon="35.25501833333333">
        <ele>309</ele>
        <time>2011-09-29T17:06:23.78</time>
      </trkpt>
      <trkpt lat="32.860035" lon="35.255005">
        <ele>309</ele>
        <time>2011-09-29T17:06:24.88</time>
      </trkpt>
      <trkpt lat="32.86006666666667" lon="35.254958333333335">
        <ele>308.5</ele>
        <time>2011-09-29T17:06:26.88</time>
      </trkpt>
      <trkpt lat="32.860096666666664" lon="35.25492666666667">
        <ele>308</ele>
        <time>2011-09-29T17:06:27.78</time>
      </trkpt>
      <trkpt lat="32.86011666666667" lon="35.254873333333336">
        <ele>308.5</ele>
        <time>2011-09-29T17:06:28.88</time>
      </trkpt>
      <trkpt lat="32.860128333333336" lon="35.25485166666667">
        <ele>308</ele>
        <time>2011-09-29T17:06:29.88</time>
      </trkpt>
      <trkpt lat="32.86013" lon="35.25481666666666">
        <ele>308</ele>
        <time>2011-09-29T17:06:30.88</time>
      </trkpt>
      <trkpt lat="32.860128333333336" lon="35.25478833333333">
        <ele>308</ele>
        <time>2011-09-29T17:06:31.88</time>
      </trkpt>
      <trkpt lat="32.860128333333336" lon="35.254765">
        <ele>308</ele>
        <time>2011-09-29T17:06:32.88</time>
      </trkpt>
      <trkpt lat="32.860126666666666" lon="35.25474333333333">
        <ele>308</ele>
        <time>2011-09-29T17:06:33.78</time>
      </trkpt>
      <trkpt lat="32.860125" lon="35.254725">
        <ele>307.5</ele>
        <time>2011-09-29T17:06:34.78</time>
      </trkpt>
      <trkpt lat="32.860126666666666" lon="35.254713333333335">
        <ele>307.5</ele>
        <time>2011-09-29T17:06:35.78</time>
      </trkpt>
      <trkpt lat="32.86013" lon="35.25469833333333">
        <ele>308</ele>
        <time>2011-09-29T17:06:36.78</time>
      </trkpt>
      <trkpt lat="32.860145" lon="35.254578333333335">
        <ele>305</ele>
        <time>2011-09-29T17:06:38.78</time>
      </trkpt>
      <trkpt lat="32.86016166666667" lon="35.25456666666667">
        <ele>305</ele>
        <time>2011-09-29T17:06:39.78</time>
      </trkpt>
      <trkpt lat="32.86027333333333" lon="35.25434333333333">
        <ele>304.5</ele>
        <time>2011-09-29T17:06:42.78</time>
      </trkpt>
      <trkpt lat="32.86029833333333" lon="35.254263333333334">
        <ele>309.5</ele>
        <time>2011-09-29T17:06:44.78</time>
      </trkpt>
      <trkpt lat="32.860305" lon="35.25423833333333">
        <ele>311</ele>
        <time>2011-09-29T17:06:45.78</time>
      </trkpt>
      <trkpt lat="32.86031" lon="35.25422666666667">
        <ele>311</ele>
        <time>2011-09-29T17:06:46.78</time>
      </trkpt>
      <trkpt lat="32.860321666666664" lon="35.254218333333334">
        <ele>311</ele>
        <time>2011-09-29T17:06:47.68</time>
      </trkpt>
      <trkpt lat="32.86033833333333" lon="35.254191666666664">
        <ele>312</ele>
        <time>2011-09-29T17:06:48.78</time>
      </trkpt>
      <trkpt lat="32.86035" lon="35.25416833333333">
        <ele>312</ele>
        <time>2011-09-29T17:06:49.78</time>
      </trkpt>
      <trkpt lat="32.860348333333334" lon="35.25415">
        <ele>312.5</ele>
        <time>2011-09-29T17:06:50.78</time>
      </trkpt>
      <trkpt lat="32.86035666666667" lon="35.254145">
        <ele>312.5</ele>
        <time>2011-09-29T17:06:51.78</time>
      </trkpt>
      <trkpt lat="32.86038333333333" lon="35.25402833333333">
        <ele>313.5</ele>
        <time>2011-09-29T17:06:53.78</time>
      </trkpt>
      <trkpt lat="32.86038666666666" lon="35.25401333333333">
        <ele>313</ele>
        <time>2011-09-29T17:06:54.78</time>
      </trkpt>
      <trkpt lat="32.86040833333333" lon="35.253978333333336">
        <ele>313</ele>
        <time>2011-09-29T17:06:55.78</time>
      </trkpt>
      <trkpt lat="32.860488333333336" lon="35.253785">
        <ele>314</ele>
        <time>2011-09-29T17:06:58.78</time>
      </trkpt>
      <trkpt lat="32.86058666666667" lon="35.25369666666667">
        <ele>315.5</ele>
        <time>2011-09-29T17:07:00.78</time>
      </trkpt>
      <trkpt lat="32.860625" lon="35.253659999999996">
        <ele>315.5</ele>
        <time>2011-09-29T17:07:01.68</time>
      </trkpt>
      <trkpt lat="32.86065166666667" lon="35.253635">
        <ele>315</ele>
        <time>2011-09-29T17:07:02.78</time>
      </trkpt>
      <trkpt lat="32.86068" lon="35.253616666666666">
        <ele>315</ele>
        <time>2011-09-29T17:07:03.78</time>
      </trkpt>
      <trkpt lat="32.86069833333333" lon="35.25359666666667">
        <ele>315</ele>
        <time>2011-09-29T17:07:04.78</time>
      </trkpt>
      <trkpt lat="32.86071166666667" lon="35.25358666666666">
        <ele>315</ele>
        <time>2011-09-29T17:07:05.78</time>
      </trkpt>
      <trkpt lat="32.86073" lon="35.2536">
        <ele>314</ele>
        <time>2011-09-29T17:07:06.78</time>
      </trkpt>
      <trkpt lat="32.860773333333334" lon="35.25360333333333">
        <ele>313.5</ele>
        <time>2011-09-29T17:07:07.78</time>
      </trkpt>
      <trkpt lat="32.86081" lon="35.25360333333333">
        <ele>313.5</ele>
        <time>2011-09-29T17:07:08.78</time>
      </trkpt>
      <trkpt lat="32.86083166666667" lon="35.25361">
        <ele>313.5</ele>
        <time>2011-09-29T17:07:09.78</time>
      </trkpt>
      <trkpt lat="32.86085166666667" lon="35.253611666666664">
        <ele>313.5</ele>
        <time>2011-09-29T17:07:10.68</time>
      </trkpt>
      <trkpt lat="32.86087166666667" lon="35.25361">
        <ele>314</ele>
        <time>2011-09-29T17:07:11.78</time>
      </trkpt>
      <trkpt lat="32.86092" lon="35.253611666666664">
        <ele>314</ele>
        <time>2011-09-29T17:07:13.78</time>
      </trkpt>
      <trkpt lat="32.86094666666666" lon="35.25361">
        <ele>314</ele>
        <time>2011-09-29T17:07:14.68</time>
      </trkpt>
      <trkpt lat="32.86097" lon="35.25360833333333">
        <ele>314.5</ele>
        <time>2011-09-29T17:07:15.68</time>
      </trkpt>
      <trkpt lat="32.861005" lon="35.253615">
        <ele>314.5</ele>
        <time>2011-09-29T17:07:16.78</time>
      </trkpt>
      <trkpt lat="32.86102833333333" lon="35.253615">
        <ele>314.5</ele>
        <time>2011-09-29T17:07:17.78</time>
      </trkpt>
      <trkpt lat="32.861048333333336" lon="35.253616666666666">
        <ele>314.5</ele>
        <time>2011-09-29T17:07:18.68</time>
      </trkpt>
      <trkpt lat="32.86110166666667" lon="35.25353">
        <ele>316</ele>
        <time>2011-09-29T17:07:20.68</time>
      </trkpt>
      <trkpt lat="32.861111666666666" lon="35.253521666666664">
        <ele>316</ele>
        <time>2011-09-29T17:07:21.68</time>
      </trkpt>
      <trkpt lat="32.861131666666665" lon="35.25351333333333">
        <ele>316</ele>
        <time>2011-09-29T17:07:23.68</time>
      </trkpt>
      <trkpt lat="32.86114333333333" lon="35.253495">
        <ele>316.5</ele>
        <time>2011-09-29T17:07:24.96</time>
      </trkpt>
      <trkpt lat="32.861155" lon="35.25347">
        <ele>316.5</ele>
        <time>2011-09-29T17:07:26.78</time>
      </trkpt>
      <trkpt lat="32.861195" lon="35.253415">
        <ele>317</ele>
        <time>2011-09-29T17:07:28.58</time>
      </trkpt>
      <trkpt lat="32.86125666666667" lon="35.25335666666667">
        <ele>317</ele>
        <time>2011-09-29T17:07:30.68</time>
      </trkpt>
      <trkpt lat="32.86132666666666" lon="35.25330666666667">
        <ele>316.5</ele>
        <time>2011-09-29T17:07:32.68</time>
      </trkpt>
      <trkpt lat="32.86147166666667" lon="35.253185">
        <ele>319</ele>
        <time>2011-09-29T17:07:35.68</time>
      </trkpt>
      <trkpt lat="32.861488333333334" lon="35.25318166666667">
        <ele>319.5</ele>
        <time>2011-09-29T17:07:36.58</time>
      </trkpt>
      <trkpt lat="32.861505" lon="35.253165">
        <ele>319.5</ele>
        <time>2011-09-29T17:07:37.68</time>
      </trkpt>
      <trkpt lat="32.861533333333334" lon="35.25308166666667">
        <ele>319</ele>
        <time>2011-09-29T17:07:39.68</time>
      </trkpt>
      <trkpt lat="32.86154" lon="35.25304666666667">
        <ele>319</ele>
        <time>2011-09-29T17:07:40.68</time>
      </trkpt>
      <trkpt lat="32.861545" lon="35.25301833333333">
        <ele>319</ele>
        <time>2011-09-29T17:07:41.68</time>
      </trkpt>
      <trkpt lat="32.861556666666665" lon="35.25299166666667">
        <ele>319</ele>
        <time>2011-09-29T17:07:42.68</time>
      </trkpt>
      <trkpt lat="32.86156666666667" lon="35.252975">
        <ele>319</ele>
        <time>2011-09-29T17:07:43.58</time>
      </trkpt>
      <trkpt lat="32.86157" lon="35.25295">
        <ele>319.5</ele>
        <time>2011-09-29T17:07:44.68</time>
      </trkpt>
      <trkpt lat="32.861580000000004" lon="35.252916666666664">
        <ele>319</ele>
        <time>2011-09-29T17:07:45.68</time>
      </trkpt>
      <trkpt lat="32.86159333333333" lon="35.252806666666665">
        <ele>317</ele>
        <time>2011-09-29T17:07:47.78</time>
      </trkpt>
      <trkpt lat="32.8616" lon="35.252695">
        <ele>316</ele>
        <time>2011-09-29T17:07:49.58</time>
      </trkpt>
      <trkpt lat="32.861603333333335" lon="35.25263">
        <ele>316.5</ele>
        <time>2011-09-29T17:07:51.68</time>
      </trkpt>
      <trkpt lat="32.861605" lon="35.252613333333336">
        <ele>316.5</ele>
        <time>2011-09-29T17:07:52.58</time>
      </trkpt>
      <trkpt lat="32.861601666666665" lon="35.25259833333333">
        <ele>316.5</ele>
        <time>2011-09-29T17:07:53.58</time>
      </trkpt>
      <trkpt lat="32.86159833333333" lon="35.252586666666666">
        <ele>316.5</ele>
        <time>2011-09-29T17:07:54.58</time>
      </trkpt>
      <trkpt lat="32.861603333333335" lon="35.252523333333336">
        <ele>316</ele>
        <time>2011-09-29T17:07:56.58</time>
      </trkpt>
      <trkpt lat="32.861583333333336" lon="35.25251333333333">
        <ele>315.5</ele>
        <time>2011-09-29T17:07:57.58</time>
      </trkpt>
      <trkpt lat="32.86156" lon="35.25250833333333">
        <ele>316</ele>
        <time>2011-09-29T17:07:58.68</time>
      </trkpt>
      <trkpt lat="32.861536666666666" lon="35.252491666666664">
        <ele>316</ele>
        <time>2011-09-29T17:08:00.58</time>
      </trkpt>
      <trkpt lat="32.861515" lon="35.252478333333336">
        <ele>316</ele>
        <time>2011-09-29T17:08:01.58</time>
      </trkpt>
      <trkpt lat="32.861495" lon="35.252465">
        <ele>315.5</ele>
        <time>2011-09-29T17:08:02.58</time>
      </trkpt>
      <trkpt lat="32.861468333333335" lon="35.25244">
        <ele>315.5</ele>
        <time>2011-09-29T17:08:03.58</time>
      </trkpt>
      <trkpt lat="32.861445" lon="35.252426666666665">
        <ele>315.5</ele>
        <time>2011-09-29T17:08:04.58</time>
      </trkpt>
      <trkpt lat="32.861425" lon="35.25241666666667">
        <ele>316</ele>
        <time>2011-09-29T17:08:05.58</time>
      </trkpt>
      <trkpt lat="32.86134166666667" lon="35.25237">
        <ele>315.5</ele>
        <time>2011-09-29T17:08:07.58</time>
      </trkpt>
      <trkpt lat="32.861313333333335" lon="35.25236">
        <ele>315.5</ele>
        <time>2011-09-29T17:08:08.58</time>
      </trkpt>
      <trkpt lat="32.861291666666666" lon="35.252355">
        <ele>315.5</ele>
        <time>2011-09-29T17:08:09.58</time>
      </trkpt>
      <trkpt lat="32.86127" lon="35.25235">
        <ele>315.5</ele>
        <time>2011-09-29T17:08:10.58</time>
      </trkpt>
      <trkpt lat="32.86126" lon="35.252325">
        <ele>316</ele>
        <time>2011-09-29T17:08:11.48</time>
      </trkpt>
      <trkpt lat="32.86125166666667" lon="35.25232333333334">
        <ele>316.5</ele>
        <time>2011-09-29T17:08:12.58</time>
      </trkpt>
      <trkpt lat="32.861221666666665" lon="35.252315">
        <ele>316</ele>
        <time>2011-09-29T17:08:13.58</time>
      </trkpt>
      <trkpt lat="32.86121166666667" lon="35.252311666666664">
        <ele>316</ele>
        <time>2011-09-29T17:08:14.58</time>
      </trkpt>
      <trkpt lat="32.86118" lon="35.25231333333333">
        <ele>316.5</ele>
        <time>2011-09-29T17:08:15.48</time>
      </trkpt>
      <trkpt lat="32.86112833333333" lon="35.252316666666665">
        <ele>316</ele>
        <time>2011-09-29T17:08:16.34</time>
      </trkpt>
      <trkpt lat="32.86109666666667" lon="35.25232">
        <ele>316</ele>
        <time>2011-09-29T17:08:17.34</time>
      </trkpt>
      <trkpt lat="32.86098833333333" lon="35.25229">
        <ele>315</ele>
        <time>2011-09-29T17:08:19.34</time>
      </trkpt>
      <trkpt lat="32.86096333333333" lon="35.25228833333333">
        <ele>315</ele>
        <time>2011-09-29T17:08:20.35</time>
      </trkpt>
      <trkpt lat="32.86093666666667" lon="35.252293333333334">
        <ele>315</ele>
        <time>2011-09-29T17:08:21.33</time>
      </trkpt>
      <trkpt lat="32.860868333333336" lon="35.252235">
        <ele>316</ele>
        <time>2011-09-29T17:08:23.34</time>
      </trkpt>
      <trkpt lat="32.86083333333333" lon="35.25221">
        <ele>316</ele>
        <time>2011-09-29T17:08:24.34</time>
      </trkpt>
      <trkpt lat="32.86081" lon="35.25219166666667">
        <ele>316</ele>
        <time>2011-09-29T17:08:25.35</time>
      </trkpt>
      <trkpt lat="32.860785" lon="35.252175">
        <ele>315.5</ele>
        <time>2011-09-29T17:08:27.34</time>
      </trkpt>
      <trkpt lat="32.86076" lon="35.25216">
        <ele>315.5</ele>
        <time>2011-09-29T17:08:28.34</time>
      </trkpt>
      <trkpt lat="32.860733333333336" lon="35.25215166666667">
        <ele>315.5</ele>
        <time>2011-09-29T17:08:29.34</time>
      </trkpt>
      <trkpt lat="32.860708333333335" lon="35.25213333333333">
        <ele>313.5</ele>
        <time>2011-09-29T17:08:30.34</time>
      </trkpt>
      <trkpt lat="32.86067166666667" lon="35.25211">
        <ele>313.5</ele>
        <time>2011-09-29T17:08:31.34</time>
      </trkpt>
      <trkpt lat="32.86058166666667" lon="35.25206166666667">
        <ele>312</ele>
        <time>2011-09-29T17:08:33.34</time>
      </trkpt>
      <trkpt lat="32.860566666666664" lon="35.25205">
        <ele>312.5</ele>
        <time>2011-09-29T17:08:34.34</time>
      </trkpt>
      <trkpt lat="32.860548333333334" lon="35.25201833333333">
        <ele>312.5</ele>
        <time>2011-09-29T17:08:35.34</time>
      </trkpt>
      <trkpt lat="32.86053833333333" lon="35.25199833333333">
        <ele>312.5</ele>
        <time>2011-09-29T17:08:36.34</time>
      </trkpt>
      <trkpt lat="32.86053166666667" lon="35.25198666666667">
        <ele>313</ele>
        <time>2011-09-29T17:08:37.34</time>
      </trkpt>
      <trkpt lat="32.86052" lon="35.251961666666666">
        <ele>313.5</ele>
        <time>2011-09-29T17:08:38.34</time>
      </trkpt>
      <trkpt lat="32.86051" lon="35.25194333333334">
        <ele>313.5</ele>
        <time>2011-09-29T17:08:39.34</time>
      </trkpt>
      <trkpt lat="32.860353333333336" lon="35.251826666666666">
        <ele>313.5</ele>
        <time>2011-09-29T17:08:42.33</time>
      </trkpt>
      <trkpt lat="32.86033833333333" lon="35.251803333333335">
        <ele>313.5</ele>
        <time>2011-09-29T17:08:43.33</time>
      </trkpt>
      <trkpt lat="32.86028" lon="35.25176833333333">
        <ele>313</ele>
        <time>2011-09-29T17:08:45.34</time>
      </trkpt>
      <trkpt lat="32.860256666666665" lon="35.25175333333333">
        <ele>315</ele>
        <time>2011-09-29T17:08:46.33</time>
      </trkpt>
      <trkpt lat="32.86024666666667" lon="35.251725">
        <ele>314.5</ele>
        <time>2011-09-29T17:08:47.34</time>
      </trkpt>
      <trkpt lat="32.860193333333335" lon="35.25168333333333">
        <ele>315</ele>
        <time>2011-09-29T17:08:49.33</time>
      </trkpt>
      <trkpt lat="32.860173333333336" lon="35.251666666666665">
        <ele>315</ele>
        <time>2011-09-29T17:08:50.33</time>
      </trkpt>
      <trkpt lat="32.860165" lon="35.25165">
        <ele>315</ele>
        <time>2011-09-29T17:08:51.33</time>
      </trkpt>
      <trkpt lat="32.860166666666665" lon="35.25162666666667">
        <ele>315.5</ele>
        <time>2011-09-29T17:08:52.33</time>
      </trkpt>
      <trkpt lat="32.860168333333334" lon="35.251605">
        <ele>314.5</ele>
        <time>2011-09-29T17:08:53.33</time>
      </trkpt>
      <trkpt lat="32.86016333333333" lon="35.251578333333335">
        <ele>314.5</ele>
        <time>2011-09-29T17:08:54.33</time>
      </trkpt>
      <trkpt lat="32.86016" lon="35.25156">
        <ele>314.5</ele>
        <time>2011-09-29T17:08:55.33</time>
      </trkpt>
      <trkpt lat="32.86016" lon="35.25154166666667">
        <ele>314</ele>
        <time>2011-09-29T17:08:56.33</time>
      </trkpt>
      <trkpt lat="32.860153333333336" lon="35.25152333333333">
        <ele>313.5</ele>
        <time>2011-09-29T17:08:57.33</time>
      </trkpt>
      <trkpt lat="32.86015" lon="35.251511666666666">
        <ele>313</ele>
        <time>2011-09-29T17:08:58.33</time>
      </trkpt>
      <trkpt lat="32.860148333333335" lon="35.2515">
        <ele>312.5</ele>
        <time>2011-09-29T17:08:59.33</time>
      </trkpt>
      <trkpt lat="32.86013666666667" lon="35.25148166666666">
        <ele>312</ele>
        <time>2011-09-29T17:09:00.34</time>
      </trkpt>
      <trkpt lat="32.860135" lon="35.251461666666664">
        <ele>311.5</ele>
        <time>2011-09-29T17:09:01.33</time>
      </trkpt>
      <trkpt lat="32.86013333333333" lon="35.25145166666667">
        <ele>311.5</ele>
        <time>2011-09-29T17:09:02.32</time>
      </trkpt>
      <trkpt lat="32.860125" lon="35.251443333333334">
        <ele>311.5</ele>
        <time>2011-09-29T17:09:03.33</time>
      </trkpt>
      <trkpt lat="32.860081666666666" lon="35.251355">
        <ele>312</ele>
        <time>2011-09-29T17:09:05.33</time>
      </trkpt>
      <trkpt lat="32.86006166666667" lon="35.25131666666667">
        <ele>312</ele>
        <time>2011-09-29T17:09:06.33</time>
      </trkpt>
      <trkpt lat="32.860058333333335" lon="35.251275">
        <ele>312</ele>
        <time>2011-09-29T17:09:08.33</time>
      </trkpt>
      <trkpt lat="32.86006166666667" lon="35.251263333333334">
        <ele>312.5</ele>
        <time>2011-09-29T17:09:09.33</time>
      </trkpt>
      <trkpt lat="32.860063333333336" lon="35.25124">
        <ele>312</ele>
        <time>2011-09-29T17:09:10.33</time>
      </trkpt>
      <trkpt lat="32.860065" lon="35.251225">
        <ele>312</ele>
        <time>2011-09-29T17:09:11.33</time>
      </trkpt>
      <trkpt lat="32.860078333333334" lon="35.25123">
        <ele>312.5</ele>
        <time>2011-09-29T17:09:12.33</time>
      </trkpt>
      <trkpt lat="32.86024166666667" lon="35.25130333333333">
        <ele>314</ele>
        <time>2011-09-29T17:09:16.33</time>
      </trkpt>
      <trkpt lat="32.860301666666665" lon="35.251345">
        <ele>316.5</ele>
        <time>2011-09-29T17:09:19.33</time>
      </trkpt>
      <trkpt lat="32.86031333333333" lon="35.25134333333333">
        <ele>317</ele>
        <time>2011-09-29T17:09:20.33</time>
      </trkpt>
      <trkpt lat="32.86033833333333" lon="35.251351666666665">
        <ele>317.5</ele>
        <time>2011-09-29T17:09:21.33</time>
      </trkpt>
      <trkpt lat="32.86037" lon="35.251353333333334">
        <ele>319</ele>
        <time>2011-09-29T17:09:22.33</time>
      </trkpt>
      <trkpt lat="32.86045" lon="35.2514">
        <ele>320</ele>
        <time>2011-09-29T17:09:24.33</time>
      </trkpt>
      <trkpt lat="32.86045333333333" lon="35.25136666666667">
        <ele>320</ele>
        <time>2011-09-29T17:09:27.32</time>
      </trkpt>
      <trkpt lat="32.86044666666667" lon="35.251325">
        <ele>320.5</ele>
        <time>2011-09-29T17:09:28.32</time>
      </trkpt>
      <trkpt lat="32.86044833333333" lon="35.25129666666667">
        <ele>320.5</ele>
        <time>2011-09-29T17:09:29.32</time>
      </trkpt>
      <trkpt lat="32.86043333333333" lon="35.251263333333334">
        <ele>320.5</ele>
        <time>2011-09-29T17:09:30.33</time>
      </trkpt>
      <trkpt lat="32.86043" lon="35.251243333333335">
        <ele>320.5</ele>
        <time>2011-09-29T17:09:31.33</time>
      </trkpt>
      <trkpt lat="32.86042" lon="35.251223333333336">
        <ele>320</ele>
        <time>2011-09-29T17:09:32.32</time>
      </trkpt>
      <trkpt lat="32.860418333333335" lon="35.25121166666667">
        <ele>320.5</ele>
        <time>2011-09-29T17:09:33.32</time>
      </trkpt>
      <trkpt lat="32.860416666666666" lon="35.251203333333336">
        <ele>320.5</ele>
        <time>2011-09-29T17:09:34.32</time>
      </trkpt>
      <trkpt lat="32.86039666666667" lon="35.25117">
        <ele>320.5</ele>
        <time>2011-09-29T17:09:35.59</time>
      </trkpt>
      <trkpt lat="32.86038333333333" lon="35.251145">
        <ele>320.5</ele>
        <time>2011-09-29T17:09:36.32</time>
      </trkpt>
      <trkpt lat="32.860375" lon="35.251105">
        <ele>320.5</ele>
        <time>2011-09-29T17:09:37.32</time>
      </trkpt>
      <trkpt lat="32.86039" lon="35.25106">
        <ele>320.5</ele>
        <time>2011-09-29T17:09:38.32</time>
      </trkpt>
      <trkpt lat="32.8604" lon="35.251018333333334">
        <ele>320.5</ele>
        <time>2011-09-29T17:09:39.32</time>
      </trkpt>
      <trkpt lat="32.860425" lon="35.250886666666666">
        <ele>320</ele>
        <time>2011-09-29T17:09:41.32</time>
      </trkpt>
      <trkpt lat="32.860415" lon="35.250843333333336">
        <ele>320.5</ele>
        <time>2011-09-29T17:09:42.32</time>
      </trkpt>
      <trkpt lat="32.86040333333333" lon="35.25078833333333">
        <ele>321</ele>
        <time>2011-09-29T17:09:43.32</time>
      </trkpt>
      <trkpt lat="32.86040333333333" lon="35.25065333333333">
        <ele>322.5</ele>
        <time>2011-09-29T17:09:45.32</time>
      </trkpt>
      <trkpt lat="32.860395" lon="35.250591666666665">
        <ele>321.5</ele>
        <time>2011-09-29T17:09:46.32</time>
      </trkpt>
      <trkpt lat="32.86038833333333" lon="35.250553333333336">
        <ele>322</ele>
        <time>2011-09-29T17:09:47.32</time>
      </trkpt>
      <trkpt lat="32.860405" lon="35.250528333333335">
        <ele>321.5</ele>
        <time>2011-09-29T17:09:48.32</time>
      </trkpt>
      <trkpt lat="32.86040166666667" lon="35.25051">
        <ele>321.5</ele>
        <time>2011-09-29T17:09:49.33</time>
      </trkpt>
      <trkpt lat="32.860395" lon="35.25049166666667">
        <ele>321.5</ele>
        <time>2011-09-29T17:09:50.32</time>
      </trkpt>
      <trkpt lat="32.86038666666666" lon="35.250476666666664">
        <ele>321.5</ele>
        <time>2011-09-29T17:09:51.32</time>
      </trkpt>
      <trkpt lat="32.860416666666666" lon="35.25046833333333">
        <ele>321.5</ele>
        <time>2011-09-29T17:09:52.32</time>
      </trkpt>
      <trkpt lat="32.86038333333333" lon="35.250425">
        <ele>321.5</ele>
        <time>2011-09-29T17:09:54.39</time>
      </trkpt>
      <trkpt lat="32.860371666666666" lon="35.250418333333336">
        <ele>321.5</ele>
        <time>2011-09-29T17:09:55.32</time>
      </trkpt>
      <trkpt lat="32.860368333333334" lon="35.25038333333333">
        <ele>322.5</ele>
        <time>2011-09-29T17:09:56.32</time>
      </trkpt>
      <trkpt lat="32.860355" lon="35.250366666666665">
        <ele>322.5</ele>
        <time>2011-09-29T17:09:57.32</time>
      </trkpt>
      <trkpt lat="32.860213333333334" lon="35.25027333333333">
        <ele>325</ele>
        <time>2011-09-29T17:10:00.31</time>
      </trkpt>
      <trkpt lat="32.859941666666664" lon="35.250078333333335">
        <ele>321.5</ele>
        <time>2011-09-29T17:10:04.31</time>
      </trkpt>
      <trkpt lat="32.859825" lon="35.24995333333333">
        <ele>321</ele>
        <time>2011-09-29T17:10:06.32</time>
      </trkpt>
      <trkpt lat="32.859725" lon="35.249895">
        <ele>319.5</ele>
        <time>2011-09-29T17:10:08.31</time>
      </trkpt>
      <trkpt lat="32.859698333333334" lon="35.24986">
        <ele>319</ele>
        <time>2011-09-29T17:10:09.33</time>
      </trkpt>
      <trkpt lat="32.859651666666664" lon="35.24978333333333">
        <ele>317</ele>
        <time>2011-09-29T17:10:11.32</time>
      </trkpt>
      <trkpt lat="32.859613333333336" lon="35.249703333333336">
        <ele>317</ele>
        <time>2011-09-29T17:10:13.31</time>
      </trkpt>
      <trkpt lat="32.85959" lon="35.24967">
        <ele>316</ele>
        <time>2011-09-29T17:10:14.31</time>
      </trkpt>
      <trkpt lat="32.85957333333333" lon="35.24965">
        <ele>316</ele>
        <time>2011-09-29T17:10:15.31</time>
      </trkpt>
      <trkpt lat="32.85955833333333" lon="35.249631666666666">
        <ele>316</ele>
        <time>2011-09-29T17:10:16.33</time>
      </trkpt>
      <trkpt lat="32.859543333333335" lon="35.24961666666667">
        <ele>316</ele>
        <time>2011-09-29T17:10:17.30</time>
      </trkpt>
      <trkpt lat="32.85952833333333" lon="35.24959333333334">
        <ele>316.5</ele>
        <time>2011-09-29T17:10:18.31</time>
      </trkpt>
      <trkpt lat="32.859485" lon="35.249581666666664">
        <ele>317</ele>
        <time>2011-09-29T17:10:19.31</time>
      </trkpt>
      <trkpt lat="32.859445" lon="35.24957166666667">
        <ele>317.5</ele>
        <time>2011-09-29T17:10:20.31</time>
      </trkpt>
      <trkpt lat="32.85941166666667" lon="35.249563333333334">
        <ele>318</ele>
        <time>2011-09-29T17:10:21.31</time>
      </trkpt>
      <trkpt lat="32.859363333333334" lon="35.249535">
        <ele>319</ele>
        <time>2011-09-29T17:10:22.32</time>
      </trkpt>
      <trkpt lat="32.85932666666667" lon="35.249535">
        <ele>320</ele>
        <time>2011-09-29T17:10:23.49</time>
      </trkpt>
      <trkpt lat="32.8593" lon="35.249536666666664">
        <ele>320</ele>
        <time>2011-09-29T17:10:24.31</time>
      </trkpt>
      <trkpt lat="32.859271666666665" lon="35.24954">
        <ele>320</ele>
        <time>2011-09-29T17:10:25.32</time>
      </trkpt>
      <trkpt lat="32.85923666666667" lon="35.24953166666667">
        <ele>320</ele>
        <time>2011-09-29T17:10:26.31</time>
      </trkpt>
      <trkpt lat="32.8592" lon="35.24952833333333">
        <ele>319.5</ele>
        <time>2011-09-29T17:10:27.47</time>
      </trkpt>
      <trkpt lat="32.859093333333334" lon="35.24951333333333">
        <ele>319.5</ele>
        <time>2011-09-29T17:10:29.31</time>
      </trkpt>
      <trkpt lat="32.859053333333335" lon="35.2495">
        <ele>319</ele>
        <time>2011-09-29T17:10:30.31</time>
      </trkpt>
      <trkpt lat="32.85901333333333" lon="35.249495">
        <ele>319</ele>
        <time>2011-09-29T17:10:31.41</time>
      </trkpt>
      <trkpt lat="32.85897833333333" lon="35.249495">
        <ele>319</ele>
        <time>2011-09-29T17:10:32.31</time>
      </trkpt>
      <trkpt lat="32.85893333333333" lon="35.24948333333333">
        <ele>319.5</ele>
        <time>2011-09-29T17:10:33.31</time>
      </trkpt>
      <trkpt lat="32.85883166666667" lon="35.24947">
        <ele>318.5</ele>
        <time>2011-09-29T17:10:35.31</time>
      </trkpt>
      <trkpt lat="32.858815" lon="35.24945666666667">
        <ele>316.5</ele>
        <time>2011-09-29T17:10:36.31</time>
      </trkpt>
      <trkpt lat="32.858738333333335" lon="35.249428333333334">
        <ele>314.5</ele>
        <time>2011-09-29T17:10:38.58</time>
      </trkpt>
      <trkpt lat="32.85870833333333" lon="35.24941166666667">
        <ele>313</ele>
        <time>2011-09-29T17:10:39.31</time>
      </trkpt>
      <trkpt lat="32.85869833333334" lon="35.24937666666667">
        <ele>311</ele>
        <time>2011-09-29T17:10:40.30</time>
      </trkpt>
      <trkpt lat="32.85855333333333" lon="35.24905666666667">
        <ele>300</ele>
        <time>2011-09-29T17:10:44.30</time>
      </trkpt>
      <trkpt lat="32.85853" lon="35.248918333333336">
        <ele>298</ele>
        <time>2011-09-29T17:10:46.30</time>
      </trkpt>
      <trkpt lat="32.858525" lon="35.248865">
        <ele>297</ele>
        <time>2011-09-29T17:10:47.31</time>
      </trkpt>
      <trkpt lat="32.85855" lon="35.248823333333334">
        <ele>297</ele>
        <time>2011-09-29T17:10:48.40</time>
      </trkpt>
      <trkpt lat="32.85856166666667" lon="35.248775">
        <ele>295.5</ele>
        <time>2011-09-29T17:10:49.31</time>
      </trkpt>
      <trkpt lat="32.858575" lon="35.248745">
        <ele>295.5</ele>
        <time>2011-09-29T17:10:50.31</time>
      </trkpt>
      <trkpt lat="32.85859166666667" lon="35.24872">
        <ele>295</ele>
        <time>2011-09-29T17:10:51.31</time>
      </trkpt>
      <trkpt lat="32.858518333333336" lon="35.24861">
        <ele>295</ele>
        <time>2011-09-29T17:10:53.30</time>
      </trkpt>
      <trkpt lat="32.85850333333333" lon="35.24856666666667">
        <ele>296</ele>
        <time>2011-09-29T17:10:54.31</time>
      </trkpt>
      <trkpt lat="32.858495" lon="35.24853">
        <ele>295.5</ele>
        <time>2011-09-29T17:10:55.30</time>
      </trkpt>
      <trkpt lat="32.85850833333333" lon="35.24849">
        <ele>295.5</ele>
        <time>2011-09-29T17:10:56.30</time>
      </trkpt>
      <trkpt lat="32.85850333333333" lon="35.24843833333333">
        <ele>294.5</ele>
        <time>2011-09-29T17:10:57.30</time>
      </trkpt>
      <trkpt lat="32.85850166666667" lon="35.248398333333334">
        <ele>294.5</ele>
        <time>2011-09-29T17:10:58.30</time>
      </trkpt>
      <trkpt lat="32.858513333333335" lon="35.248285">
        <ele>294.5</ele>
        <time>2011-09-29T17:11:00.30</time>
      </trkpt>
      <trkpt lat="32.85854333333333" lon="35.24823833333333">
        <ele>294</ele>
        <time>2011-09-29T17:11:01.53</time>
      </trkpt>
      <trkpt lat="32.85857166666667" lon="35.248205">
        <ele>294</ele>
        <time>2011-09-29T17:11:02.30</time>
      </trkpt>
      <trkpt lat="32.858596666666664" lon="35.248178333333335">
        <ele>294</ele>
        <time>2011-09-29T17:11:03.30</time>
      </trkpt>
      <trkpt lat="32.85864333333333" lon="35.24812">
        <ele>294</ele>
        <time>2011-09-29T17:11:05.34</time>
      </trkpt>
      <trkpt lat="32.85867666666667" lon="35.24809333333334">
        <ele>294.5</ele>
        <time>2011-09-29T17:11:06.30</time>
      </trkpt>
      <trkpt lat="32.858693333333335" lon="35.248075">
        <ele>294.5</ele>
        <time>2011-09-29T17:11:07.29</time>
      </trkpt>
      <trkpt lat="32.858713333333334" lon="35.24806">
        <ele>295</ele>
        <time>2011-09-29T17:11:08.30</time>
      </trkpt>
      <trkpt lat="32.85879" lon="35.247978333333336">
        <ele>295</ele>
        <time>2011-09-29T17:11:10.33</time>
      </trkpt>
      <trkpt lat="32.85881666666667" lon="35.24794833333333">
        <ele>295</ele>
        <time>2011-09-29T17:11:11.29</time>
      </trkpt>
      <trkpt lat="32.85888666666666" lon="35.24787666666667">
        <ele>295.5</ele>
        <time>2011-09-29T17:11:13.30</time>
      </trkpt>
      <trkpt lat="32.858938333333334" lon="35.24783333333333">
        <ele>295.5</ele>
        <time>2011-09-29T17:11:14.30</time>
      </trkpt>
      <trkpt lat="32.858981666666665" lon="35.24780833333333">
        <ele>295.5</ele>
        <time>2011-09-29T17:11:15.30</time>
      </trkpt>
      <trkpt lat="32.85905833333333" lon="35.24780666666667">
        <ele>295.5</ele>
        <time>2011-09-29T17:11:17.29</time>
      </trkpt>
      <trkpt lat="32.859091666666664" lon="35.247823333333336">
        <ele>295.5</ele>
        <time>2011-09-29T17:11:18.29</time>
      </trkpt>
      <trkpt lat="32.85912166666667" lon="35.247835">
        <ele>296</ele>
        <time>2011-09-29T17:11:19.30</time>
      </trkpt>
      <trkpt lat="32.859165" lon="35.24784666666667">
        <ele>296</ele>
        <time>2011-09-29T17:11:21.56</time>
      </trkpt>
      <trkpt lat="32.85919333333333" lon="35.247805">
        <ele>294.5</ele>
        <time>2011-09-29T17:11:23.29</time>
      </trkpt>
      <trkpt lat="32.85922333333333" lon="35.24776">
        <ele>293.5</ele>
        <time>2011-09-29T17:11:25.33</time>
      </trkpt>
      <trkpt lat="32.85923666666667" lon="35.24772">
        <ele>291.5</ele>
        <time>2011-09-29T17:11:27.29</time>
      </trkpt>
      <trkpt lat="32.85925666666667" lon="35.247695">
        <ele>290.5</ele>
        <time>2011-09-29T17:11:30.29</time>
      </trkpt>
      <trkpt lat="32.85933833333333" lon="35.24767833333333">
        <ele>286.5</ele>
        <time>2011-09-29T17:11:32.29</time>
      </trkpt>
      <trkpt lat="32.85935666666666" lon="35.24769166666667">
        <ele>286.5</ele>
        <time>2011-09-29T17:11:33.29</time>
      </trkpt>
      <trkpt lat="32.85937166666667" lon="35.24769166666667">
        <ele>286</ele>
        <time>2011-09-29T17:11:34.29</time>
      </trkpt>
      <trkpt lat="32.85944166666667" lon="35.24768666666667">
        <ele>284</ele>
        <time>2011-09-29T17:11:36.29</time>
      </trkpt>
      <trkpt lat="32.859515" lon="35.247616666666666">
        <ele>283</ele>
        <time>2011-09-29T17:11:39.25</time>
      </trkpt>
      <trkpt lat="32.85958" lon="35.24758">
        <ele>282.5</ele>
        <time>2011-09-29T17:11:41.24</time>
      </trkpt>
      <trkpt lat="32.85958333333333" lon="35.247555">
        <ele>282</ele>
        <time>2011-09-29T17:11:42.25</time>
      </trkpt>
      <trkpt lat="32.85960166666667" lon="35.24754333333333">
        <ele>282</ele>
        <time>2011-09-29T17:11:43.35</time>
      </trkpt>
      <trkpt lat="32.859611666666666" lon="35.24754">
        <ele>282</ele>
        <time>2011-09-29T17:11:44.24</time>
      </trkpt>
      <trkpt lat="32.85964333333333" lon="35.247535">
        <ele>281.5</ele>
        <time>2011-09-29T17:11:45.24</time>
      </trkpt>
      <trkpt lat="32.85966333333333" lon="35.24752333333333">
        <ele>282.5</ele>
        <time>2011-09-29T17:11:46.23</time>
      </trkpt>
      <trkpt lat="32.860045" lon="35.247495">
        <ele>285.5</ele>
        <time>2011-09-29T17:11:50.24</time>
      </trkpt>
      <trkpt lat="32.86017" lon="35.247395">
        <ele>284.5</ele>
        <time>2011-09-29T17:11:52.24</time>
      </trkpt>
      <trkpt lat="32.860213333333334" lon="35.247348333333335">
        <ele>284.5</ele>
        <time>2011-09-29T17:11:53.24</time>
      </trkpt>
      <trkpt lat="32.86024833333333" lon="35.247305">
        <ele>285</ele>
        <time>2011-09-29T17:11:54.24</time>
      </trkpt>
      <trkpt lat="32.860305" lon="35.247283333333336">
        <ele>285</ele>
        <time>2011-09-29T17:11:56.47</time>
      </trkpt>
      <trkpt lat="32.86033666666667" lon="35.24728833333333">
        <ele>285</ele>
        <time>2011-09-29T17:11:57.24</time>
      </trkpt>
      <trkpt lat="32.86037833333334" lon="35.24725166666666">
        <ele>283.5</ele>
        <time>2011-09-29T17:11:58.23</time>
      </trkpt>
      <trkpt lat="32.86040166666667" lon="35.247233333333334">
        <ele>283</ele>
        <time>2011-09-29T17:11:59.23</time>
      </trkpt>
      <trkpt lat="32.86013666666667" lon="35.24688166666667">
        <ele>279.5</ele>
        <time>2011-09-29T17:12:04.24</time>
      </trkpt>
      <trkpt lat="32.860145" lon="35.24684">
        <ele>278.5</ele>
        <time>2011-09-29T17:12:05.23</time>
      </trkpt>
      <trkpt lat="32.860126666666666" lon="35.246793333333336">
        <ele>276.5</ele>
        <time>2011-09-29T17:12:06.23</time>
      </trkpt>
      <trkpt lat="32.860145" lon="35.24677">
        <ele>276.5</ele>
        <time>2011-09-29T17:12:07.23</time>
      </trkpt>
      <trkpt lat="32.86014333333333" lon="35.24675333333333">
        <ele>277</ele>
        <time>2011-09-29T17:12:08.23</time>
      </trkpt>
      <trkpt lat="32.860128333333336" lon="35.24673833333333">
        <ele>277</ele>
        <time>2011-09-29T17:12:09.22</time>
      </trkpt>
      <trkpt lat="32.860055" lon="35.24646333333333">
        <ele>278.5</ele>
        <time>2011-09-29T17:12:14.23</time>
      </trkpt>
      <trkpt lat="32.86007" lon="35.246471666666665">
        <ele>278.5</ele>
        <time>2011-09-29T17:12:15.23</time>
      </trkpt>
      <trkpt lat="32.860075" lon="35.24646833333333">
        <ele>279</ele>
        <time>2011-09-29T17:12:16.23</time>
      </trkpt>
      <trkpt lat="32.860076666666664" lon="35.24646666666667">
        <ele>279</ele>
        <time>2011-09-29T17:12:17.23</time>
      </trkpt>
      <trkpt lat="32.860083333333336" lon="35.24646333333333">
        <ele>280</ele>
        <time>2011-09-29T17:12:18.23</time>
      </trkpt>
      <trkpt lat="32.860081666666666" lon="35.246465">
        <ele>280</ele>
        <time>2011-09-29T17:12:19.22</time>
      </trkpt>
      <trkpt lat="32.86008666666667" lon="35.24645666666667">
        <ele>280</ele>
        <time>2011-09-29T17:12:20.23</time>
      </trkpt>
      <trkpt lat="32.86008666666667" lon="35.246453333333335">
        <ele>280.5</ele>
        <time>2011-09-29T17:12:21.23</time>
      </trkpt>
      <trkpt lat="32.86008666666667" lon="35.24646166666667">
        <ele>280.5</ele>
        <time>2011-09-29T17:12:22.23</time>
      </trkpt>
      <trkpt lat="32.86009" lon="35.246465">
        <ele>280.5</ele>
        <time>2011-09-29T17:12:23.23</time>
      </trkpt>
      <trkpt lat="32.86008666666667" lon="35.24646666666667">
        <ele>280.5</ele>
        <time>2011-09-29T17:12:24.23</time>
      </trkpt>
      <trkpt lat="32.86008666666667" lon="35.24646833333333">
        <ele>280.5</ele>
        <time>2011-09-29T17:12:25.24</time>
      </trkpt>
      <trkpt lat="32.860085" lon="35.24646666666667">
        <ele>280</ele>
        <time>2011-09-29T17:12:26.23</time>
      </trkpt>
      <trkpt lat="32.86009" lon="35.24646166666667">
        <ele>280.5</ele>
        <time>2011-09-29T17:12:27.37</time>
      </trkpt>
      <trkpt lat="32.86013333333333" lon="35.24643666666667">
        <ele>281</ele>
        <time>2011-09-29T17:12:29.22</time>
      </trkpt>
      <trkpt lat="32.860153333333336" lon="35.24644166666667">
        <ele>281</ele>
        <time>2011-09-29T17:12:30.22</time>
      </trkpt>
      <trkpt lat="32.86018" lon="35.24645666666667">
        <ele>282</ele>
        <time>2011-09-29T17:12:31.23</time>
      </trkpt>
      <trkpt lat="32.860285" lon="35.246476666666666">
        <ele>285</ele>
        <time>2011-09-29T17:12:33.23</time>
      </trkpt>
      <trkpt lat="32.860345" lon="35.24645666666667">
        <ele>285.5</ele>
        <time>2011-09-29T17:12:34.23</time>
      </trkpt>
      <trkpt lat="32.86037666666667" lon="35.246453333333335">
        <ele>286</ele>
        <time>2011-09-29T17:12:36.23</time>
      </trkpt>
      <trkpt lat="32.86038833333333" lon="35.24645833333334">
        <ele>285.5</ele>
        <time>2011-09-29T17:12:37.23</time>
      </trkpt>
      <trkpt lat="32.860416666666666" lon="35.246475">
        <ele>285.5</ele>
        <time>2011-09-29T17:12:38.47</time>
      </trkpt>
      <trkpt lat="32.86044833333333" lon="35.246495">
        <ele>285.5</ele>
        <time>2011-09-29T17:12:39.22</time>
      </trkpt>
      <trkpt lat="32.86047666666666" lon="35.24650833333333">
        <ele>285.5</ele>
        <time>2011-09-29T17:12:40.22</time>
      </trkpt>
      <trkpt lat="32.860598333333336" lon="35.246523333333336">
        <ele>285</ele>
        <time>2011-09-29T17:12:42.22</time>
      </trkpt>
      <trkpt lat="32.860641666666666" lon="35.246498333333335">
        <ele>284.5</ele>
        <time>2011-09-29T17:12:43.22</time>
      </trkpt>
      <trkpt lat="32.86069166666667" lon="35.246475">
        <ele>285.5</ele>
        <time>2011-09-29T17:12:44.22</time>
      </trkpt>
      <trkpt lat="32.860771666666665" lon="35.24655">
        <ele>284</ele>
        <time>2011-09-29T17:12:46.45</time>
      </trkpt>
      <trkpt lat="32.86080833333333" lon="35.246561666666665">
        <ele>283.5</ele>
        <time>2011-09-29T17:12:47.23</time>
      </trkpt>
      <trkpt lat="32.86085" lon="35.246586666666666">
        <ele>282.5</ele>
        <time>2011-09-29T17:12:48.23</time>
      </trkpt>
      <trkpt lat="32.860886666666666" lon="35.24661666666667">
        <ele>281</ele>
        <time>2011-09-29T17:12:49.23</time>
      </trkpt>
      <trkpt lat="32.86092333333333" lon="35.246615">
        <ele>281</ele>
        <time>2011-09-29T17:12:50.23</time>
      </trkpt>
      <trkpt lat="32.860951666666665" lon="35.246615">
        <ele>280.5</ele>
        <time>2011-09-29T17:12:51.23</time>
      </trkpt>
      <trkpt lat="32.861035" lon="35.246665">
        <ele>278.5</ele>
        <time>2011-09-29T17:12:53.22</time>
      </trkpt>
      <trkpt lat="32.86110166666667" lon="35.24677166666667">
        <ele>277.5</ele>
        <time>2011-09-29T17:12:55.22</time>
      </trkpt>
      <trkpt lat="32.86112333333333" lon="35.24682166666667">
        <ele>277.5</ele>
        <time>2011-09-29T17:12:56.22</time>
      </trkpt>
      <trkpt lat="32.86113666666667" lon="35.24687">
        <ele>277.5</ele>
        <time>2011-09-29T17:12:57.23</time>
      </trkpt>
      <trkpt lat="32.86116166666667" lon="35.246895">
        <ele>277.5</ele>
        <time>2011-09-29T17:12:58.33</time>
      </trkpt>
      <trkpt lat="32.86119" lon="35.246925">
        <ele>277.5</ele>
        <time>2011-09-29T17:12:59.22</time>
      </trkpt>
      <trkpt lat="32.86121" lon="35.24695166666667">
        <ele>277</ele>
        <time>2011-09-29T17:13:00.21</time>
      </trkpt>
      <trkpt lat="32.86123166666667" lon="35.246993333333336">
        <ele>278</ele>
        <time>2011-09-29T17:13:01.45</time>
      </trkpt>
      <trkpt lat="32.861248333333336" lon="35.24701666666667">
        <ele>277</ele>
        <time>2011-09-29T17:13:02.22</time>
      </trkpt>
      <trkpt lat="32.86134" lon="35.247076666666665">
        <ele>277.5</ele>
        <time>2011-09-29T17:13:04.22</time>
      </trkpt>
      <trkpt lat="32.86136166666667" lon="35.24710833333334">
        <ele>280.5</ele>
        <time>2011-09-29T17:13:05.22</time>
      </trkpt>
      <trkpt lat="32.861383333333336" lon="35.247123333333334">
        <ele>281</ele>
        <time>2011-09-29T17:13:06.22</time>
      </trkpt>
      <trkpt lat="32.861403333333335" lon="35.24713666666667">
        <ele>281.5</ele>
        <time>2011-09-29T17:13:07.22</time>
      </trkpt>
      <trkpt lat="32.86143" lon="35.24713666666667">
        <ele>280</ele>
        <time>2011-09-29T17:13:09.23</time>
      </trkpt>
      <trkpt lat="32.861466666666665" lon="35.247013333333335">
        <ele>278</ele>
        <time>2011-09-29T17:13:11.22</time>
      </trkpt>
      <trkpt lat="32.86143666666667" lon="35.24691333333333">
        <ele>276.5</ele>
        <time>2011-09-29T17:13:13.22</time>
      </trkpt>
      <trkpt lat="32.86143666666667" lon="35.24689166666667">
        <ele>276</ele>
        <time>2011-09-29T17:13:14.22</time>
      </trkpt>
      <trkpt lat="32.861445" lon="35.246871666666664">
        <ele>275.5</ele>
        <time>2011-09-29T17:13:15.42</time>
      </trkpt>
      <trkpt lat="32.86150666666666" lon="35.24683">
        <ele>275</ele>
        <time>2011-09-29T17:13:17.21</time>
      </trkpt>
      <trkpt lat="32.86153" lon="35.24645">
        <ele>272.5</ele>
        <time>2011-09-29T17:13:21.21</time>
      </trkpt>
      <trkpt lat="32.86154166666667" lon="35.24639">
        <ele>272</ele>
        <time>2011-09-29T17:13:22.21</time>
      </trkpt>
      <trkpt lat="32.86156166666667" lon="35.24634833333333">
        <ele>271.5</ele>
        <time>2011-09-29T17:13:23.22</time>
      </trkpt>
      <trkpt lat="32.861581666666666" lon="35.24632166666667">
        <ele>271.5</ele>
        <time>2011-09-29T17:13:24.21</time>
      </trkpt>
      <trkpt lat="32.86161" lon="35.24626">
        <ele>269.5</ele>
        <time>2011-09-29T17:13:26.31</time>
      </trkpt>
      <trkpt lat="32.86164333333333" lon="35.246208333333335">
        <ele>269.5</ele>
        <time>2011-09-29T17:13:27.22</time>
      </trkpt>
      <trkpt lat="32.861756666666665" lon="35.246138333333334">
        <ele>269</ele>
        <time>2011-09-29T17:13:33.23</time>
      </trkpt>
      <trkpt lat="32.861781666666666" lon="35.246145">
        <ele>269</ele>
        <time>2011-09-29T17:13:34.21</time>
      </trkpt>
      <trkpt lat="32.861795" lon="35.246136666666665">
        <ele>269</ele>
        <time>2011-09-29T17:13:35.39</time>
      </trkpt>
      <trkpt lat="32.86190666666667" lon="35.245975">
        <ele>272</ele>
        <time>2011-09-29T17:13:38.21</time>
      </trkpt>
      <trkpt lat="32.86192333333334" lon="35.24594666666667">
        <ele>271.5</ele>
        <time>2011-09-29T17:13:39.21</time>
      </trkpt>
      <trkpt lat="32.86192666666667" lon="35.24592666666667">
        <ele>271</ele>
        <time>2011-09-29T17:13:40.21</time>
      </trkpt>
      <trkpt lat="32.861916666666666" lon="35.24583333333333">
        <ele>271</ele>
        <time>2011-09-29T17:13:42.24</time>
      </trkpt>
      <trkpt lat="32.861905" lon="35.24581166666667">
        <ele>271.5</ele>
        <time>2011-09-29T17:13:43.21</time>
      </trkpt>
      <trkpt lat="32.86188666666666" lon="35.24577">
        <ele>269.5</ele>
        <time>2011-09-29T17:13:44.57</time>
      </trkpt>
      <trkpt lat="32.861875" lon="35.24574333333333">
        <ele>269</ele>
        <time>2011-09-29T17:13:45.20</time>
      </trkpt>
      <trkpt lat="32.861855" lon="35.245735">
        <ele>268.5</ele>
        <time>2011-09-29T17:13:46.21</time>
      </trkpt>
      <trkpt lat="32.86183" lon="35.24572666666667">
        <ele>268</ele>
        <time>2011-09-29T17:13:47.21</time>
      </trkpt>
      <trkpt lat="32.861775" lon="35.245685">
        <ele>264</ele>
        <time>2011-09-29T17:13:49.20</time>
      </trkpt>
      <trkpt lat="32.861758333333334" lon="35.245675">
        <ele>263.5</ele>
        <time>2011-09-29T17:13:51.20</time>
      </trkpt>
      <trkpt lat="32.86174" lon="35.245623333333334">
        <ele>261</ele>
        <time>2011-09-29T17:13:52.20</time>
      </trkpt>
      <trkpt lat="32.86170166666667" lon="35.24554333333333">
        <ele>259</ele>
        <time>2011-09-29T17:13:54.21</time>
      </trkpt>
      <trkpt lat="32.86169833333334" lon="35.24552333333333">
        <ele>258.5</ele>
        <time>2011-09-29T17:13:55.21</time>
      </trkpt>
      <trkpt lat="32.86167666666667" lon="35.24547333333334">
        <ele>258</ele>
        <time>2011-09-29T17:13:57.21</time>
      </trkpt>
      <trkpt lat="32.86165333333334" lon="35.24534833333333">
        <ele>257</ele>
        <time>2011-09-29T17:13:59.21</time>
      </trkpt>
      <trkpt lat="32.86161833333333" lon="35.245088333333335">
        <ele>252.5</ele>
        <time>2011-09-29T17:14:02.20</time>
      </trkpt>
      <trkpt lat="32.861628333333336" lon="35.24494333333333">
        <ele>252</ele>
        <time>2011-09-29T17:14:04.21</time>
      </trkpt>
      <trkpt lat="32.861641666666664" lon="35.244855">
        <ele>250</ele>
        <time>2011-09-29T17:14:06.20</time>
      </trkpt>
      <trkpt lat="32.86170166666667" lon="35.24460166666667">
        <ele>247</ele>
        <time>2011-09-29T17:14:09.21</time>
      </trkpt>
      <trkpt lat="32.86172166666667" lon="35.244545">
        <ele>246.5</ele>
        <time>2011-09-29T17:14:10.20</time>
      </trkpt>
      <trkpt lat="32.861718333333336" lon="35.24449">
        <ele>242.5</ele>
        <time>2011-09-29T17:14:12.20</time>
      </trkpt>
      <trkpt lat="32.861705" lon="35.244455">
        <ele>241</ele>
        <time>2011-09-29T17:14:13.20</time>
      </trkpt>
      <trkpt lat="32.86170333333333" lon="35.24441">
        <ele>241</ele>
        <time>2011-09-29T17:14:14.19</time>
      </trkpt>
      <trkpt lat="32.86172166666667" lon="35.24437833333333">
        <ele>240.5</ele>
        <time>2011-09-29T17:14:15.20</time>
      </trkpt>
      <trkpt lat="32.861725" lon="35.244335">
        <ele>240</ele>
        <time>2011-09-29T17:14:16.20</time>
      </trkpt>
      <trkpt lat="32.861705" lon="35.24428666666667">
        <ele>239.5</ele>
        <time>2011-09-29T17:14:17.20</time>
      </trkpt>
      <trkpt lat="32.86168166666667" lon="35.24425">
        <ele>240</ele>
        <time>2011-09-29T17:14:18.20</time>
      </trkpt>
      <trkpt lat="32.86157" lon="35.24418166666667">
        <ele>240.5</ele>
        <time>2011-09-29T17:14:20.20</time>
      </trkpt>
      <trkpt lat="32.861531666666664" lon="35.24415333333334">
        <ele>240</ele>
        <time>2011-09-29T17:14:21.20</time>
      </trkpt>
      <trkpt lat="32.86139333333333" lon="35.244121666666665">
        <ele>240.5</ele>
        <time>2011-09-29T17:14:23.19</time>
      </trkpt>
      <trkpt lat="32.86127" lon="35.24406333333334">
        <ele>242</ele>
        <time>2011-09-29T17:14:25.21</time>
      </trkpt>
      <trkpt lat="32.861241666666665" lon="35.244078333333334">
        <ele>243</ele>
        <time>2011-09-29T17:14:26.20</time>
      </trkpt>
      <trkpt lat="32.86120833333333" lon="35.244081666666666">
        <ele>244.5</ele>
        <time>2011-09-29T17:14:27.20</time>
      </trkpt>
      <trkpt lat="32.86118166666667" lon="35.244076666666665">
        <ele>245</ele>
        <time>2011-09-29T17:14:28.20</time>
      </trkpt>
      <trkpt lat="32.86116" lon="35.244076666666665">
        <ele>245</ele>
        <time>2011-09-29T17:14:29.20</time>
      </trkpt>
      <trkpt lat="32.861126666666664" lon="35.24404666666667">
        <ele>242.5</ele>
        <time>2011-09-29T17:14:31.39</time>
      </trkpt>
      <trkpt lat="32.86111" lon="35.24402">
        <ele>240</ele>
        <time>2011-09-29T17:14:32.20</time>
      </trkpt>
      <trkpt lat="32.8611" lon="35.24398333333333">
        <ele>237.5</ele>
        <time>2011-09-29T17:14:33.20</time>
      </trkpt>
      <trkpt lat="32.86118666666667" lon="35.243715">
        <ele>231.5</ele>
        <time>2011-09-29T17:14:36.38</time>
      </trkpt>
      <trkpt lat="32.861178333333335" lon="35.24363666666667">
        <ele>232</ele>
        <time>2011-09-29T17:14:37.20</time>
      </trkpt>
      <trkpt lat="32.86116166666667" lon="35.243565">
        <ele>231.5</ele>
        <time>2011-09-29T17:14:38.20</time>
      </trkpt>
      <trkpt lat="32.861165" lon="35.243496666666665">
        <ele>232</ele>
        <time>2011-09-29T17:14:39.19</time>
      </trkpt>
      <trkpt lat="32.86117333333333" lon="35.24343833333333">
        <ele>232.5</ele>
        <time>2011-09-29T17:14:40.19</time>
      </trkpt>
      <trkpt lat="32.86117333333333" lon="35.24337833333333">
        <ele>232.5</ele>
        <time>2011-09-29T17:14:41.19</time>
      </trkpt>
      <trkpt lat="32.861155" lon="35.243338333333334">
        <ele>231.5</ele>
        <time>2011-09-29T17:14:42.20</time>
      </trkpt>
      <trkpt lat="32.86114" lon="35.24328833333333">
        <ele>231.5</ele>
        <time>2011-09-29T17:14:43.19</time>
      </trkpt>
      <trkpt lat="32.86112" lon="35.243245">
        <ele>230.5</ele>
        <time>2011-09-29T17:14:44.34</time>
      </trkpt>
      <trkpt lat="32.861113333333336" lon="35.243188333333336">
        <ele>229.5</ele>
        <time>2011-09-29T17:14:45.19</time>
      </trkpt>
      <trkpt lat="32.861145" lon="35.243055">
        <ele>230.5</ele>
        <time>2011-09-29T17:14:47.36</time>
      </trkpt>
      <trkpt lat="32.861156666666666" lon="35.24301">
        <ele>230.5</ele>
        <time>2011-09-29T17:14:48.43</time>
      </trkpt>
      <trkpt lat="32.86116666666667" lon="35.242975">
        <ele>230.5</ele>
        <time>2011-09-29T17:14:49.20</time>
      </trkpt>
      <trkpt lat="32.86116666666667" lon="35.242945">
        <ele>230.5</ele>
        <time>2011-09-29T17:14:50.43</time>
      </trkpt>
      <trkpt lat="32.861176666666665" lon="35.24292">
        <ele>230.5</ele>
        <time>2011-09-29T17:14:51.19</time>
      </trkpt>
      <trkpt lat="32.86119166666667" lon="35.2429">
        <ele>229.5</ele>
        <time>2011-09-29T17:14:52.19</time>
      </trkpt>
      <trkpt lat="32.861185" lon="35.24290333333333">
        <ele>227.5</ele>
        <time>2011-09-29T17:14:53.19</time>
      </trkpt>
      <trkpt lat="32.86118" lon="35.242918333333336">
        <ele>225</ele>
        <time>2011-09-29T17:14:54.19</time>
      </trkpt>
      <trkpt lat="32.86118" lon="35.24292833333333">
        <ele>223</ele>
        <time>2011-09-29T17:14:55.19</time>
      </trkpt>
      <trkpt lat="32.86118666666667" lon="35.242931666666664">
        <ele>222.5</ele>
        <time>2011-09-29T17:14:56.19</time>
      </trkpt>
      <trkpt lat="32.86119166666667" lon="35.24294833333333">
        <ele>221</ele>
        <time>2011-09-29T17:14:57.19</time>
      </trkpt>
      <trkpt lat="32.861195" lon="35.242963333333336">
        <ele>221</ele>
        <time>2011-09-29T17:14:58.19</time>
      </trkpt>
      <trkpt lat="32.861195" lon="35.24297333333333">
        <ele>220</ele>
        <time>2011-09-29T17:14:59.18</time>
      </trkpt>
      <trkpt lat="32.86118166666667" lon="35.242961666666666">
        <ele>219</ele>
        <time>2011-09-29T17:15:00.19</time>
      </trkpt>
      <trkpt lat="32.861178333333335" lon="35.242958333333334">
        <ele>219</ele>
        <time>2011-09-29T17:15:01.18</time>
      </trkpt>
      <trkpt lat="32.86118" lon="35.24296">
        <ele>218.5</ele>
        <time>2011-09-29T17:15:02.18</time>
      </trkpt>
      <trkpt lat="32.86118166666667" lon="35.24296666666667">
        <ele>218</ele>
        <time>2011-09-29T17:15:03.19</time>
      </trkpt>
      <trkpt lat="32.861178333333335" lon="35.24296666666667">
        <ele>218</ele>
        <time>2011-09-29T17:15:04.19</time>
      </trkpt>
      <trkpt lat="32.861176666666665" lon="35.24296666666667">
        <ele>218</ele>
        <time>2011-09-29T17:15:05.18</time>
      </trkpt>
      <trkpt lat="32.86118" lon="35.242965">
        <ele>217.5</ele>
        <time>2011-09-29T17:15:06.19</time>
      </trkpt>
      <trkpt lat="32.86118" lon="35.24297166666667">
        <ele>215</ele>
        <time>2011-09-29T17:15:07.18</time>
      </trkpt>
      <trkpt lat="32.861171666666664" lon="35.242963333333336">
        <ele>215</ele>
        <time>2011-09-29T17:15:08.18</time>
      </trkpt>
      <trkpt lat="32.861171666666664" lon="35.24296">
        <ele>215</ele>
        <time>2011-09-29T17:15:09.18</time>
      </trkpt>
      <trkpt lat="32.86116666666667" lon="35.24291">
        <ele>216.5</ele>
        <time>2011-09-29T17:15:11.19</time>
      </trkpt>
      <trkpt lat="32.86116166666667" lon="35.242913333333334">
        <ele>216</ele>
        <time>2011-09-29T17:15:12.18</time>
      </trkpt>
      <trkpt lat="32.861156666666666" lon="35.242914999999996">
        <ele>215.5</ele>
        <time>2011-09-29T17:15:13.18</time>
      </trkpt>
      <trkpt lat="32.861158333333336" lon="35.242918333333336">
        <ele>215</ele>
        <time>2011-09-29T17:15:14.18</time>
      </trkpt>
      <trkpt lat="32.86117" lon="35.24293">
        <ele>214.5</ele>
        <time>2011-09-29T17:15:15.18</time>
      </trkpt>
      <trkpt lat="32.86117" lon="35.242935">
        <ele>214.5</ele>
        <time>2011-09-29T17:15:16.18</time>
      </trkpt>
      <trkpt lat="32.861171666666664" lon="35.242943333333336">
        <ele>214</ele>
        <time>2011-09-29T17:15:17.18</time>
      </trkpt>
      <trkpt lat="32.86117" lon="35.24294666666667">
        <ele>214</ele>
        <time>2011-09-29T17:15:18.18</time>
      </trkpt>
      <trkpt lat="32.86117" lon="35.24295">
        <ele>213.5</ele>
        <time>2011-09-29T17:15:19.18</time>
      </trkpt>
      <trkpt lat="32.86117333333333" lon="35.242961666666666">
        <ele>213</ele>
        <time>2011-09-29T17:15:20.18</time>
      </trkpt>
      <trkpt lat="32.861175" lon="35.242965">
        <ele>213.5</ele>
        <time>2011-09-29T17:15:21.18</time>
      </trkpt>
      <trkpt lat="32.861176666666665" lon="35.24296833333333">
        <ele>213</ele>
        <time>2011-09-29T17:15:22.18</time>
      </trkpt>
      <trkpt lat="32.86117" lon="35.242961666666666">
        <ele>213</ele>
        <time>2011-09-29T17:15:23.18</time>
      </trkpt>
      <trkpt lat="32.86116666666667" lon="35.242955">
        <ele>213.5</ele>
        <time>2011-09-29T17:15:24.18</time>
      </trkpt>
      <trkpt lat="32.86116666666667" lon="35.242961666666666">
        <ele>214</ele>
        <time>2011-09-29T17:15:25.18</time>
      </trkpt>
      <trkpt lat="32.861158333333336" lon="35.242955">
        <ele>213.5</ele>
        <time>2011-09-29T17:15:26.17</time>
      </trkpt>
      <trkpt lat="32.861165" lon="35.24296">
        <ele>214</ele>
        <time>2011-09-29T17:15:27.18</time>
      </trkpt>
      <trkpt lat="32.86116833333333" lon="35.24296666666667">
        <ele>213.5</ele>
        <time>2011-09-29T17:15:28.18</time>
      </trkpt>
      <trkpt lat="32.86117" lon="35.24297166666667">
        <ele>213</ele>
        <time>2011-09-29T17:15:29.18</time>
      </trkpt>
      <trkpt lat="32.861171666666664" lon="35.242975">
        <ele>213</ele>
        <time>2011-09-29T17:15:30.18</time>
      </trkpt>
      <trkpt lat="32.86117" lon="35.24297833333333">
        <ele>213</ele>
        <time>2011-09-29T17:15:31.18</time>
      </trkpt>
      <trkpt lat="32.86116833333333" lon="35.24297333333333">
        <ele>212.5</ele>
        <time>2011-09-29T17:15:32.17</time>
      </trkpt>
      <trkpt lat="32.86116833333333" lon="35.242981666666665">
        <ele>212</ele>
        <time>2011-09-29T17:15:33.17</time>
      </trkpt>
      <trkpt lat="32.86116666666667" lon="35.242983333333335">
        <ele>212</ele>
        <time>2011-09-29T17:15:34.18</time>
      </trkpt>
      <trkpt lat="32.861165" lon="35.24297833333333">
        <ele>212.5</ele>
        <time>2011-09-29T17:15:35.17</time>
      </trkpt>
      <trkpt lat="32.86116333333333" lon="35.24296666666667">
        <ele>212</ele>
        <time>2011-09-29T17:15:36.18</time>
      </trkpt>
      <trkpt lat="32.86116166666667" lon="35.242965">
        <ele>212.5</ele>
        <time>2011-09-29T17:15:37.18</time>
      </trkpt>
      <trkpt lat="32.861158333333336" lon="35.242963333333336">
        <ele>213.5</ele>
        <time>2011-09-29T17:15:38.18</time>
      </trkpt>
      <trkpt lat="32.861156666666666" lon="35.242956666666664">
        <ele>214.5</ele>
        <time>2011-09-29T17:15:39.17</time>
      </trkpt>
      <trkpt lat="32.861158333333336" lon="35.24295333333333">
        <ele>214</ele>
        <time>2011-09-29T17:15:40.17</time>
      </trkpt>
      <trkpt lat="32.861153333333334" lon="35.24294166666667">
        <ele>215.5</ele>
        <time>2011-09-29T17:15:41.17</time>
      </trkpt>
      <trkpt lat="32.86114833333333" lon="35.24295333333333">
        <ele>216</ele>
        <time>2011-09-29T17:15:42.17</time>
      </trkpt>
      <trkpt lat="32.861133333333335" lon="35.242945">
        <ele>216.5</ele>
        <time>2011-09-29T17:15:43.17</time>
      </trkpt>
      <trkpt lat="32.861125" lon="35.24294166666667">
        <ele>216</ele>
        <time>2011-09-29T17:15:44.18</time>
      </trkpt>
      <trkpt lat="32.86112" lon="35.24292333333333">
        <ele>216</ele>
        <time>2011-09-29T17:15:45.39</time>
      </trkpt>
      <trkpt lat="32.86111666666667" lon="35.24290333333333">
        <ele>216</ele>
        <time>2011-09-29T17:15:46.17</time>
      </trkpt>
      <trkpt lat="32.86111" lon="35.24288333333333">
        <ele>216.5</ele>
        <time>2011-09-29T17:15:47.18</time>
      </trkpt>
      <trkpt lat="32.86109833333333" lon="35.242868333333334">
        <ele>216.5</ele>
        <time>2011-09-29T17:15:48.40</time>
      </trkpt>
      <trkpt lat="32.86109166666667" lon="35.24284">
        <ele>216.5</ele>
        <time>2011-09-29T17:15:49.17</time>
      </trkpt>
      <trkpt lat="32.861088333333335" lon="35.24281833333333">
        <ele>217</ele>
        <time>2011-09-29T17:15:50.17</time>
      </trkpt>
      <trkpt lat="32.8611" lon="35.24280666666667">
        <ele>217</ele>
        <time>2011-09-29T17:15:51.29</time>
      </trkpt>
      <trkpt lat="32.8611" lon="35.2428">
        <ele>217</ele>
        <time>2011-09-29T17:15:52.17</time>
      </trkpt>
      <trkpt lat="32.86107166666667" lon="35.24276833333333">
        <ele>217.5</ele>
        <time>2011-09-29T17:15:54.17</time>
      </trkpt>
      <trkpt lat="32.861061666666664" lon="35.24274333333334">
        <ele>217.5</ele>
        <time>2011-09-29T17:15:55.17</time>
      </trkpt>
      <trkpt lat="32.861041666666665" lon="35.24272666666667">
        <ele>217.5</ele>
        <time>2011-09-29T17:15:56.17</time>
      </trkpt>
      <trkpt lat="32.861025" lon="35.24270833333333">
        <ele>217.5</ele>
        <time>2011-09-29T17:15:57.31</time>
      </trkpt>
      <trkpt lat="32.86101166666667" lon="35.242688333333334">
        <ele>217</ele>
        <time>2011-09-29T17:15:58.17</time>
      </trkpt>
      <trkpt lat="32.860998333333335" lon="35.24268">
        <ele>217</ele>
        <time>2011-09-29T17:15:59.40</time>
      </trkpt>
      <trkpt lat="32.86098833333333" lon="35.242668333333334">
        <ele>217</ele>
        <time>2011-09-29T17:16:00.17</time>
      </trkpt>
      <trkpt lat="32.860971666666664" lon="35.242641666666664">
        <ele>217</ele>
        <time>2011-09-29T17:16:01.17</time>
      </trkpt>
      <trkpt lat="32.86096166666667" lon="35.242623333333334">
        <ele>217</ele>
        <time>2011-09-29T17:16:02.44</time>
      </trkpt>
      <trkpt lat="32.86096166666667" lon="35.242605">
        <ele>215.5</ele>
        <time>2011-09-29T17:16:03.17</time>
      </trkpt>
      <trkpt lat="32.86096333333333" lon="35.24259">
        <ele>215.5</ele>
        <time>2011-09-29T17:16:04.17</time>
      </trkpt>
      <trkpt lat="32.86096333333333" lon="35.24258">
        <ele>215.5</ele>
        <time>2011-09-29T17:16:05.17</time>
      </trkpt>
      <trkpt lat="32.86095666666667" lon="35.24257166666667">
        <ele>215.5</ele>
        <time>2011-09-29T17:16:06.17</time>
      </trkpt>
      <trkpt lat="32.86093666666667" lon="35.24255">
        <ele>214</ele>
        <time>2011-09-29T17:16:07.20</time>
      </trkpt>
      <trkpt lat="32.860915" lon="35.24252833333333">
        <ele>213</ele>
        <time>2011-09-29T17:16:08.36</time>
      </trkpt>
      <trkpt lat="32.860883333333334" lon="35.242455">
        <ele>211</ele>
        <time>2011-09-29T17:16:10.17</time>
      </trkpt>
      <trkpt lat="32.86085666666666" lon="35.24243666666667">
        <ele>210.5</ele>
        <time>2011-09-29T17:16:11.30</time>
      </trkpt>
      <trkpt lat="32.860836666666664" lon="35.242415">
        <ele>211</ele>
        <time>2011-09-29T17:16:12.17</time>
      </trkpt>
      <trkpt lat="32.860818333333334" lon="35.242385">
        <ele>211</ele>
        <time>2011-09-29T17:16:13.17</time>
      </trkpt>
      <trkpt lat="32.860816666666665" lon="35.242351666666664">
        <ele>211</ele>
        <time>2011-09-29T17:16:14.17</time>
      </trkpt>
      <trkpt lat="32.860815" lon="35.24232166666667">
        <ele>211.5</ele>
        <time>2011-09-29T17:16:15.43</time>
      </trkpt>
      <trkpt lat="32.86080666666667" lon="35.242293333333336">
        <ele>211</ele>
        <time>2011-09-29T17:16:16.17</time>
      </trkpt>
      <trkpt lat="32.86079333333333" lon="35.24227833333333">
        <ele>211.5</ele>
        <time>2011-09-29T17:16:17.17</time>
      </trkpt>
      <trkpt lat="32.860798333333335" lon="35.24226">
        <ele>212</ele>
        <time>2011-09-29T17:16:18.17</time>
      </trkpt>
      <trkpt lat="32.86078333333333" lon="35.24223166666667">
        <ele>212.5</ele>
        <time>2011-09-29T17:16:19.34</time>
      </trkpt>
      <trkpt lat="32.86077" lon="35.242205">
        <ele>212.5</ele>
        <time>2011-09-29T17:16:20.16</time>
      </trkpt>
      <trkpt lat="32.860755" lon="35.242176666666666">
        <ele>212</ele>
        <time>2011-09-29T17:16:21.17</time>
      </trkpt>
      <trkpt lat="32.86074333333333" lon="35.242155">
        <ele>211</ele>
        <time>2011-09-29T17:16:22.17</time>
      </trkpt>
      <trkpt lat="32.860728333333334" lon="35.24213">
        <ele>209.5</ele>
        <time>2011-09-29T17:16:23.17</time>
      </trkpt>
      <trkpt lat="32.86071333333334" lon="35.24210166666667">
        <ele>212.5</ele>
        <time>2011-09-29T17:16:24.19</time>
      </trkpt>
      <trkpt lat="32.860708333333335" lon="35.24207333333333">
        <ele>214.5</ele>
        <time>2011-09-29T17:16:25.17</time>
      </trkpt>
      <trkpt lat="32.86069833333333" lon="35.24205166666667">
        <ele>214</ele>
        <time>2011-09-29T17:16:26.17</time>
      </trkpt>
      <trkpt lat="32.860688333333336" lon="35.24201166666667">
        <ele>213</ele>
        <time>2011-09-29T17:16:27.16</time>
      </trkpt>
      <trkpt lat="32.860681666666665" lon="35.241965">
        <ele>212.5</ele>
        <time>2011-09-29T17:16:28.66</time>
      </trkpt>
      <trkpt lat="32.86068" lon="35.241931666666666">
        <ele>214.5</ele>
        <time>2011-09-29T17:16:29.17</time>
      </trkpt>
      <trkpt lat="32.86067833333333" lon="35.24189833333333">
        <ele>216</ele>
        <time>2011-09-29T17:16:30.16</time>
      </trkpt>
      <trkpt lat="32.86066833333334" lon="35.24187333333333">
        <ele>216</ele>
        <time>2011-09-29T17:16:31.30</time>
      </trkpt>
      <trkpt lat="32.86066666666667" lon="35.241855">
        <ele>215.5</ele>
        <time>2011-09-29T17:16:32.16</time>
      </trkpt>
      <trkpt lat="32.860675" lon="35.24183166666667">
        <ele>215</ele>
        <time>2011-09-29T17:16:33.17</time>
      </trkpt>
      <trkpt lat="32.860683333333334" lon="35.241805">
        <ele>214</ele>
        <time>2011-09-29T17:16:34.16</time>
      </trkpt>
      <trkpt lat="32.860675" lon="35.24178">
        <ele>213</ele>
        <time>2011-09-29T17:16:35.17</time>
      </trkpt>
      <trkpt lat="32.860661666666665" lon="35.241753333333335">
        <ele>213</ele>
        <time>2011-09-29T17:16:36.18</time>
      </trkpt>
      <trkpt lat="32.86066666666667" lon="35.24172333333333">
        <ele>214.5</ele>
        <time>2011-09-29T17:16:37.19</time>
      </trkpt>
      <trkpt lat="32.860665" lon="35.2417">
        <ele>215</ele>
        <time>2011-09-29T17:16:38.16</time>
      </trkpt>
      <trkpt lat="32.860663333333335" lon="35.241675">
        <ele>216</ele>
        <time>2011-09-29T17:16:39.16</time>
      </trkpt>
      <trkpt lat="32.86067166666667" lon="35.24165333333333">
        <ele>216</ele>
        <time>2011-09-29T17:16:40.16</time>
      </trkpt>
      <trkpt lat="32.86067333333333" lon="35.24163">
        <ele>216.5</ele>
        <time>2011-09-29T17:16:41.16</time>
      </trkpt>
      <trkpt lat="32.86067833333333" lon="35.24160833333333">
        <ele>217</ele>
        <time>2011-09-29T17:16:42.16</time>
      </trkpt>
      <trkpt lat="32.860686666666666" lon="35.24158833333333">
        <ele>217</ele>
        <time>2011-09-29T17:16:43.16</time>
      </trkpt>
      <trkpt lat="32.86069166666667" lon="35.24156833333333">
        <ele>217.5</ele>
        <time>2011-09-29T17:16:44.33</time>
      </trkpt>
      <trkpt lat="32.8607" lon="35.24155">
        <ele>217.5</ele>
        <time>2011-09-29T17:16:45.41</time>
      </trkpt>
      <trkpt lat="32.86072166666667" lon="35.24153666666667">
        <ele>218</ele>
        <time>2011-09-29T17:16:46.16</time>
      </trkpt>
      <trkpt lat="32.860731666666666" lon="35.24151833333333">
        <ele>217.5</ele>
        <time>2011-09-29T17:16:47.16</time>
      </trkpt>
      <trkpt lat="32.860733333333336" lon="35.2415">
        <ele>217.5</ele>
        <time>2011-09-29T17:16:48.16</time>
      </trkpt>
      <trkpt lat="32.860731666666666" lon="35.241485">
        <ele>215</ele>
        <time>2011-09-29T17:16:49.16</time>
      </trkpt>
      <trkpt lat="32.86074" lon="35.24145333333333">
        <ele>217</ele>
        <time>2011-09-29T17:16:50.38</time>
      </trkpt>
      <trkpt lat="32.860755" lon="35.24142833333333">
        <ele>217.5</ele>
        <time>2011-09-29T17:16:51.16</time>
      </trkpt>
      <trkpt lat="32.86076333333333" lon="35.24140833333333">
        <ele>217.5</ele>
        <time>2011-09-29T17:16:52.16</time>
      </trkpt>
      <trkpt lat="32.86078333333333" lon="35.24137833333333">
        <ele>216</ele>
        <time>2011-09-29T17:16:54.38</time>
      </trkpt>
      <trkpt lat="32.86081" lon="35.24133333333333">
        <ele>215</ele>
        <time>2011-09-29T17:16:56.16</time>
      </trkpt>
      <trkpt lat="32.86082833333333" lon="35.2413">
        <ele>215</ele>
        <time>2011-09-29T17:16:58.16</time>
      </trkpt>
      <trkpt lat="32.860836666666664" lon="35.241283333333335">
        <ele>215</ele>
        <time>2011-09-29T17:16:59.27</time>
      </trkpt>
      <trkpt lat="32.860843333333335" lon="35.241258333333334">
        <ele>215</ele>
        <time>2011-09-29T17:17:00.16</time>
      </trkpt>
      <trkpt lat="32.86085333333333" lon="35.24124666666667">
        <ele>215</ele>
        <time>2011-09-29T17:17:01.16</time>
      </trkpt>
      <trkpt lat="32.86088" lon="35.241231666666664">
        <ele>214.5</ele>
        <time>2011-09-29T17:17:02.24</time>
      </trkpt>
      <trkpt lat="32.86089166666667" lon="35.24122">
        <ele>214.5</ele>
        <time>2011-09-29T17:17:03.20</time>
      </trkpt>
      <trkpt lat="32.860905" lon="35.241205">
        <ele>214.5</ele>
        <time>2011-09-29T17:17:04.16</time>
      </trkpt>
      <trkpt lat="32.86092166666667" lon="35.24119666666667">
        <ele>215</ele>
        <time>2011-09-29T17:17:05.16</time>
      </trkpt>
      <trkpt lat="32.86094166666667" lon="35.24119">
        <ele>215</ele>
        <time>2011-09-29T17:17:06.15</time>
      </trkpt>
      <trkpt lat="32.860953333333335" lon="35.241185">
        <ele>215</ele>
        <time>2011-09-29T17:17:07.16</time>
      </trkpt>
      <trkpt lat="32.860975" lon="35.241173333333336">
        <ele>215</ele>
        <time>2011-09-29T17:17:08.26</time>
      </trkpt>
      <trkpt lat="32.860995" lon="35.24116166666666">
        <ele>215</ele>
        <time>2011-09-29T17:17:09.42</time>
      </trkpt>
      <trkpt lat="32.861018333333334" lon="35.24115833333333">
        <ele>215.5</ele>
        <time>2011-09-29T17:17:10.16</time>
      </trkpt>
      <trkpt lat="32.86102833333333" lon="35.241155">
        <ele>215.5</ele>
        <time>2011-09-29T17:17:11.16</time>
      </trkpt>
      <trkpt lat="32.861075" lon="35.24111166666667">
        <ele>215</ele>
        <time>2011-09-29T17:17:13.16</time>
      </trkpt>
      <trkpt lat="32.86110333333333" lon="35.241103333333335">
        <ele>216</ele>
        <time>2011-09-29T17:17:14.21</time>
      </trkpt>
      <trkpt lat="32.86112" lon="35.24109833333333">
        <ele>215.5</ele>
        <time>2011-09-29T17:17:15.15</time>
      </trkpt>
      <trkpt lat="32.861133333333335" lon="35.241095">
        <ele>215.5</ele>
        <time>2011-09-29T17:17:16.15</time>
      </trkpt>
      <trkpt lat="32.86114666666667" lon="35.24109">
        <ele>215</ele>
        <time>2011-09-29T17:17:17.15</time>
      </trkpt>
      <trkpt lat="32.861158333333336" lon="35.24108833333333">
        <ele>215</ele>
        <time>2011-09-29T17:17:18.15</time>
      </trkpt>
      <trkpt lat="32.86116833333333" lon="35.241085">
        <ele>215</ele>
        <time>2011-09-29T17:17:19.15</time>
      </trkpt>
      <trkpt lat="32.86118" lon="35.241075">
        <ele>215</ele>
        <time>2011-09-29T17:17:20.15</time>
      </trkpt>
      <trkpt lat="32.861196666666665" lon="35.241055">
        <ele>215</ele>
        <time>2011-09-29T17:17:21.28</time>
      </trkpt>
      <trkpt lat="32.86121166666667" lon="35.24104166666667">
        <ele>215</ele>
        <time>2011-09-29T17:17:22.15</time>
      </trkpt>
      <trkpt lat="32.861223333333335" lon="35.24102833333333">
        <ele>215.5</ele>
        <time>2011-09-29T17:17:23.15</time>
      </trkpt>
      <trkpt lat="32.86123" lon="35.240985">
        <ele>216</ele>
        <time>2011-09-29T17:17:24.15</time>
      </trkpt>
      <trkpt lat="32.861255" lon="35.24096333333333">
        <ele>216</ele>
        <time>2011-09-29T17:17:25.16</time>
      </trkpt>
      <trkpt lat="32.86128" lon="35.24095">
        <ele>217</ele>
        <time>2011-09-29T17:17:26.15</time>
      </trkpt>
      <trkpt lat="32.86129666666667" lon="35.24094">
        <ele>217</ele>
        <time>2011-09-29T17:17:27.15</time>
      </trkpt>
      <trkpt lat="32.86132" lon="35.240928333333336">
        <ele>217.5</ele>
        <time>2011-09-29T17:17:28.15</time>
      </trkpt>
      <trkpt lat="32.86139333333333" lon="35.24086333333333">
        <ele>219</ele>
        <time>2011-09-29T17:17:30.15</time>
      </trkpt>
      <trkpt lat="32.861421666666665" lon="35.240845">
        <ele>219.5</ele>
        <time>2011-09-29T17:17:31.36</time>
      </trkpt>
      <trkpt lat="32.861443333333334" lon="35.24083">
        <ele>220</ele>
        <time>2011-09-29T17:17:32.14</time>
      </trkpt>
      <trkpt lat="32.86143" lon="35.24069166666666">
        <ele>221.5</ele>
        <time>2011-09-29T17:17:34.15</time>
      </trkpt>
      <trkpt lat="32.86143833333333" lon="35.240685">
        <ele>222</ele>
        <time>2011-09-29T17:17:35.15</time>
      </trkpt>
      <trkpt lat="32.861446666666666" lon="35.240685">
        <ele>222</ele>
        <time>2011-09-29T17:17:36.16</time>
      </trkpt>
      <trkpt lat="32.86145" lon="35.24068">
        <ele>222</ele>
        <time>2011-09-29T17:17:37.14</time>
      </trkpt>
      <trkpt lat="32.861455" lon="35.240675">
        <ele>223</ele>
        <time>2011-09-29T17:17:38.29</time>
      </trkpt>
      <trkpt lat="32.86145666666667" lon="35.240665">
        <ele>222.5</ele>
        <time>2011-09-29T17:17:39.14</time>
      </trkpt>
      <trkpt lat="32.86143666666667" lon="35.240491666666664">
        <ele>220</ele>
        <time>2011-09-29T17:17:42.28</time>
      </trkpt>
      <trkpt lat="32.861475" lon="35.240428333333334">
        <ele>217.5</ele>
        <time>2011-09-29T17:17:44.15</time>
      </trkpt>
      <trkpt lat="32.861486666666664" lon="35.240413333333336">
        <ele>217</ele>
        <time>2011-09-29T17:17:45.15</time>
      </trkpt>
      <trkpt lat="32.861495" lon="35.240388333333335">
        <ele>217</ele>
        <time>2011-09-29T17:17:46.15</time>
      </trkpt>
      <trkpt lat="32.86150166666667" lon="35.240365">
        <ele>217</ele>
        <time>2011-09-29T17:17:47.14</time>
      </trkpt>
      <trkpt lat="32.861511666666665" lon="35.24035333333333">
        <ele>217</ele>
        <time>2011-09-29T17:17:48.14</time>
      </trkpt>
      <trkpt lat="32.86152833333333" lon="35.240336666666664">
        <ele>216.5</ele>
        <time>2011-09-29T17:17:49.14</time>
      </trkpt>
      <trkpt lat="32.86154333333333" lon="35.240341666666666">
        <ele>217</ele>
        <time>2011-09-29T17:17:50.15</time>
      </trkpt>
      <trkpt lat="32.86157166666667" lon="35.240338333333334">
        <ele>216.5</ele>
        <time>2011-09-29T17:17:51.14</time>
      </trkpt>
      <trkpt lat="32.86169" lon="35.240273333333334">
        <ele>218</ele>
        <time>2011-09-29T17:17:54.25</time>
      </trkpt>
      <trkpt lat="32.86170666666666" lon="35.240265">
        <ele>218.5</ele>
        <time>2011-09-29T17:17:55.41</time>
      </trkpt>
      <trkpt lat="32.861781666666666" lon="35.240273333333334">
        <ele>219</ele>
        <time>2011-09-29T17:17:57.14</time>
      </trkpt>
      <trkpt lat="32.861815" lon="35.240265">
        <ele>219</ele>
        <time>2011-09-29T17:17:58.22</time>
      </trkpt>
      <trkpt lat="32.86184333333333" lon="35.24026666666666">
        <ele>220</ele>
        <time>2011-09-29T17:17:59.14</time>
      </trkpt>
      <trkpt lat="32.86187" lon="35.24025666666667">
        <ele>220.5</ele>
        <time>2011-09-29T17:18:00.21</time>
      </trkpt>
      <trkpt lat="32.861915" lon="35.24025666666667">
        <ele>220.5</ele>
        <time>2011-09-29T17:18:01.14</time>
      </trkpt>
      <trkpt lat="32.86195" lon="35.240251666666666">
        <ele>220.5</ele>
        <time>2011-09-29T17:18:02.34</time>
      </trkpt>
      <trkpt lat="32.861981666666665" lon="35.240265">
        <ele>220</ele>
        <time>2011-09-29T17:18:03.14</time>
      </trkpt>
      <trkpt lat="32.862005" lon="35.240273333333334">
        <ele>220.5</ele>
        <time>2011-09-29T17:18:04.14</time>
      </trkpt>
      <trkpt lat="32.862021666666664" lon="35.24026666666666">
        <ele>220</ele>
        <time>2011-09-29T17:18:05.14</time>
      </trkpt>
      <trkpt lat="32.862033333333336" lon="35.24025833333334">
        <ele>219.5</ele>
        <time>2011-09-29T17:18:06.13</time>
      </trkpt>
      <trkpt lat="32.862045" lon="35.24025666666667">
        <ele>219.5</ele>
        <time>2011-09-29T17:18:07.14</time>
      </trkpt>
      <trkpt lat="32.86206833333333" lon="35.240251666666666">
        <ele>220.5</ele>
        <time>2011-09-29T17:18:08.14</time>
      </trkpt>
      <trkpt lat="32.862078333333336" lon="35.240245">
        <ele>220.5</ele>
        <time>2011-09-29T17:18:09.14</time>
      </trkpt>
      <trkpt lat="32.862091666666664" lon="35.24024166666667">
        <ele>220.5</ele>
        <time>2011-09-29T17:18:11.14</time>
      </trkpt>
      <trkpt lat="32.86210333333333" lon="35.24024333333333">
        <ele>220</ele>
        <time>2011-09-29T17:18:12.14</time>
      </trkpt>
      <trkpt lat="32.86221666666667" lon="35.24025">
        <ele>221.5</ele>
        <time>2011-09-29T17:18:14.14</time>
      </trkpt>
      <trkpt lat="32.86230166666667" lon="35.240225">
        <ele>223</ele>
        <time>2011-09-29T17:18:16.14</time>
      </trkpt>
      <trkpt lat="32.86239333333333" lon="35.24016">
        <ele>220</ele>
        <time>2011-09-29T17:18:18.14</time>
      </trkpt>
      <trkpt lat="32.862458333333336" lon="35.24006">
        <ele>224</ele>
        <time>2011-09-29T17:18:20.15</time>
      </trkpt>
      <trkpt lat="32.86248666666667" lon="35.24003166666667">
        <ele>226</ele>
        <time>2011-09-29T17:18:21.14</time>
      </trkpt>
      <trkpt lat="32.86252666666667" lon="35.24001666666667">
        <ele>224</ele>
        <time>2011-09-29T17:18:22.14</time>
      </trkpt>
      <trkpt lat="32.86256" lon="35.24001666666667">
        <ele>222</ele>
        <time>2011-09-29T17:18:23.14</time>
      </trkpt>
      <trkpt lat="32.86264333333333" lon="35.239995">
        <ele>222</ele>
        <time>2011-09-29T17:18:25.14</time>
      </trkpt>
      <trkpt lat="32.862685" lon="35.23999">
        <ele>222.5</ele>
        <time>2011-09-29T17:18:26.15</time>
      </trkpt>
      <trkpt lat="32.86278" lon="35.239885">
        <ele>226.5</ele>
        <time>2011-09-29T17:18:28.14</time>
      </trkpt>
      <trkpt lat="32.862805" lon="35.239855">
        <ele>226</ele>
        <time>2011-09-29T17:18:29.14</time>
      </trkpt>
      <trkpt lat="32.86282166666667" lon="35.239825">
        <ele>226</ele>
        <time>2011-09-29T17:18:30.13</time>
      </trkpt>
      <trkpt lat="32.86286333333334" lon="35.23978666666667">
        <ele>224</ele>
        <time>2011-09-29T17:18:31.13</time>
      </trkpt>
      <trkpt lat="32.862865" lon="35.239763333333336">
        <ele>224</ele>
        <time>2011-09-29T17:18:32.13</time>
      </trkpt>
      <trkpt lat="32.86286333333334" lon="35.23973">
        <ele>224.5</ele>
        <time>2011-09-29T17:18:33.13</time>
      </trkpt>
      <trkpt lat="32.862901666666666" lon="35.239623333333334">
        <ele>225</ele>
        <time>2011-09-29T17:18:35.13</time>
      </trkpt>
      <trkpt lat="32.86291333333333" lon="35.239578333333334">
        <ele>226.5</ele>
        <time>2011-09-29T17:18:36.13</time>
      </trkpt>
      <trkpt lat="32.862923333333335" lon="35.23955333333333">
        <ele>227.5</ele>
        <time>2011-09-29T17:18:37.13</time>
      </trkpt>
      <trkpt lat="32.86293" lon="35.239538333333336">
        <ele>228</ele>
        <time>2011-09-29T17:18:38.14</time>
      </trkpt>
      <trkpt lat="32.86298" lon="35.239396666666664">
        <ele>228.5</ele>
        <time>2011-09-29T17:18:40.15</time>
      </trkpt>
      <trkpt lat="32.86294" lon="35.239285">
        <ele>225.5</ele>
        <time>2011-09-29T17:18:42.13</time>
      </trkpt>
      <trkpt lat="32.863011666666665" lon="35.23925">
        <ele>226.5</ele>
        <time>2011-09-29T17:18:43.13</time>
      </trkpt>
      <trkpt lat="32.86307" lon="35.23922833333334">
        <ele>226.5</ele>
        <time>2011-09-29T17:18:44.13</time>
      </trkpt>
      <trkpt lat="32.86317833333333" lon="35.239145">
        <ele>227.5</ele>
        <time>2011-09-29T17:18:46.13</time>
      </trkpt>
      <trkpt lat="32.863168333333334" lon="35.239023333333336">
        <ele>229.5</ele>
        <time>2011-09-29T17:18:48.13</time>
      </trkpt>
      <trkpt lat="32.86315" lon="35.23896333333333">
        <ele>229.5</ele>
        <time>2011-09-29T17:18:50.13</time>
      </trkpt>
      <trkpt lat="32.86319833333334" lon="35.23894833333333">
        <ele>228</ele>
        <time>2011-09-29T17:18:52.13</time>
      </trkpt>
      <trkpt lat="32.863245" lon="35.238933333333335">
        <ele>228</ele>
        <time>2011-09-29T17:18:53.13</time>
      </trkpt>
      <trkpt lat="32.863278333333334" lon="35.238931666666666">
        <ele>227</ele>
        <time>2011-09-29T17:18:54.39</time>
      </trkpt>
      <trkpt lat="32.86331166666667" lon="35.23893833333333">
        <ele>226.5</ele>
        <time>2011-09-29T17:18:55.13</time>
      </trkpt>
      <trkpt lat="32.863365" lon="35.23889">
        <ele>223.5</ele>
        <time>2011-09-29T17:18:57.13</time>
      </trkpt>
      <trkpt lat="32.86337" lon="35.23887666666667">
        <ele>223.5</ele>
        <time>2011-09-29T17:18:58.13</time>
      </trkpt>
      <trkpt lat="32.86340333333333" lon="35.23862833333333">
        <ele>224.5</ele>
        <time>2011-09-29T17:19:01.25</time>
      </trkpt>
      <trkpt lat="32.86349166666667" lon="35.238495">
        <ele>228</ele>
        <time>2011-09-29T17:19:03.12</time>
      </trkpt>
      <trkpt lat="32.863551666666666" lon="35.23836">
        <ele>228</ele>
        <time>2011-09-29T17:19:05.13</time>
      </trkpt>
      <trkpt lat="32.863593333333334" lon="35.238306666666666">
        <ele>227.5</ele>
        <time>2011-09-29T17:19:06.13</time>
      </trkpt>
      <trkpt lat="32.863635" lon="35.238261666666666">
        <ele>226.5</ele>
        <time>2011-09-29T17:19:07.12</time>
      </trkpt>
      <trkpt lat="32.86367" lon="35.23820333333333">
        <ele>226.5</ele>
        <time>2011-09-29T17:19:08.12</time>
      </trkpt>
      <trkpt lat="32.863725" lon="35.23815333333334">
        <ele>225.5</ele>
        <time>2011-09-29T17:19:09.14</time>
      </trkpt>
      <trkpt lat="32.86375666666667" lon="35.23809833333333">
        <ele>225.5</ele>
        <time>2011-09-29T17:19:10.29</time>
      </trkpt>
      <trkpt lat="32.86378" lon="35.23804833333333">
        <ele>227</ele>
        <time>2011-09-29T17:19:11.12</time>
      </trkpt>
      <trkpt lat="32.863798333333335" lon="35.23799833333333">
        <ele>226</ele>
        <time>2011-09-29T17:19:12.12</time>
      </trkpt>
      <trkpt lat="32.86387666666667" lon="35.23788">
        <ele>225</ele>
        <time>2011-09-29T17:19:14.12</time>
      </trkpt>
      <trkpt lat="32.863933333333335" lon="35.237723333333335">
        <ele>223.5</ele>
        <time>2011-09-29T17:19:16.12</time>
      </trkpt>
      <trkpt lat="32.863978333333336" lon="35.23766833333333">
        <ele>223.5</ele>
        <time>2011-09-29T17:19:17.12</time>
      </trkpt>
      <trkpt lat="32.864021666666666" lon="35.237626666666664">
        <ele>223.5</ele>
        <time>2011-09-29T17:19:18.17</time>
      </trkpt>
      <trkpt lat="32.86410333333333" lon="35.23753333333333">
        <ele>222.5</ele>
        <time>2011-09-29T17:19:20.12</time>
      </trkpt>
      <trkpt lat="32.864135" lon="35.237503333333336">
        <ele>218.5</ele>
        <time>2011-09-29T17:19:21.37</time>
      </trkpt>
      <trkpt lat="32.86416833333333" lon="35.23746333333333">
        <ele>219</ele>
        <time>2011-09-29T17:19:22.12</time>
      </trkpt>
      <trkpt lat="32.86421166666667" lon="35.23741833333333">
        <ele>219.5</ele>
        <time>2011-09-29T17:19:23.12</time>
      </trkpt>
      <trkpt lat="32.864255" lon="35.23736666666667">
        <ele>219</ele>
        <time>2011-09-29T17:19:24.24</time>
      </trkpt>
      <trkpt lat="32.86428333333333" lon="35.23730166666667">
        <ele>217</ele>
        <time>2011-09-29T17:19:25.31</time>
      </trkpt>
      <trkpt lat="32.86431" lon="35.23724333333333">
        <ele>217</ele>
        <time>2011-09-29T17:19:26.12</time>
      </trkpt>
      <trkpt lat="32.86434166666667" lon="35.23719166666667">
        <ele>214</ele>
        <time>2011-09-29T17:19:27.12</time>
      </trkpt>
      <trkpt lat="32.86443" lon="35.237071666666665">
        <ele>208.5</ele>
        <time>2011-09-29T17:19:29.12</time>
      </trkpt>
      <trkpt lat="32.864475" lon="35.23702333333333">
        <ele>209</ele>
        <time>2011-09-29T17:19:30.12</time>
      </trkpt>
      <trkpt lat="32.864515" lon="35.236983333333335">
        <ele>209</ele>
        <time>2011-09-29T17:19:31.12</time>
      </trkpt>
      <trkpt lat="32.864551666666664" lon="35.236936666666665">
        <ele>209</ele>
        <time>2011-09-29T17:19:32.12</time>
      </trkpt>
      <trkpt lat="32.86457" lon="35.236866666666664">
        <ele>208.5</ele>
        <time>2011-09-29T17:19:33.12</time>
      </trkpt>
      <trkpt lat="32.86459166666667" lon="35.2368">
        <ele>207</ele>
        <time>2011-09-29T17:19:34.11</time>
      </trkpt>
      <trkpt lat="32.86461666666667" lon="35.23675">
        <ele>206</ele>
        <time>2011-09-29T17:19:35.11</time>
      </trkpt>
      <trkpt lat="32.86468166666667" lon="35.23661166666667">
        <ele>207</ele>
        <time>2011-09-29T17:19:37.11</time>
      </trkpt>
      <trkpt lat="32.86470333333333" lon="35.236556666666665">
        <ele>207</ele>
        <time>2011-09-29T17:19:38.11</time>
      </trkpt>
      <trkpt lat="32.864725" lon="35.236495">
        <ele>205.5</ele>
        <time>2011-09-29T17:19:39.11</time>
      </trkpt>
      <trkpt lat="32.86474166666667" lon="35.236445">
        <ele>206.5</ele>
        <time>2011-09-29T17:19:40.11</time>
      </trkpt>
      <trkpt lat="32.864755" lon="35.236401666666666">
        <ele>206.5</ele>
        <time>2011-09-29T17:19:41.12</time>
      </trkpt>
      <trkpt lat="32.864765" lon="35.236356666666666">
        <ele>206</ele>
        <time>2011-09-29T17:19:42.11</time>
      </trkpt>
      <trkpt lat="32.864775" lon="35.236308333333334">
        <ele>203</ele>
        <time>2011-09-29T17:19:43.11</time>
      </trkpt>
      <trkpt lat="32.86479" lon="35.23615">
        <ele>208.5</ele>
        <time>2011-09-29T17:19:45.12</time>
      </trkpt>
      <trkpt lat="32.86480666666667" lon="35.236081666666664">
        <ele>207.5</ele>
        <time>2011-09-29T17:19:46.12</time>
      </trkpt>
      <trkpt lat="32.86481333333333" lon="35.23601333333333">
        <ele>206</ele>
        <time>2011-09-29T17:19:47.34</time>
      </trkpt>
      <trkpt lat="32.864821666666664" lon="35.235945">
        <ele>204.5</ele>
        <time>2011-09-29T17:19:48.10</time>
      </trkpt>
      <trkpt lat="32.86484" lon="35.23587666666667">
        <ele>203.5</ele>
        <time>2011-09-29T17:19:49.11</time>
      </trkpt>
      <trkpt lat="32.86484" lon="35.235816666666665">
        <ele>203</ele>
        <time>2011-09-29T17:19:50.11</time>
      </trkpt>
      <trkpt lat="32.864826666666666" lon="35.235751666666665">
        <ele>201.5</ele>
        <time>2011-09-29T17:19:51.11</time>
      </trkpt>
      <trkpt lat="32.864821666666664" lon="35.235681666666665">
        <ele>198.5</ele>
        <time>2011-09-29T17:19:52.11</time>
      </trkpt>
      <trkpt lat="32.864821666666664" lon="35.23560833333333">
        <ele>196.5</ele>
        <time>2011-09-29T17:19:53.11</time>
      </trkpt>
      <trkpt lat="32.864821666666664" lon="35.23553166666667">
        <ele>194.5</ele>
        <time>2011-09-29T17:19:54.10</time>
      </trkpt>
      <trkpt lat="32.864823333333334" lon="35.235456666666664">
        <ele>193.5</ele>
        <time>2011-09-29T17:19:55.10</time>
      </trkpt>
      <trkpt lat="32.86483166666667" lon="35.23538833333333">
        <ele>192</ele>
        <time>2011-09-29T17:19:56.11</time>
      </trkpt>
      <trkpt lat="32.864823333333334" lon="35.235321666666664">
        <ele>190</ele>
        <time>2011-09-29T17:19:57.11</time>
      </trkpt>
      <trkpt lat="32.86483" lon="35.23525166666667">
        <ele>189</ele>
        <time>2011-09-29T17:19:58.11</time>
      </trkpt>
      <trkpt lat="32.86484" lon="35.23517666666667">
        <ele>188.5</ele>
        <time>2011-09-29T17:19:59.11</time>
      </trkpt>
      <trkpt lat="32.86485166666667" lon="35.235101666666665">
        <ele>187.5</ele>
        <time>2011-09-29T17:20:00.11</time>
      </trkpt>
      <trkpt lat="32.86487666666667" lon="35.23504333333333">
        <ele>186.5</ele>
        <time>2011-09-29T17:20:01.11</time>
      </trkpt>
      <trkpt lat="32.864895" lon="35.23499">
        <ele>185.5</ele>
        <time>2011-09-29T17:20:02.10</time>
      </trkpt>
      <trkpt lat="32.86491" lon="35.23493666666667">
        <ele>186</ele>
        <time>2011-09-29T17:20:03.10</time>
      </trkpt>
      <trkpt lat="32.864916666666666" lon="35.23487333333333">
        <ele>187.5</ele>
        <time>2011-09-29T17:20:04.11</time>
      </trkpt>
      <trkpt lat="32.864913333333334" lon="35.23481833333334">
        <ele>187.5</ele>
        <time>2011-09-29T17:20:05.23</time>
      </trkpt>
      <trkpt lat="32.864945" lon="35.23477666666667">
        <ele>186</ele>
        <time>2011-09-29T17:20:06.11</time>
      </trkpt>
      <trkpt lat="32.86497833333333" lon="35.23473833333333">
        <ele>184</ele>
        <time>2011-09-29T17:20:07.11</time>
      </trkpt>
      <trkpt lat="32.865001666666664" lon="35.23470666666667">
        <ele>184</ele>
        <time>2011-09-29T17:20:08.11</time>
      </trkpt>
      <trkpt lat="32.86508166666667" lon="35.23461666666667">
        <ele>184</ele>
        <time>2011-09-29T17:20:10.98</time>
      </trkpt>
      <trkpt lat="32.86515166666667" lon="35.234593333333336">
        <ele>182.5</ele>
        <time>2011-09-29T17:20:11.11</time>
      </trkpt>
      <trkpt lat="32.865205" lon="35.23457166666667">
        <ele>183</ele>
        <time>2011-09-29T17:20:12.10</time>
      </trkpt>
      <trkpt lat="32.865271666666665" lon="35.23453166666667">
        <ele>182.5</ele>
        <time>2011-09-29T17:20:14.11</time>
      </trkpt>
      <trkpt lat="32.86529" lon="35.234516666666664">
        <ele>182.5</ele>
        <time>2011-09-29T17:20:15.21</time>
      </trkpt>
      <trkpt lat="32.865381666666664" lon="35.234476666666666">
        <ele>183</ele>
        <time>2011-09-29T17:20:17.10</time>
      </trkpt>
      <trkpt lat="32.86541833333333" lon="35.23446333333333">
        <ele>183.5</ele>
        <time>2011-09-29T17:20:18.11</time>
      </trkpt>
      <trkpt lat="32.86544166666667" lon="35.234435">
        <ele>184.5</ele>
        <time>2011-09-29T17:20:19.98</time>
      </trkpt>
      <trkpt lat="32.865471666666664" lon="35.234428333333334">
        <ele>185</ele>
        <time>2011-09-29T17:20:20.10</time>
      </trkpt>
      <trkpt lat="32.865505" lon="35.234428333333334">
        <ele>186</ele>
        <time>2011-09-29T17:20:21.10</time>
      </trkpt>
      <trkpt lat="32.86553333333333" lon="35.234425">
        <ele>187.5</ele>
        <time>2011-09-29T17:20:22.25</time>
      </trkpt>
      <trkpt lat="32.865555" lon="35.234425">
        <ele>188</ele>
        <time>2011-09-29T17:20:23.11</time>
      </trkpt>
      <trkpt lat="32.86557666666667" lon="35.234413333333336">
        <ele>190.5</ele>
        <time>2011-09-29T17:20:24.10</time>
      </trkpt>
      <trkpt lat="32.8656" lon="35.23439166666667">
        <ele>193</ele>
        <time>2011-09-29T17:20:25.11</time>
      </trkpt>
      <trkpt lat="32.86562333333333" lon="35.234381666666664">
        <ele>195</ele>
        <time>2011-09-29T17:20:26.22</time>
      </trkpt>
      <trkpt lat="32.86564833333333" lon="35.23437666666667">
        <ele>196</ele>
        <time>2011-09-29T17:20:27.10</time>
      </trkpt>
      <trkpt lat="32.86566833333333" lon="35.234361666666665">
        <ele>198</ele>
        <time>2011-09-29T17:20:28.10</time>
      </trkpt>
      <trkpt lat="32.86568166666667" lon="35.23435833333333">
        <ele>199.5</ele>
        <time>2011-09-29T17:20:29.10</time>
      </trkpt>
      <trkpt lat="32.865698333333334" lon="35.234361666666665">
        <ele>199.5</ele>
        <time>2011-09-29T17:20:30.10</time>
      </trkpt>
      <trkpt lat="32.86571333333333" lon="35.23436">
        <ele>199.5</ele>
        <time>2011-09-29T17:20:31.98</time>
      </trkpt>
      <trkpt lat="32.86573" lon="35.23435833333333">
        <ele>199.5</ele>
        <time>2011-09-29T17:20:32.10</time>
      </trkpt>
      <trkpt lat="32.86575" lon="35.234361666666665">
        <ele>198</ele>
        <time>2011-09-29T17:20:33.10</time>
      </trkpt>
      <trkpt lat="32.865768333333335" lon="35.23435166666667">
        <ele>197.5</ele>
        <time>2011-09-29T17:20:34.98</time>
      </trkpt>
      <trkpt lat="32.86579" lon="35.23434666666667">
        <ele>197</ele>
        <time>2011-09-29T17:20:35.98</time>
      </trkpt>
      <trkpt lat="32.865811666666666" lon="35.234345">
        <ele>196.5</ele>
        <time>2011-09-29T17:20:36.98</time>
      </trkpt>
      <trkpt lat="32.86582833333333" lon="35.234355">
        <ele>196.5</ele>
        <time>2011-09-29T17:20:37.98</time>
      </trkpt>
      <trkpt lat="32.86585" lon="35.23435">
        <ele>196.5</ele>
        <time>2011-09-29T17:20:38.10</time>
      </trkpt>
      <trkpt lat="32.86587166666666" lon="35.234341666666666">
        <ele>197.5</ele>
        <time>2011-09-29T17:20:39.98</time>
      </trkpt>
      <trkpt lat="32.86589166666667" lon="35.23433166666667">
        <ele>197</ele>
        <time>2011-09-29T17:20:40.98</time>
      </trkpt>
      <trkpt lat="32.86591" lon="35.234341666666666">
        <ele>197.5</ele>
        <time>2011-09-29T17:20:41.98</time>
      </trkpt>
      <trkpt lat="32.86593166666667" lon="35.234341666666666">
        <ele>197.5</ele>
        <time>2011-09-29T17:20:42.10</time>
      </trkpt>
      <trkpt lat="32.865961666666664" lon="35.234335">
        <ele>197.5</ele>
        <time>2011-09-29T17:20:43.98</time>
      </trkpt>
      <trkpt lat="32.866036666666666" lon="35.234318333333334">
        <ele>196.5</ele>
        <time>2011-09-29T17:20:45.10</time>
      </trkpt>
      <trkpt lat="32.866076666666665" lon="35.23433333333333">
        <ele>196.5</ele>
        <time>2011-09-29T17:20:46.22</time>
      </trkpt>
      <trkpt lat="32.86612" lon="35.23432">
        <ele>196</ele>
        <time>2011-09-29T17:20:47.10</time>
      </trkpt>
      <trkpt lat="32.86616333333333" lon="35.23428833333333">
        <ele>196</ele>
        <time>2011-09-29T17:20:48.98</time>
      </trkpt>
      <trkpt lat="32.866216666666666" lon="35.234251666666665">
        <ele>195.5</ele>
        <time>2011-09-29T17:20:49.46</time>
      </trkpt>
      <trkpt lat="32.86625333333333" lon="35.234208333333335">
        <ele>196</ele>
        <time>2011-09-29T17:20:50.98</time>
      </trkpt>
      <trkpt lat="32.86628666666667" lon="35.234161666666665">
        <ele>196.5</ele>
        <time>2011-09-29T17:20:51.10</time>
      </trkpt>
      <trkpt lat="32.86639666666667" lon="35.23405">
        <ele>194</ele>
        <time>2011-09-29T17:20:53.98</time>
      </trkpt>
      <trkpt lat="32.866445" lon="35.23398666666667">
        <ele>193</ele>
        <time>2011-09-29T17:20:54.98</time>
      </trkpt>
      <trkpt lat="32.86649166666667" lon="35.233918333333335">
        <ele>192.5</ele>
        <time>2011-09-29T17:20:55.36</time>
      </trkpt>
      <trkpt lat="32.86654" lon="35.233845">
        <ele>190.5</ele>
        <time>2011-09-29T17:20:56.98</time>
      </trkpt>
      <trkpt lat="32.86660166666667" lon="35.2338">
        <ele>186</ele>
        <time>2011-09-29T17:20:57.98</time>
      </trkpt>
      <trkpt lat="32.86663333333333" lon="35.23374166666667">
        <ele>186.5</ele>
        <time>2011-09-29T17:20:58.10</time>
      </trkpt>
      <trkpt lat="32.866701666666664" lon="35.233713333333334">
        <ele>187</ele>
        <time>2011-09-29T17:21:00.88</time>
      </trkpt>
      <trkpt lat="32.866745" lon="35.23370666666667">
        <ele>185.5</ele>
        <time>2011-09-29T17:21:01.98</time>
      </trkpt>
      <trkpt lat="32.86678833333333" lon="35.233691666666665">
        <ele>184</ele>
        <time>2011-09-29T17:21:02.98</time>
      </trkpt>
      <trkpt lat="32.86683166666667" lon="35.233691666666665">
        <ele>184</ele>
        <time>2011-09-29T17:21:03.98</time>
      </trkpt>
      <trkpt lat="32.86687833333333" lon="35.23366333333333">
        <ele>183.5</ele>
        <time>2011-09-29T17:21:04.88</time>
      </trkpt>
      <trkpt lat="32.86691833333333" lon="35.233621666666664">
        <ele>185</ele>
        <time>2011-09-29T17:21:05.98</time>
      </trkpt>
      <trkpt lat="32.866955" lon="35.23363333333333">
        <ele>184.5</ele>
        <time>2011-09-29T17:21:06.98</time>
      </trkpt>
      <trkpt lat="32.866995" lon="35.233641666666664">
        <ele>184.5</ele>
        <time>2011-09-29T17:21:07.98</time>
      </trkpt>
      <trkpt lat="32.86703166666667" lon="35.23366333333333">
        <ele>184.5</ele>
        <time>2011-09-29T17:21:08.98</time>
      </trkpt>
      <trkpt lat="32.867075" lon="35.23368166666667">
        <ele>184</ele>
        <time>2011-09-29T17:21:09.98</time>
      </trkpt>
      <trkpt lat="32.867108333333334" lon="35.23369">
        <ele>184.5</ele>
        <time>2011-09-29T17:21:10.98</time>
      </trkpt>
      <trkpt lat="32.86714333333333" lon="35.23371">
        <ele>184.5</ele>
        <time>2011-09-29T17:21:11.88</time>
      </trkpt>
      <trkpt lat="32.867173333333334" lon="35.23373">
        <ele>184</ele>
        <time>2011-09-29T17:21:12.98</time>
      </trkpt>
      <trkpt lat="32.86721" lon="35.23376">
        <ele>183.5</ele>
        <time>2011-09-29T17:21:13.98</time>
      </trkpt>
      <trkpt lat="32.86723666666666" lon="35.233783333333335">
        <ele>183.5</ele>
        <time>2011-09-29T17:21:14.98</time>
      </trkpt>
      <trkpt lat="32.86725666666667" lon="35.233801666666665">
        <ele>183.5</ele>
        <time>2011-09-29T17:21:15.98</time>
      </trkpt>
      <trkpt lat="32.86727833333333" lon="35.23381833333333">
        <ele>184</ele>
        <time>2011-09-29T17:21:16.98</time>
      </trkpt>
      <trkpt lat="32.86730333333333" lon="35.23384">
        <ele>185</ele>
        <time>2011-09-29T17:21:17.98</time>
      </trkpt>
      <trkpt lat="32.867331666666665" lon="35.23386">
        <ele>186</ele>
        <time>2011-09-29T17:21:18.98</time>
      </trkpt>
      <trkpt lat="32.86736333333333" lon="35.23387666666667">
        <ele>186.5</ele>
        <time>2011-09-29T17:21:19.88</time>
      </trkpt>
      <trkpt lat="32.86739" lon="35.2339">
        <ele>186.5</ele>
        <time>2011-09-29T17:21:20.98</time>
      </trkpt>
      <trkpt lat="32.86740666666667" lon="35.23392166666667">
        <ele>187</ele>
        <time>2011-09-29T17:21:21.98</time>
      </trkpt>
      <trkpt lat="32.86743" lon="35.233943333333336">
        <ele>187</ele>
        <time>2011-09-29T17:21:22.31</time>
      </trkpt>
      <trkpt lat="32.86745833333333" lon="35.233958333333334">
        <ele>186.5</ele>
        <time>2011-09-29T17:21:23.88</time>
      </trkpt>
      <trkpt lat="32.867491666666666" lon="35.23397666666666">
        <ele>187</ele>
        <time>2011-09-29T17:21:24.88</time>
      </trkpt>
      <trkpt lat="32.867535" lon="35.23399333333333">
        <ele>187.5</ele>
        <time>2011-09-29T17:21:25.98</time>
      </trkpt>
      <trkpt lat="32.86758" lon="35.234003333333334">
        <ele>188</ele>
        <time>2011-09-29T17:21:26.98</time>
      </trkpt>
      <trkpt lat="32.86762" lon="35.234005">
        <ele>188</ele>
        <time>2011-09-29T17:21:27.98</time>
      </trkpt>
      <trkpt lat="32.86765833333333" lon="35.234006666666666">
        <ele>187.5</ele>
        <time>2011-09-29T17:21:28.98</time>
      </trkpt>
      <trkpt lat="32.86769666666667" lon="35.23399333333333">
        <ele>186</ele>
        <time>2011-09-29T17:21:29.36</time>
      </trkpt>
      <trkpt lat="32.86774666666667" lon="35.233988333333336">
        <ele>185.5</ele>
        <time>2011-09-29T17:21:30.98</time>
      </trkpt>
      <trkpt lat="32.867795" lon="35.23399">
        <ele>185.5</ele>
        <time>2011-09-29T17:21:31.88</time>
      </trkpt>
      <trkpt lat="32.86784" lon="35.233995">
        <ele>185.5</ele>
        <time>2011-09-29T17:21:32.98</time>
      </trkpt>
      <trkpt lat="32.86788" lon="35.234001666666664">
        <ele>186</ele>
        <time>2011-09-29T17:21:33.98</time>
      </trkpt>
      <trkpt lat="32.867911666666664" lon="35.234">
        <ele>185.5</ele>
        <time>2011-09-29T17:21:34.88</time>
      </trkpt>
      <trkpt lat="32.867943333333336" lon="35.234005">
        <ele>185</ele>
        <time>2011-09-29T17:21:35.88</time>
      </trkpt>
      <trkpt lat="32.86797166666667" lon="35.23401">
        <ele>185</ele>
        <time>2011-09-29T17:21:36.88</time>
      </trkpt>
      <trkpt lat="32.86799833333333" lon="35.234005">
        <ele>183.5</ele>
        <time>2011-09-29T17:21:37.88</time>
      </trkpt>
      <trkpt lat="32.868025" lon="35.234015">
        <ele>184</ele>
        <time>2011-09-29T17:21:38.88</time>
      </trkpt>
      <trkpt lat="32.86805" lon="35.23402333333333">
        <ele>184.5</ele>
        <time>2011-09-29T17:21:39.15</time>
      </trkpt>
      <trkpt lat="32.868071666666665" lon="35.234033333333336">
        <ele>185</ele>
        <time>2011-09-29T17:21:40.98</time>
      </trkpt>
      <trkpt lat="32.86809" lon="35.234035">
        <ele>185</ele>
        <time>2011-09-29T17:21:41.88</time>
      </trkpt>
      <trkpt lat="32.868105" lon="35.23403666666667">
        <ele>184</ele>
        <time>2011-09-29T17:21:42.23</time>
      </trkpt>
      <trkpt lat="32.868116666666666" lon="35.23405">
        <ele>184</ele>
        <time>2011-09-29T17:21:43.88</time>
      </trkpt>
      <trkpt lat="32.86812833333333" lon="35.23406333333333">
        <ele>184.5</ele>
        <time>2011-09-29T17:21:44.88</time>
      </trkpt>
      <trkpt lat="32.868145" lon="35.23406666666666">
        <ele>184</ele>
        <time>2011-09-29T17:21:45.88</time>
      </trkpt>
      <trkpt lat="32.868161666666666" lon="35.23406333333333">
        <ele>183.5</ele>
        <time>2011-09-29T17:21:46.78</time>
      </trkpt>
      <trkpt lat="32.868181666666665" lon="35.234033333333336">
        <ele>183</ele>
        <time>2011-09-29T17:21:47.78</time>
      </trkpt>
      <trkpt lat="32.86821" lon="35.23402333333333">
        <ele>182.5</ele>
        <time>2011-09-29T17:21:48.88</time>
      </trkpt>
      <trkpt lat="32.868233333333336" lon="35.23401833333333">
        <ele>182.5</ele>
        <time>2011-09-29T17:21:49.88</time>
      </trkpt>
      <trkpt lat="32.868251666666666" lon="35.234015">
        <ele>183</ele>
        <time>2011-09-29T17:21:50.88</time>
      </trkpt>
      <trkpt lat="32.86826833333333" lon="35.234015">
        <ele>183</ele>
        <time>2011-09-29T17:21:51.78</time>
      </trkpt>
      <trkpt lat="32.86830833333333" lon="35.23401333333333">
        <ele>182.5</ele>
        <time>2011-09-29T17:21:52.88</time>
      </trkpt>
      <trkpt lat="32.868338333333334" lon="35.23401666666667">
        <ele>182.5</ele>
        <time>2011-09-29T17:21:53.88</time>
      </trkpt>
      <trkpt lat="32.868381666666664" lon="35.23401">
        <ele>184</ele>
        <time>2011-09-29T17:21:54.88</time>
      </trkpt>
      <trkpt lat="32.86842" lon="35.23401833333333">
        <ele>183.5</ele>
        <time>2011-09-29T17:21:55.88</time>
      </trkpt>
      <trkpt lat="32.868518333333334" lon="35.234078333333336">
        <ele>186</ele>
        <time>2011-09-29T17:21:57.88</time>
      </trkpt>
      <trkpt lat="32.86856" lon="35.23411">
        <ele>185.5</ele>
        <time>2011-09-29T17:21:58.78</time>
      </trkpt>
      <trkpt lat="32.86859166666667" lon="35.23417166666667">
        <ele>185.5</ele>
        <time>2011-09-29T17:21:59.78</time>
      </trkpt>
      <trkpt lat="32.868561666666665" lon="35.234233333333336">
        <ele>185.5</ele>
        <time>2011-09-29T17:22:02.29</time>
      </trkpt>
      <trkpt lat="32.868555" lon="35.23424833333333">
        <ele>185.5</ele>
        <time>2011-09-29T17:22:03.78</time>
      </trkpt>
      <trkpt lat="32.86855666666666" lon="35.23426">
        <ele>185.5</ele>
        <time>2011-09-29T17:22:04.78</time>
      </trkpt>
      <trkpt lat="32.86855833333333" lon="35.234273333333334">
        <ele>185.5</ele>
        <time>2011-09-29T17:22:05.78</time>
      </trkpt>
      <trkpt lat="32.86856" lon="35.23428166666667">
        <ele>185.5</ele>
        <time>2011-09-29T17:22:06.88</time>
      </trkpt>
      <trkpt lat="32.86855833333333" lon="35.23431166666666">
        <ele>186.5</ele>
        <time>2011-09-29T17:22:07.78</time>
      </trkpt>
      <trkpt lat="32.86857166666667" lon="35.234318333333334">
        <ele>186.5</ele>
        <time>2011-09-29T17:22:08.78</time>
      </trkpt>
      <trkpt lat="32.868595" lon="35.23445666666667">
        <ele>185</ele>
        <time>2011-09-29T17:22:10.88</time>
      </trkpt>
      <trkpt lat="32.868611666666666" lon="35.23450666666667">
        <ele>184.5</ele>
        <time>2011-09-29T17:22:11.78</time>
      </trkpt>
      <trkpt lat="32.86866" lon="35.2346">
        <ele>184.5</ele>
        <time>2011-09-29T17:22:13.30</time>
      </trkpt>
      <trkpt lat="32.868678333333335" lon="35.234638333333336">
        <ele>184</ele>
        <time>2011-09-29T17:22:14.78</time>
      </trkpt>
      <trkpt lat="32.86869166666666" lon="35.234665">
        <ele>184</ele>
        <time>2011-09-29T17:22:15.78</time>
      </trkpt>
      <trkpt lat="32.86872833333334" lon="35.23469333333333">
        <ele>184.5</ele>
        <time>2011-09-29T17:22:16.88</time>
      </trkpt>
      <trkpt lat="32.868785" lon="35.23478166666666">
        <ele>184.5</ele>
        <time>2011-09-29T17:22:18.78</time>
      </trkpt>
      <trkpt lat="32.868788333333335" lon="35.234793333333336">
        <ele>184.5</ele>
        <time>2011-09-29T17:22:19.78</time>
      </trkpt>
      <trkpt lat="32.8688" lon="35.23480833333333">
        <ele>184.5</ele>
        <time>2011-09-29T17:22:20.78</time>
      </trkpt>
      <trkpt lat="32.86891" lon="35.235075">
        <ele>184.5</ele>
        <time>2011-09-29T17:22:24.23</time>
      </trkpt>
      <trkpt lat="32.86893166666667" lon="35.23509333333333">
        <ele>184</ele>
        <time>2011-09-29T17:22:25.78</time>
      </trkpt>
      <trkpt lat="32.869" lon="35.23524833333333">
        <ele>183</ele>
        <time>2011-09-29T17:22:28.78</time>
      </trkpt>
      <trkpt lat="32.86901" lon="35.235295">
        <ele>181.5</ele>
        <time>2011-09-29T17:22:29.78</time>
      </trkpt>
      <trkpt lat="32.86902333333333" lon="35.23533">
        <ele>181</ele>
        <time>2011-09-29T17:22:30.78</time>
      </trkpt>
      <trkpt lat="32.869045" lon="35.23537">
        <ele>180.5</ele>
        <time>2011-09-29T17:22:31.68</time>
      </trkpt>
      <trkpt lat="32.86906833333333" lon="35.235413333333334">
        <ele>180.5</ele>
        <time>2011-09-29T17:22:33.88</time>
      </trkpt>
      <trkpt lat="32.869081666666666" lon="35.235438333333335">
        <ele>180</ele>
        <time>2011-09-29T17:22:36.78</time>
      </trkpt>
      <trkpt lat="32.869056666666665" lon="35.235461666666666">
        <ele>181.5</ele>
        <time>2011-09-29T17:22:38.78</time>
      </trkpt>
      <trkpt lat="32.869051666666664" lon="35.235481666666665">
        <ele>181.5</ele>
        <time>2011-09-29T17:22:39.78</time>
      </trkpt>
      <trkpt lat="32.86905" lon="35.235515">
        <ele>181.5</ele>
        <time>2011-09-29T17:22:40.78</time>
      </trkpt>
      <trkpt lat="32.869056666666665" lon="35.23555">
        <ele>181.5</ele>
        <time>2011-09-29T17:22:41.10</time>
      </trkpt>
      <trkpt lat="32.86905333333333" lon="35.23557">
        <ele>181.5</ele>
        <time>2011-09-29T17:22:42.31</time>
      </trkpt>
      <trkpt lat="32.869058333333335" lon="35.235591666666664">
        <ele>181</ele>
        <time>2011-09-29T17:22:43.68</time>
      </trkpt>
      <trkpt lat="32.86907166666667" lon="35.23563166666667">
        <ele>181.5</ele>
        <time>2011-09-29T17:22:44.78</time>
      </trkpt>
      <trkpt lat="32.869085" lon="35.235725">
        <ele>182</ele>
        <time>2011-09-29T17:22:46.78</time>
      </trkpt>
      <trkpt lat="32.869101666666666" lon="35.235745">
        <ele>182</ele>
        <time>2011-09-29T17:22:47.68</time>
      </trkpt>
      <trkpt lat="32.86908666666667" lon="35.23576666666666">
        <ele>182</ele>
        <time>2011-09-29T17:22:48.18</time>
      </trkpt>
      <trkpt lat="32.86909" lon="35.23579333333333">
        <ele>182</ele>
        <time>2011-09-29T17:22:49.68</time>
      </trkpt>
      <trkpt lat="32.86908" lon="35.23581166666666">
        <ele>182.5</ele>
        <time>2011-09-29T17:22:50.68</time>
      </trkpt>
      <trkpt lat="32.869075" lon="35.235935">
        <ele>183</ele>
        <time>2011-09-29T17:22:52.19</time>
      </trkpt>
      <trkpt lat="32.86906333333334" lon="35.23599333333333">
        <ele>183</ele>
        <time>2011-09-29T17:22:53.68</time>
      </trkpt>
      <trkpt lat="32.869085" lon="35.236036666666664">
        <ele>183</ele>
        <time>2011-09-29T17:22:54.68</time>
      </trkpt>
      <trkpt lat="32.869103333333335" lon="35.23605833333333">
        <ele>183</ele>
        <time>2011-09-29T17:22:55.68</time>
      </trkpt>
      <trkpt lat="32.869103333333335" lon="35.236171666666664">
        <ele>182.5</ele>
        <time>2011-09-29T17:22:57.68</time>
      </trkpt>
      <trkpt lat="32.86911333333333" lon="35.236225">
        <ele>182.5</ele>
        <time>2011-09-29T17:22:58</time>
      </trkpt>
      <trkpt lat="32.86911666666666" lon="35.23626333333333">
        <ele>182</ele>
        <time>2011-09-29T17:22:59.68</time>
      </trkpt>
      <trkpt lat="32.869145" lon="35.23636333333334">
        <ele>182</ele>
        <time>2011-09-29T17:23:01.68</time>
      </trkpt>
      <trkpt lat="32.86915833333333" lon="35.236395">
        <ele>182.5</ele>
        <time>2011-09-29T17:23:02.68</time>
      </trkpt>
      <trkpt lat="32.86916166666666" lon="35.23641333333333">
        <ele>183</ele>
        <time>2011-09-29T17:23:03.68</time>
      </trkpt>
      <trkpt lat="32.869166666666665" lon="35.236441666666664">
        <ele>183.5</ele>
        <time>2011-09-29T17:23:04.68</time>
      </trkpt>
      <trkpt lat="32.86917166666667" lon="35.236468333333335">
        <ele>182.5</ele>
        <time>2011-09-29T17:23:05.78</time>
      </trkpt>
      <trkpt lat="32.86918166666667" lon="35.236491666666666">
        <ele>184</ele>
        <time>2011-09-29T17:23:06.22</time>
      </trkpt>
      <trkpt lat="32.86919666666667" lon="35.236513333333335">
        <ele>185.5</ele>
        <time>2011-09-29T17:23:07.68</time>
      </trkpt>
      <trkpt lat="32.86925" lon="35.236585">
        <ele>187</ele>
        <time>2011-09-29T17:23:09.68</time>
      </trkpt>
      <trkpt lat="32.86926666666667" lon="35.236601666666665">
        <ele>186.5</ele>
        <time>2011-09-29T17:23:10.68</time>
      </trkpt>
      <trkpt lat="32.869278333333334" lon="35.23661666666667">
        <ele>187</ele>
        <time>2011-09-29T17:23:11.16</time>
      </trkpt>
      <trkpt lat="32.869281666666666" lon="35.236645">
        <ele>188</ele>
        <time>2011-09-29T17:23:13.68</time>
      </trkpt>
      <trkpt lat="32.869283333333335" lon="35.236655">
        <ele>188</ele>
        <time>2011-09-29T17:23:14.68</time>
      </trkpt>
      <trkpt lat="32.86927" lon="35.23670833333333">
        <ele>189.5</ele>
        <time>2011-09-29T17:23:16.58</time>
      </trkpt>
      <trkpt lat="32.869256666666665" lon="35.236718333333336">
        <ele>190.5</ele>
        <time>2011-09-29T17:23:17.68</time>
      </trkpt>
      <trkpt lat="32.86924833333333" lon="35.23673">
        <ele>191</ele>
        <time>2011-09-29T17:23:18.68</time>
      </trkpt>
      <trkpt lat="32.86924" lon="35.236738333333335">
        <ele>192</ele>
        <time>2011-09-29T17:23:19.58</time>
      </trkpt>
      <trkpt lat="32.869236666666666" lon="35.23674833333333">
        <ele>193</ele>
        <time>2011-09-29T17:23:20.58</time>
      </trkpt>
      <trkpt lat="32.86923" lon="35.236755">
        <ele>193.5</ele>
        <time>2011-09-29T17:23:21.58</time>
      </trkpt>
      <trkpt lat="32.86922" lon="35.23676666666667">
        <ele>194.5</ele>
        <time>2011-09-29T17:23:22.58</time>
      </trkpt>
      <trkpt lat="32.86918333333333" lon="35.23690666666667">
        <ele>198</ele>
        <time>2011-09-29T17:23:25.68</time>
      </trkpt>
      <trkpt lat="32.86918333333333" lon="35.23692166666667">
        <ele>198</ele>
        <time>2011-09-29T17:23:26.58</time>
      </trkpt>
      <trkpt lat="32.86919" lon="35.23694">
        <ele>198.5</ele>
        <time>2011-09-29T17:23:27.58</time>
      </trkpt>
      <trkpt lat="32.869195" lon="35.23695166666667">
        <ele>199</ele>
        <time>2011-09-29T17:23:28.48</time>
      </trkpt>
      <trkpt lat="32.869195" lon="35.236961666666666">
        <ele>199</ele>
        <time>2011-09-29T17:23:29.58</time>
      </trkpt>
      <trkpt lat="32.869168333333334" lon="35.23699833333333">
        <ele>200</ele>
        <time>2011-09-29T17:23:31.68</time>
      </trkpt>
      <trkpt lat="32.869166666666665" lon="35.23701333333333">
        <ele>200.5</ele>
        <time>2011-09-29T17:23:32.58</time>
      </trkpt>
      <trkpt lat="32.869168333333334" lon="35.23702">
        <ele>201</ele>
        <time>2011-09-29T17:23:33.10</time>
      </trkpt>
      <trkpt lat="32.86916" lon="35.23704">
        <ele>201.5</ele>
        <time>2011-09-29T17:23:34.30</time>
      </trkpt>
      <trkpt lat="32.869155" lon="35.237046666666664">
        <ele>202.5</ele>
        <time>2011-09-29T17:23:35.58</time>
      </trkpt>
      <trkpt lat="32.869146666666666" lon="35.237065">
        <ele>203.5</ele>
        <time>2011-09-29T17:23:36.29</time>
      </trkpt>
      <trkpt lat="32.869146666666666" lon="35.23706333333333">
        <ele>204.5</ele>
        <time>2011-09-29T17:23:37.48</time>
      </trkpt>
      <trkpt lat="32.86915666666667" lon="35.23710666666667">
        <ele>206</ele>
        <time>2011-09-29T17:23:39.58</time>
      </trkpt>
      <trkpt lat="32.869148333333335" lon="35.237125">
        <ele>207</ele>
        <time>2011-09-29T17:23:40.58</time>
      </trkpt>
      <trkpt lat="32.86915" lon="35.23713">
        <ele>207.5</ele>
        <time>2011-09-29T17:23:41.12</time>
      </trkpt>
      <trkpt lat="32.869155" lon="35.237138333333334">
        <ele>207.5</ele>
        <time>2011-09-29T17:23:42.14</time>
      </trkpt>
      <trkpt lat="32.86916333333333" lon="35.23715333333333">
        <ele>208</ele>
        <time>2011-09-29T17:23:43.21</time>
      </trkpt>
      <trkpt lat="32.86917" lon="35.237271666666665">
        <ele>210.5</ele>
        <time>2011-09-29T17:23:46.58</time>
      </trkpt>
      <trkpt lat="32.86917666666667" lon="35.237285">
        <ele>210.5</ele>
        <time>2011-09-29T17:23:47.58</time>
      </trkpt>
      <trkpt lat="32.86918333333333" lon="35.237316666666665">
        <ele>210.5</ele>
        <time>2011-09-29T17:23:48</time>
      </trkpt>
      <trkpt lat="32.869186666666664" lon="35.237343333333335">
        <ele>210.5</ele>
        <time>2011-09-29T17:23:49.48</time>
      </trkpt>
      <trkpt lat="32.86919" lon="35.23735833333333">
        <ele>210.5</ele>
        <time>2011-09-29T17:23:50.35</time>
      </trkpt>
      <trkpt lat="32.86920166666667" lon="35.23740166666666">
        <ele>209.5</ele>
        <time>2011-09-29T17:23:52.48</time>
      </trkpt>
      <trkpt lat="32.8692" lon="35.237518333333334">
        <ele>207.5</ele>
        <time>2011-09-29T17:23:54.48</time>
      </trkpt>
      <trkpt lat="32.86920666666666" lon="35.23755666666667">
        <ele>207</ele>
        <time>2011-09-29T17:23:55.44</time>
      </trkpt>
      <trkpt lat="32.869191666666666" lon="35.237633333333335">
        <ele>207</ele>
        <time>2011-09-29T17:23:57.48</time>
      </trkpt>
      <trkpt lat="32.86919666666667" lon="35.23764">
        <ele>207</ele>
        <time>2011-09-29T17:23:58.40</time>
      </trkpt>
      <trkpt lat="32.86918333333333" lon="35.237675">
        <ele>207.5</ele>
        <time>2011-09-29T17:24:00.48</time>
      </trkpt>
      <trkpt lat="32.86916333333333" lon="35.237761666666664">
        <ele>206.5</ele>
        <time>2011-09-29T17:24:02.48</time>
      </trkpt>
      <trkpt lat="32.869185" lon="35.237856666666666">
        <ele>205.5</ele>
        <time>2011-09-29T17:24:04.48</time>
      </trkpt>
      <trkpt lat="32.86919833333333" lon="35.237876666666665">
        <ele>205</ele>
        <time>2011-09-29T17:24:05.37</time>
      </trkpt>
      <trkpt lat="32.86922666666667" lon="35.23789166666667">
        <ele>203.5</ele>
        <time>2011-09-29T17:24:07.58</time>
      </trkpt>
      <trkpt lat="32.86923" lon="35.23795666666667">
        <ele>209.5</ele>
        <time>2011-09-29T17:24:09.48</time>
      </trkpt>
      <trkpt lat="32.86922166666667" lon="35.23798166666667">
        <ele>208.5</ele>
        <time>2011-09-29T17:24:10.48</time>
      </trkpt>
      <trkpt lat="32.8692" lon="35.23804">
        <ele>207</ele>
        <time>2011-09-29T17:24:12.16</time>
      </trkpt>
      <trkpt lat="32.869195" lon="35.23806">
        <ele>207.5</ele>
        <time>2011-09-29T17:24:13.48</time>
      </trkpt>
      <trkpt lat="32.869195" lon="35.23807333333333">
        <ele>209.5</ele>
        <time>2011-09-29T17:24:14.37</time>
      </trkpt>
      <trkpt lat="32.86917833333333" lon="35.23812">
        <ele>210</ele>
        <time>2011-09-29T17:24:16.23</time>
      </trkpt>
      <trkpt lat="32.869155" lon="35.23824">
        <ele>211.5</ele>
        <time>2011-09-29T17:24:18.48</time>
      </trkpt>
      <trkpt lat="32.869141666666664" lon="35.238263333333336">
        <ele>217</ele>
        <time>2011-09-29T17:24:19.44</time>
      </trkpt>
      <trkpt lat="32.869128333333336" lon="35.23833">
        <ele>219.5</ele>
        <time>2011-09-29T17:24:21.17</time>
      </trkpt>
      <trkpt lat="32.869126666666666" lon="35.23835833333333">
        <ele>218</ele>
        <time>2011-09-29T17:24:22.49</time>
      </trkpt>
      <trkpt lat="32.86910666666667" lon="35.23844666666667">
        <ele>219.5</ele>
        <time>2011-09-29T17:24:24.57</time>
      </trkpt>
      <trkpt lat="32.869075" lon="35.238578333333336">
        <ele>223</ele>
        <time>2011-09-29T17:24:26.38</time>
      </trkpt>
      <trkpt lat="32.86906333333334" lon="35.23861333333333">
        <ele>223.5</ele>
        <time>2011-09-29T17:24:27.36</time>
      </trkpt>
      <trkpt lat="32.869036666666666" lon="35.238665">
        <ele>226</ele>
        <time>2011-09-29T17:24:29.48</time>
      </trkpt>
      <trkpt lat="32.86902666666667" lon="35.2387">
        <ele>225.5</ele>
        <time>2011-09-29T17:24:30.35</time>
      </trkpt>
      <trkpt lat="32.86902666666667" lon="35.238765">
        <ele>227</ele>
        <time>2011-09-29T17:24:32.48</time>
      </trkpt>
      <trkpt lat="32.869025" lon="35.238785">
        <ele>227.5</ele>
        <time>2011-09-29T17:24:33.35</time>
      </trkpt>
      <trkpt lat="32.86902" lon="35.238825">
        <ele>228</ele>
        <time>2011-09-29T17:24:35.48</time>
      </trkpt>
      <trkpt lat="32.86899" lon="35.23891666666667">
        <ele>228</ele>
        <time>2011-09-29T17:24:37.38</time>
      </trkpt>
      <trkpt lat="32.86898166666667" lon="35.238991666666664">
        <ele>228.5</ele>
        <time>2011-09-29T17:24:39.38</time>
      </trkpt>
      <trkpt lat="32.86895833333333" lon="35.23908">
        <ele>228</ele>
        <time>2011-09-29T17:24:41.46</time>
      </trkpt>
      <trkpt lat="32.86895333333333" lon="35.23918166666667">
        <ele>227.5</ele>
        <time>2011-09-29T17:24:43.51</time>
      </trkpt>
      <trkpt lat="32.868923333333335" lon="35.239221666666666">
        <ele>227.5</ele>
        <time>2011-09-29T17:24:45.38</time>
      </trkpt>
      <trkpt lat="32.86890833333333" lon="35.23922833333334">
        <ele>227.5</ele>
        <time>2011-09-29T17:24:46.36</time>
      </trkpt>
      <trkpt lat="32.868883333333336" lon="35.23929666666667">
        <ele>227.5</ele>
        <time>2011-09-29T17:24:48.53</time>
      </trkpt>
      <trkpt lat="32.868858333333336" lon="35.23932">
        <ele>227.5</ele>
        <time>2011-09-29T17:24:50.38</time>
      </trkpt>
      <trkpt lat="32.868855" lon="35.23934166666667">
        <ele>228</ele>
        <time>2011-09-29T17:24:51.33</time>
      </trkpt>
      <trkpt lat="32.86881833333333" lon="35.239443333333334">
        <ele>227</ele>
        <time>2011-09-29T17:24:53.38</time>
      </trkpt>
      <trkpt lat="32.868811666666666" lon="35.239461666666664">
        <ele>227</ele>
        <time>2011-09-29T17:24:54.49</time>
      </trkpt>
      <trkpt lat="32.86878333333333" lon="35.23952333333333">
        <ele>226.5</ele>
        <time>2011-09-29T17:24:56.38</time>
      </trkpt>
      <trkpt lat="32.86877333333333" lon="35.23955333333333">
        <ele>226</ele>
        <time>2011-09-29T17:24:57.35</time>
      </trkpt>
      <trkpt lat="32.868748333333336" lon="35.239596666666664">
        <ele>226</ele>
        <time>2011-09-29T17:24:59.38</time>
      </trkpt>
      <trkpt lat="32.86870666666667" lon="35.239671666666666">
        <ele>227.5</ele>
        <time>2011-09-29T17:25:01.10</time>
      </trkpt>
      <trkpt lat="32.86869166666666" lon="35.239705">
        <ele>228.5</ele>
        <time>2011-09-29T17:25:02.38</time>
      </trkpt>
      <trkpt lat="32.86868166666667" lon="35.239735">
        <ele>229.5</ele>
        <time>2011-09-29T17:25:03.34</time>
      </trkpt>
      <trkpt lat="32.868676666666666" lon="35.23979666666666">
        <ele>234</ele>
        <time>2011-09-29T17:25:05.38</time>
      </trkpt>
      <trkpt lat="32.868673333333334" lon="35.23981833333333">
        <ele>235</ele>
        <time>2011-09-29T17:25:06.33</time>
      </trkpt>
      <trkpt lat="32.868655" lon="35.239895">
        <ele>236.5</ele>
        <time>2011-09-29T17:25:08.38</time>
      </trkpt>
      <trkpt lat="32.868645" lon="35.239911666666664">
        <ele>238</ele>
        <time>2011-09-29T17:25:09.36</time>
      </trkpt>
      <trkpt lat="32.86863" lon="35.23994833333333">
        <ele>236.5</ele>
        <time>2011-09-29T17:25:11.28</time>
      </trkpt>
      <trkpt lat="32.86862166666667" lon="35.23996666666667">
        <ele>236</ele>
        <time>2011-09-29T17:25:12.32</time>
      </trkpt>
      <trkpt lat="32.8686" lon="35.239988333333336">
        <ele>235</ele>
        <time>2011-09-29T17:25:14.45</time>
      </trkpt>
      <trkpt lat="32.868588333333335" lon="35.23999666666667">
        <ele>235</ele>
        <time>2011-09-29T17:25:16.28</time>
      </trkpt>
      <trkpt lat="32.86857666666667" lon="35.240005">
        <ele>235.5</ele>
        <time>2011-09-29T17:25:17.28</time>
      </trkpt>
      <trkpt lat="32.868566666666666" lon="35.240026666666665">
        <ele>235.5</ele>
        <time>2011-09-29T17:25:18.33</time>
      </trkpt>
      <trkpt lat="32.868545" lon="35.24006">
        <ele>236</ele>
        <time>2011-09-29T17:25:20.38</time>
      </trkpt>
      <trkpt lat="32.868541666666665" lon="35.24007">
        <ele>236</ele>
        <time>2011-09-29T17:25:21.36</time>
      </trkpt>
      <trkpt lat="32.86852833333333" lon="35.2401">
        <ele>236.5</ele>
        <time>2011-09-29T17:25:23.28</time>
      </trkpt>
      <trkpt lat="32.86851166666667" lon="35.24014833333333">
        <ele>236.5</ele>
        <time>2011-09-29T17:25:25.28</time>
      </trkpt>
      <trkpt lat="32.86850833333333" lon="35.240163333333335">
        <ele>236.5</ele>
        <time>2011-09-29T17:25:26.37</time>
      </trkpt>
      <trkpt lat="32.86848333333333" lon="35.240215">
        <ele>236.5</ele>
        <time>2011-09-29T17:25:28.18</time>
      </trkpt>
      <trkpt lat="32.86847" lon="35.240235">
        <ele>237</ele>
        <time>2011-09-29T17:25:29.68</time>
      </trkpt>
      <trkpt lat="32.86845" lon="35.24025666666667">
        <ele>237</ele>
        <time>2011-09-29T17:25:31.38</time>
      </trkpt>
      <trkpt lat="32.868458333333336" lon="35.240271666666665">
        <ele>237</ele>
        <time>2011-09-29T17:25:32.37</time>
      </trkpt>
      <trkpt lat="32.86843833333333" lon="35.24031">
        <ele>237</ele>
        <time>2011-09-29T17:25:34.28</time>
      </trkpt>
      <trkpt lat="32.86843666666667" lon="35.24032666666667">
        <ele>237.5</ele>
        <time>2011-09-29T17:25:35.28</time>
      </trkpt>
      <trkpt lat="32.86843833333333" lon="35.240341666666666">
        <ele>237</ele>
        <time>2011-09-29T17:25:36.28</time>
      </trkpt>
      <trkpt lat="32.86844" lon="35.240433333333335">
        <ele>237</ele>
        <time>2011-09-29T17:25:38.28</time>
      </trkpt>
      <trkpt lat="32.868465" lon="35.24062">
        <ele>240</ele>
        <time>2011-09-29T17:25:41.21</time>
      </trkpt>
      <trkpt lat="32.868471666666665" lon="35.24066833333333">
        <ele>240</ele>
        <time>2011-09-29T17:25:43.51</time>
      </trkpt>
      <trkpt lat="32.86843666666667" lon="35.24076">
        <ele>239.5</ele>
        <time>2011-09-29T17:25:45.28</time>
      </trkpt>
      <trkpt lat="32.86841833333333" lon="35.240788333333334">
        <ele>240</ele>
        <time>2011-09-29T17:25:46.28</time>
      </trkpt>
      <trkpt lat="32.86841166666667" lon="35.240806666666664">
        <ele>240</ele>
        <time>2011-09-29T17:25:47.49</time>
      </trkpt>
      <trkpt lat="32.868458333333336" lon="35.240898333333334">
        <ele>240.5</ele>
        <time>2011-09-29T17:25:49.18</time>
      </trkpt>
      <trkpt lat="32.868473333333334" lon="35.240921666666665">
        <ele>240.5</ele>
        <time>2011-09-29T17:25:50.18</time>
      </trkpt>
      <trkpt lat="32.868476666666666" lon="35.240945">
        <ele>240</ele>
        <time>2011-09-29T17:25:51.18</time>
      </trkpt>
      <trkpt lat="32.86846833333333" lon="35.24097833333333">
        <ele>239</ele>
        <time>2011-09-29T17:25:52.33</time>
      </trkpt>
      <trkpt lat="32.868555" lon="35.24121">
        <ele>233.5</ele>
        <time>2011-09-29T17:25:55.18</time>
      </trkpt>
      <trkpt lat="32.868575" lon="35.241238333333335">
        <ele>231.5</ele>
        <time>2011-09-29T17:25:57.18</time>
      </trkpt>
      <trkpt lat="32.8686" lon="35.24127166666667">
        <ele>231.5</ele>
        <time>2011-09-29T17:25:58.28</time>
      </trkpt>
      <trkpt lat="32.868785" lon="35.241321666666664">
        <ele>231</ele>
        <time>2011-09-29T17:26:01.18</time>
      </trkpt>
      <trkpt lat="32.86879666666667" lon="35.24127166666667">
        <ele>230</ele>
        <time>2011-09-29T17:26:03.13</time>
      </trkpt>
      <trkpt lat="32.868835" lon="35.241245">
        <ele>230</ele>
        <time>2011-09-29T17:26:05.45</time>
      </trkpt>
      <trkpt lat="32.86886" lon="35.24122333333333">
        <ele>230</ele>
        <time>2011-09-29T17:26:07.18</time>
      </trkpt>
      <trkpt lat="32.868901666666666" lon="35.241218333333336">
        <ele>229</ele>
        <time>2011-09-29T17:26:09.18</time>
      </trkpt>
      <trkpt lat="32.86891833333333" lon="35.24119833333334">
        <ele>228.5</ele>
        <time>2011-09-29T17:26:10.33</time>
      </trkpt>
      <trkpt lat="32.869011666666665" lon="35.241081666666666">
        <ele>231</ele>
        <time>2011-09-29T17:26:12.18</time>
      </trkpt>
      <trkpt lat="32.869075" lon="35.24101666666667">
        <ele>229.5</ele>
        <time>2011-09-29T17:26:13.18</time>
      </trkpt>
      <trkpt lat="32.869125" lon="35.240966666666665">
        <ele>228.5</ele>
        <time>2011-09-29T17:26:14.18</time>
      </trkpt>
      <trkpt lat="32.869186666666664" lon="35.2409">
        <ele>227.5</ele>
        <time>2011-09-29T17:26:15.18</time>
      </trkpt>
      <trkpt lat="32.86962666666667" lon="35.240718333333334">
        <ele>223.5</ele>
        <time>2011-09-29T17:26:19.18</time>
      </trkpt>
      <trkpt lat="32.86967833333333" lon="35.240671666666664">
        <ele>218</ele>
        <time>2011-09-29T17:26:20.33</time>
      </trkpt>
      <trkpt lat="32.86980833333333" lon="35.240568333333336">
        <ele>215</ele>
        <time>2011-09-29T17:26:22.18</time>
      </trkpt>
      <trkpt lat="32.86985" lon="35.240518333333334">
        <ele>215</ele>
        <time>2011-09-29T17:26:23.18</time>
      </trkpt>
      <trkpt lat="32.86996333333333" lon="35.24041166666667">
        <ele>210</ele>
        <time>2011-09-29T17:26:25.28</time>
      </trkpt>
      <trkpt lat="32.87004666666667" lon="35.24028666666667">
        <ele>208.5</ele>
        <time>2011-09-29T17:26:27.8</time>
      </trkpt>
      <trkpt lat="32.870081666666664" lon="35.240245">
        <ele>204.5</ele>
        <time>2011-09-29T17:26:28.18</time>
      </trkpt>
      <trkpt lat="32.87013666666667" lon="35.24022333333333">
        <ele>202.5</ele>
        <time>2011-09-29T17:26:29.18</time>
      </trkpt>
      <trkpt lat="32.870243333333335" lon="35.24014666666667">
        <ele>194.5</ele>
        <time>2011-09-29T17:26:31.8</time>
      </trkpt>
      <trkpt lat="32.87027666666667" lon="35.24010166666667">
        <ele>193</ele>
        <time>2011-09-29T17:26:32.18</time>
      </trkpt>
      <trkpt lat="32.870378333333335" lon="35.23995">
        <ele>190</ele>
        <time>2011-09-29T17:26:34.18</time>
      </trkpt>
      <trkpt lat="32.87045" lon="35.23979166666667">
        <ele>187</ele>
        <time>2011-09-29T17:26:36.8</time>
      </trkpt>
      <trkpt lat="32.87048166666667" lon="35.23973">
        <ele>185.5</ele>
        <time>2011-09-29T17:26:37.8</time>
      </trkpt>
      <trkpt lat="32.87049833333333" lon="35.239668333333334">
        <ele>184.5</ele>
        <time>2011-09-29T17:26:38.18</time>
      </trkpt>
      <trkpt lat="32.87048" lon="35.23961333333333">
        <ele>181</ele>
        <time>2011-09-29T17:26:39.18</time>
      </trkpt>
      <trkpt lat="32.870468333333335" lon="35.23957">
        <ele>180</ele>
        <time>2011-09-29T17:26:40.8</time>
      </trkpt>
      <trkpt lat="32.87045166666667" lon="35.23952333333333">
        <ele>180</ele>
        <time>2011-09-29T17:26:41.8</time>
      </trkpt>
      <trkpt lat="32.870443333333334" lon="35.23948333333333">
        <ele>181</ele>
        <time>2011-09-29T17:26:42.8</time>
      </trkpt>
      <trkpt lat="32.870443333333334" lon="35.239455">
        <ele>183</ele>
        <time>2011-09-29T17:26:43.8</time>
      </trkpt>
      <trkpt lat="32.87045" lon="35.239435">
        <ele>185</ele>
        <time>2011-09-29T17:26:44.8</time>
      </trkpt>
      <trkpt lat="32.870435" lon="35.23943">
        <ele>185</ele>
        <time>2011-09-29T17:26:45.8</time>
      </trkpt>
      <trkpt lat="32.87042666666667" lon="35.23941333333333">
        <ele>185</ele>
        <time>2011-09-29T17:26:46.8</time>
      </trkpt>
      <trkpt lat="32.870403333333336" lon="35.23941666666666">
        <ele>183.5</ele>
        <time>2011-09-29T17:26:47.32</time>
      </trkpt>
      <trkpt lat="32.87034833333333" lon="35.239358333333335">
        <ele>182.5</ele>
        <time>2011-09-29T17:26:49.8</time>
      </trkpt>
      <trkpt lat="32.870331666666665" lon="35.239325">
        <ele>183</ele>
        <time>2011-09-29T17:26:50.33</time>
      </trkpt>
      <trkpt lat="32.870311666666666" lon="35.239245">
        <ele>184.5</ele>
        <time>2011-09-29T17:26:52.8</time>
      </trkpt>
      <trkpt lat="32.870295" lon="35.239221666666666">
        <ele>184.5</ele>
        <time>2011-09-29T17:26:53.35</time>
      </trkpt>
      <trkpt lat="32.87025166666667" lon="35.23916333333333">
        <ele>184</ele>
        <time>2011-09-29T17:26:55.59</time>
      </trkpt>
      <trkpt lat="32.8702" lon="35.239088333333335">
        <ele>182</ele>
        <time>2011-09-29T17:26:57.8</time>
      </trkpt>
      <trkpt lat="32.87016833333333" lon="35.23906">
        <ele>181.5</ele>
        <time>2011-09-29T17:26:58.8</time>
      </trkpt>
      <trkpt lat="32.87014166666667" lon="35.23902666666667">
        <ele>180.5</ele>
        <time>2011-09-29T17:26:59.31</time>
      </trkpt>
      <trkpt lat="32.870113333333336" lon="35.23894333333333">
        <ele>179.5</ele>
        <time>2011-09-29T17:27:01.8</time>
      </trkpt>
      <trkpt lat="32.870155" lon="35.23885">
        <ele>183.5</ele>
        <time>2011-09-29T17:27:03.8</time>
      </trkpt>
      <trkpt lat="32.87018" lon="35.238805">
        <ele>185</ele>
        <time>2011-09-29T17:27:04.31</time>
      </trkpt>
      <trkpt lat="32.87022833333333" lon="35.23876333333333">
        <ele>185</ele>
        <time>2011-09-29T17:27:06.8</time>
      </trkpt>
      <trkpt lat="32.87023333333333" lon="35.238733333333336">
        <ele>185</ele>
        <time>2011-09-29T17:27:07.33</time>
      </trkpt>
      <trkpt lat="32.87034" lon="35.238685">
        <ele>183.5</ele>
        <time>2011-09-29T17:27:09.26</time>
      </trkpt>
      <trkpt lat="32.870353333333334" lon="35.23866666666667">
        <ele>183</ele>
        <time>2011-09-29T17:27:10.28</time>
      </trkpt>
      <trkpt lat="32.87034333333333" lon="35.238641666666666">
        <ele>183.5</ele>
        <time>2011-09-29T17:27:11.33</time>
      </trkpt>
      <trkpt lat="32.870353333333334" lon="35.238566666666664">
        <ele>183.5</ele>
        <time>2011-09-29T17:27:12.99</time>
      </trkpt>
      <trkpt lat="32.87036" lon="35.238535">
        <ele>183</ele>
        <time>2011-09-29T17:27:13.99</time>
      </trkpt>
      <trkpt lat="32.87037" lon="35.23849666666667">
        <ele>182.5</ele>
        <time>2011-09-29T17:27:14.99</time>
      </trkpt>
      <trkpt lat="32.87038" lon="35.23846833333333">
        <ele>182</ele>
        <time>2011-09-29T17:27:16.30</time>
      </trkpt>
      <trkpt lat="32.87039" lon="35.23842">
        <ele>181</ele>
        <time>2011-09-29T17:27:17.99</time>
      </trkpt>
      <trkpt lat="32.87038166666667" lon="35.238371666666666">
        <ele>180.5</ele>
        <time>2011-09-29T17:27:19.32</time>
      </trkpt>
      <trkpt lat="32.87041" lon="35.23829666666666">
        <ele>178.5</ele>
        <time>2011-09-29T17:27:20.99</time>
      </trkpt>
      <trkpt lat="32.87041166666667" lon="35.238276666666664">
        <ele>178</ele>
        <time>2011-09-29T17:27:22.8</time>
      </trkpt>
      <trkpt lat="32.87041" lon="35.238255">
        <ele>177.5</ele>
        <time>2011-09-29T17:27:23.37</time>
      </trkpt>
      <trkpt lat="32.870415" lon="35.23823">
        <ele>177</ele>
        <time>2011-09-29T17:27:25.8</time>
      </trkpt>
      <trkpt lat="32.87043166666667" lon="35.238216666666666">
        <ele>176.5</ele>
        <time>2011-09-29T17:27:26.23</time>
      </trkpt>
      <trkpt lat="32.87042833333334" lon="35.238215">
        <ele>176.5</ele>
        <time>2011-09-29T17:27:27.55</time>
      </trkpt>
      <trkpt lat="32.870435" lon="35.23820833333333">
        <ele>176.5</ele>
        <time>2011-09-29T17:27:28.99</time>
      </trkpt>
      <trkpt lat="32.87044" lon="35.23820333333333">
        <ele>176</ele>
        <time>2011-09-29T17:27:29.99</time>
      </trkpt>
      <trkpt lat="32.870488333333334" lon="35.23819">
        <ele>174.5</ele>
        <time>2011-09-29T17:27:31.99</time>
      </trkpt>
      <trkpt lat="32.87052166666667" lon="35.238175">
        <ele>175</ele>
        <time>2011-09-29T17:27:33.41</time>
      </trkpt>
      <trkpt lat="32.87056666666667" lon="35.23813333333333">
        <ele>174.5</ele>
        <time>2011-09-29T17:27:35.48</time>
      </trkpt>
      <trkpt lat="32.870595" lon="35.23811">
        <ele>174</ele>
        <time>2011-09-29T17:27:36.53</time>
      </trkpt>
      <trkpt lat="32.870646666666666" lon="35.238056666666665">
        <ele>174.5</ele>
        <time>2011-09-29T17:27:37.99</time>
      </trkpt>
      <trkpt lat="32.87081333333333" lon="35.237721666666665">
        <ele>172.5</ele>
        <time>2011-09-29T17:27:41.99</time>
      </trkpt>
      <trkpt lat="32.870823333333334" lon="35.237675">
        <ele>172.5</ele>
        <time>2011-09-29T17:27:43.31</time>
      </trkpt>
      <trkpt lat="32.87084333333333" lon="35.237586666666665">
        <ele>172</ele>
        <time>2011-09-29T17:27:45.51</time>
      </trkpt>
      <trkpt lat="32.870855" lon="35.23751166666667">
        <ele>173</ele>
        <time>2011-09-29T17:27:46.99</time>
      </trkpt>
      <trkpt lat="32.870875" lon="35.23746166666667">
        <ele>173</ele>
        <time>2011-09-29T17:27:49.48</time>
      </trkpt>
      <trkpt lat="32.8709" lon="35.237363333333334">
        <ele>172</ele>
        <time>2011-09-29T17:27:50.98</time>
      </trkpt>
      <trkpt lat="32.87090666666667" lon="35.23733333333333">
        <ele>171.5</ele>
        <time>2011-09-29T17:27:52.28</time>
      </trkpt>
      <trkpt lat="32.870913333333334" lon="35.237305">
        <ele>171</ele>
        <time>2011-09-29T17:27:54.8</time>
      </trkpt>
      <trkpt lat="32.870925" lon="35.23728333333333">
        <ele>170.5</ele>
        <time>2011-09-29T17:27:55.33</time>
      </trkpt>
      <trkpt lat="32.87096" lon="35.23720333333333">
        <ele>169.5</ele>
        <time>2011-09-29T17:27:56.99</time>
      </trkpt>
      <trkpt lat="32.87097333333333" lon="35.237145">
        <ele>169.5</ele>
        <time>2011-09-29T17:27:58.98</time>
      </trkpt>
      <trkpt lat="32.870975" lon="35.23713333333333">
        <ele>169.5</ele>
        <time>2011-09-29T17:28:00.29</time>
      </trkpt>
      <trkpt lat="32.87097833333333" lon="35.2371">
        <ele>169.5</ele>
        <time>2011-09-29T17:28:02.63</time>
      </trkpt>
      <trkpt lat="32.871005" lon="35.23704166666667">
        <ele>168</ele>
        <time>2011-09-29T17:28:03.99</time>
      </trkpt>
      <trkpt lat="32.87101666666667" lon="35.237021666666664">
        <ele>167.5</ele>
        <time>2011-09-29T17:28:04.98</time>
      </trkpt>
      <trkpt lat="32.871066666666664" lon="35.236853333333336">
        <ele>168</ele>
        <time>2011-09-29T17:28:07.98</time>
      </trkpt>
      <trkpt lat="32.871045" lon="35.236761666666666">
        <ele>167.5</ele>
        <time>2011-09-29T17:28:09.98</time>
      </trkpt>
      <trkpt lat="32.871035" lon="35.23672166666667">
        <ele>168</ele>
        <time>2011-09-29T17:28:11.30</time>
      </trkpt>
      <trkpt lat="32.87103666666667" lon="35.23664333333333">
        <ele>166.5</ele>
        <time>2011-09-29T17:28:12.98</time>
      </trkpt>
      <trkpt lat="32.87104333333333" lon="35.236628333333336">
        <ele>166</ele>
        <time>2011-09-29T17:28:13.98</time>
      </trkpt>
      <trkpt lat="32.871068333333334" lon="35.23654833333333">
        <ele>166.5</ele>
        <time>2011-09-29T17:28:15.98</time>
      </trkpt>
      <trkpt lat="32.87107833333334" lon="35.23652166666667">
        <ele>166.5</ele>
        <time>2011-09-29T17:28:16.98</time>
      </trkpt>
      <trkpt lat="32.87108333333333" lon="35.23649">
        <ele>166.5</ele>
        <time>2011-09-29T17:28:18.28</time>
      </trkpt>
      <trkpt lat="32.871085" lon="35.23643333333333">
        <ele>165</ele>
        <time>2011-09-29T17:28:19.98</time>
      </trkpt>
      <trkpt lat="32.8711" lon="35.23641">
        <ele>166</ele>
        <time>2011-09-29T17:28:21.28</time>
      </trkpt>
      <trkpt lat="32.87110666666667" lon="35.236358333333335">
        <ele>166</ele>
        <time>2011-09-29T17:28:23.20</time>
      </trkpt>
      <trkpt lat="32.87114666666667" lon="35.23626333333333">
        <ele>165.5</ele>
        <time>2011-09-29T17:28:24.98</time>
      </trkpt>
      <trkpt lat="32.871143333333336" lon="35.236215">
        <ele>165</ele>
        <time>2011-09-29T17:28:25.98</time>
      </trkpt>
      <trkpt lat="32.87113333333333" lon="35.23616833333333">
        <ele>164.5</ele>
        <time>2011-09-29T17:28:27.41</time>
      </trkpt>
      <trkpt lat="32.87114833333333" lon="35.236105">
        <ele>165</ele>
        <time>2011-09-29T17:28:28.98</time>
      </trkpt>
      <trkpt lat="32.871185" lon="35.23602">
        <ele>166.5</ele>
        <time>2011-09-29T17:28:31.68</time>
      </trkpt>
      <trkpt lat="32.871201666666664" lon="35.23597">
        <ele>166.5</ele>
        <time>2011-09-29T17:28:32.37</time>
      </trkpt>
      <trkpt lat="32.87123166666667" lon="35.23589166666667">
        <ele>166.5</ele>
        <time>2011-09-29T17:28:33.98</time>
      </trkpt>
      <trkpt lat="32.87125666666667" lon="35.23585666666666">
        <ele>166</ele>
        <time>2011-09-29T17:28:35.30</time>
      </trkpt>
      <trkpt lat="32.87131333333333" lon="35.23580333333334">
        <ele>166</ele>
        <time>2011-09-29T17:28:36.97</time>
      </trkpt>
      <trkpt lat="32.871338333333334" lon="35.235771666666665">
        <ele>166</ele>
        <time>2011-09-29T17:28:38.28</time>
      </trkpt>
      <trkpt lat="32.87137666666667" lon="35.235695">
        <ele>166</ele>
        <time>2011-09-29T17:28:40.40</time>
      </trkpt>
      <trkpt lat="32.871381666666665" lon="35.235585">
        <ele>167</ele>
        <time>2011-09-29T17:28:41.97</time>
      </trkpt>
      <trkpt lat="32.871363333333335" lon="35.235438333333335">
        <ele>169</ele>
        <time>2011-09-29T17:28:43.97</time>
      </trkpt>
      <trkpt lat="32.871361666666665" lon="35.23538833333333">
        <ele>169</ele>
        <time>2011-09-29T17:28:44.98</time>
      </trkpt>
      <trkpt lat="32.871368333333336" lon="35.23533333333334">
        <ele>169.5</ele>
        <time>2011-09-29T17:28:46.30</time>
      </trkpt>
      <trkpt lat="32.87134833333333" lon="35.23525166666667">
        <ele>168.5</ele>
        <time>2011-09-29T17:28:47.97</time>
      </trkpt>
      <trkpt lat="32.87133333333333" lon="35.235218333333336">
        <ele>166</ele>
        <time>2011-09-29T17:28:48.97</time>
      </trkpt>
      <trkpt lat="32.871325" lon="35.23518166666667">
        <ele>165.5</ele>
        <time>2011-09-29T17:28:49.97</time>
      </trkpt>
      <trkpt lat="32.871305" lon="35.235148333333335">
        <ele>165.5</ele>
        <time>2011-09-29T17:28:51.29</time>
      </trkpt>
      <trkpt lat="32.87125666666667" lon="35.235065">
        <ele>167.5</ele>
        <time>2011-09-29T17:28:52.96</time>
      </trkpt>
      <trkpt lat="32.87122166666666" lon="35.23502833333333">
        <ele>167.5</ele>
        <time>2011-09-29T17:28:54.26</time>
      </trkpt>
      <trkpt lat="32.87112833333333" lon="35.23499">
        <ele>167</ele>
        <time>2011-09-29T17:28:55.97</time>
      </trkpt>
      <trkpt lat="32.87108333333333" lon="35.23495833333333">
        <ele>167.5</ele>
        <time>2011-09-29T17:28:56.97</time>
      </trkpt>
      <trkpt lat="32.87103833333333" lon="35.234925">
        <ele>168</ele>
        <time>2011-09-29T17:28:57.97</time>
      </trkpt>
      <trkpt lat="32.871003333333334" lon="35.234885">
        <ele>168</ele>
        <time>2011-09-29T17:28:59.27</time>
      </trkpt>
      <trkpt lat="32.87094333333334" lon="35.234766666666665">
        <ele>168</ele>
        <time>2011-09-29T17:29:00.96</time>
      </trkpt>
      <trkpt lat="32.870893333333335" lon="35.234723333333335">
        <ele>168</ele>
        <time>2011-09-29T17:29:01.97</time>
      </trkpt>
      <trkpt lat="32.87085666666667" lon="35.23466666666667">
        <ele>168.5</ele>
        <time>2011-09-29T17:29:03.32</time>
      </trkpt>
      <trkpt lat="32.87077166666667" lon="35.234575">
        <ele>169</ele>
        <time>2011-09-29T17:29:04.97</time>
      </trkpt>
      <trkpt lat="32.870738333333335" lon="35.23454">
        <ele>169.5</ele>
        <time>2011-09-29T17:29:06.29</time>
      </trkpt>
      <trkpt lat="32.87069833333334" lon="35.23448666666667">
        <ele>169.5</ele>
        <time>2011-09-29T17:29:07.97</time>
      </trkpt>
      <trkpt lat="32.87061666666666" lon="35.23439166666667">
        <ele>169.5</ele>
        <time>2011-09-29T17:29:10.24</time>
      </trkpt>
      <trkpt lat="32.87048" lon="35.234291666666664">
        <ele>170.5</ele>
        <time>2011-09-29T17:29:13.16</time>
      </trkpt>
      <trkpt lat="32.870295" lon="35.23414">
        <ele>171</ele>
        <time>2011-09-29T17:29:15.96</time>
      </trkpt>
      <trkpt lat="32.87014833333333" lon="35.23405833333333">
        <ele>174.5</ele>
        <time>2011-09-29T17:29:17.97</time>
      </trkpt>
      <trkpt lat="32.870086666666666" lon="35.23393166666666">
        <ele>175</ele>
        <time>2011-09-29T17:29:20.29</time>
      </trkpt>
      <trkpt lat="32.870105" lon="35.233803333333334">
        <ele>175</ele>
        <time>2011-09-29T17:29:21.96</time>
      </trkpt>
      <trkpt lat="32.87014" lon="35.233761666666666">
        <ele>175</ele>
        <time>2011-09-29T17:29:22.96</time>
      </trkpt>
      <trkpt lat="32.87014666666666" lon="35.233713333333334">
        <ele>174</ele>
        <time>2011-09-29T17:29:23.96</time>
      </trkpt>
      <trkpt lat="32.870158333333336" lon="35.233671666666666">
        <ele>173.5</ele>
        <time>2011-09-29T17:29:25.33</time>
      </trkpt>
      <trkpt lat="32.87016666666667" lon="35.233621666666664">
        <ele>174.5</ele>
        <time>2011-09-29T17:29:27.78</time>
      </trkpt>
      <trkpt lat="32.87015" lon="35.233601666666665">
        <ele>176.5</ele>
        <time>2011-09-29T17:29:28.37</time>
      </trkpt>
      <trkpt lat="32.87013666666667" lon="35.23355">
        <ele>177</ele>
        <time>2011-09-29T17:29:30.50</time>
      </trkpt>
      <trkpt lat="32.87011666666667" lon="35.233493333333335">
        <ele>177.5</ele>
        <time>2011-09-29T17:29:31.96</time>
      </trkpt>
      <trkpt lat="32.87009" lon="35.23346166666666">
        <ele>179</ele>
        <time>2011-09-29T17:29:32.96</time>
      </trkpt>
      <trkpt lat="32.870081666666664" lon="35.23343666666667">
        <ele>178.5</ele>
        <time>2011-09-29T17:29:33.96</time>
      </trkpt>
      <trkpt lat="32.870075" lon="35.23341166666667">
        <ele>178</ele>
        <time>2011-09-29T17:29:34.96</time>
      </trkpt>
      <trkpt lat="32.870068333333336" lon="35.23338666666667">
        <ele>177.5</ele>
        <time>2011-09-29T17:29:36.27</time>
      </trkpt>
      <trkpt lat="32.87005666666667" lon="35.233335">
        <ele>176.5</ele>
        <time>2011-09-29T17:29:37.96</time>
      </trkpt>
      <trkpt lat="32.870055" lon="35.23331">
        <ele>176.5</ele>
        <time>2011-09-29T17:29:38.96</time>
      </trkpt>
      <trkpt lat="32.870055" lon="35.233295">
        <ele>176.5</ele>
        <time>2011-09-29T17:29:40.27</time>
      </trkpt>
      <trkpt lat="32.87005666666667" lon="35.233265">
        <ele>176.5</ele>
        <time>2011-09-29T17:29:41.96</time>
      </trkpt>
      <trkpt lat="32.87005666666667" lon="35.23325666666667">
        <ele>176.5</ele>
        <time>2011-09-29T17:29:43.29</time>
      </trkpt>
      <trkpt lat="32.87008333333333" lon="35.23323">
        <ele>177.5</ele>
        <time>2011-09-29T17:29:45.17</time>
      </trkpt>
      <trkpt lat="32.8701" lon="35.233225">
        <ele>177</ele>
        <time>2011-09-29T17:29:46.48</time>
      </trkpt>
      <trkpt lat="32.870125" lon="35.23321833333333">
        <ele>176.5</ele>
        <time>2011-09-29T17:29:47.95</time>
      </trkpt>
      <trkpt lat="32.870133333333335" lon="35.233225">
        <ele>176</ele>
        <time>2011-09-29T17:29:49.25</time>
      </trkpt>
      <trkpt lat="32.87016833333333" lon="35.233248333333336">
        <ele>176.5</ele>
        <time>2011-09-29T17:29:50.95</time>
      </trkpt>
      <trkpt lat="32.87018" lon="35.23325333333333">
        <ele>176.5</ele>
        <time>2011-09-29T17:29:52.28</time>
      </trkpt>
      <trkpt lat="32.8702" lon="35.233268333333335">
        <ele>176.5</ele>
        <time>2011-09-29T17:29:53.95</time>
      </trkpt>
      <trkpt lat="32.870205" lon="35.23327">
        <ele>176.5</ele>
        <time>2011-09-29T17:29:55.37</time>
      </trkpt>
      <trkpt lat="32.870203333333336" lon="35.233293333333336">
        <ele>176.5</ele>
        <time>2011-09-29T17:29:56.95</time>
      </trkpt>
      <trkpt lat="32.8702" lon="35.233315">
        <ele>177</ele>
        <time>2011-09-29T17:29:58.25</time>
      </trkpt>
      <trkpt lat="32.87022" lon="35.23335333333333">
        <ele>177</ele>
        <time>2011-09-29T17:29:59.95</time>
      </trkpt>
      <trkpt lat="32.87021166666667" lon="35.23336666666667">
        <ele>177.5</ele>
        <time>2011-09-29T17:30:01.26</time>
      </trkpt>
      <trkpt lat="32.870218333333334" lon="35.233403333333335">
        <ele>178</ele>
        <time>2011-09-29T17:30:02.95</time>
      </trkpt>
      <trkpt lat="32.870223333333335" lon="35.23341166666667">
        <ele>177.5</ele>
        <time>2011-09-29T17:30:04.29</time>
      </trkpt>
      <trkpt lat="32.870223333333335" lon="35.23343333333333">
        <ele>177.5</ele>
        <time>2011-09-29T17:30:05.95</time>
      </trkpt>
      <trkpt lat="32.870225" lon="35.23345166666667">
        <ele>177.5</ele>
        <time>2011-09-29T17:30:07.27</time>
      </trkpt>
      <trkpt lat="32.87023166666667" lon="35.23348333333333">
        <ele>177.5</ele>
        <time>2011-09-29T17:30:08.96</time>
      </trkpt>
      <trkpt lat="32.87023166666667" lon="35.23349666666667">
        <ele>177.5</ele>
        <time>2011-09-29T17:30:10.26</time>
      </trkpt>
      <trkpt lat="32.87023666666666" lon="35.233513333333335">
        <ele>178</ele>
        <time>2011-09-29T17:30:11.95</time>
      </trkpt>
      <trkpt lat="32.87025666666667" lon="35.233525">
        <ele>178.5</ele>
        <time>2011-09-29T17:30:13.25</time>
      </trkpt>
      <trkpt lat="32.87027166666667" lon="35.233556666666665">
        <ele>178.5</ele>
        <time>2011-09-29T17:30:14.95</time>
      </trkpt>
      <trkpt lat="32.87028166666666" lon="35.233575">
        <ele>179</ele>
        <time>2011-09-29T17:30:15.95</time>
      </trkpt>
      <trkpt lat="32.870285" lon="35.23358">
        <ele>178.5</ele>
        <time>2011-09-29T17:30:16.95</time>
      </trkpt>
      <trkpt lat="32.870286666666665" lon="35.233583333333335">
        <ele>179</ele>
        <time>2011-09-29T17:30:18.27</time>
      </trkpt>
      <trkpt lat="32.87029833333333" lon="35.23357333333333">
        <ele>177.5</ele>
        <time>2011-09-29T17:30:19.95</time>
      </trkpt>
      <trkpt lat="32.87036166666667" lon="35.23358666666667">
        <ele>178</ele>
        <time>2011-09-29T17:30:21.95</time>
      </trkpt>
      <trkpt lat="32.870385" lon="35.233596666666664">
        <ele>179</ele>
        <time>2011-09-29T17:30:23.28</time>
      </trkpt>
      <trkpt lat="32.870375" lon="35.23360666666667">
        <ele>180.5</ele>
        <time>2011-09-29T17:30:24.95</time>
      </trkpt>
      <trkpt lat="32.87038" lon="35.233581666666666">
        <ele>179.5</ele>
        <time>2011-09-29T17:30:27.33</time>
      </trkpt>
      <trkpt lat="32.870383333333336" lon="35.233545">
        <ele>180</ele>
        <time>2011-09-29T17:30:28.95</time>
      </trkpt>
      <trkpt lat="32.870378333333335" lon="35.23356166666667">
        <ele>180.5</ele>
        <time>2011-09-29T17:30:29.95</time>
      </trkpt>
      <trkpt lat="32.870308333333334" lon="35.23352333333333">
        <ele>182.5</ele>
        <time>2011-09-29T17:30:31.94</time>
      </trkpt>
      <trkpt lat="32.870306666666664" lon="35.233491666666666">
        <ele>182.5</ele>
        <time>2011-09-29T17:30:32.95</time>
      </trkpt>
      <trkpt lat="32.870306666666664" lon="35.23347">
        <ele>180.5</ele>
        <time>2011-09-29T17:30:34.25</time>
      </trkpt>
      <trkpt lat="32.87030333333333" lon="35.233455">
        <ele>180.5</ele>
        <time>2011-09-29T17:30:35.95</time>
      </trkpt>
      <trkpt lat="32.870311666666666" lon="35.23343333333333">
        <ele>180</ele>
        <time>2011-09-29T17:30:37.26</time>
      </trkpt>
      <trkpt lat="32.87033666666667" lon="35.233398333333334">
        <ele>180.5</ele>
        <time>2011-09-29T17:30:38.94</time>
      </trkpt>
      <trkpt lat="32.870358333333336" lon="35.233383333333336">
        <ele>179.5</ele>
        <time>2011-09-29T17:30:39.94</time>
      </trkpt>
      <trkpt lat="32.870375" lon="35.23336333333334">
        <ele>179.5</ele>
        <time>2011-09-29T17:30:41.28</time>
      </trkpt>
      <trkpt lat="32.870395" lon="35.23332833333333">
        <ele>182.5</ele>
        <time>2011-09-29T17:30:42.94</time>
      </trkpt>
      <trkpt lat="32.870398333333334" lon="35.233305">
        <ele>182.5</ele>
        <time>2011-09-29T17:30:44.25</time>
      </trkpt>
      <trkpt lat="32.870415" lon="35.233255">
        <ele>187</ele>
        <time>2011-09-29T17:30:46.88</time>
      </trkpt>
      <trkpt lat="32.87041166666667" lon="35.233245">
        <ele>188</ele>
        <time>2011-09-29T17:30:47.39</time>
      </trkpt>
      <trkpt lat="32.870385" lon="35.23321333333333">
        <ele>188</ele>
        <time>2011-09-29T17:30:48.94</time>
      </trkpt>
      <trkpt lat="32.87040833333333" lon="35.23317333333333">
        <ele>188</ele>
        <time>2011-09-29T17:30:51.8</time>
      </trkpt>
      <trkpt lat="32.870421666666665" lon="35.233158333333336">
        <ele>188</ele>
        <time>2011-09-29T17:30:51.94</time>
      </trkpt>
      <trkpt lat="32.87043166666667" lon="35.23314833333333">
        <ele>187.5</ele>
        <time>2011-09-29T17:30:53.27</time>
      </trkpt>
      <trkpt lat="32.87046333333333" lon="35.23312833333333">
        <ele>187.5</ele>
        <time>2011-09-29T17:30:54.94</time>
      </trkpt>
      <trkpt lat="32.87049" lon="35.233115">
        <ele>189</ele>
        <time>2011-09-29T17:30:55.94</time>
      </trkpt>
      <trkpt lat="32.870511666666665" lon="35.2331">
        <ele>190</ele>
        <time>2011-09-29T17:30:56.94</time>
      </trkpt>
      <trkpt lat="32.870535" lon="35.233085">
        <ele>190</ele>
        <time>2011-09-29T17:30:57.94</time>
      </trkpt>
      <trkpt lat="32.870531666666665" lon="35.233105">
        <ele>190</ele>
        <time>2011-09-29T17:30:59.24</time>
      </trkpt>
      <trkpt lat="32.870538333333336" lon="35.233095">
        <ele>190</ele>
        <time>2011-09-29T17:31:00.94</time>
      </trkpt>
      <trkpt lat="32.87055333333333" lon="35.23307833333333">
        <ele>190.5</ele>
        <time>2011-09-29T17:31:02.25</time>
      </trkpt>
      <trkpt lat="32.87054166666667" lon="35.23300666666667">
        <ele>191</ele>
        <time>2011-09-29T17:31:03.94</time>
      </trkpt>
      <trkpt lat="32.87053" lon="35.23296333333333">
        <ele>191.5</ele>
        <time>2011-09-29T17:31:05.29</time>
      </trkpt>
      <trkpt lat="32.87048333333333" lon="35.232863333333334">
        <ele>193.5</ele>
        <time>2011-09-29T17:31:06.94</time>
      </trkpt>
      <trkpt lat="32.870468333333335" lon="35.232823333333336">
        <ele>194</ele>
        <time>2011-09-29T17:31:07.93</time>
      </trkpt>
      <trkpt lat="32.87045333333333" lon="35.23278666666667">
        <ele>194</ele>
        <time>2011-09-29T17:31:08.94</time>
      </trkpt>
      <trkpt lat="32.87045666666667" lon="35.232751666666665">
        <ele>194</ele>
        <time>2011-09-29T17:31:10.26</time>
      </trkpt>
      <trkpt lat="32.87046" lon="35.232695">
        <ele>192.5</ele>
        <time>2011-09-29T17:31:11.94</time>
      </trkpt>
      <trkpt lat="32.87046333333333" lon="35.232665">
        <ele>192</ele>
        <time>2011-09-29T17:31:13.25</time>
      </trkpt>
      <trkpt lat="32.87045166666667" lon="35.232618333333335">
        <ele>191.5</ele>
        <time>2011-09-29T17:31:15.21</time>
      </trkpt>
      <trkpt lat="32.870448333333336" lon="35.23260333333333">
        <ele>191</ele>
        <time>2011-09-29T17:31:15.97</time>
      </trkpt>
      <trkpt lat="32.87043833333333" lon="35.23258833333333">
        <ele>191</ele>
        <time>2011-09-29T17:31:17.41</time>
      </trkpt>
      <trkpt lat="32.87041333333333" lon="35.232565">
        <ele>191</ele>
        <time>2011-09-29T17:31:19.68</time>
      </trkpt>
      <trkpt lat="32.870383333333336" lon="35.23254">
        <ele>191.5</ele>
        <time>2011-09-29T17:31:21.48</time>
      </trkpt>
      <trkpt lat="32.870441666666665" lon="35.23255666666667">
        <ele>191.5</ele>
        <time>2011-09-29T17:31:23.50</time>
      </trkpt>
      <trkpt lat="32.870446666666666" lon="35.23253">
        <ele>191</ele>
        <time>2011-09-29T17:31:24.94</time>
      </trkpt>
      <trkpt lat="32.870445" lon="35.232506666666666">
        <ele>191</ele>
        <time>2011-09-29T17:31:25.93</time>
      </trkpt>
      <trkpt lat="32.87043833333333" lon="35.232481666666665">
        <ele>191</ele>
        <time>2011-09-29T17:31:26.94</time>
      </trkpt>
      <trkpt lat="32.870448333333336" lon="35.23243">
        <ele>191.5</ele>
        <time>2011-09-29T17:31:28.93</time>
      </trkpt>
      <trkpt lat="32.87043833333333" lon="35.23241">
        <ele>192.5</ele>
        <time>2011-09-29T17:31:30.33</time>
      </trkpt>
      <trkpt lat="32.870435" lon="35.232396666666666">
        <ele>192.5</ele>
        <time>2011-09-29T17:31:31.93</time>
      </trkpt>
      <trkpt lat="32.870421666666665" lon="35.232371666666666">
        <ele>192.5</ele>
        <time>2011-09-29T17:31:32.93</time>
      </trkpt>
      <trkpt lat="32.870401666666666" lon="35.23234333333333">
        <ele>193.5</ele>
        <time>2011-09-29T17:31:33.93</time>
      </trkpt>
      <trkpt lat="32.870405" lon="35.23234166666667">
        <ele>193.5</ele>
        <time>2011-09-29T17:31:35.25</time>
      </trkpt>
      <trkpt lat="32.870423333333335" lon="35.232301666666665">
        <ele>192.5</ele>
        <time>2011-09-29T17:31:37.48</time>
      </trkpt>
      <trkpt lat="32.870415" lon="35.23228666666667">
        <ele>192.5</ele>
        <time>2011-09-29T17:31:38.96</time>
      </trkpt>
      <trkpt lat="32.87040666666667" lon="35.23226833333333">
        <ele>193.5</ele>
        <time>2011-09-29T17:31:40.27</time>
      </trkpt>
      <trkpt lat="32.870421666666665" lon="35.23225">
        <ele>195</ele>
        <time>2011-09-29T17:31:41.93</time>
      </trkpt>
      <trkpt lat="32.870405" lon="35.23226">
        <ele>197.5</ele>
        <time>2011-09-29T17:31:42.92</time>
      </trkpt>
      <trkpt lat="32.870405" lon="35.23223333333333">
        <ele>196.5</ele>
        <time>2011-09-29T17:31:44.25</time>
      </trkpt>
      <trkpt lat="32.870398333333334" lon="35.232215">
        <ele>195.5</ele>
        <time>2011-09-29T17:31:46.36</time>
      </trkpt>
      <trkpt lat="32.870401666666666" lon="35.232198333333336">
        <ele>195.5</ele>
        <time>2011-09-29T17:31:47.94</time>
      </trkpt>
      <trkpt lat="32.870398333333334" lon="35.232175">
        <ele>195</ele>
        <time>2011-09-29T17:31:49.25</time>
      </trkpt>
      <trkpt lat="32.87041" lon="35.23215">
        <ele>195</ele>
        <time>2011-09-29T17:31:50.93</time>
      </trkpt>
      <trkpt lat="32.87041833333333" lon="35.232126666666666">
        <ele>194.5</ele>
        <time>2011-09-29T17:31:51.92</time>
      </trkpt>
      <trkpt lat="32.87042833333334" lon="35.232105">
        <ele>194.5</ele>
        <time>2011-09-29T17:31:52.93</time>
      </trkpt>
      <trkpt lat="32.87044" lon="35.232085">
        <ele>194</ele>
        <time>2011-09-29T17:31:54.23</time>
      </trkpt>
      <trkpt lat="32.870441666666665" lon="35.23204166666667">
        <ele>195</ele>
        <time>2011-09-29T17:31:55.92</time>
      </trkpt>
      <trkpt lat="32.87042666666667" lon="35.232018333333336">
        <ele>194.5</ele>
        <time>2011-09-29T17:31:57.26</time>
      </trkpt>
      <trkpt lat="32.87047833333333" lon="35.23198333333333">
        <ele>195.5</ele>
        <time>2011-09-29T17:31:59.30</time>
      </trkpt>
      <trkpt lat="32.870475" lon="35.231945">
        <ele>194.5</ele>
        <time>2011-09-29T17:32:00.95</time>
      </trkpt>
      <trkpt lat="32.870461666666664" lon="35.231926666666666">
        <ele>195</ele>
        <time>2011-09-29T17:32:02.27</time>
      </trkpt>
      <trkpt lat="32.870446666666666" lon="35.23187">
        <ele>200</ele>
        <time>2011-09-29T17:32:03.99</time>
      </trkpt>
      <trkpt lat="32.87043833333333" lon="35.23185">
        <ele>201</ele>
        <time>2011-09-29T17:32:04.92</time>
      </trkpt>
      <trkpt lat="32.870445" lon="35.23182833333333">
        <ele>200.5</ele>
        <time>2011-09-29T17:32:06.41</time>
      </trkpt>
      <trkpt lat="32.87040666666667" lon="35.23179666666667">
        <ele>201</ele>
        <time>2011-09-29T17:32:07.92</time>
      </trkpt>
      <trkpt lat="32.8704" lon="35.23179">
        <ele>201</ele>
        <time>2011-09-29T17:32:09.25</time>
      </trkpt>
      <trkpt lat="32.87039" lon="35.231765">
        <ele>202</ele>
        <time>2011-09-29T17:32:10.93</time>
      </trkpt>
      <trkpt lat="32.87038166666667" lon="35.23173666666667">
        <ele>202.5</ele>
        <time>2011-09-29T17:32:12.35</time>
      </trkpt>
      <trkpt lat="32.87038166666667" lon="35.231685">
        <ele>197.5</ele>
        <time>2011-09-29T17:32:13.92</time>
      </trkpt>
      <trkpt lat="32.870385" lon="35.231671666666664">
        <ele>196</ele>
        <time>2011-09-29T17:32:15.24</time>
      </trkpt>
      <trkpt lat="32.87038833333333" lon="35.23164833333333">
        <ele>193</ele>
        <time>2011-09-29T17:32:16.92</time>
      </trkpt>
      <trkpt lat="32.870383333333336" lon="35.23162166666667">
        <ele>192.5</ele>
        <time>2011-09-29T17:32:17.92</time>
      </trkpt>
      <trkpt lat="32.870371666666664" lon="35.2316">
        <ele>193</ele>
        <time>2011-09-29T17:32:19.26</time>
      </trkpt>
      <trkpt lat="32.870355" lon="35.231541666666665">
        <ele>189</ele>
        <time>2011-09-29T17:32:20.92</time>
      </trkpt>
      <trkpt lat="32.870333333333335" lon="35.23146">
        <ele>191.5</ele>
        <time>2011-09-29T17:32:22.92</time>
      </trkpt>
      <trkpt lat="32.870325" lon="35.231433333333335">
        <ele>189.5</ele>
        <time>2011-09-29T17:32:24.23</time>
      </trkpt>
      <trkpt lat="32.870311666666666" lon="35.231385">
        <ele>187.5</ele>
        <time>2011-09-29T17:32:25.91</time>
      </trkpt>
      <trkpt lat="32.87031" lon="35.231386666666666">
        <ele>187.5</ele>
        <time>2011-09-29T17:32:27.23</time>
      </trkpt>
      <trkpt lat="32.870326666666664" lon="35.23137166666667">
        <ele>188.5</ele>
        <time>2011-09-29T17:32:28.92</time>
      </trkpt>
      <trkpt lat="32.870331666666665" lon="35.231355">
        <ele>189</ele>
        <time>2011-09-29T17:32:30.24</time>
      </trkpt>
      <trkpt lat="32.870356666666666" lon="35.231336666666664">
        <ele>189</ele>
        <time>2011-09-29T17:32:31.99</time>
      </trkpt>
      <trkpt lat="32.87037333333333" lon="35.23133">
        <ele>188.5</ele>
        <time>2011-09-29T17:32:33.30</time>
      </trkpt>
      <trkpt lat="32.870378333333335" lon="35.23128">
        <ele>188</ele>
        <time>2011-09-29T17:32:35.27</time>
      </trkpt>
      <trkpt lat="32.870401666666666" lon="35.23126333333333">
        <ele>187.5</ele>
        <time>2011-09-29T17:32:36.92</time>
      </trkpt>
      <trkpt lat="32.870415" lon="35.23125">
        <ele>187</ele>
        <time>2011-09-29T17:32:38.92</time>
      </trkpt>
      <trkpt lat="32.87041" lon="35.23121833333333">
        <ele>187.5</ele>
        <time>2011-09-29T17:32:40.91</time>
      </trkpt>
      <trkpt lat="32.87041" lon="35.231208333333335">
        <ele>187.5</ele>
        <time>2011-09-29T17:32:42.22</time>
      </trkpt>
      <trkpt lat="32.870416666666664" lon="35.23119166666667">
        <ele>187.5</ele>
        <time>2011-09-29T17:32:43.91</time>
      </trkpt>
      <trkpt lat="32.870421666666665" lon="35.23117166666667">
        <ele>187.5</ele>
        <time>2011-09-29T17:32:45.23</time>
      </trkpt>
      <trkpt lat="32.87043166666667" lon="35.23115">
        <ele>187.5</ele>
        <time>2011-09-29T17:32:46.92</time>
      </trkpt>
      <trkpt lat="32.87043166666667" lon="35.23114">
        <ele>187.5</ele>
        <time>2011-09-29T17:32:47.92</time>
      </trkpt>
      <trkpt lat="32.87043666666667" lon="35.23113166666667">
        <ele>187.5</ele>
        <time>2011-09-29T17:32:48.91</time>
      </trkpt>
      <trkpt lat="32.87050166666667" lon="35.231136666666664">
        <ele>190.5</ele>
        <time>2011-09-29T17:32:50.99</time>
      </trkpt>
      <trkpt lat="32.870506666666664" lon="35.231135">
        <ele>190.5</ele>
        <time>2011-09-29T17:32:51.91</time>
      </trkpt>
      <trkpt lat="32.87051" lon="35.23113166666667">
        <ele>190.5</ele>
        <time>2011-09-29T17:32:52.91</time>
      </trkpt>
      <trkpt lat="32.870491666666666" lon="35.23110333333333">
        <ele>192</ele>
        <time>2011-09-29T17:32:54.22</time>
      </trkpt>
      <trkpt lat="32.8705" lon="35.23108333333333">
        <ele>192</ele>
        <time>2011-09-29T17:32:55.91</time>
      </trkpt>
      <trkpt lat="32.8705" lon="35.23108333333333">
        <ele>192</ele>
        <time>2011-09-29T17:32:57.25</time>
      </trkpt>
      <trkpt lat="32.87050833333333" lon="35.231025">
        <ele>195</ele>
        <time>2011-09-29T17:32:58.90</time>
      </trkpt>
      <trkpt lat="32.870511666666665" lon="35.23101666666667">
        <ele>195.5</ele>
        <time>2011-09-29T17:32:59.91</time>
      </trkpt>
      <trkpt lat="32.87052666666666" lon="35.23099833333333">
        <ele>195.5</ele>
        <time>2011-09-29T17:33:01.22</time>
      </trkpt>
      <trkpt lat="32.87056" lon="35.230955">
        <ele>198</ele>
        <time>2011-09-29T17:33:02.91</time>
      </trkpt>
      <trkpt lat="32.87057" lon="35.230945">
        <ele>198.5</ele>
        <time>2011-09-29T17:33:04.28</time>
      </trkpt>
      <trkpt lat="32.870595" lon="35.23090833333333">
        <ele>198.5</ele>
        <time>2011-09-29T17:33:05.91</time>
      </trkpt>
      <trkpt lat="32.870601666666666" lon="35.230866666666664">
        <ele>199</ele>
        <time>2011-09-29T17:33:06.91</time>
      </trkpt>
      <trkpt lat="32.87060833333334" lon="35.23084166666667">
        <ele>199.5</ele>
        <time>2011-09-29T17:33:08.21</time>
      </trkpt>
      <trkpt lat="32.870645" lon="35.23074833333333">
        <ele>198.5</ele>
        <time>2011-09-29T17:33:09.91</time>
      </trkpt>
      <trkpt lat="32.87065166666667" lon="35.230648333333335">
        <ele>200</ele>
        <time>2011-09-29T17:33:11.91</time>
      </trkpt>
      <trkpt lat="32.870655" lon="35.230601666666665">
        <ele>200</ele>
        <time>2011-09-29T17:33:12.91</time>
      </trkpt>
      <trkpt lat="32.870666666666665" lon="35.23055333333333">
        <ele>200</ele>
        <time>2011-09-29T17:33:13.91</time>
      </trkpt>
      <trkpt lat="32.87070166666667" lon="35.23045666666667">
        <ele>199</ele>
        <time>2011-09-29T17:33:15.90</time>
      </trkpt>
      <trkpt lat="32.87072166666667" lon="35.230395">
        <ele>200.5</ele>
        <time>2011-09-29T17:33:16.91</time>
      </trkpt>
      <trkpt lat="32.87072666666667" lon="35.230325">
        <ele>201</ele>
        <time>2011-09-29T17:33:18.23</time>
      </trkpt>
      <trkpt lat="32.87069666666667" lon="35.23021333333333">
        <ele>201</ele>
        <time>2011-09-29T17:33:19.91</time>
      </trkpt>
      <trkpt lat="32.87068166666667" lon="35.230153333333334">
        <ele>200.5</ele>
        <time>2011-09-29T17:33:21.25</time>
      </trkpt>
      <trkpt lat="32.870655" lon="35.230061666666664">
        <ele>200.5</ele>
        <time>2011-09-29T17:33:22.91</time>
      </trkpt>
      <trkpt lat="32.87073" lon="35.229965">
        <ele>200.5</ele>
        <time>2011-09-29T17:33:24.91</time>
      </trkpt>
      <trkpt lat="32.870731666666664" lon="35.229881666666664">
        <ele>200</ele>
        <time>2011-09-29T17:33:26.62</time>
      </trkpt>
      <trkpt lat="32.87072166666667" lon="35.22980166666667">
        <ele>200.5</ele>
        <time>2011-09-29T17:33:28.81</time>
      </trkpt>
      <trkpt lat="32.87071" lon="35.229751666666665">
        <ele>201</ele>
        <time>2011-09-29T17:33:30.56</time>
      </trkpt>
      <trkpt lat="32.870733333333334" lon="35.22964833333333">
        <ele>203</ele>
        <time>2011-09-29T17:33:32.55</time>
      </trkpt>
      <trkpt lat="32.870733333333334" lon="35.22958333333333">
        <ele>204</ele>
        <time>2011-09-29T17:33:33.89</time>
      </trkpt>
      <trkpt lat="32.87074666666667" lon="35.229463333333335">
        <ele>204</ele>
        <time>2011-09-29T17:33:35.57</time>
      </trkpt>
      <trkpt lat="32.87074666666667" lon="35.229405">
        <ele>204</ele>
        <time>2011-09-29T17:33:36.55</time>
      </trkpt>
      <trkpt lat="32.87074" lon="35.22935666666667">
        <ele>204</ele>
        <time>2011-09-29T17:33:37.56</time>
      </trkpt>
      <trkpt lat="32.87072333333333" lon="35.229225">
        <ele>203.5</ele>
        <time>2011-09-29T17:33:39.56</time>
      </trkpt>
      <trkpt lat="32.87072333333333" lon="35.22916333333333">
        <ele>204.5</ele>
        <time>2011-09-29T17:33:40.55</time>
      </trkpt>
      <trkpt lat="32.870688333333334" lon="35.229018333333336">
        <ele>204.5</ele>
        <time>2011-09-29T17:33:42.55</time>
      </trkpt>
      <trkpt lat="32.87067666666667" lon="35.228955">
        <ele>204.5</ele>
        <time>2011-09-29T17:33:43.56</time>
      </trkpt>
      <trkpt lat="32.870655" lon="35.22890833333334">
        <ele>205</ele>
        <time>2011-09-29T17:33:45.55</time>
      </trkpt>
      <trkpt lat="32.870688333333334" lon="35.22873166666667">
        <ele>205</ele>
        <time>2011-09-29T17:33:47.76</time>
      </trkpt>
      <trkpt lat="32.87077" lon="35.228645">
        <ele>205</ele>
        <time>2011-09-29T17:33:50.55</time>
      </trkpt>
      <trkpt lat="32.87076" lon="35.22861833333333">
        <ele>204.5</ele>
        <time>2011-09-29T17:33:51.55</time>
      </trkpt>
      <trkpt lat="32.87075333333333" lon="35.228608333333334">
        <ele>204</ele>
        <time>2011-09-29T17:33:52.55</time>
      </trkpt>
      <trkpt lat="32.870745" lon="35.228606666666664">
        <ele>203.5</ele>
        <time>2011-09-29T17:33:53.55</time>
      </trkpt>
      <trkpt lat="32.870736666666666" lon="35.228606666666664">
        <ele>202.5</ele>
        <time>2011-09-29T17:33:54.55</time>
      </trkpt>
      <trkpt lat="32.87072" lon="35.228605">
        <ele>201.5</ele>
        <time>2011-09-29T17:33:55.55</time>
      </trkpt>
      <trkpt lat="32.87070666666666" lon="35.228611666666666">
        <ele>199.5</ele>
        <time>2011-09-29T17:33:56.54</time>
      </trkpt>
      <trkpt lat="32.87070666666666" lon="35.22863">
        <ele>199</ele>
        <time>2011-09-29T17:33:57.55</time>
      </trkpt>
      <trkpt lat="32.87070666666666" lon="35.22864833333333">
        <ele>199.5</ele>
        <time>2011-09-29T17:33:58.86</time>
      </trkpt>
      <trkpt lat="32.87070666666666" lon="35.228655">
        <ele>202.5</ele>
        <time>2011-09-29T17:34:00.54</time>
      </trkpt>
      <trkpt lat="32.870691666666666" lon="35.228658333333335">
        <ele>203</ele>
        <time>2011-09-29T17:34:02.55</time>
      </trkpt>
      <trkpt lat="32.870688333333334" lon="35.22866166666667">
        <ele>203.5</ele>
        <time>2011-09-29T17:34:03.55</time>
      </trkpt>
      <trkpt lat="32.870691666666666" lon="35.22866333333333">
        <ele>204</ele>
        <time>2011-09-29T17:34:04.55</time>
      </trkpt>
      <trkpt lat="32.87067833333333" lon="35.22868166666667">
        <ele>205</ele>
        <time>2011-09-29T17:34:05.55</time>
      </trkpt>
      <trkpt lat="32.870675" lon="35.22869333333333">
        <ele>205</ele>
        <time>2011-09-29T17:34:06.55</time>
      </trkpt>
      <trkpt lat="32.870673333333336" lon="35.228683333333336">
        <ele>205</ele>
        <time>2011-09-29T17:34:07.54</time>
      </trkpt>
      <trkpt lat="32.870668333333334" lon="35.22868666666667">
        <ele>205</ele>
        <time>2011-09-29T17:34:08.55</time>
      </trkpt>
      <trkpt lat="32.87065833333333" lon="35.22869333333333">
        <ele>206</ele>
        <time>2011-09-29T17:34:09.55</time>
      </trkpt>
      <trkpt lat="32.87064" lon="35.228658333333335">
        <ele>207.5</ele>
        <time>2011-09-29T17:34:11.55</time>
      </trkpt>
      <trkpt lat="32.870645" lon="35.22864833333333">
        <ele>209</ele>
        <time>2011-09-29T17:34:12.55</time>
      </trkpt>
      <trkpt lat="32.87065" lon="35.22864833333333">
        <ele>210</ele>
        <time>2011-09-29T17:34:13.54</time>
      </trkpt>
      <trkpt lat="32.87065166666667" lon="35.22864166666667">
        <ele>210</ele>
        <time>2011-09-29T17:34:14.55</time>
      </trkpt>
      <trkpt lat="32.870643333333334" lon="35.22862833333333">
        <ele>210.5</ele>
        <time>2011-09-29T17:34:15.55</time>
      </trkpt>
      <trkpt lat="32.87065666666667" lon="35.22864333333333">
        <ele>211</ele>
        <time>2011-09-29T17:34:16.54</time>
      </trkpt>
      <trkpt lat="32.87067" lon="35.228655">
        <ele>211</ele>
        <time>2011-09-29T17:34:17.54</time>
      </trkpt>
      <trkpt lat="32.87068166666667" lon="35.22867166666666">
        <ele>213</ele>
        <time>2011-09-29T17:34:18.54</time>
      </trkpt>
      <trkpt lat="32.87068166666667" lon="35.228683333333336">
        <ele>214</ele>
        <time>2011-09-29T17:34:19.88</time>
      </trkpt>
      <trkpt lat="32.870666666666665" lon="35.22868833333333">
        <ele>214.5</ele>
        <time>2011-09-29T17:34:21.55</time>
      </trkpt>
      <trkpt lat="32.87065833333333" lon="35.228695">
        <ele>213</ele>
        <time>2011-09-29T17:34:22.54</time>
      </trkpt>
      <trkpt lat="32.87064" lon="35.228725">
        <ele>212</ele>
        <time>2011-09-29T17:34:23.55</time>
      </trkpt>
      <trkpt lat="32.870628333333336" lon="35.228735">
        <ele>212.5</ele>
        <time>2011-09-29T17:34:24.55</time>
      </trkpt>
      <trkpt lat="32.87061666666666" lon="35.22873833333333">
        <ele>213</ele>
        <time>2011-09-29T17:34:25.54</time>
      </trkpt>
      <trkpt lat="32.87060833333334" lon="35.228745">
        <ele>213</ele>
        <time>2011-09-29T17:34:26.53</time>
      </trkpt>
      <trkpt lat="32.87061833333333" lon="35.228745">
        <ele>214</ele>
        <time>2011-09-29T17:34:27.55</time>
      </trkpt>
      <trkpt lat="32.870628333333336" lon="35.228745">
        <ele>213.5</ele>
        <time>2011-09-29T17:34:28.54</time>
      </trkpt>
      <trkpt lat="32.870648333333335" lon="35.22868833333333">
        <ele>211.5</ele>
        <time>2011-09-29T17:34:30.54</time>
      </trkpt>
      <trkpt lat="32.870648333333335" lon="35.22869">
        <ele>213</ele>
        <time>2011-09-29T17:34:31.54</time>
      </trkpt>
      <trkpt lat="32.87069" lon="35.22870666666667">
        <ele>216</ele>
        <time>2011-09-29T17:34:33.54</time>
      </trkpt>
      <trkpt lat="32.870695" lon="35.22872">
        <ele>216</ele>
        <time>2011-09-29T17:34:34.54</time>
      </trkpt>
      <trkpt lat="32.870688333333334" lon="35.228715">
        <ele>218</ele>
        <time>2011-09-29T17:34:36.53</time>
      </trkpt>
      <trkpt lat="32.870686666666664" lon="35.22871">
        <ele>218.5</ele>
        <time>2011-09-29T17:34:37.53</time>
      </trkpt>
      <trkpt lat="32.870686666666664" lon="35.22870666666667">
        <ele>219</ele>
        <time>2011-09-29T17:34:38.53</time>
      </trkpt>
      <trkpt lat="32.87068333333333" lon="35.228703333333335">
        <ele>219.5</ele>
        <time>2011-09-29T17:34:39.54</time>
      </trkpt>
      <trkpt lat="32.87068166666667" lon="35.228695">
        <ele>219.5</ele>
        <time>2011-09-29T17:34:40.53</time>
      </trkpt>
      <trkpt lat="32.87067166666667" lon="35.22869166666667">
        <ele>219.5</ele>
        <time>2011-09-29T17:34:41.53</time>
      </trkpt>
      <trkpt lat="32.870665" lon="35.22868833333333">
        <ele>219.5</ele>
        <time>2011-09-29T17:34:42.53</time>
      </trkpt>
      <trkpt lat="32.87066" lon="35.22866833333333">
        <ele>219</ele>
        <time>2011-09-29T17:34:43.53</time>
      </trkpt>
      <trkpt lat="32.870665" lon="35.228665">
        <ele>219.5</ele>
        <time>2011-09-29T17:34:44.53</time>
      </trkpt>
      <trkpt lat="32.87067" lon="35.22866333333333">
        <ele>219.5</ele>
        <time>2011-09-29T17:34:45.53</time>
      </trkpt>
      <trkpt lat="32.870675" lon="35.22866">
        <ele>219.5</ele>
        <time>2011-09-29T17:34:46.52</time>
      </trkpt>
      <trkpt lat="32.87067" lon="35.228656666666666">
        <ele>220</ele>
        <time>2011-09-29T17:34:47.53</time>
      </trkpt>
      <trkpt lat="32.870665" lon="35.228653333333334">
        <ele>220.5</ele>
        <time>2011-09-29T17:34:48.53</time>
      </trkpt>
      <trkpt lat="32.87065833333333" lon="35.228655">
        <ele>221</ele>
        <time>2011-09-29T17:34:49.53</time>
      </trkpt>
      <trkpt lat="32.87065333333334" lon="35.228665">
        <ele>221.5</ele>
        <time>2011-09-29T17:34:50.53</time>
      </trkpt>
      <trkpt lat="32.870643333333334" lon="35.228675">
        <ele>222</ele>
        <time>2011-09-29T17:34:51.54</time>
      </trkpt>
      <trkpt lat="32.87063833333333" lon="35.22869166666667">
        <ele>222.5</ele>
        <time>2011-09-29T17:34:52.53</time>
      </trkpt>
      <trkpt lat="32.87064" lon="35.228701666666666">
        <ele>223</ele>
        <time>2011-09-29T17:34:53.53</time>
      </trkpt>
      <trkpt lat="32.870643333333334" lon="35.22870833333333">
        <ele>222.5</ele>
        <time>2011-09-29T17:34:54.53</time>
      </trkpt>
      <trkpt lat="32.87064" lon="35.228703333333335">
        <ele>222.5</ele>
        <time>2011-09-29T17:34:55.52</time>
      </trkpt>
      <trkpt lat="32.87063833333333" lon="35.228703333333335">
        <ele>222</ele>
        <time>2011-09-29T17:34:56.52</time>
      </trkpt>
      <trkpt lat="32.87063666666667" lon="35.228703333333335">
        <ele>221.5</ele>
        <time>2011-09-29T17:34:57.53</time>
      </trkpt>
      <trkpt lat="32.870635" lon="35.228703333333335">
        <ele>221</ele>
        <time>2011-09-29T17:34:58.52</time>
      </trkpt>
      <trkpt lat="32.87063166666667" lon="35.228701666666666">
        <ele>220.5</ele>
        <time>2011-09-29T17:34:59.52</time>
      </trkpt>
      <trkpt lat="32.87063" lon="35.228698333333334">
        <ele>220</ele>
        <time>2011-09-29T17:35:00.53</time>
      </trkpt>
      <trkpt lat="32.87063" lon="35.228696666666664">
        <ele>220</ele>
        <time>2011-09-29T17:35:01.53</time>
      </trkpt>
      <trkpt lat="32.87063" lon="35.228695">
        <ele>220</ele>
        <time>2011-09-29T17:35:02.52</time>
      </trkpt>
      <trkpt lat="32.87063" lon="35.22869333333333">
        <ele>220</ele>
        <time>2011-09-29T17:35:03.52</time>
      </trkpt>
      <trkpt lat="32.870643333333334" lon="35.22870666666667">
        <ele>219.5</ele>
        <time>2011-09-29T17:35:04.53</time>
      </trkpt>
      <trkpt lat="32.870646666666666" lon="35.22871">
        <ele>219</ele>
        <time>2011-09-29T17:35:05.53</time>
      </trkpt>
      <trkpt lat="32.870643333333334" lon="35.228703333333335">
        <ele>219</ele>
        <time>2011-09-29T17:35:06.52</time>
      </trkpt>
      <trkpt lat="32.870641666666664" lon="35.228705">
        <ele>219</ele>
        <time>2011-09-29T17:35:07.52</time>
      </trkpt>
      <trkpt lat="32.870646666666666" lon="35.22871">
        <ele>218.5</ele>
        <time>2011-09-29T17:35:08.52</time>
      </trkpt>
      <trkpt lat="32.87065" lon="35.228715">
        <ele>218.5</ele>
        <time>2011-09-29T17:35:09.52</time>
      </trkpt>
      <trkpt lat="32.87065" lon="35.22871">
        <ele>218</ele>
        <time>2011-09-29T17:35:10.52</time>
      </trkpt>
      <trkpt lat="32.870648333333335" lon="35.228705">
        <ele>218</ele>
        <time>2011-09-29T17:35:11.52</time>
      </trkpt>
      <trkpt lat="32.870666666666665" lon="35.228725">
        <ele>218</ele>
        <time>2011-09-29T17:35:13.51</time>
      </trkpt>
      <trkpt lat="32.87067666666667" lon="35.228743333333334">
        <ele>217.5</ele>
        <time>2011-09-29T17:35:14.53</time>
      </trkpt>
      <trkpt lat="32.870686666666664" lon="35.22875166666667">
        <ele>217.5</ele>
        <time>2011-09-29T17:35:15.52</time>
      </trkpt>
      <trkpt lat="32.870691666666666" lon="35.22875666666667">
        <ele>217.5</ele>
        <time>2011-09-29T17:35:16.52</time>
      </trkpt>
      <trkpt lat="32.870695" lon="35.22875833333333">
        <ele>217.5</ele>
        <time>2011-09-29T17:35:19.61</time>
      </trkpt>
      <trkpt lat="32.87070166666667" lon="35.22877166666667">
        <ele>217.5</ele>
        <time>2011-09-29T17:35:20.62</time>
      </trkpt>
      <trkpt lat="32.870705" lon="35.228768333333335">
        <ele>217.5</ele>
        <time>2011-09-29T17:35:21.61</time>
      </trkpt>
      <trkpt lat="32.870711666666665" lon="35.22877166666667">
        <ele>217.5</ele>
        <time>2011-09-29T17:35:22.61</time>
      </trkpt>
      <trkpt lat="32.870711666666665" lon="35.228766666666665">
        <ele>217.5</ele>
        <time>2011-09-29T17:35:23.62</time>
      </trkpt>
      <trkpt lat="32.87071" lon="35.228765">
        <ele>217.5</ele>
        <time>2011-09-29T17:35:24.61</time>
      </trkpt>
      <trkpt lat="32.87071" lon="35.22876333333333">
        <ele>217.5</ele>
        <time>2011-09-29T17:35:25.62</time>
      </trkpt>
      <trkpt lat="32.870711666666665" lon="35.22876333333333">
        <ele>217.5</ele>
        <time>2011-09-29T17:35:26.62</time>
      </trkpt>
      <trkpt lat="32.87070666666666" lon="35.22876">
        <ele>217.5</ele>
        <time>2011-09-29T17:35:27.62</time>
      </trkpt>
      <trkpt lat="32.87070166666667" lon="35.228755">
        <ele>217.5</ele>
        <time>2011-09-29T17:35:28.62</time>
      </trkpt>
      <trkpt lat="32.87066" lon="35.228705">
        <ele>217</ele>
        <time>2011-09-29T17:35:30.61</time>
      </trkpt>
      <trkpt lat="32.87066" lon="35.228698333333334">
        <ele>216.5</ele>
        <time>2011-09-29T17:35:31.61</time>
      </trkpt>
      <trkpt lat="32.87064" lon="35.22862">
        <ele>216.5</ele>
        <time>2011-09-29T17:35:33.61</time>
      </trkpt>
      <trkpt lat="32.87063333333333" lon="35.22861">
        <ele>216.5</ele>
        <time>2011-09-29T17:35:34.61</time>
      </trkpt>
      <trkpt lat="32.870635" lon="35.22860166666667">
        <ele>216.5</ele>
        <time>2011-09-29T17:35:35.61</time>
      </trkpt>
      <trkpt lat="32.87063666666667" lon="35.228605">
        <ele>216.5</ele>
        <time>2011-09-29T17:35:36.62</time>
      </trkpt>
      <trkpt lat="32.87063666666667" lon="35.22861">
        <ele>216</ele>
        <time>2011-09-29T17:35:37.61</time>
      </trkpt>
      <trkpt lat="32.87064" lon="35.22861">
        <ele>216</ele>
        <time>2011-09-29T17:35:38.61</time>
      </trkpt>
      <trkpt lat="32.87063166666667" lon="35.22859">
        <ele>215.5</ele>
        <time>2011-09-29T17:35:39.61</time>
      </trkpt>
      <trkpt lat="32.870628333333336" lon="35.22857166666667">
        <ele>215.5</ele>
        <time>2011-09-29T17:35:40.61</time>
      </trkpt>
      <trkpt lat="32.870628333333336" lon="35.22855333333333">
        <ele>215</ele>
        <time>2011-09-29T17:35:41.61</time>
      </trkpt>
      <trkpt lat="32.870641666666664" lon="35.22857166666667">
        <ele>214.5</ele>
        <time>2011-09-29T17:35:42.61</time>
      </trkpt>
      <trkpt lat="32.870646666666666" lon="35.22858333333333">
        <ele>214.5</ele>
        <time>2011-09-29T17:35:43.61</time>
      </trkpt>
      <trkpt lat="32.87065" lon="35.22859166666667">
        <ele>214.5</ele>
        <time>2011-09-29T17:35:44.61</time>
      </trkpt>
      <trkpt lat="32.87065166666667" lon="35.22859833333333">
        <ele>215</ele>
        <time>2011-09-29T17:35:45.61</time>
      </trkpt>
      <trkpt lat="32.87065833333333" lon="35.22862">
        <ele>215</ele>
        <time>2011-09-29T17:35:46.61</time>
      </trkpt>
      <trkpt lat="32.87065833333333" lon="35.22863666666667">
        <ele>215.5</ele>
        <time>2011-09-29T17:35:47.61</time>
      </trkpt>
      <trkpt lat="32.87065833333333" lon="35.22864833333333">
        <ele>216</ele>
        <time>2011-09-29T17:35:48.60</time>
      </trkpt>
      <trkpt lat="32.870665" lon="35.22866833333333">
        <ele>216</ele>
        <time>2011-09-29T17:35:49.60</time>
      </trkpt>
      <trkpt lat="32.87067" lon="35.22868">
        <ele>216</ele>
        <time>2011-09-29T17:35:50.60</time>
      </trkpt>
      <trkpt lat="32.870675" lon="35.22868833333333">
        <ele>216</ele>
        <time>2011-09-29T17:35:51.61</time>
      </trkpt>
      <trkpt lat="32.87067666666667" lon="35.228695">
        <ele>216.5</ele>
        <time>2011-09-29T17:35:52.61</time>
      </trkpt>
      <trkpt lat="32.87068166666667" lon="35.22870833333333">
        <ele>216.5</ele>
        <time>2011-09-29T17:35:53.61</time>
      </trkpt>
      <trkpt lat="32.87067666666667" lon="35.228701666666666">
        <ele>216.5</ele>
        <time>2011-09-29T17:35:54.61</time>
      </trkpt>
      <trkpt lat="32.87067666666667" lon="35.228701666666666">
        <ele>216</ele>
        <time>2011-09-29T17:35:55.61</time>
      </trkpt>
      <trkpt lat="32.87067833333333" lon="35.228705">
        <ele>216</ele>
        <time>2011-09-29T17:35:56.60</time>
      </trkpt>
      <trkpt lat="32.87068166666667" lon="35.22872">
        <ele>216</ele>
        <time>2011-09-29T17:35:57.60</time>
      </trkpt>
      <trkpt lat="32.87068166666667" lon="35.22873">
        <ele>216</ele>
        <time>2011-09-29T17:35:58.60</time>
      </trkpt>
      <trkpt lat="32.87068333333333" lon="35.22873333333333">
        <ele>216</ele>
        <time>2011-09-29T17:35:59.60</time>
      </trkpt>
      <trkpt lat="32.87069" lon="35.22875333333333">
        <ele>215.5</ele>
        <time>2011-09-29T17:36:00.60</time>
      </trkpt>
      <trkpt lat="32.870688333333334" lon="35.228755">
        <ele>215.5</ele>
        <time>2011-09-29T17:36:01.60</time>
      </trkpt>
      <trkpt lat="32.870688333333334" lon="35.22876">
        <ele>215</ele>
        <time>2011-09-29T17:36:02.60</time>
      </trkpt>
      <trkpt lat="32.870691666666666" lon="35.22876333333333">
        <ele>215</ele>
        <time>2011-09-29T17:36:03.60</time>
      </trkpt>
      <trkpt lat="32.87069833333334" lon="35.228768333333335">
        <ele>215</ele>
        <time>2011-09-29T17:36:05.60</time>
      </trkpt>
      <trkpt lat="32.87069666666667" lon="35.22875666666667">
        <ele>215</ele>
        <time>2011-09-29T17:36:06.60</time>
      </trkpt>
      <trkpt lat="32.87069666666667" lon="35.22875333333333">
        <ele>215</ele>
        <time>2011-09-29T17:36:07.60</time>
      </trkpt>
      <trkpt lat="32.87069666666667" lon="35.22875166666667">
        <ele>215</ele>
        <time>2011-09-29T17:36:08.60</time>
      </trkpt>
      <trkpt lat="32.870688333333334" lon="35.22873166666667">
        <ele>215</ele>
        <time>2011-09-29T17:36:09.60</time>
      </trkpt>
      <trkpt lat="32.87068333333333" lon="35.228721666666665">
        <ele>215</ele>
        <time>2011-09-29T17:36:10.60</time>
      </trkpt>
      <trkpt lat="32.87068166666667" lon="35.228716666666664">
        <ele>215.5</ele>
        <time>2011-09-29T17:36:11.61</time>
      </trkpt>
      <trkpt lat="32.870666666666665" lon="35.22869166666667">
        <ele>215.5</ele>
        <time>2011-09-29T17:36:13.61</time>
      </trkpt>
      <trkpt lat="32.870666666666665" lon="35.22869166666667">
        <ele>215.5</ele>
        <time>2011-09-29T17:36:14.61</time>
      </trkpt>
      <trkpt lat="32.870665" lon="35.22869166666667">
        <ele>215.5</ele>
        <time>2011-09-29T17:36:15.61</time>
      </trkpt>
      <trkpt lat="32.87066166666666" lon="35.2287">
        <ele>215.5</ele>
        <time>2011-09-29T17:36:16.60</time>
      </trkpt>
      <trkpt lat="32.87066166666666" lon="35.22870666666667">
        <ele>215.5</ele>
        <time>2011-09-29T17:36:17.60</time>
      </trkpt>
      <trkpt lat="32.87066166666666" lon="35.22870833333333">
        <ele>216</ele>
        <time>2011-09-29T17:36:18.60</time>
      </trkpt>
      <trkpt lat="32.87066" lon="35.228705">
        <ele>216</ele>
        <time>2011-09-29T17:36:19.60</time>
      </trkpt>
      <trkpt lat="32.87066" lon="35.228703333333335">
        <ele>216</ele>
        <time>2011-09-29T17:36:20.60</time>
      </trkpt>
      <trkpt lat="32.870655" lon="35.22869333333333">
        <ele>216</ele>
        <time>2011-09-29T17:36:21.60</time>
      </trkpt>
      <trkpt lat="32.870655" lon="35.228685">
        <ele>216</ele>
        <time>2011-09-29T17:36:22.59</time>
      </trkpt>
      <trkpt lat="32.87065166666667" lon="35.22868166666667">
        <ele>216</ele>
        <time>2011-09-29T17:36:23.60</time>
      </trkpt>
      <trkpt lat="32.870645" lon="35.228655">
        <ele>216</ele>
        <time>2011-09-29T17:36:25.60</time>
      </trkpt>
      <trkpt lat="32.87065" lon="35.228656666666666">
        <ele>216</ele>
        <time>2011-09-29T17:36:26.60</time>
      </trkpt>
      <trkpt lat="32.87065166666667" lon="35.228656666666666">
        <ele>215.5</ele>
        <time>2011-09-29T17:36:27.60</time>
      </trkpt>
      <trkpt lat="32.870646666666666" lon="35.22865">
        <ele>215.5</ele>
        <time>2011-09-29T17:36:28.60</time>
      </trkpt>
      <trkpt lat="32.870648333333335" lon="35.228658333333335">
        <ele>215.5</ele>
        <time>2011-09-29T17:36:29.60</time>
      </trkpt>
      <trkpt lat="32.87065166666667" lon="35.228665">
        <ele>215.5</ele>
        <time>2011-09-29T17:36:30.60</time>
      </trkpt>
      <trkpt lat="32.87065166666667" lon="35.22866">
        <ele>215.5</ele>
        <time>2011-09-29T17:36:31.60</time>
      </trkpt>
      <trkpt lat="32.87065166666667" lon="35.22866333333333">
        <ele>215.5</ele>
        <time>2011-09-29T17:36:32.60</time>
      </trkpt>
      <trkpt lat="32.87065166666667" lon="35.22866333333333">
        <ele>215.5</ele>
        <time>2011-09-29T17:36:33.60</time>
      </trkpt>
      <trkpt lat="32.870648333333335" lon="35.228656666666666">
        <ele>215.5</ele>
        <time>2011-09-29T17:36:34.60</time>
      </trkpt>
      <trkpt lat="32.870648333333335" lon="35.228656666666666">
        <ele>215.5</ele>
        <time>2011-09-29T17:36:35.59</time>
      </trkpt>
      <trkpt lat="32.870645" lon="35.228655">
        <ele>215.5</ele>
        <time>2011-09-29T17:36:36.60</time>
      </trkpt>
      <trkpt lat="32.870648333333335" lon="35.228665">
        <ele>215.5</ele>
        <time>2011-09-29T17:36:37.60</time>
      </trkpt>
      <trkpt lat="32.870643333333334" lon="35.228655">
        <ele>215.5</ele>
        <time>2011-09-29T17:36:38.60</time>
      </trkpt>
      <trkpt lat="32.870643333333334" lon="35.22865">
        <ele>215.5</ele>
        <time>2011-09-29T17:36:39.60</time>
      </trkpt>
      <trkpt lat="32.87065166666667" lon="35.22866">
        <ele>215</ele>
        <time>2011-09-29T17:36:40.60</time>
      </trkpt>
      <trkpt lat="32.87065833333333" lon="35.22866">
        <ele>215</ele>
        <time>2011-09-29T17:36:41.59</time>
      </trkpt>
      <trkpt lat="32.87066" lon="35.22866333333333">
        <ele>215</ele>
        <time>2011-09-29T17:36:42.59</time>
      </trkpt>
      <trkpt lat="32.87066333333333" lon="35.228665">
        <ele>215</ele>
        <time>2011-09-29T17:36:43.60</time>
      </trkpt>
      <trkpt lat="32.87067666666667" lon="35.2287">
        <ele>215</ele>
        <time>2011-09-29T17:36:45.59</time>
      </trkpt>
      <trkpt lat="32.87067833333333" lon="35.22871166666667">
        <ele>214.5</ele>
        <time>2011-09-29T17:36:46.61</time>
      </trkpt>
      <trkpt lat="32.87068" lon="35.228716666666664">
        <ele>214.5</ele>
        <time>2011-09-29T17:36:47.62</time>
      </trkpt>
      <trkpt lat="32.87067833333333" lon="35.22872">
        <ele>214.5</ele>
        <time>2011-09-29T17:36:48.62</time>
      </trkpt>
      <trkpt lat="32.87068" lon="35.22873">
        <ele>214.5</ele>
        <time>2011-09-29T17:36:49.62</time>
      </trkpt>
      <trkpt lat="32.87067666666667" lon="35.22873333333333">
        <ele>214.5</ele>
        <time>2011-09-29T17:36:50.62</time>
      </trkpt>
      <trkpt lat="32.870673333333336" lon="35.22873833333333">
        <ele>214.5</ele>
        <time>2011-09-29T17:36:51.62</time>
      </trkpt>
      <trkpt lat="32.87067" lon="35.228745">
        <ele>214.5</ele>
        <time>2011-09-29T17:36:52.62</time>
      </trkpt>
      <trkpt lat="32.870665" lon="35.228755">
        <ele>215</ele>
        <time>2011-09-29T17:36:53.62</time>
      </trkpt>
      <trkpt lat="32.87065333333334" lon="35.228746666666666">
        <ele>215</ele>
        <time>2011-09-29T17:36:55.59</time>
      </trkpt>
      <trkpt lat="32.870655" lon="35.228748333333336">
        <ele>215</ele>
        <time>2011-09-29T17:36:56.59</time>
      </trkpt>
      <trkpt lat="32.87066" lon="35.228765">
        <ele>215</ele>
        <time>2011-09-29T17:36:57.59</time>
      </trkpt>
      <trkpt lat="32.87065" lon="35.228748333333336">
        <ele>215</ele>
        <time>2011-09-29T17:36:58.59</time>
      </trkpt>
      <trkpt lat="32.87065666666667" lon="35.228761666666664">
        <ele>215</ele>
        <time>2011-09-29T17:36:59.59</time>
      </trkpt>
      <trkpt lat="32.87065666666667" lon="35.22875666666667">
        <ele>215</ele>
        <time>2011-09-29T17:37:00.59</time>
      </trkpt>
      <trkpt lat="32.870655" lon="35.22875333333333">
        <ele>215</ele>
        <time>2011-09-29T17:37:01.59</time>
      </trkpt>
      <trkpt lat="32.87065666666667" lon="35.22875166666667">
        <ele>215</ele>
        <time>2011-09-29T17:37:02.60</time>
      </trkpt>
      <trkpt lat="32.87066" lon="35.228748333333336">
        <ele>215</ele>
        <time>2011-09-29T17:37:03.61</time>
      </trkpt>
      <trkpt lat="32.87066" lon="35.22873">
        <ele>215</ele>
        <time>2011-09-29T17:37:05.58</time>
      </trkpt>
      <trkpt lat="32.87066" lon="35.22872666666667">
        <ele>215</ele>
        <time>2011-09-29T17:37:06.59</time>
      </trkpt>
      <trkpt lat="32.870655" lon="35.228701666666666">
        <ele>215</ele>
        <time>2011-09-29T17:37:08.59</time>
      </trkpt>
      <trkpt lat="32.870646666666666" lon="35.22868833333333">
        <ele>214.5</ele>
        <time>2011-09-29T17:37:09.59</time>
      </trkpt>
      <trkpt lat="32.870646666666666" lon="35.22869">
        <ele>214.5</ele>
        <time>2011-09-29T17:37:10.60</time>
      </trkpt>
      <trkpt lat="32.87063666666667" lon="35.22866666666667">
        <ele>214.5</ele>
        <time>2011-09-29T17:37:11.60</time>
      </trkpt>
      <trkpt lat="32.87063333333333" lon="35.228656666666666">
        <ele>214.5</ele>
        <time>2011-09-29T17:37:12.59</time>
      </trkpt>
      <trkpt lat="32.87063" lon="35.228651666666664">
        <ele>214.5</ele>
        <time>2011-09-29T17:37:13.60</time>
      </trkpt>
      <trkpt lat="32.87063166666667" lon="35.22864666666667">
        <ele>214.5</ele>
        <time>2011-09-29T17:37:14.60</time>
      </trkpt>
      <trkpt lat="32.87063666666667" lon="35.22864">
        <ele>214</ele>
        <time>2011-09-29T17:37:15.60</time>
      </trkpt>
      <trkpt lat="32.87063833333333" lon="35.22863">
        <ele>214</ele>
        <time>2011-09-29T17:37:16.60</time>
      </trkpt>
      <trkpt lat="32.87063666666667" lon="35.22861">
        <ele>214</ele>
        <time>2011-09-29T17:37:17.59</time>
      </trkpt>
      <trkpt lat="32.870635" lon="35.22859833333333">
        <ele>214</ele>
        <time>2011-09-29T17:37:18.59</time>
      </trkpt>
      <trkpt lat="32.870635" lon="35.22859166666667">
        <ele>214</ele>
        <time>2011-09-29T17:37:19.59</time>
      </trkpt>
      <trkpt lat="32.87063833333333" lon="35.22859">
        <ele>214</ele>
        <time>2011-09-29T17:37:20.59</time>
      </trkpt>
      <trkpt lat="32.87063333333333" lon="35.228565">
        <ele>214</ele>
        <time>2011-09-29T17:37:21.59</time>
      </trkpt>
      <trkpt lat="32.87063" lon="35.22855666666667">
        <ele>214</ele>
        <time>2011-09-29T17:37:22.59</time>
      </trkpt>
      <trkpt lat="32.870626666666666" lon="35.22855">
        <ele>214</ele>
        <time>2011-09-29T17:37:23.60</time>
      </trkpt>
      <trkpt lat="32.87063833333333" lon="35.228568333333335">
        <ele>213.5</ele>
        <time>2011-09-29T17:37:24.60</time>
      </trkpt>
      <trkpt lat="32.870645" lon="35.22857666666667">
        <ele>213.5</ele>
        <time>2011-09-29T17:37:25.61</time>
      </trkpt>
      <trkpt lat="32.870623333333334" lon="35.228545">
        <ele>213.5</ele>
        <time>2011-09-29T17:37:27.59</time>
      </trkpt>
      <trkpt lat="32.870621666666665" lon="35.228543333333334">
        <ele>214</ele>
        <time>2011-09-29T17:37:28.61</time>
      </trkpt>
      <trkpt lat="32.870626666666666" lon="35.22855833333333">
        <ele>214</ele>
        <time>2011-09-29T17:37:29.61</time>
      </trkpt>
      <trkpt lat="32.870601666666666" lon="35.228535">
        <ele>214</ele>
        <time>2011-09-29T17:37:31.59</time>
      </trkpt>
      <trkpt lat="32.87060833333334" lon="35.22853833333333">
        <ele>214</ele>
        <time>2011-09-29T17:37:32.59</time>
      </trkpt>
      <trkpt lat="32.87060833333334" lon="35.228535">
        <ele>214</ele>
        <time>2011-09-29T17:37:33.59</time>
      </trkpt>
      <trkpt lat="32.87060666666667" lon="35.22853">
        <ele>214</ele>
        <time>2011-09-29T17:37:34.59</time>
      </trkpt>
      <trkpt lat="32.87060833333334" lon="35.22852666666667">
        <ele>214</ele>
        <time>2011-09-29T17:37:35.59</time>
      </trkpt>
      <trkpt lat="32.87061333333333" lon="35.22853333333333">
        <ele>214.5</ele>
        <time>2011-09-29T17:37:36.59</time>
      </trkpt>
      <trkpt lat="32.87061" lon="35.22853166666667">
        <ele>214.5</ele>
        <time>2011-09-29T17:37:37.59</time>
      </trkpt>
      <trkpt lat="32.87060833333334" lon="35.22853166666667">
        <ele>214.5</ele>
        <time>2011-09-29T17:37:38.58</time>
      </trkpt>
      <trkpt lat="32.87061" lon="35.228535">
        <ele>214.5</ele>
        <time>2011-09-29T17:37:39.58</time>
      </trkpt>
      <trkpt lat="32.87061166666667" lon="35.228548333333336">
        <ele>214.5</ele>
        <time>2011-09-29T17:37:40.59</time>
      </trkpt>
      <trkpt lat="32.87061" lon="35.228545">
        <ele>214.5</ele>
        <time>2011-09-29T17:37:41.58</time>
      </trkpt>
      <trkpt lat="32.87061" lon="35.228545">
        <ele>214.5</ele>
        <time>2011-09-29T17:37:42.58</time>
      </trkpt>
      <trkpt lat="32.87061" lon="35.22854666666667">
        <ele>214.5</ele>
        <time>2011-09-29T17:37:43.59</time>
      </trkpt>
      <trkpt lat="32.87061166666667" lon="35.228555">
        <ele>214.5</ele>
        <time>2011-09-29T17:37:44.60</time>
      </trkpt>
      <trkpt lat="32.87061166666667" lon="35.22855833333333">
        <ele>214.5</ele>
        <time>2011-09-29T17:37:45.60</time>
      </trkpt>
      <trkpt lat="32.87061" lon="35.228563333333334">
        <ele>214.5</ele>
        <time>2011-09-29T17:37:46.61</time>
      </trkpt>
      <trkpt lat="32.87060666666667" lon="35.228565">
        <ele>214.5</ele>
        <time>2011-09-29T17:37:47.61</time>
      </trkpt>
      <trkpt lat="32.87060666666667" lon="35.22858">
        <ele>215</ele>
        <time>2011-09-29T17:37:49.58</time>
      </trkpt>
      <trkpt lat="32.87060833333334" lon="35.22858333333333">
        <ele>215</ele>
        <time>2011-09-29T17:37:50.59</time>
      </trkpt>
      <trkpt lat="32.87061" lon="35.228585">
        <ele>215</ele>
        <time>2011-09-29T17:37:51.59</time>
      </trkpt>
      <trkpt lat="32.87061833333333" lon="35.22859666666667">
        <ele>215</ele>
        <time>2011-09-29T17:37:52.59</time>
      </trkpt>
      <trkpt lat="32.870625" lon="35.228605">
        <ele>215</ele>
        <time>2011-09-29T17:37:53.59</time>
      </trkpt>
      <trkpt lat="32.87063" lon="35.228608333333334">
        <ele>215</ele>
        <time>2011-09-29T17:37:54.60</time>
      </trkpt>
      <trkpt lat="32.870635" lon="35.22861">
        <ele>214.5</ele>
        <time>2011-09-29T17:37:55.60</time>
      </trkpt>
      <trkpt lat="32.87063833333333" lon="35.228611666666666">
        <ele>214.5</ele>
        <time>2011-09-29T17:37:56.60</time>
      </trkpt>
      <trkpt lat="32.870643333333334" lon="35.22861666666667">
        <ele>214.5</ele>
        <time>2011-09-29T17:37:57.60</time>
      </trkpt>
      <trkpt lat="32.870645" lon="35.22861833333333">
        <ele>214.5</ele>
        <time>2011-09-29T17:37:58.60</time>
      </trkpt>
      <trkpt lat="32.870646666666666" lon="35.22862166666667">
        <ele>214.5</ele>
        <time>2011-09-29T17:37:59.60</time>
      </trkpt>
      <trkpt lat="32.870648333333335" lon="35.228625">
        <ele>214.5</ele>
        <time>2011-09-29T17:38:00.60</time>
      </trkpt>
      <trkpt lat="32.870615" lon="35.228665">
        <ele>215</ele>
        <time>2011-09-29T17:38:02.58</time>
      </trkpt>
      <trkpt lat="32.870601666666666" lon="35.228675">
        <ele>215</ele>
        <time>2011-09-29T17:38:03.58</time>
      </trkpt>
      <trkpt lat="32.870595" lon="35.228696666666664">
        <ele>215</ele>
        <time>2011-09-29T17:38:04.58</time>
      </trkpt>
      <trkpt lat="32.87059166666667" lon="35.228715">
        <ele>215.5</ele>
        <time>2011-09-29T17:38:05.60</time>
      </trkpt>
      <trkpt lat="32.870581666666666" lon="35.228728333333336">
        <ele>215.5</ele>
        <time>2011-09-29T17:38:06.60</time>
      </trkpt>
      <trkpt lat="32.87057" lon="35.228741666666664">
        <ele>215.5</ele>
        <time>2011-09-29T17:38:07.60</time>
      </trkpt>
      <trkpt lat="32.87057" lon="35.228743333333334">
        <ele>215.5</ele>
        <time>2011-09-29T17:38:08.61</time>
      </trkpt>
      <trkpt lat="32.87059166666667" lon="35.228746666666666">
        <ele>215.5</ele>
        <time>2011-09-29T17:38:10.58</time>
      </trkpt>
      <trkpt lat="32.87059333333333" lon="35.22874">
        <ele>215.5</ele>
        <time>2011-09-29T17:38:11.58</time>
      </trkpt>
      <trkpt lat="32.870601666666666" lon="35.22875166666667">
        <ele>216.5</ele>
        <time>2011-09-29T17:38:12.59</time>
      </trkpt>
      <trkpt lat="32.87060833333334" lon="35.22875833333333">
        <ele>216.5</ele>
        <time>2011-09-29T17:38:14.40</time>
      </trkpt>
      <trkpt lat="32.87062" lon="35.22877666666667">
        <ele>216.5</ele>
        <time>2011-09-29T17:38:16.20</time>
      </trkpt>
      <trkpt lat="32.87069833333334" lon="35.228793333333336">
        <ele>216.5</ele>
        <time>2011-09-29T17:38:18.33</time>
      </trkpt>
      <trkpt lat="32.870781666666666" lon="35.22881666666667">
        <ele>215</ele>
        <time>2011-09-29T17:38:20.13</time>
      </trkpt>
      <trkpt lat="32.87083833333333" lon="35.22882">
        <ele>215</ele>
        <time>2011-09-29T17:38:21.58</time>
      </trkpt>
      <trkpt lat="32.870945" lon="35.22877666666667">
        <ele>215</ele>
        <time>2011-09-29T17:38:24.64</time>
      </trkpt>
      <trkpt lat="32.87101833333333" lon="35.228748333333336">
        <ele>215</ele>
        <time>2011-09-29T17:38:26.59</time>
      </trkpt>
      <trkpt lat="32.871071666666666" lon="35.228725">
        <ele>214</ele>
        <time>2011-09-29T17:38:28.77</time>
      </trkpt>
      <trkpt lat="32.87110666666667" lon="35.22872666666667">
        <ele>213.5</ele>
        <time>2011-09-29T17:38:30.60</time>
      </trkpt>
      <trkpt lat="32.871116666666666" lon="35.228728333333336">
        <ele>213</ele>
        <time>2011-09-29T17:38:31.60</time>
      </trkpt>
      <trkpt lat="32.87110333333333" lon="35.228743333333334">
        <ele>212.5</ele>
        <time>2011-09-29T17:38:33.41</time>
      </trkpt>
      <trkpt lat="32.871095" lon="35.22877666666667">
        <ele>212</ele>
        <time>2011-09-29T17:38:35.35</time>
      </trkpt>
      <trkpt lat="32.87112333333334" lon="35.22882666666667">
        <ele>212.5</ele>
        <time>2011-09-29T17:38:36.58</time>
      </trkpt>
      <trkpt lat="32.87115333333333" lon="35.22887166666667">
        <ele>212.5</ele>
        <time>2011-09-29T17:38:37.58</time>
      </trkpt>
      <trkpt lat="32.87117333333333" lon="35.2289">
        <ele>212</ele>
        <time>2011-09-29T17:38:38.58</time>
      </trkpt>
      <trkpt lat="32.87119833333333" lon="35.22893333333333">
        <ele>212</ele>
        <time>2011-09-29T17:38:40.71</time>
      </trkpt>
      <trkpt lat="32.87126166666667" lon="35.22893833333333">
        <ele>210.5</ele>
        <time>2011-09-29T17:38:42.58</time>
      </trkpt>
      <trkpt lat="32.871325" lon="35.22890666666667">
        <ele>212</ele>
        <time>2011-09-29T17:38:45.40</time>
      </trkpt>
      <trkpt lat="32.87139" lon="35.228835">
        <ele>212</ele>
        <time>2011-09-29T17:38:47.22</time>
      </trkpt>
      <trkpt lat="32.87150666666667" lon="35.22867166666666">
        <ele>205.5</ele>
        <time>2011-09-29T17:38:50.88</time>
      </trkpt>
      <trkpt lat="32.87152666666667" lon="35.22864666666667">
        <ele>204.5</ele>
        <time>2011-09-29T17:38:51.89</time>
      </trkpt>
      <trkpt lat="32.87155" lon="35.22862833333333">
        <ele>202</ele>
        <time>2011-09-29T17:38:53.58</time>
      </trkpt>
      <trkpt lat="32.871588333333335" lon="35.22858333333333">
        <ele>199.5</ele>
        <time>2011-09-29T17:38:55.59</time>
      </trkpt>
      <trkpt lat="32.8717" lon="35.228595">
        <ele>196.5</ele>
        <time>2011-09-29T17:38:58.57</time>
      </trkpt>
      <trkpt lat="32.87204666666667" lon="35.228455">
        <ele>193.5</ele>
        <time>2011-09-29T17:39:02.57</time>
      </trkpt>
      <trkpt lat="32.872101666666666" lon="35.22839333333334">
        <ele>193.5</ele>
        <time>2011-09-29T17:39:04.38</time>
      </trkpt>
      <trkpt lat="32.872225" lon="35.22828166666667">
        <ele>194.5</ele>
        <time>2011-09-29T17:39:06.18</time>
      </trkpt>
      <trkpt lat="32.87241" lon="35.228026666666665">
        <ele>190.5</ele>
        <time>2011-09-29T17:39:09.17</time>
      </trkpt>
      <trkpt lat="32.87253666666667" lon="35.22787666666667">
        <ele>192</ele>
        <time>2011-09-29T17:39:10.57</time>
      </trkpt>
      <trkpt lat="32.87258" lon="35.227826666666665">
        <ele>191.5</ele>
        <time>2011-09-29T17:39:11.57</time>
      </trkpt>
      <trkpt lat="32.87262333333334" lon="35.227785">
        <ele>191</ele>
        <time>2011-09-29T17:39:12.58</time>
      </trkpt>
      <trkpt lat="32.872645" lon="35.22773">
        <ele>190</ele>
        <time>2011-09-29T17:39:13.59</time>
      </trkpt>
      <trkpt lat="32.87266" lon="35.22768">
        <ele>189.5</ele>
        <time>2011-09-29T17:39:14.60</time>
      </trkpt>
      <trkpt lat="32.872681666666665" lon="35.227608333333336">
        <ele>188.5</ele>
        <time>2011-09-29T17:39:16.57</time>
      </trkpt>
      <trkpt lat="32.87273666666667" lon="35.227575">
        <ele>185</ele>
        <time>2011-09-29T17:39:18.57</time>
      </trkpt>
      <trkpt lat="32.872753333333335" lon="35.227556666666665">
        <ele>184.5</ele>
        <time>2011-09-29T17:39:19.57</time>
      </trkpt>
      <trkpt lat="32.87276" lon="35.22746">
        <ele>181.5</ele>
        <time>2011-09-29T17:39:21.67</time>
      </trkpt>
      <trkpt lat="32.87277666666667" lon="35.22739833333333">
        <ele>180.5</ele>
        <time>2011-09-29T17:39:23.56</time>
      </trkpt>
      <trkpt lat="32.872798333333336" lon="35.22736333333334">
        <ele>178.5</ele>
        <time>2011-09-29T17:39:25.37</time>
      </trkpt>
      <trkpt lat="32.8728" lon="35.227261666666664">
        <ele>169.5</ele>
        <time>2011-09-29T17:39:27.17</time>
      </trkpt>
      <trkpt lat="32.87280833333333" lon="35.22718666666667">
        <ele>168.5</ele>
        <time>2011-09-29T17:39:28.98</time>
      </trkpt>
      <trkpt lat="32.87282" lon="35.22713666666667">
        <ele>165.5</ele>
        <time>2011-09-29T17:39:30.79</time>
      </trkpt>
      <trkpt lat="32.87286666666667" lon="35.227075">
        <ele>166.5</ele>
        <time>2011-09-29T17:39:32.61</time>
      </trkpt>
      <trkpt lat="32.87293666666667" lon="35.22700666666667">
        <ele>170</ele>
        <time>2011-09-29T17:39:34.57</time>
      </trkpt>
      <trkpt lat="32.872975" lon="35.226926666666664">
        <ele>171</ele>
        <time>2011-09-29T17:39:36.57</time>
      </trkpt>
      <trkpt lat="32.87300666666667" lon="35.226885">
        <ele>170.5</ele>
        <time>2011-09-29T17:39:37.57</time>
      </trkpt>
      <trkpt lat="32.87298" lon="35.22685">
        <ele>170.5</ele>
        <time>2011-09-29T17:39:39.37</time>
      </trkpt>
      <trkpt lat="32.87300333333334" lon="35.226775">
        <ele>167.5</ele>
        <time>2011-09-29T17:39:41.17</time>
      </trkpt>
      <trkpt lat="32.87302666666667" lon="35.226713333333336">
        <ele>165</ele>
        <time>2011-09-29T17:39:42.56</time>
      </trkpt>
      <trkpt lat="32.87307666666667" lon="35.226681666666664">
        <ele>165.5</ele>
        <time>2011-09-29T17:39:43.57</time>
      </trkpt>
      <trkpt lat="32.873105" lon="35.22662166666667">
        <ele>165</ele>
        <time>2011-09-29T17:39:45.37</time>
      </trkpt>
      <trkpt lat="32.87314666666666" lon="35.22649833333333">
        <ele>165.5</ele>
        <time>2011-09-29T17:39:47.18</time>
      </trkpt>
      <trkpt lat="32.873175" lon="35.226398333333336">
        <ele>167.5</ele>
        <time>2011-09-29T17:39:48.56</time>
      </trkpt>
      <trkpt lat="32.873176666666666" lon="35.226346666666664">
        <ele>165.5</ele>
        <time>2011-09-29T17:39:49.57</time>
      </trkpt>
      <trkpt lat="32.87318666666667" lon="35.2263">
        <ele>164.5</ele>
        <time>2011-09-29T17:39:50.57</time>
      </trkpt>
      <trkpt lat="32.873205" lon="35.226255">
        <ele>164.5</ele>
        <time>2011-09-29T17:39:52.40</time>
      </trkpt>
      <trkpt lat="32.87324" lon="35.22616166666667">
        <ele>163</ele>
        <time>2011-09-29T17:39:53.55</time>
      </trkpt>
      <trkpt lat="32.873266666666666" lon="35.22610666666667">
        <ele>163</ele>
        <time>2011-09-29T17:39:54.56</time>
      </trkpt>
      <trkpt lat="32.87329666666667" lon="35.226038333333335">
        <ele>162.5</ele>
        <time>2011-09-29T17:39:56.37</time>
      </trkpt>
      <trkpt lat="32.873333333333335" lon="35.2259">
        <ele>163.5</ele>
        <time>2011-09-29T17:39:57.56</time>
      </trkpt>
      <trkpt lat="32.87334833333333" lon="35.22583">
        <ele>163</ele>
        <time>2011-09-29T17:39:58.56</time>
      </trkpt>
      <trkpt lat="32.87336" lon="35.225743333333334">
        <ele>162</ele>
        <time>2011-09-29T17:39:59.56</time>
      </trkpt>
      <trkpt lat="32.873356666666666" lon="35.225658333333335">
        <ele>161.5</ele>
        <time>2011-09-29T17:40:00.56</time>
      </trkpt>
      <trkpt lat="32.873358333333336" lon="35.225585">
        <ele>161.5</ele>
        <time>2011-09-29T17:40:01.56</time>
      </trkpt>
      <trkpt lat="32.873376666666665" lon="35.22551">
        <ele>161</ele>
        <time>2011-09-29T17:40:03.36</time>
      </trkpt>
      <trkpt lat="32.87338333333334" lon="35.22537666666667">
        <ele>158.5</ele>
        <time>2011-09-29T17:40:04.56</time>
      </trkpt>
      <trkpt lat="32.87338166666667" lon="35.22532666666667">
        <ele>158.5</ele>
        <time>2011-09-29T17:40:05.56</time>
      </trkpt>
      <trkpt lat="32.87338166666667" lon="35.225285">
        <ele>158</ele>
        <time>2011-09-29T17:40:07.38</time>
      </trkpt>
      <trkpt lat="32.873403333333336" lon="35.225123333333336">
        <ele>158.5</ele>
        <time>2011-09-29T17:40:08.56</time>
      </trkpt>
      <trkpt lat="32.87342833333334" lon="35.22495">
        <ele>158</ele>
        <time>2011-09-29T17:40:10.56</time>
      </trkpt>
      <trkpt lat="32.87342833333334" lon="35.224873333333335">
        <ele>157.5</ele>
        <time>2011-09-29T17:40:11.58</time>
      </trkpt>
      <trkpt lat="32.87345166666667" lon="35.22482333333333">
        <ele>157.5</ele>
        <time>2011-09-29T17:40:12.58</time>
      </trkpt>
      <trkpt lat="32.873493333333336" lon="35.22468">
        <ele>156.5</ele>
        <time>2011-09-29T17:40:14.56</time>
      </trkpt>
      <trkpt lat="32.87351" lon="35.22463333333334">
        <ele>156</ele>
        <time>2011-09-29T17:40:15.57</time>
      </trkpt>
      <trkpt lat="32.87351666666667" lon="35.224561666666666">
        <ele>156.5</ele>
        <time>2011-09-29T17:40:16.56</time>
      </trkpt>
      <trkpt lat="32.87352166666667" lon="35.22450666666667">
        <ele>156.5</ele>
        <time>2011-09-29T17:40:17.56</time>
      </trkpt>
      <trkpt lat="32.873513333333335" lon="35.224363333333336">
        <ele>154.5</ele>
        <time>2011-09-29T17:40:19.56</time>
      </trkpt>
      <trkpt lat="32.87354" lon="35.224318333333336">
        <ele>154</ele>
        <time>2011-09-29T17:40:20.56</time>
      </trkpt>
      <trkpt lat="32.87356833333333" lon="35.22427833333333">
        <ele>154</ele>
        <time>2011-09-29T17:40:21.75</time>
      </trkpt>
      <trkpt lat="32.873621666666665" lon="35.22423166666667">
        <ele>154</ele>
        <time>2011-09-29T17:40:23.69</time>
      </trkpt>
      <trkpt lat="32.87366166666666" lon="35.22421833333333">
        <ele>152.5</ele>
        <time>2011-09-29T17:40:25.55</time>
      </trkpt>
      <trkpt lat="32.873685" lon="35.22425">
        <ele>152</ele>
        <time>2011-09-29T17:40:26.58</time>
      </trkpt>
      <trkpt lat="32.873711666666665" lon="35.224295">
        <ele>151</ele>
        <time>2011-09-29T17:40:28.66</time>
      </trkpt>
      <trkpt lat="32.87373" lon="35.22432">
        <ele>151</ele>
        <time>2011-09-29T17:40:30.55</time>
      </trkpt>
      <trkpt lat="32.873736666666666" lon="35.22432833333333">
        <ele>151</ele>
        <time>2011-09-29T17:40:32.42</time>
      </trkpt>
      <trkpt lat="32.873731666666664" lon="35.224378333333334">
        <ele>151</ele>
        <time>2011-09-29T17:40:34.23</time>
      </trkpt>
      <trkpt lat="32.87373" lon="35.22441166666667">
        <ele>151</ele>
        <time>2011-09-29T17:40:35.55</time>
      </trkpt>
      <trkpt lat="32.873735" lon="35.22443">
        <ele>150.5</ele>
        <time>2011-09-29T17:40:36.55</time>
      </trkpt>
      <trkpt lat="32.873751666666664" lon="35.22447">
        <ele>150.5</ele>
        <time>2011-09-29T17:40:38.34</time>
      </trkpt>
      <trkpt lat="32.87376" lon="35.22456">
        <ele>150.5</ele>
        <time>2011-09-29T17:40:40.27</time>
      </trkpt>
      <trkpt lat="32.873775" lon="35.22459666666666">
        <ele>151</ele>
        <time>2011-09-29T17:40:41.55</time>
      </trkpt>
      <trkpt lat="32.873776666666664" lon="35.22462">
        <ele>150.5</ele>
        <time>2011-09-29T17:40:42.55</time>
      </trkpt>
      <trkpt lat="32.873775" lon="35.22465833333333">
        <ele>149.5</ele>
        <time>2011-09-29T17:40:44.35</time>
      </trkpt>
      <trkpt lat="32.873758333333335" lon="35.224711666666664">
        <ele>149.5</ele>
        <time>2011-09-29T17:40:46.15</time>
      </trkpt>
      <trkpt lat="32.87382" lon="35.22474833333333">
        <ele>149</ele>
        <time>2011-09-29T17:40:48.35</time>
      </trkpt>
      <trkpt lat="32.87385333333334" lon="35.22476833333333">
        <ele>149</ele>
        <time>2011-09-29T17:40:50.16</time>
      </trkpt>
      <trkpt lat="32.87390833333333" lon="35.22472166666667">
        <ele>148.5</ele>
        <time>2011-09-29T17:40:52.15</time>
      </trkpt>
      <trkpt lat="32.873918333333336" lon="35.2247">
        <ele>148</ele>
        <time>2011-09-29T17:40:53.55</time>
      </trkpt>
      <trkpt lat="32.87392333333333" lon="35.22468666666666">
        <ele>147.5</ele>
        <time>2011-09-29T17:40:54.55</time>
      </trkpt>
      <trkpt lat="32.87394" lon="35.22469">
        <ele>147.5</ele>
        <time>2011-09-29T17:40:55.55</time>
      </trkpt>
      <trkpt lat="32.87394833333333" lon="35.22470166666667">
        <ele>147</ele>
        <time>2011-09-29T17:40:56.55</time>
      </trkpt>
      <trkpt lat="32.87394833333333" lon="35.22470666666667">
        <ele>147</ele>
        <time>2011-09-29T17:40:57.54</time>
      </trkpt>
      <trkpt lat="32.873945" lon="35.22471">
        <ele>147</ele>
        <time>2011-09-29T17:40:58.54</time>
      </trkpt>
      <trkpt lat="32.87394666666667" lon="35.22472">
        <ele>146.5</ele>
        <time>2011-09-29T17:40:59.54</time>
      </trkpt>
      <trkpt lat="32.87394333333334" lon="35.22472666666667">
        <ele>146</ele>
        <time>2011-09-29T17:41:00.54</time>
      </trkpt>
      <trkpt lat="32.87394333333334" lon="35.22473166666666">
        <ele>146</ele>
        <time>2011-09-29T17:41:01.54</time>
      </trkpt>
      <trkpt lat="32.87394666666667" lon="35.224745">
        <ele>146</ele>
        <time>2011-09-29T17:41:02.54</time>
      </trkpt>
      <trkpt lat="32.87395" lon="35.22474">
        <ele>145.5</ele>
        <time>2011-09-29T17:41:03.54</time>
      </trkpt>
      <trkpt lat="32.873938333333335" lon="35.224735">
        <ele>145</ele>
        <time>2011-09-29T17:41:04.54</time>
      </trkpt>
      <trkpt lat="32.873938333333335" lon="35.22475166666667">
        <ele>145</ele>
        <time>2011-09-29T17:41:05.55</time>
      </trkpt>
      <trkpt lat="32.87393" lon="35.224755">
        <ele>144.5</ele>
        <time>2011-09-29T17:41:06.55</time>
      </trkpt>
      <trkpt lat="32.873935" lon="35.22475333333333">
        <ele>144.5</ele>
        <time>2011-09-29T17:41:07.56</time>
      </trkpt>
      <trkpt lat="32.87394333333334" lon="35.224756666666664">
        <ele>143</ele>
        <time>2011-09-29T17:41:08.56</time>
      </trkpt>
      <trkpt lat="32.87395166666667" lon="35.22476833333333">
        <ele>142.5</ele>
        <time>2011-09-29T17:41:09.57</time>
      </trkpt>
      <trkpt lat="32.87395333333333" lon="35.22477333333333">
        <ele>142</ele>
        <time>2011-09-29T17:41:11.54</time>
      </trkpt>
      <trkpt lat="32.87395166666667" lon="35.22479833333333">
        <ele>142</ele>
        <time>2011-09-29T17:41:12.55</time>
      </trkpt>
      <trkpt lat="32.873955" lon="35.224806666666666">
        <ele>141.5</ele>
        <time>2011-09-29T17:41:13.55</time>
      </trkpt>
      <trkpt lat="32.873955" lon="35.22481666666667">
        <ele>141</ele>
        <time>2011-09-29T17:41:14.55</time>
      </trkpt>
      <trkpt lat="32.87395166666667" lon="35.22482">
        <ele>140</ele>
        <time>2011-09-29T17:41:15.55</time>
      </trkpt>
      <trkpt lat="32.87395166666667" lon="35.22482333333333">
        <ele>140</ele>
        <time>2011-09-29T17:41:16.54</time>
      </trkpt>
      <trkpt lat="32.87395" lon="35.224826666666665">
        <ele>140</ele>
        <time>2011-09-29T17:41:17.54</time>
      </trkpt>
      <trkpt lat="32.873945" lon="35.22483166666667">
        <ele>140.5</ele>
        <time>2011-09-29T17:41:18.54</time>
      </trkpt>
      <trkpt lat="32.87393333333333" lon="35.224848333333334">
        <ele>139.5</ele>
        <time>2011-09-29T17:41:19.54</time>
      </trkpt>
      <trkpt lat="32.87393" lon="35.22485833333333">
        <ele>140</ele>
        <time>2011-09-29T17:41:20.54</time>
      </trkpt>
      <trkpt lat="32.873931666666664" lon="35.22485833333333">
        <ele>140</ele>
        <time>2011-09-29T17:41:21.54</time>
      </trkpt>
      <trkpt lat="32.873935" lon="35.22485833333333">
        <ele>140</ele>
        <time>2011-09-29T17:41:22.54</time>
      </trkpt>
      <trkpt lat="32.873931666666664" lon="35.22485833333333">
        <ele>140.5</ele>
        <time>2011-09-29T17:41:24.34</time>
      </trkpt>
      <trkpt lat="32.87392833333333" lon="35.22483833333333">
        <ele>140.5</ele>
        <time>2011-09-29T17:41:26.14</time>
      </trkpt>
      <trkpt lat="32.874005" lon="35.22469666666667">
        <ele>140.5</ele>
        <time>2011-09-29T17:41:28.54</time>
      </trkpt>
      <trkpt lat="32.87405166666667" lon="35.22461333333333">
        <ele>140.5</ele>
        <time>2011-09-29T17:41:31.16</time>
      </trkpt>
      <trkpt lat="32.874071666666666" lon="35.22448333333333">
        <ele>140.5</ele>
        <time>2011-09-29T17:41:32.97</time>
      </trkpt>
      <trkpt lat="32.87417333333333" lon="35.22438">
        <ele>141</ele>
        <time>2011-09-29T17:41:35.78</time>
      </trkpt>
      <trkpt lat="32.87419" lon="35.22426166666666">
        <ele>141</ele>
        <time>2011-09-29T17:41:36.88</time>
      </trkpt>
      <trkpt lat="32.8742" lon="35.22414833333333">
        <ele>142</ele>
        <time>2011-09-29T17:41:38.53</time>
      </trkpt>
      <trkpt lat="32.87419" lon="35.224106666666664">
        <ele>142</ele>
        <time>2011-09-29T17:41:40.32</time>
      </trkpt>
      <trkpt lat="32.87421833333333" lon="35.224015">
        <ele>142</ele>
        <time>2011-09-29T17:41:41.53</time>
      </trkpt>
      <trkpt lat="32.874253333333336" lon="35.22395">
        <ele>142.5</ele>
        <time>2011-09-29T17:41:42.53</time>
      </trkpt>
      <trkpt lat="32.87427666666667" lon="35.2239">
        <ele>143</ele>
        <time>2011-09-29T17:41:43.53</time>
      </trkpt>
      <trkpt lat="32.87430333333333" lon="35.223855">
        <ele>143</ele>
        <time>2011-09-29T17:41:45.34</time>
      </trkpt>
      <trkpt lat="32.87435" lon="35.223758333333336">
        <ele>141</ele>
        <time>2011-09-29T17:41:47.15</time>
      </trkpt>
      <trkpt lat="32.874381666666665" lon="35.223686666666666">
        <ele>140.5</ele>
        <time>2011-09-29T17:41:48.97</time>
      </trkpt>
      <trkpt lat="32.874431666666666" lon="35.2236">
        <ele>141</ele>
        <time>2011-09-29T17:41:50.77</time>
      </trkpt>
      <trkpt lat="32.87446166666667" lon="35.223535">
        <ele>140.5</ele>
        <time>2011-09-29T17:41:53.14</time>
      </trkpt>
      <trkpt lat="32.874478333333336" lon="35.223495">
        <ele>140.5</ele>
        <time>2011-09-29T17:41:54.96</time>
      </trkpt>
      <trkpt lat="32.87451166666666" lon="35.223411666666664">
        <ele>139.5</ele>
        <time>2011-09-29T17:41:56.53</time>
      </trkpt>
      <trkpt lat="32.87455" lon="35.22325333333333">
        <ele>140</ele>
        <time>2011-09-29T17:41:58.53</time>
      </trkpt>
      <trkpt lat="32.874545" lon="35.223213333333334">
        <ele>140</ele>
        <time>2011-09-29T17:41:59.54</time>
      </trkpt>
      <trkpt lat="32.874615" lon="35.22298333333333">
        <ele>139</ele>
        <time>2011-09-29T17:42:02.53</time>
      </trkpt>
      <trkpt lat="32.87464166666667" lon="35.22288833333333">
        <ele>138.5</ele>
        <time>2011-09-29T17:42:04.53</time>
      </trkpt>
      <trkpt lat="32.8747" lon="35.22291666666667">
        <ele>137.5</ele>
        <time>2011-09-29T17:42:08.52</time>
      </trkpt>
      <trkpt lat="32.87468666666667" lon="35.22294">
        <ele>136.5</ele>
        <time>2011-09-29T17:42:10.33</time>
      </trkpt>
      <trkpt lat="32.874698333333335" lon="35.222991666666665">
        <ele>136</ele>
        <time>2011-09-29T17:42:11.53</time>
      </trkpt>
      <trkpt lat="32.874696666666665" lon="35.223015">
        <ele>136</ele>
        <time>2011-09-29T17:42:13.35</time>
      </trkpt>
      <trkpt lat="32.87475" lon="35.223135">
        <ele>135</ele>
        <time>2011-09-29T17:42:14.53</time>
      </trkpt>
      <trkpt lat="32.874786666666665" lon="35.22321">
        <ele>134.5</ele>
        <time>2011-09-29T17:42:15.54</time>
      </trkpt>
      <trkpt lat="32.874805" lon="35.223265">
        <ele>134.5</ele>
        <time>2011-09-29T17:42:16.55</time>
      </trkpt>
      <trkpt lat="32.874806666666665" lon="35.223353333333336">
        <ele>134</ele>
        <time>2011-09-29T17:42:18.54</time>
      </trkpt>
      <trkpt lat="32.87478" lon="35.223435">
        <ele>135.5</ele>
        <time>2011-09-29T17:42:20.53</time>
      </trkpt>
      <trkpt lat="32.874761666666664" lon="35.223486666666666">
        <ele>135</ele>
        <time>2011-09-29T17:42:21.53</time>
      </trkpt>
      <trkpt lat="32.87472833333333" lon="35.22356833333333">
        <ele>134.5</ele>
        <time>2011-09-29T17:42:24.59</time>
      </trkpt>
      <trkpt lat="32.87469166666666" lon="35.223683333333334">
        <ele>131.5</ele>
        <time>2011-09-29T17:42:26.53</time>
      </trkpt>
      <trkpt lat="32.874658333333336" lon="35.223911666666666">
        <ele>130.5</ele>
        <time>2011-09-29T17:42:29.53</time>
      </trkpt>
      <trkpt lat="32.874653333333335" lon="35.223958333333336">
        <ele>131</ele>
        <time>2011-09-29T17:42:30.53</time>
      </trkpt>
      <trkpt lat="32.87467" lon="35.22456833333333">
        <ele>127.5</ele>
        <time>2011-09-29T17:42:35.52</time>
      </trkpt>
      <trkpt lat="32.874721666666666" lon="35.22472">
        <ele>127</ele>
        <time>2011-09-29T17:42:37.54</time>
      </trkpt>
      <trkpt lat="32.87475333333333" lon="35.22476833333333">
        <ele>126.5</ele>
        <time>2011-09-29T17:42:38.55</time>
      </trkpt>
      <trkpt lat="32.874766666666666" lon="35.224805">
        <ele>125.5</ele>
        <time>2011-09-29T17:42:39.56</time>
      </trkpt>
      <trkpt lat="32.87487333333333" lon="35.22493333333333">
        <ele>122.5</ele>
        <time>2011-09-29T17:42:42.27</time>
      </trkpt>
      <trkpt lat="32.874946666666666" lon="35.224936666666665">
        <ele>122</ele>
        <time>2011-09-29T17:42:45.52</time>
      </trkpt>
      <trkpt lat="32.874961666666664" lon="35.22492333333334">
        <ele>123.5</ele>
        <time>2011-09-29T17:42:46.53</time>
      </trkpt>
      <trkpt lat="32.874966666666666" lon="35.224916666666665">
        <ele>123.5</ele>
        <time>2011-09-29T17:42:47.53</time>
      </trkpt>
      <trkpt lat="32.87497" lon="35.22491333333333">
        <ele>123.5</ele>
        <time>2011-09-29T17:42:48.53</time>
      </trkpt>
      <trkpt lat="32.87498333333333" lon="35.22490833333333">
        <ele>123.5</ele>
        <time>2011-09-29T17:42:50.33</time>
      </trkpt>
      <trkpt lat="32.87503" lon="35.224865">
        <ele>122.5</ele>
        <time>2011-09-29T17:42:51.52</time>
      </trkpt>
      <trkpt lat="32.87506333333333" lon="35.22483166666667">
        <ele>122.5</ele>
        <time>2011-09-29T17:42:52.53</time>
      </trkpt>
      <trkpt lat="32.87509" lon="35.224803333333334">
        <ele>123</ele>
        <time>2011-09-29T17:42:53.53</time>
      </trkpt>
      <trkpt lat="32.87511166666667" lon="35.224783333333335">
        <ele>122.5</ele>
        <time>2011-09-29T17:42:55.33</time>
      </trkpt>
      <trkpt lat="32.87518" lon="35.22472">
        <ele>122</ele>
        <time>2011-09-29T17:42:56.52</time>
      </trkpt>
      <trkpt lat="32.875175" lon="35.22470333333333">
        <ele>122</ele>
        <time>2011-09-29T17:42:59.52</time>
      </trkpt>
      <trkpt lat="32.875191666666666" lon="35.2247">
        <ele>122</ele>
        <time>2011-09-29T17:43:00.53</time>
      </trkpt>
      <trkpt lat="32.87520333333333" lon="35.224691666666665">
        <ele>122</ele>
        <time>2011-09-29T17:43:01.55</time>
      </trkpt>
      <trkpt lat="32.87522166666667" lon="35.22468">
        <ele>122</ele>
        <time>2011-09-29T17:43:03.52</time>
      </trkpt>
      <trkpt lat="32.87523" lon="35.22467">
        <ele>121.5</ele>
        <time>2011-09-29T17:43:05.33</time>
      </trkpt>
      <trkpt lat="32.87526833333333" lon="35.224668333333334">
        <ele>121</ele>
        <time>2011-09-29T17:43:06.52</time>
      </trkpt>
      <trkpt lat="32.87527333333333" lon="35.224668333333334">
        <ele>121</ele>
        <time>2011-09-29T17:43:07.52</time>
      </trkpt>
      <trkpt lat="32.875280000000004" lon="35.22466333333333">
        <ele>121</ele>
        <time>2011-09-29T17:43:09.31</time>
      </trkpt>
      <trkpt lat="32.87530666666667" lon="35.22459333333333">
        <ele>120.5</ele>
        <time>2011-09-29T17:43:10.51</time>
      </trkpt>
      <trkpt lat="32.87533166666667" lon="35.224565">
        <ele>120.5</ele>
        <time>2011-09-29T17:43:12.31</time>
      </trkpt>
      <trkpt lat="32.87538" lon="35.224505">
        <ele>120.5</ele>
        <time>2011-09-29T17:43:14.11</time>
      </trkpt>
      <trkpt lat="32.87544666666667" lon="35.224441666666664">
        <ele>120</ele>
        <time>2011-09-29T17:43:15.94</time>
      </trkpt>
      <trkpt lat="32.87549166666667" lon="35.2244">
        <ele>119</ele>
        <time>2011-09-29T17:43:17.51</time>
      </trkpt>
      <trkpt lat="32.875505" lon="35.22439166666667">
        <ele>119</ele>
        <time>2011-09-29T17:43:19.32</time>
      </trkpt>
      <trkpt lat="32.875571666666666" lon="35.22428166666667">
        <ele>118.5</ele>
        <time>2011-09-29T17:43:21.14</time>
      </trkpt>
      <trkpt lat="32.875656666666664" lon="35.224268333333335">
        <ele>118.5</ele>
        <time>2011-09-29T17:43:22.52</time>
      </trkpt>
      <trkpt lat="32.87571666666667" lon="35.22427833333333">
        <ele>117.5</ele>
        <time>2011-09-29T17:43:24.52</time>
      </trkpt>
      <trkpt lat="32.87594166666667" lon="35.224273333333336">
        <ele>116</ele>
        <time>2011-09-29T17:43:27.51</time>
      </trkpt>
      <trkpt lat="32.87601333333333" lon="35.22425666666667">
        <ele>116</ele>
        <time>2011-09-29T17:43:31.51</time>
      </trkpt>
      <trkpt lat="32.876043333333335" lon="35.224266666666665">
        <ele>115.5</ele>
        <time>2011-09-29T17:43:33.31</time>
      </trkpt>
      <trkpt lat="32.87609833333333" lon="35.22427666666667">
        <ele>115.5</ele>
        <time>2011-09-29T17:43:35.12</time>
      </trkpt>
      <trkpt lat="32.87612" lon="35.22426">
        <ele>118</ele>
        <time>2011-09-29T17:43:36.51</time>
      </trkpt>
      <trkpt lat="32.87613833333333" lon="35.224265">
        <ele>118</ele>
        <time>2011-09-29T17:43:38.33</time>
      </trkpt>
      <trkpt lat="32.876155" lon="35.22425833333333">
        <ele>119</ele>
        <time>2011-09-29T17:43:39.51</time>
      </trkpt>
      <trkpt lat="32.87617" lon="35.22425666666667">
        <ele>119</ele>
        <time>2011-09-29T17:43:41.51</time>
      </trkpt>
      <trkpt lat="32.87618" lon="35.22425833333333">
        <ele>119</ele>
        <time>2011-09-29T17:43:42.52</time>
      </trkpt>
      <trkpt lat="32.876191666666664" lon="35.22426166666666">
        <ele>118.5</ele>
        <time>2011-09-29T17:43:44.35</time>
      </trkpt>
      <trkpt lat="32.87620166666667" lon="35.22424">
        <ele>117.5</ele>
        <time>2011-09-29T17:43:46.15</time>
      </trkpt>
      <trkpt lat="32.876225" lon="35.224246666666666">
        <ele>117</ele>
        <time>2011-09-29T17:43:47.51</time>
      </trkpt>
      <trkpt lat="32.87629" lon="35.22427">
        <ele>115.5</ele>
        <time>2011-09-29T17:43:49.51</time>
      </trkpt>
      <trkpt lat="32.87630166666667" lon="35.22427666666667">
        <ele>115.5</ele>
        <time>2011-09-29T17:43:51.31</time>
      </trkpt>
      <trkpt lat="32.87634666666667" lon="35.22429666666667">
        <ele>115</ele>
        <time>2011-09-29T17:43:52.51</time>
      </trkpt>
      <trkpt lat="32.87635" lon="35.22429833333333">
        <ele>115</ele>
        <time>2011-09-29T17:43:53.52</time>
      </trkpt>
      <trkpt lat="32.87647333333334" lon="35.22431">
        <ele>115.5</ele>
        <time>2011-09-29T17:43:56.99</time>
      </trkpt>
      <trkpt lat="32.876558333333335" lon="35.224318333333336">
        <ele>115</ele>
        <time>2011-09-29T17:43:58.51</time>
      </trkpt>
      <trkpt lat="32.87656333333334" lon="35.22432166666667">
        <ele>115</ele>
        <time>2011-09-29T17:43:59.53</time>
      </trkpt>
      <trkpt lat="32.876565" lon="35.22432">
        <ele>114.5</ele>
        <time>2011-09-29T17:44:00.54</time>
      </trkpt>
      <trkpt lat="32.876575" lon="35.224318333333336">
        <ele>114</ele>
        <time>2011-09-29T17:44:02.50</time>
      </trkpt>
      <trkpt lat="32.876585" lon="35.22431666666667">
        <ele>113.5</ele>
        <time>2011-09-29T17:44:04.40</time>
      </trkpt>
      <trkpt lat="32.87658833333333" lon="35.22431666666667">
        <ele>112.5</ele>
        <time>2011-09-29T17:44:06.23</time>
      </trkpt>
      <trkpt lat="32.87659166666667" lon="35.224305">
        <ele>111.5</ele>
        <time>2011-09-29T17:44:07.23</time>
      </trkpt>
      <trkpt lat="32.87659333333333" lon="35.22430166666667">
        <ele>111</ele>
        <time>2011-09-29T17:44:08.24</time>
      </trkpt>
      <trkpt lat="32.87659166666667" lon="35.22429833333333">
        <ele>111</ele>
        <time>2011-09-29T17:44:09.25</time>
      </trkpt>
      <trkpt lat="32.87659" lon="35.22429833333333">
        <ele>111</ele>
        <time>2011-09-29T17:44:10.24</time>
      </trkpt>
      <trkpt lat="32.87659166666667" lon="35.22430333333333">
        <ele>112</ele>
        <time>2011-09-29T17:44:11.26</time>
      </trkpt>
      <trkpt lat="32.87659166666667" lon="35.224305">
        <ele>112.5</ele>
        <time>2011-09-29T17:44:12.25</time>
      </trkpt>
      <trkpt lat="32.87659166666667" lon="35.22430166666667">
        <ele>112.5</ele>
        <time>2011-09-29T17:44:13.25</time>
      </trkpt>
      <trkpt lat="32.87659" lon="35.22429833333333">
        <ele>112.5</ele>
        <time>2011-09-29T17:44:14.25</time>
      </trkpt>
      <trkpt lat="32.87659166666667" lon="35.22429833333333">
        <ele>113</ele>
        <time>2011-09-29T17:44:15.24</time>
      </trkpt>
      <trkpt lat="32.87659166666667" lon="35.224293333333335">
        <ele>112.5</ele>
        <time>2011-09-29T17:44:16.24</time>
      </trkpt>
      <trkpt lat="32.87658833333333" lon="35.224293333333335">
        <ele>112.5</ele>
        <time>2011-09-29T17:44:17.25</time>
      </trkpt>
      <trkpt lat="32.876583333333336" lon="35.224288333333334">
        <ele>112</ele>
        <time>2011-09-29T17:44:18.24</time>
      </trkpt>
      <trkpt lat="32.87658" lon="35.22428">
        <ele>111.5</ele>
        <time>2011-09-29T17:44:19.25</time>
      </trkpt>
      <trkpt lat="32.876578333333335" lon="35.224268333333335">
        <ele>111.5</ele>
        <time>2011-09-29T17:44:20.25</time>
      </trkpt>
      <trkpt lat="32.87657333333333" lon="35.22426166666666">
        <ele>111</ele>
        <time>2011-09-29T17:44:21.26</time>
      </trkpt>
      <trkpt lat="32.87656333333334" lon="35.22425666666667">
        <ele>110</ele>
        <time>2011-09-29T17:44:23.23</time>
      </trkpt>
      <trkpt lat="32.876558333333335" lon="35.22425833333333">
        <ele>109.5</ele>
        <time>2011-09-29T17:44:24.23</time>
      </trkpt>
      <trkpt lat="32.876556666666666" lon="35.22426333333333">
        <ele>110</ele>
        <time>2011-09-29T17:44:25.24</time>
      </trkpt>
      <trkpt lat="32.876551666666664" lon="35.224266666666665">
        <ele>112</ele>
        <time>2011-09-29T17:44:26.26</time>
      </trkpt>
      <trkpt lat="32.876551666666664" lon="35.224255">
        <ele>110.5</ele>
        <time>2011-09-29T17:44:28.22</time>
      </trkpt>
      <trkpt lat="32.87655" lon="35.22425333333333">
        <ele>110</ele>
        <time>2011-09-29T17:44:29.23</time>
      </trkpt>
      <trkpt lat="32.87654833333333" lon="35.22425">
        <ele>109.5</ele>
        <time>2011-09-29T17:44:30.23</time>
      </trkpt>
      <trkpt lat="32.87654833333333" lon="35.22425">
        <ele>109.5</ele>
        <time>2011-09-29T17:44:31.23</time>
      </trkpt>
      <trkpt lat="32.87654666666667" lon="35.224248333333335">
        <ele>109.5</ele>
        <time>2011-09-29T17:44:32.24</time>
      </trkpt>
      <trkpt lat="32.87654333333333" lon="35.224246666666666">
        <ele>109.5</ele>
        <time>2011-09-29T17:44:33.23</time>
      </trkpt>
      <trkpt lat="32.87654333333333" lon="35.224245">
        <ele>109.5</ele>
        <time>2011-09-29T17:44:34.23</time>
      </trkpt>
      <trkpt lat="32.87654" lon="35.224245">
        <ele>109.5</ele>
        <time>2011-09-29T17:44:35.23</time>
      </trkpt>
      <trkpt lat="32.87654" lon="35.224245">
        <ele>109.5</ele>
        <time>2011-09-29T17:44:36.23</time>
      </trkpt>
      <trkpt lat="32.876538333333336" lon="35.224245">
        <ele>110</ele>
        <time>2011-09-29T17:44:37.23</time>
      </trkpt>
      <trkpt lat="32.876538333333336" lon="35.224245">
        <ele>110</ele>
        <time>2011-09-29T17:44:38.23</time>
      </trkpt>
      <trkpt lat="32.876535" lon="35.224248333333335">
        <ele>110.5</ele>
        <time>2011-09-29T17:44:39.23</time>
      </trkpt>
      <trkpt lat="32.87653" lon="35.224248333333335">
        <ele>111</ele>
        <time>2011-09-29T17:44:40.23</time>
      </trkpt>
      <trkpt lat="32.87653" lon="35.224246666666666">
        <ele>110.5</ele>
        <time>2011-09-29T17:44:41.23</time>
      </trkpt>
      <trkpt lat="32.87653" lon="35.224246666666666">
        <ele>110.5</ele>
        <time>2011-09-29T17:44:42.24</time>
      </trkpt>
      <trkpt lat="32.87653" lon="35.224246666666666">
        <ele>110.5</ele>
        <time>2011-09-29T17:44:43.24</time>
      </trkpt>
      <trkpt lat="32.87653" lon="35.224246666666666">
        <ele>110.5</ele>
        <time>2011-09-29T17:44:44.25</time>
      </trkpt>
      <trkpt lat="32.876531666666665" lon="35.224246666666666">
        <ele>110.5</ele>
        <time>2011-09-29T17:44:45.25</time>
      </trkpt>
      <trkpt lat="32.876545" lon="35.22425">
        <ele>112</ele>
        <time>2011-09-29T17:44:47.22</time>
      </trkpt>
      <trkpt lat="32.87654833333333" lon="35.22425666666667">
        <ele>113</ele>
        <time>2011-09-29T17:44:48.23</time>
      </trkpt>
      <trkpt lat="32.87654333333333" lon="35.224255">
        <ele>113</ele>
        <time>2011-09-29T17:44:49.23</time>
      </trkpt>
      <trkpt lat="32.876545" lon="35.224255">
        <ele>113</ele>
        <time>2011-09-29T17:44:50.24</time>
      </trkpt>
      <trkpt lat="32.87654" lon="35.224248333333335">
        <ele>112</ele>
        <time>2011-09-29T17:44:51.24</time>
      </trkpt>
      <trkpt lat="32.876531666666665" lon="35.22423333333333">
        <ele>109.5</ele>
        <time>2011-09-29T17:44:52.24</time>
      </trkpt>
      <trkpt lat="32.876533333333334" lon="35.224248333333335">
        <ele>112.5</ele>
        <time>2011-09-29T17:44:53.23</time>
      </trkpt>
      <trkpt lat="32.876535" lon="35.224245">
        <ele>112</ele>
        <time>2011-09-29T17:44:54.23</time>
      </trkpt>
      <trkpt lat="32.87651666666667" lon="35.22423">
        <ele>109.5</ele>
        <time>2011-09-29T17:44:56.22</time>
      </trkpt>
      <trkpt lat="32.87651833333334" lon="35.22423666666667">
        <ele>110.5</ele>
        <time>2011-09-29T17:44:57.22</time>
      </trkpt>
      <trkpt lat="32.87652" lon="35.22423">
        <ele>109.5</ele>
        <time>2011-09-29T17:44:58.23</time>
      </trkpt>
      <trkpt lat="32.876515" lon="35.22422666666667">
        <ele>108.5</ele>
        <time>2011-09-29T17:44:59.23</time>
      </trkpt>
      <trkpt lat="32.876511666666666" lon="35.224221666666665">
        <ele>107.5</ele>
        <time>2011-09-29T17:45:00.23</time>
      </trkpt>
      <trkpt lat="32.876508333333334" lon="35.224221666666665">
        <ele>107.5</ele>
        <time>2011-09-29T17:45:01.24</time>
      </trkpt>
      <trkpt lat="32.8765" lon="35.224215">
        <ele>106</ele>
        <time>2011-09-29T17:45:02.23</time>
      </trkpt>
      <trkpt lat="32.87652" lon="35.224241666666664">
        <ele>110.5</ele>
        <time>2011-09-29T17:45:03.25</time>
      </trkpt>
      <trkpt lat="32.87652833333333" lon="35.224243333333334">
        <ele>112</ele>
        <time>2011-09-29T17:45:05.22</time>
      </trkpt>
      <trkpt lat="32.876595" lon="35.224178333333334">
        <ele>112.5</ele>
        <time>2011-09-29T17:45:08.21</time>
      </trkpt>
      <trkpt lat="32.8766" lon="35.22417166666666">
        <ele>113.5</ele>
        <time>2011-09-29T17:45:09.22</time>
      </trkpt>
      <trkpt lat="32.876603333333335" lon="35.22417">
        <ele>114.5</ele>
        <time>2011-09-29T17:45:10.24</time>
      </trkpt>
      <trkpt lat="32.87661666666666" lon="35.224155">
        <ele>117.5</ele>
        <time>2011-09-29T17:45:12.21</time>
      </trkpt>
      <trkpt lat="32.876665" lon="35.224196666666664">
        <ele>120.5</ele>
        <time>2011-09-29T17:45:14.21</time>
      </trkpt>
      <trkpt lat="32.87666333333333" lon="35.22419166666667">
        <ele>120.5</ele>
        <time>2011-09-29T17:45:15.22</time>
      </trkpt>
      <trkpt lat="32.87665333333333" lon="35.224175">
        <ele>121</ele>
        <time>2011-09-29T17:45:16.22</time>
      </trkpt>
      <trkpt lat="32.87665" lon="35.224165">
        <ele>121</ele>
        <time>2011-09-29T17:45:17.23</time>
      </trkpt>
      <trkpt lat="32.876643333333334" lon="35.224155">
        <ele>121</ele>
        <time>2011-09-29T17:45:18.23</time>
      </trkpt>
      <trkpt lat="32.876641666666664" lon="35.224158333333335">
        <ele>121</ele>
        <time>2011-09-29T17:45:19.22</time>
      </trkpt>
      <trkpt lat="32.876635" lon="35.224156666666666">
        <ele>121.5</ele>
        <time>2011-09-29T17:45:20.22</time>
      </trkpt>
      <trkpt lat="32.87662666666667" lon="35.224151666666664">
        <ele>122</ele>
        <time>2011-09-29T17:45:21.22</time>
      </trkpt>
      <trkpt lat="32.87661666666666" lon="35.22415">
        <ele>123</ele>
        <time>2011-09-29T17:45:22.22</time>
      </trkpt>
      <trkpt lat="32.87661666666666" lon="35.22414166666667">
        <ele>123.5</ele>
        <time>2011-09-29T17:45:23.22</time>
      </trkpt>
      <trkpt lat="32.87661666666666" lon="35.22414">
        <ele>124</ele>
        <time>2011-09-29T17:45:24.22</time>
      </trkpt>
      <trkpt lat="32.87661" lon="35.22414166666667">
        <ele>124.5</ele>
        <time>2011-09-29T17:45:25.22</time>
      </trkpt>
      <trkpt lat="32.876605" lon="35.22414">
        <ele>124.5</ele>
        <time>2011-09-29T17:45:26.22</time>
      </trkpt>
      <trkpt lat="32.876603333333335" lon="35.224133333333334">
        <ele>124.5</ele>
        <time>2011-09-29T17:45:27.23</time>
      </trkpt>
      <trkpt lat="32.876603333333335" lon="35.22412666666666">
        <ele>124.5</ele>
        <time>2011-09-29T17:45:28.23</time>
      </trkpt>
      <trkpt lat="32.876603333333335" lon="35.22413">
        <ele>124.5</ele>
        <time>2011-09-29T17:45:29.24</time>
      </trkpt>
      <trkpt lat="32.8766" lon="35.22411666666667">
        <ele>125</ele>
        <time>2011-09-29T17:45:30.25</time>
      </trkpt>
      <trkpt lat="32.87660833333333" lon="35.224075">
        <ele>123.5</ele>
        <time>2011-09-29T17:45:32.21</time>
      </trkpt>
      <trkpt lat="32.876601666666666" lon="35.224065">
        <ele>123.5</ele>
        <time>2011-09-29T17:45:33.22</time>
      </trkpt>
      <trkpt lat="32.876585" lon="35.22404">
        <ele>124</ele>
        <time>2011-09-29T17:45:35.21</time>
      </trkpt>
      <trkpt lat="32.87658166666667" lon="35.22403666666666">
        <ele>124.5</ele>
        <time>2011-09-29T17:45:36.21</time>
      </trkpt>
      <trkpt lat="32.876578333333335" lon="35.22403333333333">
        <ele>124.5</ele>
        <time>2011-09-29T17:45:37.21</time>
      </trkpt>
      <trkpt lat="32.87657333333333" lon="35.22402833333334">
        <ele>125</ele>
        <time>2011-09-29T17:45:38.22</time>
      </trkpt>
      <trkpt lat="32.87657" lon="35.224035">
        <ele>125.5</ele>
        <time>2011-09-29T17:45:39.21</time>
      </trkpt>
      <trkpt lat="32.87656166666667" lon="35.224035">
        <ele>126.5</ele>
        <time>2011-09-29T17:45:40.21</time>
      </trkpt>
      <trkpt lat="32.876556666666666" lon="35.224035">
        <ele>127</ele>
        <time>2011-09-29T17:45:41.21</time>
      </trkpt>
      <trkpt lat="32.876551666666664" lon="35.224035">
        <ele>127.5</ele>
        <time>2011-09-29T17:45:42.22</time>
      </trkpt>
      <trkpt lat="32.876551666666664" lon="35.224041666666665">
        <ele>128</ele>
        <time>2011-09-29T17:45:43.21</time>
      </trkpt>
      <trkpt lat="32.876553333333334" lon="35.224046666666666">
        <ele>128</ele>
        <time>2011-09-29T17:45:44.21</time>
      </trkpt>
      <trkpt lat="32.876551666666664" lon="35.224046666666666">
        <ele>128.5</ele>
        <time>2011-09-29T17:45:45.21</time>
      </trkpt>
      <trkpt lat="32.876551666666664" lon="35.22405166666667">
        <ele>129</ele>
        <time>2011-09-29T17:45:46.21</time>
      </trkpt>
      <trkpt lat="32.87655" lon="35.22405166666667">
        <ele>129</ele>
        <time>2011-09-29T17:45:47.21</time>
      </trkpt>
      <trkpt lat="32.87654833333333" lon="35.224041666666665">
        <ele>129.5</ele>
        <time>2011-09-29T17:45:48.22</time>
      </trkpt>
      <trkpt lat="32.87654833333333" lon="35.22403666666666">
        <ele>129.5</ele>
        <time>2011-09-29T17:45:49.22</time>
      </trkpt>
      <trkpt lat="32.87656833333333" lon="35.22408166666666">
        <ele>130</ele>
        <time>2011-09-29T17:45:51.21</time>
      </trkpt>
      <trkpt lat="32.87657166666666" lon="35.22409">
        <ele>130</ele>
        <time>2011-09-29T17:45:52.22</time>
      </trkpt>
      <trkpt lat="32.87657" lon="35.224086666666665">
        <ele>130</ele>
        <time>2011-09-29T17:45:53.23</time>
      </trkpt>
      <trkpt lat="32.87656333333334" lon="35.224091666666666">
        <ele>131</ele>
        <time>2011-09-29T17:45:54.24</time>
      </trkpt>
      <trkpt lat="32.87654666666667" lon="35.22407">
        <ele>132</ele>
        <time>2011-09-29T17:45:56.21</time>
      </trkpt>
      <trkpt lat="32.876551666666664" lon="35.224088333333334">
        <ele>132</ele>
        <time>2011-09-29T17:45:57.21</time>
      </trkpt>
      <trkpt lat="32.87655" lon="35.224088333333334">
        <ele>132</ele>
        <time>2011-09-29T17:45:58.21</time>
      </trkpt>
      <trkpt lat="32.876551666666664" lon="35.224091666666666">
        <ele>132.5</ele>
        <time>2011-09-29T17:45:59.21</time>
      </trkpt>
      <trkpt lat="32.87655" lon="35.22409666666667">
        <ele>132.5</ele>
        <time>2011-09-29T17:46:00.20</time>
      </trkpt>
      <trkpt lat="32.876553333333334" lon="35.22411666666667">
        <ele>133</ele>
        <time>2011-09-29T17:46:01.21</time>
      </trkpt>
      <trkpt lat="32.87655" lon="35.224105">
        <ele>133</ele>
        <time>2011-09-29T17:46:02.20</time>
      </trkpt>
      <trkpt lat="32.876545" lon="35.22408333333333">
        <ele>132.5</ele>
        <time>2011-09-29T17:46:03.20</time>
      </trkpt>
      <trkpt lat="32.87652666666666" lon="35.22405333333333">
        <ele>132.5</ele>
        <time>2011-09-29T17:46:05.21</time>
      </trkpt>
      <trkpt lat="32.87652833333333" lon="35.22405166666667">
        <ele>132.5</ele>
        <time>2011-09-29T17:46:06.21</time>
      </trkpt>
      <trkpt lat="32.87652666666666" lon="35.22405333333333">
        <ele>132.5</ele>
        <time>2011-09-29T17:46:07.21</time>
      </trkpt>
      <trkpt lat="32.87652666666666" lon="35.22405333333333">
        <ele>132.5</ele>
        <time>2011-09-29T17:46:08.21</time>
      </trkpt>
      <trkpt lat="32.876531666666665" lon="35.22403166666667">
        <ele>131.5</ele>
        <time>2011-09-29T17:46:09.21</time>
      </trkpt>
      <trkpt lat="32.87653666666667" lon="35.22403166666667">
        <ele>131.5</ele>
        <time>2011-09-29T17:46:10.22</time>
      </trkpt>
      <trkpt lat="32.87654" lon="35.22403333333333">
        <ele>131.5</ele>
        <time>2011-09-29T17:46:11.23</time>
      </trkpt>
      <trkpt lat="32.87652666666666" lon="35.22405166666667">
        <ele>132.5</ele>
        <time>2011-09-29T17:46:13.21</time>
      </trkpt>
      <trkpt lat="32.87652833333333" lon="35.224055">
        <ele>133</ele>
        <time>2011-09-29T17:46:14.21</time>
      </trkpt>
      <trkpt lat="32.87653" lon="35.22405333333333">
        <ele>133</ele>
        <time>2011-09-29T17:46:15.23</time>
      </trkpt>
      <trkpt lat="32.87653" lon="35.22405166666667">
        <ele>133</ele>
        <time>2011-09-29T17:46:16.24</time>
      </trkpt>
      <trkpt lat="32.87654166666667" lon="35.22405833333333">
        <ele>133.5</ele>
        <time>2011-09-29T17:46:18.20</time>
      </trkpt>
      <trkpt lat="32.876545" lon="35.22407">
        <ele>134</ele>
        <time>2011-09-29T17:46:19.21</time>
      </trkpt>
      <trkpt lat="32.87654333333333" lon="35.224068333333335">
        <ele>134</ele>
        <time>2011-09-29T17:46:20.21</time>
      </trkpt>
      <trkpt lat="32.876538333333336" lon="35.224041666666665">
        <ele>134</ele>
        <time>2011-09-29T17:46:21.21</time>
      </trkpt>
      <trkpt lat="32.87654" lon="35.22403666666666">
        <ele>134</ele>
        <time>2011-09-29T17:46:22.21</time>
      </trkpt>
      <trkpt lat="32.876545" lon="35.22405833333333">
        <ele>134</ele>
        <time>2011-09-29T17:46:23.21</time>
      </trkpt>
      <trkpt lat="32.876545" lon="35.224066666666666">
        <ele>134</ele>
        <time>2011-09-29T17:46:24.21</time>
      </trkpt>
      <trkpt lat="32.87654" lon="35.22405833333333">
        <ele>134</ele>
        <time>2011-09-29T17:46:25.21</time>
      </trkpt>
      <trkpt lat="32.87654333333333" lon="35.22407">
        <ele>134</ele>
        <time>2011-09-29T17:46:26.22</time>
      </trkpt>
      <trkpt lat="32.87654833333333" lon="35.22409666666667">
        <ele>134.5</ele>
        <time>2011-09-29T17:46:27.21</time>
      </trkpt>
      <trkpt lat="32.87654666666667" lon="35.224108333333334">
        <ele>134.5</ele>
        <time>2011-09-29T17:46:28.21</time>
      </trkpt>
      <trkpt lat="32.876553333333334" lon="35.2241">
        <ele>133.5</ele>
        <time>2011-09-29T17:46:29.21</time>
      </trkpt>
      <trkpt lat="32.876555" lon="35.224108333333334">
        <ele>133.5</ele>
        <time>2011-09-29T17:46:30.21</time>
      </trkpt>
      <trkpt lat="32.87656833333333" lon="35.224151666666664">
        <ele>133.5</ele>
        <time>2011-09-29T17:46:32.20</time>
      </trkpt>
      <trkpt lat="32.87657166666666" lon="35.224138333333336">
        <ele>133</ele>
        <time>2011-09-29T17:46:33.21</time>
      </trkpt>
      <trkpt lat="32.87657166666666" lon="35.224135">
        <ele>133</ele>
        <time>2011-09-29T17:46:34.21</time>
      </trkpt>
      <trkpt lat="32.87657166666666" lon="35.22412666666666">
        <ele>133</ele>
        <time>2011-09-29T17:46:35.22</time>
      </trkpt>
      <trkpt lat="32.87658" lon="35.22412666666666">
        <ele>133</ele>
        <time>2011-09-29T17:46:37.20</time>
      </trkpt>
      <trkpt lat="32.87658" lon="35.22412833333333">
        <ele>133</ele>
        <time>2011-09-29T17:46:38.21</time>
      </trkpt>
      <trkpt lat="32.876558333333335" lon="35.22405333333333">
        <ele>132</ele>
        <time>2011-09-29T17:46:40.20</time>
      </trkpt>
      <trkpt lat="32.876556666666666" lon="35.224043333333334">
        <ele>132</ele>
        <time>2011-09-29T17:46:41.21</time>
      </trkpt>
      <trkpt lat="32.87656" lon="35.224055">
        <ele>132</ele>
        <time>2011-09-29T17:46:42.20</time>
      </trkpt>
      <trkpt lat="32.876555" lon="35.224046666666666">
        <ele>132</ele>
        <time>2011-09-29T17:46:43.20</time>
      </trkpt>
      <trkpt lat="32.876553333333334" lon="35.22405">
        <ele>132</ele>
        <time>2011-09-29T17:46:44.20</time>
      </trkpt>
      <trkpt lat="32.876555" lon="35.22405833333333">
        <ele>132.5</ele>
        <time>2011-09-29T17:46:45.20</time>
      </trkpt>
      <trkpt lat="32.87655" lon="35.224041666666665">
        <ele>132.5</ele>
        <time>2011-09-29T17:46:46.20</time>
      </trkpt>
      <trkpt lat="32.87654666666667" lon="35.224025">
        <ele>132</ele>
        <time>2011-09-29T17:46:47.20</time>
      </trkpt>
      <trkpt lat="32.876553333333334" lon="35.224043333333334">
        <ele>132</ele>
        <time>2011-09-29T17:46:48.20</time>
      </trkpt>
      <trkpt lat="32.87656166666667" lon="35.224065">
        <ele>132</ele>
        <time>2011-09-29T17:46:49.20</time>
      </trkpt>
      <trkpt lat="32.87656833333333" lon="35.22407833333333">
        <ele>132</ele>
        <time>2011-09-29T17:46:51.20</time>
      </trkpt>
      <trkpt lat="32.87656833333333" lon="35.22407833333333">
        <ele>132</ele>
        <time>2011-09-29T17:46:52.20</time>
      </trkpt>
      <trkpt lat="32.876575" lon="35.224095">
        <ele>132</ele>
        <time>2011-09-29T17:46:53.20</time>
      </trkpt>
      <trkpt lat="32.876578333333335" lon="35.22410333333333">
        <ele>132.5</ele>
        <time>2011-09-29T17:46:54.22</time>
      </trkpt>
      <trkpt lat="32.87658166666667" lon="35.224105">
        <ele>132.5</ele>
        <time>2011-09-29T17:46:55.22</time>
      </trkpt>
      <trkpt lat="32.876583333333336" lon="35.22411">
        <ele>132</ele>
        <time>2011-09-29T17:46:56.23</time>
      </trkpt>
      <trkpt lat="32.87658833333333" lon="35.22412833333333">
        <ele>132</ele>
        <time>2011-09-29T17:46:57.23</time>
      </trkpt>
      <trkpt lat="32.87658" lon="35.22410333333333">
        <ele>132</ele>
        <time>2011-09-29T17:46:59.19</time>
      </trkpt>
      <trkpt lat="32.876578333333335" lon="35.22409833333333">
        <ele>132</ele>
        <time>2011-09-29T17:47:00.20</time>
      </trkpt>
      <trkpt lat="32.87659166666667" lon="35.224113333333335">
        <ele>132</ele>
        <time>2011-09-29T17:47:02.20</time>
      </trkpt>
      <trkpt lat="32.87659166666667" lon="35.22412">
        <ele>132</ele>
        <time>2011-09-29T17:47:03.20</time>
      </trkpt>
      <trkpt lat="32.876595" lon="35.22412">
        <ele>132</ele>
        <time>2011-09-29T17:47:04.20</time>
      </trkpt>
      <trkpt lat="32.87661833333333" lon="35.22416666666667">
        <ele>132</ele>
        <time>2011-09-29T17:47:06.20</time>
      </trkpt>
      <trkpt lat="32.87662" lon="35.224165">
        <ele>132</ele>
        <time>2011-09-29T17:47:07.20</time>
      </trkpt>
      <trkpt lat="32.87661833333333" lon="35.22416">
        <ele>132</ele>
        <time>2011-09-29T17:47:08.20</time>
      </trkpt>
      <trkpt lat="32.87661833333333" lon="35.22416166666667">
        <ele>132</ele>
        <time>2011-09-29T17:47:09.20</time>
      </trkpt>
      <trkpt lat="32.876623333333335" lon="35.224155">
        <ele>132</ele>
        <time>2011-09-29T17:47:10.20</time>
      </trkpt>
      <trkpt lat="32.87663" lon="35.22414666666667">
        <ele>132</ele>
        <time>2011-09-29T17:47:11.20</time>
      </trkpt>
      <trkpt lat="32.87662" lon="35.22410166666667">
        <ele>131.5</ele>
        <time>2011-09-29T17:47:13.19</time>
      </trkpt>
      <trkpt lat="32.876595" lon="35.224021666666665">
        <ele>131</ele>
        <time>2011-09-29T17:47:15.19</time>
      </trkpt>
      <trkpt lat="32.87659166666667" lon="35.22401166666667">
        <ele>131</ele>
        <time>2011-09-29T17:47:16.20</time>
      </trkpt>
      <trkpt lat="32.87658833333333" lon="35.22400833333333">
        <ele>131</ele>
        <time>2011-09-29T17:47:17.20</time>
      </trkpt>
      <trkpt lat="32.876585" lon="35.223998333333334">
        <ele>131</ele>
        <time>2011-09-29T17:47:18.21</time>
      </trkpt>
      <trkpt lat="32.876583333333336" lon="35.22399166666667">
        <ele>131</ele>
        <time>2011-09-29T17:47:19.22</time>
      </trkpt>
      <trkpt lat="32.87658166666667" lon="35.223985">
        <ele>131</ele>
        <time>2011-09-29T17:47:20.22</time>
      </trkpt>
      <trkpt lat="32.876556666666666" lon="35.223933333333335">
        <ele>131.5</ele>
        <time>2011-09-29T17:47:22.19</time>
      </trkpt>
      <trkpt lat="32.876551666666664" lon="35.22393">
        <ele>131.5</ele>
        <time>2011-09-29T17:47:23.21</time>
      </trkpt>
      <trkpt lat="32.87658" lon="35.22398833333333">
        <ele>131.5</ele>
        <time>2011-09-29T17:47:25.19</time>
      </trkpt>
      <trkpt lat="32.87658166666667" lon="35.22398833333333">
        <ele>131.5</ele>
        <time>2011-09-29T17:47:26.21</time>
      </trkpt>
      <trkpt lat="32.87658" lon="35.22399">
        <ele>132</ele>
        <time>2011-09-29T17:47:27.21</time>
      </trkpt>
      <trkpt lat="32.87658166666667" lon="35.22398833333333">
        <ele>132</ele>
        <time>2011-09-29T17:47:28.22</time>
      </trkpt>
      <trkpt lat="32.87658166666667" lon="35.22397333333333">
        <ele>132.5</ele>
        <time>2011-09-29T17:47:30.19</time>
      </trkpt>
      <trkpt lat="32.876578333333335" lon="35.223978333333335">
        <ele>132.5</ele>
        <time>2011-09-29T17:47:31.19</time>
      </trkpt>
      <trkpt lat="32.876576666666665" lon="35.22398">
        <ele>132.5</ele>
        <time>2011-09-29T17:47:32.19</time>
      </trkpt>
      <trkpt lat="32.876578333333335" lon="35.22398333333334">
        <ele>133</ele>
        <time>2011-09-29T17:47:33.20</time>
      </trkpt>
      <trkpt lat="32.876578333333335" lon="35.223978333333335">
        <ele>133</ele>
        <time>2011-09-29T17:47:34.19</time>
      </trkpt>
      <trkpt lat="32.876575" lon="35.22398166666667">
        <ele>133</ele>
        <time>2011-09-29T17:47:35.20</time>
      </trkpt>
      <trkpt lat="32.87657166666666" lon="35.223975">
        <ele>133.5</ele>
        <time>2011-09-29T17:47:36.20</time>
      </trkpt>
      <trkpt lat="32.87658" lon="35.22400666666667">
        <ele>133.5</ele>
        <time>2011-09-29T17:47:38.19</time>
      </trkpt>
      <trkpt lat="32.87658" lon="35.224001666666666">
        <ele>133.5</ele>
        <time>2011-09-29T17:47:39.20</time>
      </trkpt>
      <trkpt lat="32.876575" lon="35.224066666666666">
        <ele>134.5</ele>
        <time>2011-09-29T17:47:41.19</time>
      </trkpt>
      <trkpt lat="32.876576666666665" lon="35.22407666666667">
        <ele>134.5</ele>
        <time>2011-09-29T17:47:42.21</time>
      </trkpt>
      <trkpt lat="32.876565" lon="35.22407166666667">
        <ele>134.5</ele>
        <time>2011-09-29T17:47:43.22</time>
      </trkpt>
      <trkpt lat="32.87656333333334" lon="35.22407333333334">
        <ele>135</ele>
        <time>2011-09-29T17:47:44.22</time>
      </trkpt>
      <trkpt lat="32.87656166666667" lon="35.22407">
        <ele>135</ele>
        <time>2011-09-29T17:47:45.22</time>
      </trkpt>
      <trkpt lat="32.87652333333333" lon="35.22403833333333">
        <ele>136</ele>
        <time>2011-09-29T17:47:47.19</time>
      </trkpt>
      <trkpt lat="32.8765" lon="35.22398333333334">
        <ele>136.5</ele>
        <time>2011-09-29T17:47:49.19</time>
      </trkpt>
      <trkpt lat="32.87649" lon="35.22396166666667">
        <ele>136.5</ele>
        <time>2011-09-29T17:47:50.20</time>
      </trkpt>
      <trkpt lat="32.876486666666665" lon="35.22394333333333">
        <ele>136.5</ele>
        <time>2011-09-29T17:47:51.21</time>
      </trkpt>
      <trkpt lat="32.8765" lon="35.22396">
        <ele>136.5</ele>
        <time>2011-09-29T17:47:53.19</time>
      </trkpt>
      <trkpt lat="32.87651" lon="35.22398333333334">
        <ele>136.5</ele>
        <time>2011-09-29T17:47:54.20</time>
      </trkpt>
      <trkpt lat="32.87651" lon="35.223965">
        <ele>136.5</ele>
        <time>2011-09-29T17:47:55.19</time>
      </trkpt>
      <trkpt lat="32.876511666666666" lon="35.22396">
        <ele>136.5</ele>
        <time>2011-09-29T17:47:56.20</time>
      </trkpt>
      <trkpt lat="32.876513333333335" lon="35.223958333333336">
        <ele>136.5</ele>
        <time>2011-09-29T17:47:57.20</time>
      </trkpt>
      <trkpt lat="32.87651833333334" lon="35.22397">
        <ele>136.5</ele>
        <time>2011-09-29T17:47:58.19</time>
      </trkpt>
      <trkpt lat="32.87652" lon="35.223965">
        <ele>136.5</ele>
        <time>2011-09-29T17:47:59.19</time>
      </trkpt>
      <trkpt lat="32.876525" lon="35.22398">
        <ele>136.5</ele>
        <time>2011-09-29T17:48:00.19</time>
      </trkpt>
      <trkpt lat="32.87653" lon="35.223995">
        <ele>136.5</ele>
        <time>2011-09-29T17:48:01.19</time>
      </trkpt>
      <trkpt lat="32.87652833333333" lon="35.223995">
        <ele>136.5</ele>
        <time>2011-09-29T17:48:02.19</time>
      </trkpt>
      <trkpt lat="32.87652666666666" lon="35.22399166666667">
        <ele>136.5</ele>
        <time>2011-09-29T17:48:03.19</time>
      </trkpt>
      <trkpt lat="32.87652333333333" lon="35.22398833333333">
        <ele>136.5</ele>
        <time>2011-09-29T17:48:04.20</time>
      </trkpt>
      <trkpt lat="32.87652333333333" lon="35.22398666666667">
        <ele>136.5</ele>
        <time>2011-09-29T17:48:05.21</time>
      </trkpt>
      <trkpt lat="32.87652" lon="35.22398">
        <ele>136.5</ele>
        <time>2011-09-29T17:48:06.22</time>
      </trkpt>
      <trkpt lat="32.876515" lon="35.22397333333333">
        <ele>137</ele>
        <time>2011-09-29T17:48:07.22</time>
      </trkpt>
      <trkpt lat="32.87651" lon="35.22396166666667">
        <ele>137</ele>
        <time>2011-09-29T17:48:09.19</time>
      </trkpt>
      <trkpt lat="32.87651" lon="35.22396166666667">
        <ele>137</ele>
        <time>2011-09-29T17:48:10.19</time>
      </trkpt>
      <trkpt lat="32.87651" lon="35.22396">
        <ele>137</ele>
        <time>2011-09-29T17:48:11.20</time>
      </trkpt>
      <trkpt lat="32.876511666666666" lon="35.22396666666667">
        <ele>137</ele>
        <time>2011-09-29T17:48:12.20</time>
      </trkpt>
      <trkpt lat="32.876511666666666" lon="35.22396833333333">
        <ele>137.5</ele>
        <time>2011-09-29T17:48:13.20</time>
      </trkpt>
      <trkpt lat="32.876515" lon="35.223976666666665">
        <ele>137.5</ele>
        <time>2011-09-29T17:48:14.19</time>
      </trkpt>
      <trkpt lat="32.87651" lon="35.22396333333333">
        <ele>137.5</ele>
        <time>2011-09-29T17:48:15.19</time>
      </trkpt>
      <trkpt lat="32.876511666666666" lon="35.22396666666667">
        <ele>137.5</ele>
        <time>2011-09-29T17:48:16.19</time>
      </trkpt>
      <trkpt lat="32.876511666666666" lon="35.223965">
        <ele>138</ele>
        <time>2011-09-29T17:48:17.19</time>
      </trkpt>
      <trkpt lat="32.876513333333335" lon="35.22396166666667">
        <ele>138</ele>
        <time>2011-09-29T17:48:18.19</time>
      </trkpt>
      <trkpt lat="32.876513333333335" lon="35.223956666666666">
        <ele>138</ele>
        <time>2011-09-29T17:48:19.19</time>
      </trkpt>
      <trkpt lat="32.87649666666667" lon="35.223906666666664">
        <ele>138</ele>
        <time>2011-09-29T17:48:21.19</time>
      </trkpt>
      <trkpt lat="32.876493333333336" lon="35.22389833333333">
        <ele>138</ele>
        <time>2011-09-29T17:48:22.19</time>
      </trkpt>
      <trkpt lat="32.876493333333336" lon="35.223895">
        <ele>138</ele>
        <time>2011-09-29T17:48:23.20</time>
      </trkpt>
      <trkpt lat="32.876495" lon="35.22389666666667">
        <ele>138</ele>
        <time>2011-09-29T17:48:24.20</time>
      </trkpt>
      <trkpt lat="32.876491666666666" lon="35.223888333333335">
        <ele>138</ele>
        <time>2011-09-29T17:48:25.21</time>
      </trkpt>
      <trkpt lat="32.876488333333334" lon="35.223888333333335">
        <ele>138.5</ele>
        <time>2011-09-29T17:48:26.22</time>
      </trkpt>
      <trkpt lat="32.876485" lon="35.22389166666667">
        <ele>138.5</ele>
        <time>2011-09-29T17:48:28.19</time>
      </trkpt>
      <trkpt lat="32.876485" lon="35.223895">
        <ele>138.5</ele>
        <time>2011-09-29T17:48:29.20</time>
      </trkpt>
      <trkpt lat="32.87648166666666" lon="35.223895">
        <ele>139</ele>
        <time>2011-09-29T17:48:30.21</time>
      </trkpt>
      <trkpt lat="32.876485" lon="35.223905">
        <ele>139</ele>
        <time>2011-09-29T17:48:31.22</time>
      </trkpt>
      <trkpt lat="32.876486666666665" lon="35.22391666666667">
        <ele>139</ele>
        <time>2011-09-29T17:48:33.19</time>
      </trkpt>
      <trkpt lat="32.87649" lon="35.22392166666667">
        <ele>139</ele>
        <time>2011-09-29T17:48:34.19</time>
      </trkpt>
      <trkpt lat="32.876491666666666" lon="35.223931666666665">
        <ele>139</ele>
        <time>2011-09-29T17:48:35.19</time>
      </trkpt>
      <trkpt lat="32.87649833333333" lon="35.22394">
        <ele>139</ele>
        <time>2011-09-29T17:48:36.20</time>
      </trkpt>
      <trkpt lat="32.87650166666667" lon="35.22395">
        <ele>138</ele>
        <time>2011-09-29T17:48:37.20</time>
      </trkpt>
      <trkpt lat="32.8765" lon="35.223953333333334">
        <ele>137.5</ele>
        <time>2011-09-29T17:48:38.20</time>
      </trkpt>
      <trkpt lat="32.87650333333333" lon="35.223955">
        <ele>137</ele>
        <time>2011-09-29T17:48:39.20</time>
      </trkpt>
      <trkpt lat="32.87651666666667" lon="35.22396333333333">
        <ele>136.5</ele>
        <time>2011-09-29T17:48:40.20</time>
      </trkpt>
      <trkpt lat="32.87652833333333" lon="35.22396333333333">
        <ele>136</ele>
        <time>2011-09-29T17:48:41.20</time>
      </trkpt>
      <trkpt lat="32.87652833333333" lon="35.223965">
        <ele>135.5</ele>
        <time>2011-09-29T17:48:42.20</time>
      </trkpt>
      <trkpt lat="32.87652666666666" lon="35.223955">
        <ele>135.5</ele>
        <time>2011-09-29T17:48:43.20</time>
      </trkpt>
      <trkpt lat="32.876525" lon="35.22394666666667">
        <ele>135</ele>
        <time>2011-09-29T17:48:44.20</time>
      </trkpt>
      <trkpt lat="32.876525" lon="35.22394">
        <ele>135</ele>
        <time>2011-09-29T17:48:45.20</time>
      </trkpt>
      <trkpt lat="32.87652833333333" lon="35.223945">
        <ele>135</ele>
        <time>2011-09-29T17:48:46.21</time>
      </trkpt>
      <trkpt lat="32.87653" lon="35.22394666666667">
        <ele>135</ele>
        <time>2011-09-29T17:48:47.21</time>
      </trkpt>
      <trkpt lat="32.87652833333333" lon="35.223945">
        <ele>135</ele>
        <time>2011-09-29T17:48:49.18</time>
      </trkpt>
      <trkpt lat="32.876533333333334" lon="35.22396">
        <ele>135</ele>
        <time>2011-09-29T17:48:50.19</time>
      </trkpt>
      <trkpt lat="32.876533333333334" lon="35.223971666666664">
        <ele>135</ele>
        <time>2011-09-29T17:48:51.20</time>
      </trkpt>
      <trkpt lat="32.876535" lon="35.22397333333333">
        <ele>135</ele>
        <time>2011-09-29T17:48:52.21</time>
      </trkpt>
      <trkpt lat="32.876538333333336" lon="35.22399">
        <ele>135</ele>
        <time>2011-09-29T17:48:54.18</time>
      </trkpt>
      <trkpt lat="32.876538333333336" lon="35.223998333333334">
        <ele>134.5</ele>
        <time>2011-09-29T17:48:55.19</time>
      </trkpt>
      <trkpt lat="32.87654166666667" lon="35.223998333333334">
        <ele>134.5</ele>
        <time>2011-09-29T17:48:56.19</time>
      </trkpt>
      <trkpt lat="32.87652333333333" lon="35.22403166666667">
        <ele>135.5</ele>
        <time>2011-09-29T17:48:58.18</time>
      </trkpt>
      <trkpt lat="32.876513333333335" lon="35.224061666666664">
        <ele>137</ele>
        <time>2011-09-29T17:49:00.18</time>
      </trkpt>
      <trkpt lat="32.876525" lon="35.224061666666664">
        <ele>136.5</ele>
        <time>2011-09-29T17:49:01.18</time>
      </trkpt>
      <trkpt lat="32.876531666666665" lon="35.224061666666664">
        <ele>136</ele>
        <time>2011-09-29T17:49:02.18</time>
      </trkpt>
      <trkpt lat="32.876535" lon="35.224065">
        <ele>136</ele>
        <time>2011-09-29T17:49:03.18</time>
      </trkpt>
      <trkpt lat="32.876533333333334" lon="35.22407333333334">
        <ele>136</ele>
        <time>2011-09-29T17:49:04.18</time>
      </trkpt>
      <trkpt lat="32.876535" lon="35.22407666666667">
        <ele>136</ele>
        <time>2011-09-29T17:49:05.19</time>
      </trkpt>
      <trkpt lat="32.87653666666667" lon="35.224085">
        <ele>136</ele>
        <time>2011-09-29T17:49:06.19</time>
      </trkpt>
      <trkpt lat="32.87654333333333" lon="35.224133333333334">
        <ele>136.5</ele>
        <time>2011-09-29T17:49:08.18</time>
      </trkpt>
      <trkpt lat="32.87655" lon="35.22412333333333">
        <ele>136</ele>
        <time>2011-09-29T17:49:09.18</time>
      </trkpt>
      <trkpt lat="32.876545" lon="35.224105">
        <ele>135.5</ele>
        <time>2011-09-29T17:49:10.20</time>
      </trkpt>
      <trkpt lat="32.87656166666667" lon="35.22410333333333">
        <ele>135.5</ele>
        <time>2011-09-29T17:49:11.20</time>
      </trkpt>
      <trkpt lat="32.876578333333335" lon="35.22410166666667">
        <ele>135.5</ele>
        <time>2011-09-29T17:49:12.21</time>
      </trkpt>
      <trkpt lat="32.876595" lon="35.22409833333333">
        <ele>135.5</ele>
        <time>2011-09-29T17:49:14.18</time>
      </trkpt>
      <trkpt lat="32.876601666666666" lon="35.22409833333333">
        <ele>135.5</ele>
        <time>2011-09-29T17:49:15.20</time>
      </trkpt>
      <trkpt lat="32.876596666666664" lon="35.22410166666667">
        <ele>135.5</ele>
        <time>2011-09-29T17:49:17.18</time>
      </trkpt>
      <trkpt lat="32.87658833333333" lon="35.22411">
        <ele>135.5</ele>
        <time>2011-09-29T17:49:18.19</time>
      </trkpt>
      <trkpt lat="32.876585" lon="35.224115">
        <ele>135.5</ele>
        <time>2011-09-29T17:49:19.19</time>
      </trkpt>
      <trkpt lat="32.87659333333333" lon="35.224136666666666">
        <ele>135</ele>
        <time>2011-09-29T17:49:20.20</time>
      </trkpt>
      <trkpt lat="32.876595" lon="35.224136666666666">
        <ele>135</ele>
        <time>2011-09-29T17:49:21.20</time>
      </trkpt>
      <trkpt lat="32.876598333333334" lon="35.22414333333333">
        <ele>134.5</ele>
        <time>2011-09-29T17:49:22.20</time>
      </trkpt>
      <trkpt lat="32.8766" lon="35.224145">
        <ele>136</ele>
        <time>2011-09-29T17:49:23.20</time>
      </trkpt>
      <trkpt lat="32.8766" lon="35.22414666666667">
        <ele>135.5</ele>
        <time>2011-09-29T17:49:24.20</time>
      </trkpt>
      <trkpt lat="32.87660666666667" lon="35.22414833333333">
        <ele>135.5</ele>
        <time>2011-09-29T17:49:25.20</time>
      </trkpt>
      <trkpt lat="32.87661166666667" lon="35.22415">
        <ele>136</ele>
        <time>2011-09-29T17:49:26.21</time>
      </trkpt>
      <trkpt lat="32.87661833333333" lon="35.22416333333334">
        <ele>136</ele>
        <time>2011-09-29T17:49:27.21</time>
      </trkpt>
      <trkpt lat="32.876621666666665" lon="35.224156666666666">
        <ele>136</ele>
        <time>2011-09-29T17:49:29.18</time>
      </trkpt>
      <trkpt lat="32.87662" lon="35.22414166666667">
        <ele>136</ele>
        <time>2011-09-29T17:49:30.18</time>
      </trkpt>
      <trkpt lat="32.87662" lon="35.224135">
        <ele>135.5</ele>
        <time>2011-09-29T17:49:31.18</time>
      </trkpt>
      <trkpt lat="32.87661666666666" lon="35.224153333333334">
        <ele>135.5</ele>
        <time>2011-09-29T17:49:32.19</time>
      </trkpt>
      <trkpt lat="32.87661166666667" lon="35.224138333333336">
        <ele>136</ele>
        <time>2011-09-29T17:49:33.20</time>
      </trkpt>
      <trkpt lat="32.87661" lon="35.22414166666667">
        <ele>136.5</ele>
        <time>2011-09-29T17:49:34.21</time>
      </trkpt>
      <trkpt lat="32.87661166666667" lon="35.22414666666667">
        <ele>136.5</ele>
        <time>2011-09-29T17:49:36.18</time>
      </trkpt>
      <trkpt lat="32.87661166666667" lon="35.22415">
        <ele>137</ele>
        <time>2011-09-29T17:49:37.20</time>
      </trkpt>
      <trkpt lat="32.87661166666667" lon="35.22416166666667">
        <ele>137</ele>
        <time>2011-09-29T17:49:38.21</time>
      </trkpt>
      <trkpt lat="32.87661166666667" lon="35.22418">
        <ele>137</ele>
        <time>2011-09-29T17:49:40.17</time>
      </trkpt>
      <trkpt lat="32.87661166666667" lon="35.22418">
        <ele>137.5</ele>
        <time>2011-09-29T17:49:41.19</time>
      </trkpt>
      <trkpt lat="32.87661" lon="35.22418166666667">
        <ele>137.5</ele>
        <time>2011-09-29T17:49:42.18</time>
      </trkpt>
      <trkpt lat="32.87660833333333" lon="35.22418166666667">
        <ele>137.5</ele>
        <time>2011-09-29T17:49:43.19</time>
      </trkpt>
      <trkpt lat="32.876605" lon="35.224185">
        <ele>137.5</ele>
        <time>2011-09-29T17:49:44.19</time>
      </trkpt>
      <trkpt lat="32.87660666666667" lon="35.224196666666664">
        <ele>137.5</ele>
        <time>2011-09-29T17:49:45.19</time>
      </trkpt>
      <trkpt lat="32.87660833333333" lon="35.224201666666666">
        <ele>137.5</ele>
        <time>2011-09-29T17:49:46.19</time>
      </trkpt>
      <trkpt lat="32.876605" lon="35.224195">
        <ele>137.5</ele>
        <time>2011-09-29T17:49:47.19</time>
      </trkpt>
      <trkpt lat="32.876605" lon="35.224195">
        <ele>137.5</ele>
        <time>2011-09-29T17:49:48.19</time>
      </trkpt>
      <trkpt lat="32.876603333333335" lon="35.224196666666664">
        <ele>137.5</ele>
        <time>2011-09-29T17:49:49.19</time>
      </trkpt>
      <trkpt lat="32.876601666666666" lon="35.224196666666664">
        <ele>137</ele>
        <time>2011-09-29T17:49:50.18</time>
      </trkpt>
      <trkpt lat="32.876601666666666" lon="35.224196666666664">
        <ele>137</ele>
        <time>2011-09-29T17:49:51.98</time>
      </trkpt>
      <trkpt lat="32.876605" lon="35.224215">
        <ele>137</ele>
        <time>2011-09-29T17:49:53.84</time>
      </trkpt>
      <trkpt lat="32.87663" lon="35.22425">
        <ele>136.5</ele>
        <time>2011-09-29T17:49:55.65</time>
      </trkpt>
      <trkpt lat="32.87663833333333" lon="35.224275">
        <ele>136</ele>
        <time>2011-09-29T17:49:57.77</time>
      </trkpt>
      <trkpt lat="32.876655" lon="35.224288333333334">
        <ele>136</ele>
        <time>2011-09-29T17:49:59.58</time>
      </trkpt>
      <trkpt lat="32.87666" lon="35.22434833333333">
        <ele>135</ele>
        <time>2011-09-29T17:50:01.38</time>
      </trkpt>
      <trkpt lat="32.87671" lon="35.224383333333336">
        <ele>134.5</ele>
        <time>2011-09-29T17:50:03.19</time>
      </trkpt>
      <trkpt lat="32.87672666666667" lon="35.224396666666664">
        <ele>134</ele>
        <time>2011-09-29T17:50:05.81</time>
      </trkpt>
      <trkpt lat="32.87676166666667" lon="35.22443333333333">
        <ele>134</ele>
        <time>2011-09-29T17:50:07.61</time>
      </trkpt>
      <trkpt lat="32.876775" lon="35.224448333333335">
        <ele>134</ele>
        <time>2011-09-29T17:50:09.42</time>
      </trkpt>
      <trkpt lat="32.876776666666665" lon="35.22447833333333">
        <ele>134</ele>
        <time>2011-09-29T17:50:11.25</time>
      </trkpt>
      <trkpt lat="32.876803333333335" lon="35.224515">
        <ele>134</ele>
        <time>2011-09-29T17:50:13.17</time>
      </trkpt>
      <trkpt lat="32.87678833333333" lon="35.22453">
        <ele>135</ele>
        <time>2011-09-29T17:50:15.8</time>
      </trkpt>
      <trkpt lat="32.87680833333334" lon="35.22459666666666">
        <ele>133.5</ele>
        <time>2011-09-29T17:50:16.82</time>
      </trkpt>
      <trkpt lat="32.87683" lon="35.22466">
        <ele>133.5</ele>
        <time>2011-09-29T17:50:18.17</time>
      </trkpt>
      <trkpt lat="32.87684" lon="35.224685">
        <ele>133.5</ele>
        <time>2011-09-29T17:50:19.17</time>
      </trkpt>
      <trkpt lat="32.87683166666667" lon="35.224736666666665">
        <ele>133</ele>
        <time>2011-09-29T17:50:21.17</time>
      </trkpt>
      <trkpt lat="32.87681666666667" lon="35.224758333333334">
        <ele>134.5</ele>
        <time>2011-09-29T17:50:22.98</time>
      </trkpt>
      <trkpt lat="32.876795" lon="35.224755">
        <ele>133.5</ele>
        <time>2011-09-29T17:50:24.79</time>
      </trkpt>
      <trkpt lat="32.87676333333334" lon="35.22479">
        <ele>133.5</ele>
        <time>2011-09-29T17:50:26.60</time>
      </trkpt>
      <trkpt lat="32.876733333333334" lon="35.224825">
        <ele>132.5</ele>
        <time>2011-09-29T17:50:28.43</time>
      </trkpt>
      <trkpt lat="32.876715" lon="35.22483666666667">
        <ele>131</ele>
        <time>2011-09-29T17:50:30.25</time>
      </trkpt>
      <trkpt lat="32.87670333333333" lon="35.22484166666667">
        <ele>130</ele>
        <time>2011-09-29T17:50:32.46</time>
      </trkpt>
      <trkpt lat="32.87667" lon="35.22485">
        <ele>129.5</ele>
        <time>2011-09-29T17:50:34.29</time>
      </trkpt>
      <trkpt lat="32.87662666666667" lon="35.22485833333333">
        <ele>123.5</ele>
        <time>2011-09-29T17:50:36.16</time>
      </trkpt>
      <trkpt lat="32.87660666666667" lon="35.22484333333333">
        <ele>123.5</ele>
        <time>2011-09-29T17:50:37.98</time>
      </trkpt>
      <trkpt lat="32.87656833333333" lon="35.22482333333333">
        <ele>117</ele>
        <time>2011-09-29T17:50:39.16</time>
      </trkpt>
      <trkpt lat="32.87654333333333" lon="35.224805">
        <ele>116</ele>
        <time>2011-09-29T17:50:40.19</time>
      </trkpt>
      <trkpt lat="32.87652166666667" lon="35.22478666666667">
        <ele>115.5</ele>
        <time>2011-09-29T17:50:42.8</time>
      </trkpt>
      <trkpt lat="32.87649" lon="35.22477666666666">
        <ele>113.5</ele>
        <time>2011-09-29T17:50:43.17</time>
      </trkpt>
      <trkpt lat="32.876461666666664" lon="35.224761666666666">
        <ele>113</ele>
        <time>2011-09-29T17:50:45.16</time>
      </trkpt>
      <trkpt lat="32.87644" lon="35.22475">
        <ele>112</ele>
        <time>2011-09-29T17:50:46.98</time>
      </trkpt>
      <trkpt lat="32.87639333333333" lon="35.22472833333333">
        <ele>112.5</ele>
        <time>2011-09-29T17:50:48.79</time>
      </trkpt>
      <trkpt lat="32.87633666666667" lon="35.224693333333335">
        <ele>112</ele>
        <time>2011-09-29T17:50:50.16</time>
      </trkpt>
      <trkpt lat="32.876308333333334" lon="35.224673333333335">
        <ele>112</ele>
        <time>2011-09-29T17:50:51.17</time>
      </trkpt>
      <trkpt lat="32.87628333333333" lon="35.22466">
        <ele>112</ele>
        <time>2011-09-29T17:50:52.18</time>
      </trkpt>
      <trkpt lat="32.876223333333336" lon="35.224645">
        <ele>111.5</ele>
        <time>2011-09-29T17:50:54.16</time>
      </trkpt>
      <trkpt lat="32.87618666666667" lon="35.224635">
        <ele>111.5</ele>
        <time>2011-09-29T17:50:55.17</time>
      </trkpt>
      <trkpt lat="32.876153333333335" lon="35.224623333333334">
        <ele>110</ele>
        <time>2011-09-29T17:50:57.8</time>
      </trkpt>
      <trkpt lat="32.87607666666667" lon="35.224606666666666">
        <ele>110.5</ele>
        <time>2011-09-29T17:50:58.16</time>
      </trkpt>
      <trkpt lat="32.876036666666664" lon="35.224608333333336">
        <ele>110.5</ele>
        <time>2011-09-29T17:50:59.97</time>
      </trkpt>
      <trkpt lat="32.875951666666666" lon="35.224603333333334">
        <ele>111</ele>
        <time>2011-09-29T17:51:01.78</time>
      </trkpt>
      <trkpt lat="32.875883333333334" lon="35.2246">
        <ele>111</ele>
        <time>2011-09-29T17:51:03.58</time>
      </trkpt>
      <trkpt lat="32.875818333333335" lon="35.2246">
        <ele>110</ele>
        <time>2011-09-29T17:51:05.38</time>
      </trkpt>
      <trkpt lat="32.875751666666666" lon="35.224556666666665">
        <ele>114.5</ele>
        <time>2011-09-29T17:51:07.16</time>
      </trkpt>
      <trkpt lat="32.87573166666667" lon="35.22459666666666">
        <ele>114.5</ele>
        <time>2011-09-29T17:51:08.17</time>
      </trkpt>
      <trkpt lat="32.87571166666667" lon="35.224625">
        <ele>114</ele>
        <time>2011-09-29T17:51:10.8</time>
      </trkpt>
      <trkpt lat="32.87567666666666" lon="35.22468">
        <ele>114</ele>
        <time>2011-09-29T17:51:11.81</time>
      </trkpt>
      <trkpt lat="32.87562666666667" lon="35.22474666666667">
        <ele>113.5</ele>
        <time>2011-09-29T17:51:13.81</time>
      </trkpt>
      <trkpt lat="32.87558666666666" lon="35.22485">
        <ele>111.5</ele>
        <time>2011-09-29T17:51:15.64</time>
      </trkpt>
      <trkpt lat="32.87556" lon="35.2251">
        <ele>109.5</ele>
        <time>2011-09-29T17:51:18.15</time>
      </trkpt>
      <trkpt lat="32.875546666666665" lon="35.22516">
        <ele>109</ele>
        <time>2011-09-29T17:51:19.98</time>
      </trkpt>
      <trkpt lat="32.875515" lon="35.225251666666665">
        <ele>108</ele>
        <time>2011-09-29T17:51:21.78</time>
      </trkpt>
      <trkpt lat="32.875481666666666" lon="35.225321666666666">
        <ele>107</ele>
        <time>2011-09-29T17:51:23.59</time>
      </trkpt>
      <trkpt lat="32.87545166666666" lon="35.225365">
        <ele>107.5</ele>
        <time>2011-09-29T17:51:25.40</time>
      </trkpt>
      <trkpt lat="32.875391666666665" lon="35.225426666666664">
        <ele>107.5</ele>
        <time>2011-09-29T17:51:27.21</time>
      </trkpt>
      <trkpt lat="32.87536333333333" lon="35.22548166666667">
        <ele>107</ele>
        <time>2011-09-29T17:51:29.15</time>
      </trkpt>
      <trkpt lat="32.87535166666667" lon="35.225523333333335">
        <ele>107.5</ele>
        <time>2011-09-29T17:51:31.15</time>
      </trkpt>
      <trkpt lat="32.875346666666665" lon="35.22559833333333">
        <ele>108</ele>
        <time>2011-09-29T17:51:33.17</time>
      </trkpt>
      <trkpt lat="32.87536333333333" lon="35.225773333333336">
        <ele>108.5</ele>
        <time>2011-09-29T17:51:36.25</time>
      </trkpt>
      <trkpt lat="32.875346666666665" lon="35.225883333333336">
        <ele>109</ele>
        <time>2011-09-29T17:51:38.18</time>
      </trkpt>
      <trkpt lat="32.87535" lon="35.22599">
        <ele>109.5</ele>
        <time>2011-09-29T17:51:40.31</time>
      </trkpt>
      <trkpt lat="32.875323333333334" lon="35.22611833333333">
        <ele>109.5</ele>
        <time>2011-09-29T17:51:42.14</time>
      </trkpt>
      <trkpt lat="32.87531" lon="35.226173333333335">
        <ele>109.5</ele>
        <time>2011-09-29T17:51:43.95</time>
      </trkpt>
      <trkpt lat="32.87529833333333" lon="35.22629833333333">
        <ele>109.5</ele>
        <time>2011-09-29T17:51:45.15</time>
      </trkpt>
      <trkpt lat="32.875188333333334" lon="35.2266">
        <ele>111</ele>
        <time>2011-09-29T17:51:49.22</time>
      </trkpt>
      <trkpt lat="32.875175" lon="35.22669166666667">
        <ele>112</ele>
        <time>2011-09-29T17:51:51.14</time>
      </trkpt>
      <trkpt lat="32.87515166666667" lon="35.22675666666667">
        <ele>111</ele>
        <time>2011-09-29T17:51:52.98</time>
      </trkpt>
      <trkpt lat="32.87510833333333" lon="35.226861666666665">
        <ele>112</ele>
        <time>2011-09-29T17:51:54.79</time>
      </trkpt>
      <trkpt lat="32.87508833333333" lon="35.22696833333333">
        <ele>114.5</ele>
        <time>2011-09-29T17:51:56.60</time>
      </trkpt>
      <trkpt lat="32.875075" lon="35.22705666666667">
        <ele>115</ele>
        <time>2011-09-29T17:51:58.41</time>
      </trkpt>
      <trkpt lat="32.875055" lon="35.22716333333333">
        <ele>115</ele>
        <time>2011-09-29T17:52:00.21</time>
      </trkpt>
      <trkpt lat="32.87504" lon="35.22725166666667">
        <ele>115.5</ele>
        <time>2011-09-29T17:52:02.13</time>
      </trkpt>
      <trkpt lat="32.875038333333336" lon="35.22732166666667">
        <ele>116</ele>
        <time>2011-09-29T17:52:03.14</time>
      </trkpt>
      <trkpt lat="32.875011666666666" lon="35.227495">
        <ele>116.5</ele>
        <time>2011-09-29T17:52:06.30</time>
      </trkpt>
      <trkpt lat="32.87499666666667" lon="35.22758666666667">
        <ele>116</ele>
        <time>2011-09-29T17:52:08.14</time>
      </trkpt>
      <trkpt lat="32.874991666666666" lon="35.22763166666667">
        <ele>116</ele>
        <time>2011-09-29T17:52:09.96</time>
      </trkpt>
      <trkpt lat="32.87500166666667" lon="35.227705">
        <ele>115.5</ele>
        <time>2011-09-29T17:52:11.78</time>
      </trkpt>
      <trkpt lat="32.87497833333333" lon="35.22779166666667">
        <ele>115</ele>
        <time>2011-09-29T17:52:13.59</time>
      </trkpt>
      <trkpt lat="32.87499666666667" lon="35.227871666666665">
        <ele>114.5</ele>
        <time>2011-09-29T17:52:15.39</time>
      </trkpt>
      <trkpt lat="32.87497666666667" lon="35.227975">
        <ele>114.5</ele>
        <time>2011-09-29T17:52:17.20</time>
      </trkpt>
      <trkpt lat="32.874993333333336" lon="35.22805666666667">
        <ele>113</ele>
        <time>2011-09-29T17:52:19.13</time>
      </trkpt>
      <trkpt lat="32.874968333333335" lon="35.22816">
        <ele>112</ele>
        <time>2011-09-29T17:52:21.13</time>
      </trkpt>
      <trkpt lat="32.87495" lon="35.228215">
        <ele>111</ele>
        <time>2011-09-29T17:52:22.97</time>
      </trkpt>
      <trkpt lat="32.874925" lon="35.22833833333333">
        <ele>109</ele>
        <time>2011-09-29T17:52:24.95</time>
      </trkpt>
      <trkpt lat="32.87490833333333" lon="35.228456666666666">
        <ele>107</ele>
        <time>2011-09-29T17:52:26.78</time>
      </trkpt>
      <trkpt lat="32.87492833333334" lon="35.22855333333333">
        <ele>106.5</ele>
        <time>2011-09-29T17:52:28.60</time>
      </trkpt>
      <trkpt lat="32.874945" lon="35.22864">
        <ele>105.5</ele>
        <time>2011-09-29T17:52:30.68</time>
      </trkpt>
      <trkpt lat="32.874948333333336" lon="35.22871333333333">
        <ele>106</ele>
        <time>2011-09-29T17:52:32.50</time>
      </trkpt>
      <trkpt lat="32.874961666666664" lon="35.22875">
        <ele>106</ele>
        <time>2011-09-29T17:52:34.32</time>
      </trkpt>
      <trkpt lat="32.87497666666667" lon="35.22882">
        <ele>106</ele>
        <time>2011-09-29T17:52:36.13</time>
      </trkpt>
      <trkpt lat="32.87501666666667" lon="35.228923333333334">
        <ele>106</ele>
        <time>2011-09-29T17:52:38.19</time>
      </trkpt>
      <trkpt lat="32.875031666666665" lon="35.22904">
        <ele>109</ele>
        <time>2011-09-29T17:52:40.12</time>
      </trkpt>
      <trkpt lat="32.87504666666667" lon="35.229085">
        <ele>110</ele>
        <time>2011-09-29T17:52:41.14</time>
      </trkpt>
      <trkpt lat="32.87506333333333" lon="35.22917">
        <ele>111</ele>
        <time>2011-09-29T17:52:43.13</time>
      </trkpt>
      <trkpt lat="32.875078333333335" lon="35.229213333333334">
        <ele>111.5</ele>
        <time>2011-09-29T17:52:44.97</time>
      </trkpt>
      <trkpt lat="32.87512" lon="35.229306666666666">
        <ele>113</ele>
        <time>2011-09-29T17:52:46.78</time>
      </trkpt>
      <trkpt lat="32.87515" lon="35.229365">
        <ele>113.5</ele>
        <time>2011-09-29T17:52:48.61</time>
      </trkpt>
      <trkpt lat="32.875205" lon="35.22945166666667">
        <ele>113</ele>
        <time>2011-09-29T17:52:50.64</time>
      </trkpt>
      <trkpt lat="32.87526" lon="35.22952166666666">
        <ele>112</ele>
        <time>2011-09-29T17:52:52.46</time>
      </trkpt>
      <trkpt lat="32.87531" lon="35.229591666666664">
        <ele>110.5</ele>
        <time>2011-09-29T17:52:54.27</time>
      </trkpt>
      <trkpt lat="32.87533" lon="35.229636666666664">
        <ele>109.5</ele>
        <time>2011-09-29T17:52:56.13</time>
      </trkpt>
      <trkpt lat="32.87536" lon="35.22968">
        <ele>110</ele>
        <time>2011-09-29T17:52:57.95</time>
      </trkpt>
      <trkpt lat="32.87540833333333" lon="35.229728333333334">
        <ele>110</ele>
        <time>2011-09-29T17:52:59.78</time>
      </trkpt>
      <trkpt lat="32.87544666666667" lon="35.22978">
        <ele>109.5</ele>
        <time>2011-09-29T17:53:01.60</time>
      </trkpt>
      <trkpt lat="32.87547166666667" lon="35.22980833333333">
        <ele>108.5</ele>
        <time>2011-09-29T17:53:03.43</time>
      </trkpt>
      <trkpt lat="32.875503333333334" lon="35.229855">
        <ele>108</ele>
        <time>2011-09-29T17:53:05.56</time>
      </trkpt>
      <trkpt lat="32.87551666666667" lon="35.22989333333334">
        <ele>109</ele>
        <time>2011-09-29T17:53:07.12</time>
      </trkpt>
      <trkpt lat="32.87553" lon="35.229911666666666">
        <ele>109.5</ele>
        <time>2011-09-29T17:53:08.94</time>
      </trkpt>
      <trkpt lat="32.875546666666665" lon="35.22993833333334">
        <ele>110.5</ele>
        <time>2011-09-29T17:53:10.74</time>
      </trkpt>
      <trkpt lat="32.87556" lon="35.229971666666664">
        <ele>111</ele>
        <time>2011-09-29T17:53:12.56</time>
      </trkpt>
      <trkpt lat="32.875571666666666" lon="35.230035">
        <ele>111</ele>
        <time>2011-09-29T17:53:14.37</time>
      </trkpt>
      <trkpt lat="32.87555666666667" lon="35.23009">
        <ele>112.5</ele>
        <time>2011-09-29T17:53:16.20</time>
      </trkpt>
      <trkpt lat="32.875501666666665" lon="35.230305">
        <ele>117.5</ele>
        <time>2011-09-29T17:53:19.14</time>
      </trkpt>
      <trkpt lat="32.875506666666666" lon="35.23039">
        <ele>118.5</ele>
        <time>2011-09-29T17:53:21.11</time>
      </trkpt>
      <trkpt lat="32.875501666666665" lon="35.230426666666666">
        <ele>118.5</ele>
        <time>2011-09-29T17:53:22.95</time>
      </trkpt>
      <trkpt lat="32.87551333333333" lon="35.23052666666667">
        <ele>120.5</ele>
        <time>2011-09-29T17:53:24.76</time>
      </trkpt>
      <trkpt lat="32.87549833333333" lon="35.23059666666666">
        <ele>121</ele>
        <time>2011-09-29T17:53:26.60</time>
      </trkpt>
      <trkpt lat="32.87548666666667" lon="35.23068">
        <ele>121</ele>
        <time>2011-09-29T17:53:28.41</time>
      </trkpt>
      <trkpt lat="32.875455" lon="35.230765">
        <ele>122</ele>
        <time>2011-09-29T17:53:30.22</time>
      </trkpt>
      <trkpt lat="32.875431666666664" lon="35.23083166666667">
        <ele>123</ele>
        <time>2011-09-29T17:53:32.11</time>
      </trkpt>
      <trkpt lat="32.87542666666667" lon="35.230853333333336">
        <ele>123</ele>
        <time>2011-09-29T17:53:33.93</time>
      </trkpt>
      <trkpt lat="32.875418333333336" lon="35.230898333333336">
        <ele>122.5</ele>
        <time>2011-09-29T17:53:35.75</time>
      </trkpt>
      <trkpt lat="32.875436666666666" lon="35.23097833333333">
        <ele>123.5</ele>
        <time>2011-09-29T17:53:37.58</time>
      </trkpt>
      <trkpt lat="32.87544833333333" lon="35.23104">
        <ele>124</ele>
        <time>2011-09-29T17:53:39.41</time>
      </trkpt>
      <trkpt lat="32.87545333333333" lon="35.23111">
        <ele>126.5</ele>
        <time>2011-09-29T17:53:41.24</time>
      </trkpt>
      <trkpt lat="32.87547166666667" lon="35.231141666666666">
        <ele>126</ele>
        <time>2011-09-29T17:53:43.25</time>
      </trkpt>
      <trkpt lat="32.875465" lon="35.23117833333333">
        <ele>127.5</ele>
        <time>2011-09-29T17:53:45.12</time>
      </trkpt>
      <trkpt lat="32.87546833333333" lon="35.23119166666667">
        <ele>127.5</ele>
        <time>2011-09-29T17:53:46.13</time>
      </trkpt>
      <trkpt lat="32.87547333333333" lon="35.2312">
        <ele>127.5</ele>
        <time>2011-09-29T17:53:47.95</time>
      </trkpt>
      <trkpt lat="32.87547166666667" lon="35.23125666666667">
        <ele>127.5</ele>
        <time>2011-09-29T17:53:49.12</time>
      </trkpt>
      <trkpt lat="32.875476666666664" lon="35.23128666666667">
        <ele>127</ele>
        <time>2011-09-29T17:53:50.95</time>
      </trkpt>
      <trkpt lat="32.87546666666667" lon="35.23133166666667">
        <ele>127.5</ele>
        <time>2011-09-29T17:53:52.79</time>
      </trkpt>
      <trkpt lat="32.87545166666666" lon="35.23137666666667">
        <ele>127.5</ele>
        <time>2011-09-29T17:53:54.75</time>
      </trkpt>
      <trkpt lat="32.87542166666667" lon="35.23144666666666">
        <ele>128</ele>
        <time>2011-09-29T17:53:56.58</time>
      </trkpt>
      <trkpt lat="32.87541" lon="35.23151166666667">
        <ele>128.5</ele>
        <time>2011-09-29T17:53:58.43</time>
      </trkpt>
      <trkpt lat="32.87539666666667" lon="35.23158166666666">
        <ele>130.5</ele>
        <time>2011-09-29T17:54:00.25</time>
      </trkpt>
      <trkpt lat="32.87537666666667" lon="35.23161666666667">
        <ele>130.5</ele>
        <time>2011-09-29T17:54:02.11</time>
      </trkpt>
      <trkpt lat="32.875375" lon="35.231638333333336">
        <ele>130.5</ele>
        <time>2011-09-29T17:54:03.12</time>
      </trkpt>
      <trkpt lat="32.87536333333333" lon="35.231675">
        <ele>130</ele>
        <time>2011-09-29T17:54:04.94</time>
      </trkpt>
      <trkpt lat="32.875375" lon="35.23170666666667">
        <ele>129.5</ele>
        <time>2011-09-29T17:54:06.77</time>
      </trkpt>
      <trkpt lat="32.875368333333334" lon="35.23171">
        <ele>128.5</ele>
        <time>2011-09-29T17:54:08.58</time>
      </trkpt>
      <trkpt lat="32.87535833333333" lon="35.231755">
        <ele>128.5</ele>
        <time>2011-09-29T17:54:10.40</time>
      </trkpt>
      <trkpt lat="32.875355" lon="35.231775">
        <ele>128</ele>
        <time>2011-09-29T17:54:12.23</time>
      </trkpt>
      <trkpt lat="32.87532" lon="35.23184333333333">
        <ele>127.5</ele>
        <time>2011-09-29T17:54:14.85</time>
      </trkpt>
      <trkpt lat="32.875321666666665" lon="35.231876666666665">
        <ele>127.5</ele>
        <time>2011-09-29T17:54:16.11</time>
      </trkpt>
      <trkpt lat="32.875328333333336" lon="35.231901666666666">
        <ele>127.5</ele>
        <time>2011-09-29T17:54:18.14</time>
      </trkpt>
      <trkpt lat="32.875315" lon="35.231945">
        <ele>127.5</ele>
        <time>2011-09-29T17:54:20.11</time>
      </trkpt>
      <trkpt lat="32.87530666666667" lon="35.23196333333333">
        <ele>128</ele>
        <time>2011-09-29T17:54:22.10</time>
      </trkpt>
      <trkpt lat="32.875301666666665" lon="35.231991666666666">
        <ele>128</ele>
        <time>2011-09-29T17:54:23.12</time>
      </trkpt>
      <trkpt lat="32.875281666666666" lon="35.232031666666664">
        <ele>128.5</ele>
        <time>2011-09-29T17:54:25.10</time>
      </trkpt>
      <trkpt lat="32.87526833333333" lon="35.232033333333334">
        <ele>128.5</ele>
        <time>2011-09-29T17:54:26.95</time>
      </trkpt>
      <trkpt lat="32.875245" lon="35.232076666666664">
        <ele>129</ele>
        <time>2011-09-29T17:54:28.83</time>
      </trkpt>
      <trkpt lat="32.87523" lon="35.232141666666664">
        <ele>129.5</ele>
        <time>2011-09-29T17:54:30.68</time>
      </trkpt>
      <trkpt lat="32.8752" lon="35.23217833333333">
        <ele>129.5</ele>
        <time>2011-09-29T17:54:32.53</time>
      </trkpt>
      <trkpt lat="32.875168333333335" lon="35.23222666666667">
        <ele>129.5</ele>
        <time>2011-09-29T17:54:34.42</time>
      </trkpt>
      <trkpt lat="32.87515166666667" lon="35.23228">
        <ele>130</ele>
        <time>2011-09-29T17:54:36.26</time>
      </trkpt>
      <trkpt lat="32.87513" lon="35.23231166666667">
        <ele>130</ele>
        <time>2011-09-29T17:54:38.12</time>
      </trkpt>
      <trkpt lat="32.87511333333333" lon="35.232353333333336">
        <ele>129.5</ele>
        <time>2011-09-29T17:54:41.29</time>
      </trkpt>
      <trkpt lat="32.875096666666664" lon="35.232395">
        <ele>129.5</ele>
        <time>2011-09-29T17:54:43.39</time>
      </trkpt>
      <trkpt lat="32.87509" lon="35.232438333333334">
        <ele>129</ele>
        <time>2011-09-29T17:54:45.71</time>
      </trkpt>
      <trkpt lat="32.875065" lon="35.232456666666664">
        <ele>129</ele>
        <time>2011-09-29T17:54:48.58</time>
      </trkpt>
      <trkpt lat="32.87506833333333" lon="35.23251333333333">
        <ele>128.5</ele>
        <time>2011-09-29T17:54:50.38</time>
      </trkpt>
      <trkpt lat="32.875058333333335" lon="35.23258">
        <ele>128.5</ele>
        <time>2011-09-29T17:54:52.72</time>
      </trkpt>
      <trkpt lat="32.87501" lon="35.23263">
        <ele>127</ele>
        <time>2011-09-29T17:54:55.78</time>
      </trkpt>
      <trkpt lat="32.874991666666666" lon="35.23264833333333">
        <ele>127</ele>
        <time>2011-09-29T17:54:57.41</time>
      </trkpt>
      <trkpt lat="32.874966666666666" lon="35.23267333333333">
        <ele>127</ele>
        <time>2011-09-29T17:54:59.74</time>
      </trkpt>
      <trkpt lat="32.87489" lon="35.23272333333333">
        <ele>126.5</ele>
        <time>2011-09-29T17:55:02.78</time>
      </trkpt>
      <trkpt lat="32.87486166666667" lon="35.23274833333333">
        <ele>127</ele>
        <time>2011-09-29T17:55:04.42</time>
      </trkpt>
      <trkpt lat="32.874825" lon="35.232755">
        <ele>127.5</ele>
        <time>2011-09-29T17:55:06.76</time>
      </trkpt>
      <trkpt lat="32.874766666666666" lon="35.23275666666667">
        <ele>129.5</ele>
        <time>2011-09-29T17:55:09.98</time>
      </trkpt>
      <trkpt lat="32.87473833333333" lon="35.232753333333335">
        <ele>130</ele>
        <time>2011-09-29T17:55:11.41</time>
      </trkpt>
      <trkpt lat="32.8747" lon="35.232745">
        <ele>131.5</ele>
        <time>2011-09-29T17:55:13.75</time>
      </trkpt>
      <trkpt lat="32.874655" lon="35.23272333333333">
        <ele>133</ele>
        <time>2011-09-29T17:55:16.98</time>
      </trkpt>
      <trkpt lat="32.87464833333333" lon="35.23269">
        <ele>133.5</ele>
        <time>2011-09-29T17:55:18.43</time>
      </trkpt>
      <trkpt lat="32.874626666666664" lon="35.23267666666667">
        <ele>134.5</ele>
        <time>2011-09-29T17:55:20.77</time>
      </trkpt>
      <trkpt lat="32.8746" lon="35.23264833333333">
        <ele>136</ele>
        <time>2011-09-29T17:55:23.11</time>
      </trkpt>
      <trkpt lat="32.874581666666664" lon="35.232636666666664">
        <ele>137</ele>
        <time>2011-09-29T17:55:25.45</time>
      </trkpt>
      <trkpt lat="32.874565" lon="35.232615">
        <ele>138.5</ele>
        <time>2011-09-29T17:55:27.77</time>
      </trkpt>
      <trkpt lat="32.87452833333333" lon="35.23256833333333">
        <ele>139.5</ele>
        <time>2011-09-29T17:55:30.10</time>
      </trkpt>
      <trkpt lat="32.87450666666667" lon="35.232548333333334">
        <ele>138</ele>
        <time>2011-09-29T17:55:32.43</time>
      </trkpt>
      <trkpt lat="32.87449" lon="35.23249166666667">
        <ele>139</ele>
        <time>2011-09-29T17:55:34.75</time>
      </trkpt>
      <trkpt lat="32.87446666666666" lon="35.23240666666667">
        <ele>140</ele>
        <time>2011-09-29T17:55:37.10</time>
      </trkpt>
      <trkpt lat="32.87448666666667" lon="35.232348333333334">
        <ele>140</ele>
        <time>2011-09-29T17:55:39.57</time>
      </trkpt>
      <trkpt lat="32.874493333333334" lon="35.23229166666667">
        <ele>140</ele>
        <time>2011-09-29T17:55:41.91</time>
      </trkpt>
      <trkpt lat="32.874476666666666" lon="35.23220166666667">
        <ele>139.5</ele>
        <time>2011-09-29T17:55:44.25</time>
      </trkpt>
      <trkpt lat="32.87450833333333" lon="35.232191666666665">
        <ele>139.5</ele>
        <time>2011-09-29T17:55:46.57</time>
      </trkpt>
      <trkpt lat="32.874515" lon="35.232155">
        <ele>140</ele>
        <time>2011-09-29T17:55:47.88</time>
      </trkpt>
      <trkpt lat="32.87448166666667" lon="35.23208666666667">
        <ele>140</ele>
        <time>2011-09-29T17:55:50.21</time>
      </trkpt>
      <trkpt lat="32.87446833333333" lon="35.23202333333333">
        <ele>140</ele>
        <time>2011-09-29T17:55:52.53</time>
      </trkpt>
      <trkpt lat="32.874476666666666" lon="35.23195166666667">
        <ele>141.5</ele>
        <time>2011-09-29T17:55:54.86</time>
      </trkpt>
      <trkpt lat="32.874491666666664" lon="35.231865">
        <ele>143</ele>
        <time>2011-09-29T17:55:57.20</time>
      </trkpt>
      <trkpt lat="32.874491666666664" lon="35.231805">
        <ele>143</ele>
        <time>2011-09-29T17:55:59.55</time>
      </trkpt>
      <trkpt lat="32.874493333333334" lon="35.23173333333333">
        <ele>143.5</ele>
        <time>2011-09-29T17:56:01.89</time>
      </trkpt>
      <trkpt lat="32.874485" lon="35.231638333333336">
        <ele>143.5</ele>
        <time>2011-09-29T17:56:04.23</time>
      </trkpt>
      <trkpt lat="32.87450333333334" lon="35.231585">
        <ele>142.5</ele>
        <time>2011-09-29T17:56:06.57</time>
      </trkpt>
      <trkpt lat="32.874523333333336" lon="35.231516666666664">
        <ele>145</ele>
        <time>2011-09-29T17:56:08.89</time>
      </trkpt>
      <trkpt lat="32.87450666666667" lon="35.23144666666666">
        <ele>141.5</ele>
        <time>2011-09-29T17:56:11.22</time>
      </trkpt>
      <trkpt lat="32.874465" lon="35.23139333333334">
        <ele>142</ele>
        <time>2011-09-29T17:56:13.55</time>
      </trkpt>
      <trkpt lat="32.874433333333336" lon="35.23134">
        <ele>141.5</ele>
        <time>2011-09-29T17:56:15.89</time>
      </trkpt>
      <trkpt lat="32.87437333333333" lon="35.23126333333333">
        <ele>143.5</ele>
        <time>2011-09-29T17:56:18.21</time>
      </trkpt>
      <trkpt lat="32.87432666666667" lon="35.231231666666666">
        <ele>144.5</ele>
        <time>2011-09-29T17:56:20.55</time>
      </trkpt>
      <trkpt lat="32.87428833333333" lon="35.23119">
        <ele>144.5</ele>
        <time>2011-09-29T17:56:22.89</time>
      </trkpt>
      <trkpt lat="32.874233333333336" lon="35.231135">
        <ele>144</ele>
        <time>2011-09-29T17:56:25.23</time>
      </trkpt>
      <trkpt lat="32.87419833333333" lon="35.23109">
        <ele>145.5</ele>
        <time>2011-09-29T17:56:27.57</time>
      </trkpt>
      <trkpt lat="32.87415" lon="35.231075">
        <ele>145.5</ele>
        <time>2011-09-29T17:56:29.90</time>
      </trkpt>
      <trkpt lat="32.874065" lon="35.23106833333333">
        <ele>145</ele>
        <time>2011-09-29T17:56:32.24</time>
      </trkpt>
      <trkpt lat="32.87401666666667" lon="35.23106333333333">
        <ele>145</ele>
        <time>2011-09-29T17:56:34.57</time>
      </trkpt>
      <trkpt lat="32.873976666666664" lon="35.231053333333335">
        <ele>145.5</ele>
        <time>2011-09-29T17:56:36.91</time>
      </trkpt>
      <trkpt lat="32.873891666666665" lon="35.23107">
        <ele>145.5</ele>
        <time>2011-09-29T17:56:39.23</time>
      </trkpt>
      <trkpt lat="32.873823333333334" lon="35.23110166666667">
        <ele>145</ele>
        <time>2011-09-29T17:56:41.56</time>
      </trkpt>
      <trkpt lat="32.87378666666667" lon="35.23110833333333">
        <ele>144.5</ele>
        <time>2011-09-29T17:56:43.91</time>
      </trkpt>
      <trkpt lat="32.87370333333333" lon="35.231085">
        <ele>145.5</ele>
        <time>2011-09-29T17:56:46.25</time>
      </trkpt>
      <trkpt lat="32.87363833333333" lon="35.23108666666667">
        <ele>145.5</ele>
        <time>2011-09-29T17:56:48.60</time>
      </trkpt>
      <trkpt lat="32.873506666666664" lon="35.231116666666665">
        <ele>146</ele>
        <time>2011-09-29T17:56:52.47</time>
      </trkpt>
      <trkpt lat="32.87343666666666" lon="35.231175">
        <ele>146.5</ele>
        <time>2011-09-29T17:56:54.93</time>
      </trkpt>
      <trkpt lat="32.873371666666664" lon="35.231175">
        <ele>146.5</ele>
        <time>2011-09-29T17:56:57.26</time>
      </trkpt>
      <trkpt lat="32.87332166666667" lon="35.23117666666667">
        <ele>147</ele>
        <time>2011-09-29T17:56:59.59</time>
      </trkpt>
      <trkpt lat="32.87327166666667" lon="35.23116">
        <ele>147.5</ele>
        <time>2011-09-29T17:57:01.93</time>
      </trkpt>
      <trkpt lat="32.87319166666666" lon="35.23113333333333">
        <ele>147.5</ele>
        <time>2011-09-29T17:57:04.27</time>
      </trkpt>
      <trkpt lat="32.87314833333333" lon="35.231115">
        <ele>148.5</ele>
        <time>2011-09-29T17:57:06.61</time>
      </trkpt>
      <trkpt lat="32.87309" lon="35.23111333333333">
        <ele>149</ele>
        <time>2011-09-29T17:57:08.96</time>
      </trkpt>
      <trkpt lat="32.87302666666667" lon="35.231098333333335">
        <ele>150</ele>
        <time>2011-09-29T17:57:11.30</time>
      </trkpt>
      <trkpt lat="32.87298333333333" lon="35.23108333333333">
        <ele>151</ele>
        <time>2011-09-29T17:57:13.64</time>
      </trkpt>
      <trkpt lat="32.872928333333334" lon="35.231025">
        <ele>152</ele>
        <time>2011-09-29T17:57:15.97</time>
      </trkpt>
      <trkpt lat="32.87288" lon="35.23099166666667">
        <ele>153</ele>
        <time>2011-09-29T17:57:18.31</time>
      </trkpt>
      <trkpt lat="32.872835" lon="35.230965">
        <ele>153</ele>
        <time>2011-09-29T17:57:20.64</time>
      </trkpt>
      <trkpt lat="32.87276333333333" lon="35.23091333333333">
        <ele>156</ele>
        <time>2011-09-29T17:57:22.98</time>
      </trkpt>
      <trkpt lat="32.87271833333333" lon="35.230893333333334">
        <ele>156.5</ele>
        <time>2011-09-29T17:57:25.34</time>
      </trkpt>
      <trkpt lat="32.872685" lon="35.23086333333333">
        <ele>157</ele>
        <time>2011-09-29T17:57:27.69</time>
      </trkpt>
      <trkpt lat="32.87263333333333" lon="35.230821666666664">
        <ele>158.5</ele>
        <time>2011-09-29T17:57:30.38</time>
      </trkpt>
      <trkpt lat="32.87256166666667" lon="35.23086166666667">
        <ele>159</ele>
        <time>2011-09-29T17:57:32.37</time>
      </trkpt>
      <trkpt lat="32.87251333333333" lon="35.230851666666666">
        <ele>158.5</ele>
        <time>2011-09-29T17:57:34.72</time>
      </trkpt>
      <trkpt lat="32.872435" lon="35.23083333333334">
        <ele>159</ele>
        <time>2011-09-29T17:57:37.78</time>
      </trkpt>
      <trkpt lat="32.87238166666667" lon="35.230848333333334">
        <ele>159</ele>
        <time>2011-09-29T17:57:39.41</time>
      </trkpt>
      <trkpt lat="32.872348333333335" lon="35.23083166666667">
        <ele>159.5</ele>
        <time>2011-09-29T17:57:41.73</time>
      </trkpt>
      <trkpt lat="32.87228" lon="35.230851666666666">
        <ele>159</ele>
        <time>2011-09-29T17:57:44.78</time>
      </trkpt>
      <trkpt lat="32.87224" lon="35.23083333333334">
        <ele>158</ele>
        <time>2011-09-29T17:57:46.40</time>
      </trkpt>
      <trkpt lat="32.87220833333333" lon="35.23081333333333">
        <ele>156.5</ele>
        <time>2011-09-29T17:57:48.73</time>
      </trkpt>
      <trkpt lat="32.87213" lon="35.23079833333333">
        <ele>156</ele>
        <time>2011-09-29T17:57:51.88</time>
      </trkpt>
      <trkpt lat="32.87207333333333" lon="35.2308">
        <ele>154</ele>
        <time>2011-09-29T17:57:53.50</time>
      </trkpt>
      <trkpt lat="32.87202333333333" lon="35.23081333333333">
        <ele>154</ele>
        <time>2011-09-29T17:57:55.86</time>
      </trkpt>
      <trkpt lat="32.87195333333333" lon="35.23081166666667">
        <ele>155</ele>
        <time>2011-09-29T17:57:58.20</time>
      </trkpt>
      <trkpt lat="32.87190666666667" lon="35.230795">
        <ele>156</ele>
        <time>2011-09-29T17:57:59.85</time>
      </trkpt>
      <trkpt lat="32.87186166666667" lon="35.230761666666666">
        <ele>157</ele>
        <time>2011-09-29T17:58:02.18</time>
      </trkpt>
      <trkpt lat="32.87182333333333" lon="35.230725">
        <ele>158.5</ele>
        <time>2011-09-29T17:58:04.51</time>
      </trkpt>
      <trkpt lat="32.87179166666667" lon="35.230693333333335">
        <ele>161</ele>
        <time>2011-09-29T17:58:06.85</time>
      </trkpt>
      <trkpt lat="32.871743333333335" lon="35.23066166666667">
        <ele>166</ele>
        <time>2011-09-29T17:58:09.20</time>
      </trkpt>
      <trkpt lat="32.87173666666666" lon="35.23059166666667">
        <ele>169.5</ele>
        <time>2011-09-29T17:58:11.54</time>
      </trkpt>
      <trkpt lat="32.87170166666667" lon="35.23054833333333">
        <ele>170</ele>
        <time>2011-09-29T17:58:13.88</time>
      </trkpt>
      <trkpt lat="32.871685" lon="35.23045666666667">
        <ele>171.5</ele>
        <time>2011-09-29T17:58:16.23</time>
      </trkpt>
      <trkpt lat="32.871671666666664" lon="35.2304">
        <ele>172.5</ele>
        <time>2011-09-29T17:58:18.57</time>
      </trkpt>
      <trkpt lat="32.87164666666666" lon="35.230355">
        <ele>172.5</ele>
        <time>2011-09-29T17:58:20.91</time>
      </trkpt>
      <trkpt lat="32.871625" lon="35.230273333333336">
        <ele>174</ele>
        <time>2011-09-29T17:58:23.24</time>
      </trkpt>
      <trkpt lat="32.871645" lon="35.23024">
        <ele>174</ele>
        <time>2011-09-29T17:58:25.58</time>
      </trkpt>
      <trkpt lat="32.871631666666666" lon="35.230195">
        <ele>173.5</ele>
        <time>2011-09-29T17:58:27.93</time>
      </trkpt>
      <trkpt lat="32.871653333333335" lon="35.23012333333333">
        <ele>175</ele>
        <time>2011-09-29T17:58:30.26</time>
      </trkpt>
      <trkpt lat="32.871628333333334" lon="35.23005833333333">
        <ele>177</ele>
        <time>2011-09-29T17:58:32.58</time>
      </trkpt>
      <trkpt lat="32.87159833333333" lon="35.23001333333333">
        <ele>177</ele>
        <time>2011-09-29T17:58:34.93</time>
      </trkpt>
      <trkpt lat="32.871561666666665" lon="35.22996166666667">
        <ele>177.5</ele>
        <time>2011-09-29T17:58:37.27</time>
      </trkpt>
      <trkpt lat="32.871518333333334" lon="35.229908333333334">
        <ele>177</ele>
        <time>2011-09-29T17:58:39.61</time>
      </trkpt>
      <trkpt lat="32.871445" lon="35.22985166666667">
        <ele>176</ele>
        <time>2011-09-29T17:58:41.95</time>
      </trkpt>
      <trkpt lat="32.87141666666667" lon="35.229798333333335">
        <ele>174.5</ele>
        <time>2011-09-29T17:58:44.30</time>
      </trkpt>
      <trkpt lat="32.87139833333333" lon="35.229751666666665">
        <ele>175</ele>
        <time>2011-09-29T17:58:46.63</time>
      </trkpt>
      <trkpt lat="32.87137" lon="35.229683333333334">
        <ele>174.5</ele>
        <time>2011-09-29T17:58:48.96</time>
      </trkpt>
      <trkpt lat="32.87135333333333" lon="35.22963333333333">
        <ele>173.5</ele>
        <time>2011-09-29T17:58:51.29</time>
      </trkpt>
      <trkpt lat="32.871338333333334" lon="35.229585">
        <ele>174.5</ele>
        <time>2011-09-29T17:58:53.86</time>
      </trkpt>
      <trkpt lat="32.8713" lon="35.229526666666665">
        <ele>175</ele>
        <time>2011-09-29T17:58:56.19</time>
      </trkpt>
      <trkpt lat="32.871291666666664" lon="35.22949333333333">
        <ele>175.5</ele>
        <time>2011-09-29T17:58:58.53</time>
      </trkpt>
      <trkpt lat="32.87128166666667" lon="35.22947833333333">
        <ele>176.5</ele>
        <time>2011-09-29T17:59:00.87</time>
      </trkpt>
      <trkpt lat="32.87125" lon="35.229445">
        <ele>176</ele>
        <time>2011-09-29T17:59:03.22</time>
      </trkpt>
      <trkpt lat="32.87119833333333" lon="35.229438333333334">
        <ele>176</ele>
        <time>2011-09-29T17:59:05.56</time>
      </trkpt>
      <trkpt lat="32.871175" lon="35.229398333333336">
        <ele>177.5</ele>
        <time>2011-09-29T17:59:06.83</time>
      </trkpt>
      <trkpt lat="32.87114833333333" lon="35.22937833333334">
        <ele>177.5</ele>
        <time>2011-09-29T17:59:09.16</time>
      </trkpt>
      <trkpt lat="32.87110666666667" lon="35.229375">
        <ele>176.5</ele>
        <time>2011-09-29T17:59:11.49</time>
      </trkpt>
      <trkpt lat="32.87108" lon="35.22933833333333">
        <ele>176.5</ele>
        <time>2011-09-29T17:59:13.81</time>
      </trkpt>
      <trkpt lat="32.87104166666667" lon="35.229285">
        <ele>177.5</ele>
        <time>2011-09-29T17:59:16.15</time>
      </trkpt>
      <trkpt lat="32.87102333333333" lon="35.229256666666664">
        <ele>177.5</ele>
        <time>2011-09-29T17:59:17.82</time>
      </trkpt>
      <trkpt lat="32.871005" lon="35.229215">
        <ele>177.5</ele>
        <time>2011-09-29T17:59:19.82</time>
      </trkpt>
      <trkpt lat="32.870983333333335" lon="35.22917666666667">
        <ele>179.5</ele>
        <time>2011-09-29T17:59:22.17</time>
      </trkpt>
      <trkpt lat="32.870961666666666" lon="35.22914333333333">
        <ele>178.5</ele>
        <time>2011-09-29T17:59:23.82</time>
      </trkpt>
      <trkpt lat="32.87095166666667" lon="35.229101666666665">
        <ele>179.5</ele>
        <time>2011-09-29T17:59:26.17</time>
      </trkpt>
      <trkpt lat="32.87096666666667" lon="35.229033333333334">
        <ele>180.5</ele>
        <time>2011-09-29T17:59:28.51</time>
      </trkpt>
      <trkpt lat="32.870955" lon="35.22900166666667">
        <ele>182.5</ele>
        <time>2011-09-29T17:59:29.82</time>
      </trkpt>
      <trkpt lat="32.87094" lon="35.22897">
        <ele>183</ele>
        <time>2011-09-29T17:59:32.15</time>
      </trkpt>
      <trkpt lat="32.870925" lon="35.228941666666664">
        <ele>183</ele>
        <time>2011-09-29T17:59:34.49</time>
      </trkpt>
      <trkpt lat="32.870905" lon="35.22890833333334">
        <ele>183</ele>
        <time>2011-09-29T17:59:36.82</time>
      </trkpt>
      <trkpt lat="32.87087" lon="35.228858333333335">
        <ele>181</ele>
        <time>2011-09-29T17:59:38.82</time>
      </trkpt>
      <trkpt lat="32.870853333333336" lon="35.22884166666667">
        <ele>180.5</ele>
        <time>2011-09-29T17:59:41.14</time>
      </trkpt>
      <trkpt lat="32.87081666666667" lon="35.22882333333333">
        <ele>181</ele>
        <time>2011-09-29T17:59:43.47</time>
      </trkpt>
      <trkpt lat="32.87079833333333" lon="35.22880333333333">
        <ele>181</ele>
        <time>2011-09-29T17:59:45.82</time>
      </trkpt>
      <trkpt lat="32.87075333333333" lon="35.22873833333333">
        <ele>180.5</ele>
        <time>2011-09-29T17:59:48.16</time>
      </trkpt>
      <trkpt lat="32.87072" lon="35.22871333333333">
        <ele>180</ele>
        <time>2011-09-29T17:59:49.81</time>
      </trkpt>
      <trkpt lat="32.87068333333333" lon="35.22867166666666">
        <ele>181</ele>
        <time>2011-09-29T17:59:52.15</time>
      </trkpt>
      <trkpt lat="32.87065833333333" lon="35.228653333333334">
        <ele>180.5</ele>
        <time>2011-09-29T17:59:53.82</time>
      </trkpt>
      <trkpt lat="32.870626666666666" lon="35.22866333333333">
        <ele>181</ele>
        <time>2011-09-29T17:59:56.29</time>
      </trkpt>
      <trkpt lat="32.87059333333333" lon="35.228651666666664">
        <ele>181.5</ele>
        <time>2011-09-29T17:59:58.62</time>
      </trkpt>
      <trkpt lat="32.87054333333333" lon="35.22866333333333">
        <ele>182</ele>
        <time>2011-09-29T18:00:01.31</time>
      </trkpt>
      <trkpt lat="32.87050833333333" lon="35.22866333333333">
        <ele>182</ele>
        <time>2011-09-29T18:00:03.64</time>
      </trkpt>
      <trkpt lat="32.87045333333333" lon="35.22866833333333">
        <ele>182</ele>
        <time>2011-09-29T18:00:06.57</time>
      </trkpt>
      <trkpt lat="32.870385" lon="35.228695">
        <ele>180.5</ele>
        <time>2011-09-29T18:00:08.92</time>
      </trkpt>
      <trkpt lat="32.87034833333333" lon="35.22872">
        <ele>180.5</ele>
        <time>2011-09-29T18:00:10.81</time>
      </trkpt>
      <trkpt lat="32.870331666666665" lon="35.228703333333335">
        <ele>184</ele>
        <time>2011-09-29T18:00:12.82</time>
      </trkpt>
      <trkpt lat="32.87032166666667" lon="35.22872">
        <ele>187</ele>
        <time>2011-09-29T18:00:14.82</time>
      </trkpt>
      <trkpt lat="32.870295" lon="35.22870666666667">
        <ele>187.5</ele>
        <time>2011-09-29T18:00:17.16</time>
      </trkpt>
      <trkpt lat="32.870243333333335" lon="35.22869166666667">
        <ele>188</ele>
        <time>2011-09-29T18:00:18.81</time>
      </trkpt>
      <trkpt lat="32.870243333333335" lon="35.22876">
        <ele>188.5</ele>
        <time>2011-09-29T18:00:20.81</time>
      </trkpt>
      <trkpt lat="32.87022666666667" lon="35.228815">
        <ele>188.5</ele>
        <time>2011-09-29T18:00:22.81</time>
      </trkpt>
      <trkpt lat="32.870205" lon="35.228856666666665">
        <ele>188.5</ele>
        <time>2011-09-29T18:00:24.81</time>
      </trkpt>
      <trkpt lat="32.870171666666664" lon="35.22890666666667">
        <ele>188.5</ele>
        <time>2011-09-29T18:00:26.81</time>
      </trkpt>
      <trkpt lat="32.87014333333333" lon="35.228946666666666">
        <ele>190</ele>
        <time>2011-09-29T18:00:28.80</time>
      </trkpt>
      <trkpt lat="32.87009" lon="35.22896333333333">
        <ele>194</ele>
        <time>2011-09-29T18:00:30.80</time>
      </trkpt>
      <trkpt lat="32.87007333333333" lon="35.229035">
        <ele>197.5</ele>
        <time>2011-09-29T18:00:32.81</time>
      </trkpt>
      <trkpt lat="32.87005" lon="35.2291">
        <ele>195</ele>
        <time>2011-09-29T18:00:34.81</time>
      </trkpt>
      <trkpt lat="32.870023333333336" lon="35.22917666666667">
        <ele>192.5</ele>
        <time>2011-09-29T18:00:36.81</time>
      </trkpt>
      <trkpt lat="32.870025" lon="35.229211666666664">
        <ele>192</ele>
        <time>2011-09-29T18:00:38.80</time>
      </trkpt>
      <trkpt lat="32.87001333333333" lon="35.22919666666667">
        <ele>191</ele>
        <time>2011-09-29T18:00:40.81</time>
      </trkpt>
      <trkpt lat="32.870005" lon="35.22915">
        <ele>189</ele>
        <time>2011-09-29T18:00:42.81</time>
      </trkpt>
      <trkpt lat="32.87002" lon="35.229125">
        <ele>188</ele>
        <time>2011-09-29T18:00:44.81</time>
      </trkpt>
      <trkpt lat="32.87004833333334" lon="35.22907">
        <ele>188.5</ele>
        <time>2011-09-29T18:00:46.80</time>
      </trkpt>
      <trkpt lat="32.87007333333333" lon="35.229018333333336">
        <ele>188</ele>
        <time>2011-09-29T18:00:48.80</time>
      </trkpt>
      <trkpt lat="32.87009833333333" lon="35.22900833333333">
        <ele>187</ele>
        <time>2011-09-29T18:00:51.14</time>
      </trkpt>
      <trkpt lat="32.870111666666666" lon="35.22899666666667">
        <ele>185.5</ele>
        <time>2011-09-29T18:00:53.49</time>
      </trkpt>
      <trkpt lat="32.87014" lon="35.228975">
        <ele>186.5</ele>
        <time>2011-09-29T18:00:54.79</time>
      </trkpt>
      <trkpt lat="32.870155" lon="35.22897">
        <ele>185</ele>
        <time>2011-09-29T18:00:57.13</time>
      </trkpt>
      <trkpt lat="32.87019" lon="35.22895166666667">
        <ele>185</ele>
        <time>2011-09-29T18:00:58.80</time>
      </trkpt>
      <trkpt lat="32.870196666666665" lon="35.228935">
        <ele>184.5</ele>
        <time>2011-09-29T18:01:00.80</time>
      </trkpt>
      <trkpt lat="32.87021333333333" lon="35.228905">
        <ele>183.5</ele>
        <time>2011-09-29T18:01:02.80</time>
      </trkpt>
      <trkpt lat="32.870216666666664" lon="35.22888833333333">
        <ele>183.5</ele>
        <time>2011-09-29T18:01:04.98</time>
      </trkpt>
      <trkpt lat="32.87025" lon="35.22887166666667">
        <ele>183</ele>
        <time>2011-09-29T18:01:07.15</time>
      </trkpt>
      <trkpt lat="32.87028333333333" lon="35.22884166666667">
        <ele>183</ele>
        <time>2011-09-29T18:01:10.22</time>
      </trkpt>
      <trkpt lat="32.87027166666667" lon="35.22889">
        <ele>183</ele>
        <time>2011-09-29T18:01:12.16</time>
      </trkpt>
      <trkpt lat="32.870285" lon="35.22893833333333">
        <ele>185</ele>
        <time>2011-09-29T18:01:15.16</time>
      </trkpt>
      <trkpt lat="32.87027166666667" lon="35.22895166666667">
        <ele>184.5</ele>
        <time>2011-09-29T18:01:17.16</time>
      </trkpt>
      <trkpt lat="32.87025666666667" lon="35.228935">
        <ele>184.5</ele>
        <time>2011-09-29T18:01:19.15</time>
      </trkpt>
      <trkpt lat="32.870235" lon="35.22893666666667">
        <ele>184</ele>
        <time>2011-09-29T18:01:21.16</time>
      </trkpt>
      <trkpt lat="32.87023166666667" lon="35.228966666666665">
        <ele>183.5</ele>
        <time>2011-09-29T18:01:23.16</time>
      </trkpt>
      <trkpt lat="32.87023333333333" lon="35.22893333333333">
        <ele>183.5</ele>
        <time>2011-09-29T18:01:25.16</time>
      </trkpt>
      <trkpt lat="32.87026" lon="35.22891333333333">
        <ele>185</ele>
        <time>2011-09-29T18:01:27.15</time>
      </trkpt>
      <trkpt lat="32.87028333333333" lon="35.22886666666667">
        <ele>187</ele>
        <time>2011-09-29T18:01:29.15</time>
      </trkpt>
      <trkpt lat="32.870285" lon="35.228851666666664">
        <ele>186.5</ele>
        <time>2011-09-29T18:01:31.15</time>
      </trkpt>
      <trkpt lat="32.870308333333334" lon="35.228805">
        <ele>187</ele>
        <time>2011-09-29T18:01:34.15</time>
      </trkpt>
      <trkpt lat="32.87032166666667" lon="35.228793333333336">
        <ele>187</ele>
        <time>2011-09-29T18:01:36.15</time>
      </trkpt>
      <trkpt lat="32.87032333333333" lon="35.228806666666664">
        <ele>187</ele>
        <time>2011-09-29T18:01:38.15</time>
      </trkpt>
      <trkpt lat="32.8703" lon="35.228815">
        <ele>186.5</ele>
        <time>2011-09-29T18:01:40.15</time>
      </trkpt>
      <trkpt lat="32.87029" lon="35.228833333333334">
        <ele>186.5</ele>
        <time>2011-09-29T18:01:42.15</time>
      </trkpt>
      <trkpt lat="32.870286666666665" lon="35.228836666666666">
        <ele>188</ele>
        <time>2011-09-29T18:01:44.15</time>
      </trkpt>
      <trkpt lat="32.87027" lon="35.22885333333333">
        <ele>188</ele>
        <time>2011-09-29T18:01:46.15</time>
      </trkpt>
      <trkpt lat="32.87025166666667" lon="35.228875">
        <ele>188.5</ele>
        <time>2011-09-29T18:01:47.54</time>
      </trkpt>
      <trkpt lat="32.87023" lon="35.22887166666667">
        <ele>191.5</ele>
        <time>2011-09-29T18:01:49.53</time>
      </trkpt>
      <trkpt lat="32.87021166666667" lon="35.22889">
        <ele>193</ele>
        <time>2011-09-29T18:01:51.54</time>
      </trkpt>
      <trkpt lat="32.870171666666664" lon="35.22894">
        <ele>191</ele>
        <time>2011-09-29T18:01:53.54</time>
      </trkpt>
      <trkpt lat="32.870128333333334" lon="35.228971666666666">
        <ele>190.5</ele>
        <time>2011-09-29T18:01:55.54</time>
      </trkpt>
      <trkpt lat="32.870115" lon="35.228995">
        <ele>194</ele>
        <time>2011-09-29T18:01:57.53</time>
      </trkpt>
      <trkpt lat="32.870113333333336" lon="35.22906">
        <ele>196</ele>
        <time>2011-09-29T18:01:59.54</time>
      </trkpt>
      <trkpt lat="32.870088333333335" lon="35.229145">
        <ele>196.5</ele>
        <time>2011-09-29T18:02:01.89</time>
      </trkpt>
      <trkpt lat="32.870086666666666" lon="35.22922">
        <ele>197</ele>
        <time>2011-09-29T18:02:04.22</time>
      </trkpt>
      <trkpt lat="32.87007833333333" lon="35.22929166666667">
        <ele>196.5</ele>
        <time>2011-09-29T18:02:06.55</time>
      </trkpt>
      <trkpt lat="32.870085" lon="35.229396666666666">
        <ele>196</ele>
        <time>2011-09-29T18:02:08.92</time>
      </trkpt>
      <trkpt lat="32.8701" lon="35.22946666666667">
        <ele>196.5</ele>
        <time>2011-09-29T18:02:11.25</time>
      </trkpt>
      <trkpt lat="32.870105" lon="35.22954333333333">
        <ele>197</ele>
        <time>2011-09-29T18:02:13.58</time>
      </trkpt>
      <trkpt lat="32.87016333333333" lon="35.22967166666667">
        <ele>196.5</ele>
        <time>2011-09-29T18:02:15.91</time>
      </trkpt>
      <trkpt lat="32.87016666666667" lon="35.229731666666666">
        <ele>195.5</ele>
        <time>2011-09-29T18:02:18.26</time>
      </trkpt>
      <trkpt lat="32.87018333333333" lon="35.22980166666667">
        <ele>192</ele>
        <time>2011-09-29T18:02:20.61</time>
      </trkpt>
      <trkpt lat="32.870198333333335" lon="35.22989833333333">
        <ele>187.5</ele>
        <time>2011-09-29T18:02:22.95</time>
      </trkpt>
      <trkpt lat="32.87020666666667" lon="35.22994333333333">
        <ele>183.5</ele>
        <time>2011-09-29T18:02:25.30</time>
      </trkpt>
      <trkpt lat="32.87023166666667" lon="35.230023333333335">
        <ele>181</ele>
        <time>2011-09-29T18:02:27.64</time>
      </trkpt>
      <trkpt lat="32.87023833333333" lon="35.23008">
        <ele>182</ele>
        <time>2011-09-29T18:02:29.98</time>
      </trkpt>
      <trkpt lat="32.87022666666667" lon="35.23012666666666">
        <ele>183</ele>
        <time>2011-09-29T18:02:32.32</time>
      </trkpt>
      <trkpt lat="32.870216666666664" lon="35.23019333333333">
        <ele>184</ele>
        <time>2011-09-29T18:02:34.67</time>
      </trkpt>
      <trkpt lat="32.87022833333333" lon="35.230241666666664">
        <ele>184</ele>
        <time>2011-09-29T18:02:36.69</time>
      </trkpt>
      <trkpt lat="32.870223333333335" lon="35.23028166666667">
        <ele>183.5</ele>
        <time>2011-09-29T18:02:39.38</time>
      </trkpt>
      <trkpt lat="32.870243333333335" lon="35.23036666666667">
        <ele>186</ele>
        <time>2011-09-29T18:02:41.38</time>
      </trkpt>
      <trkpt lat="32.87025666666667" lon="35.23043666666667">
        <ele>187.5</ele>
        <time>2011-09-29T18:02:43.72</time>
      </trkpt>
      <trkpt lat="32.87025" lon="35.23047666666667">
        <ele>186.5</ele>
        <time>2011-09-29T18:02:46.68</time>
      </trkpt>
      <trkpt lat="32.87026" lon="35.23056">
        <ele>187</ele>
        <time>2011-09-29T18:02:48.41</time>
      </trkpt>
      <trkpt lat="32.870266666666666" lon="35.230626666666666">
        <ele>190.5</ele>
        <time>2011-09-29T18:02:50.75</time>
      </trkpt>
      <trkpt lat="32.870286666666665" lon="35.230695">
        <ele>190.5</ele>
        <time>2011-09-29T18:02:52.19</time>
      </trkpt>
      <trkpt lat="32.870305" lon="35.23072333333333">
        <ele>187.5</ele>
        <time>2011-09-29T18:02:54.52</time>
      </trkpt>
      <trkpt lat="32.870305" lon="35.23077833333333">
        <ele>188</ele>
        <time>2011-09-29T18:02:56.86</time>
      </trkpt>
      <trkpt lat="32.87030166666667" lon="35.23084166666667">
        <ele>189.5</ele>
        <time>2011-09-29T18:02:58.19</time>
      </trkpt>
      <trkpt lat="32.87030166666667" lon="35.23092666666667">
        <ele>189</ele>
        <time>2011-09-29T18:03:00.19</time>
      </trkpt>
      <trkpt lat="32.870335" lon="35.231033333333336">
        <ele>188.5</ele>
        <time>2011-09-29T18:03:02.19</time>
      </trkpt>
      <trkpt lat="32.870345" lon="35.23115166666667">
        <ele>189.5</ele>
        <time>2011-09-29T18:03:04.19</time>
      </trkpt>
      <trkpt lat="32.87034833333333" lon="35.231265">
        <ele>191.5</ele>
        <time>2011-09-29T18:03:06.19</time>
      </trkpt>
      <trkpt lat="32.8704" lon="35.2314">
        <ele>191</ele>
        <time>2011-09-29T18:03:08.19</time>
      </trkpt>
      <trkpt lat="32.870435" lon="35.231516666666664">
        <ele>191</ele>
        <time>2011-09-29T18:03:10.19</time>
      </trkpt>
      <trkpt lat="32.87050333333333" lon="35.23157833333333">
        <ele>192</ele>
        <time>2011-09-29T18:03:12.18</time>
      </trkpt>
      <trkpt lat="32.87055333333333" lon="35.23162333333333">
        <ele>193</ele>
        <time>2011-09-29T18:03:14.19</time>
      </trkpt>
      <trkpt lat="32.87058666666667" lon="35.23166833333333">
        <ele>194</ele>
        <time>2011-09-29T18:03:16.53</time>
      </trkpt>
      <trkpt lat="32.87062" lon="35.231701666666666">
        <ele>195</ele>
        <time>2011-09-29T18:03:18.18</time>
      </trkpt>
      <trkpt lat="32.87066166666666" lon="35.231725">
        <ele>196.5</ele>
        <time>2011-09-29T18:03:21.28</time>
      </trkpt>
      <trkpt lat="32.870735" lon="35.23177">
        <ele>198</ele>
        <time>2011-09-29T18:03:23.18</time>
      </trkpt>
      <trkpt lat="32.870805" lon="35.23180833333333">
        <ele>199</ele>
        <time>2011-09-29T18:03:25.18</time>
      </trkpt>
      <trkpt lat="32.87087" lon="35.231876666666665">
        <ele>201</ele>
        <time>2011-09-29T18:03:27.18</time>
      </trkpt>
      <trkpt lat="32.870938333333335" lon="35.231985">
        <ele>201</ele>
        <time>2011-09-29T18:03:30.17</time>
      </trkpt>
      <trkpt lat="32.87095" lon="35.23202">
        <ele>202</ele>
        <time>2011-09-29T18:03:32.18</time>
      </trkpt>
      <trkpt lat="32.87096" lon="35.23209">
        <ele>201</ele>
        <time>2011-09-29T18:03:34.18</time>
      </trkpt>
      <trkpt lat="32.87097166666667" lon="35.232135">
        <ele>202</ele>
        <time>2011-09-29T18:03:37.28</time>
      </trkpt>
      <trkpt lat="32.87097833333333" lon="35.23225333333333">
        <ele>202.5</ele>
        <time>2011-09-29T18:03:39.37</time>
      </trkpt>
      <trkpt lat="32.87097166666667" lon="35.23233833333333">
        <ele>202</ele>
        <time>2011-09-29T18:03:41.72</time>
      </trkpt>
      <trkpt lat="32.871003333333334" lon="35.232441666666666">
        <ele>201.5</ele>
        <time>2011-09-29T18:03:44.68</time>
      </trkpt>
      <trkpt lat="32.871005" lon="35.232545">
        <ele>201.5</ele>
        <time>2011-09-29T18:03:46.17</time>
      </trkpt>
      <trkpt lat="32.871008333333336" lon="35.23263166666667">
        <ele>202</ele>
        <time>2011-09-29T18:03:48.53</time>
      </trkpt>
      <trkpt lat="32.871015" lon="35.232713333333336">
        <ele>202.5</ele>
        <time>2011-09-29T18:03:50.86</time>
      </trkpt>
      <trkpt lat="32.871005" lon="35.232815">
        <ele>204</ele>
        <time>2011-09-29T18:03:52.17</time>
      </trkpt>
      <trkpt lat="32.871015" lon="35.232913333333336">
        <ele>204.5</ele>
        <time>2011-09-29T18:03:54.83</time>
      </trkpt>
      <trkpt lat="32.87101333333333" lon="35.23296666666667">
        <ele>203.5</ele>
        <time>2011-09-29T18:03:57.16</time>
      </trkpt>
      <trkpt lat="32.87102" lon="35.23309666666667">
        <ele>204.5</ele>
        <time>2011-09-29T18:03:59.16</time>
      </trkpt>
      <trkpt lat="32.871051666666666" lon="35.233195">
        <ele>203.5</ele>
        <time>2011-09-29T18:04:01.49</time>
      </trkpt>
      <trkpt lat="32.871066666666664" lon="35.233275">
        <ele>202</ele>
        <time>2011-09-29T18:04:03.16</time>
      </trkpt>
      <trkpt lat="32.87108166666667" lon="35.233336666666666">
        <ele>200.5</ele>
        <time>2011-09-29T18:04:05.50</time>
      </trkpt>
      <trkpt lat="32.8711" lon="35.23341">
        <ele>201</ele>
        <time>2011-09-29T18:04:07.17</time>
      </trkpt>
      <trkpt lat="32.87112333333334" lon="35.233485">
        <ele>201</ele>
        <time>2011-09-29T18:04:09.17</time>
      </trkpt>
      <trkpt lat="32.871158333333334" lon="35.23357333333333">
        <ele>199</ele>
        <time>2011-09-29T18:04:11.17</time>
      </trkpt>
      <trkpt lat="32.871188333333336" lon="35.23365666666667">
        <ele>198</ele>
        <time>2011-09-29T18:04:13.17</time>
      </trkpt>
      <trkpt lat="32.871246666666664" lon="35.233738333333335">
        <ele>196.5</ele>
        <time>2011-09-29T18:04:15.16</time>
      </trkpt>
      <trkpt lat="32.871298333333336" lon="35.23383666666667">
        <ele>199</ele>
        <time>2011-09-29T18:04:17.16</time>
      </trkpt>
      <trkpt lat="32.87135166666667" lon="35.233918333333335">
        <ele>197.5</ele>
        <time>2011-09-29T18:04:19.16</time>
      </trkpt>
      <trkpt lat="32.87141333333334" lon="35.233985">
        <ele>195</ele>
        <time>2011-09-29T18:04:21.16</time>
      </trkpt>
      <trkpt lat="32.87147" lon="35.23406333333333">
        <ele>192.5</ele>
        <time>2011-09-29T18:04:23.49</time>
      </trkpt>
      <trkpt lat="32.871523333333336" lon="35.234141666666666">
        <ele>191</ele>
        <time>2011-09-29T18:04:25.17</time>
      </trkpt>
      <trkpt lat="32.871583333333334" lon="35.23421666666667">
        <ele>189</ele>
        <time>2011-09-29T18:04:28.15</time>
      </trkpt>
      <trkpt lat="32.871695" lon="35.234361666666665">
        <ele>188.5</ele>
        <time>2011-09-29T18:04:30.16</time>
      </trkpt>
      <trkpt lat="32.871768333333335" lon="35.23449166666666">
        <ele>188</ele>
        <time>2011-09-29T18:04:32.17</time>
      </trkpt>
      <trkpt lat="32.87183" lon="35.234665">
        <ele>189</ele>
        <time>2011-09-29T18:04:34.16</time>
      </trkpt>
      <trkpt lat="32.87186166666667" lon="35.23483">
        <ele>188</ele>
        <time>2011-09-29T18:04:36.16</time>
      </trkpt>
      <trkpt lat="32.87187333333333" lon="35.234988333333334">
        <ele>188</ele>
        <time>2011-09-29T18:04:38.16</time>
      </trkpt>
      <trkpt lat="32.87185" lon="35.23513833333333">
        <ele>188.5</ele>
        <time>2011-09-29T18:04:40.50</time>
      </trkpt>
      <trkpt lat="32.871755" lon="35.23524166666667">
        <ele>189</ele>
        <time>2011-09-29T18:04:42.85</time>
      </trkpt>
      <trkpt lat="32.871698333333335" lon="35.235375">
        <ele>189.5</ele>
        <time>2011-09-29T18:04:44.16</time>
      </trkpt>
      <trkpt lat="32.87165" lon="35.23553666666667">
        <ele>190</ele>
        <time>2011-09-29T18:04:46.15</time>
      </trkpt>
      <trkpt lat="32.87155166666667" lon="35.23569166666667">
        <ele>192.5</ele>
        <time>2011-09-29T18:04:48.16</time>
      </trkpt>
      <trkpt lat="32.871485" lon="35.23577">
        <ele>192</ele>
        <time>2011-09-29T18:04:51.38</time>
      </trkpt>
      <trkpt lat="32.871381666666665" lon="35.235886666666666">
        <ele>191.5</ele>
        <time>2011-09-29T18:04:53.16</time>
      </trkpt>
      <trkpt lat="32.871318333333335" lon="35.23596833333333">
        <ele>191.5</ele>
        <time>2011-09-29T18:04:55.16</time>
      </trkpt>
      <trkpt lat="32.87125833333333" lon="35.23603">
        <ele>190.5</ele>
        <time>2011-09-29T18:04:57.49</time>
      </trkpt>
      <trkpt lat="32.87122166666666" lon="35.236063333333334">
        <ele>190.5</ele>
        <time>2011-09-29T18:04:59.83</time>
      </trkpt>
      <trkpt lat="32.87118666666667" lon="35.236151666666665">
        <ele>190.5</ele>
        <time>2011-09-29T18:05:01.14</time>
      </trkpt>
      <trkpt lat="32.87117" lon="35.23621833333333">
        <ele>190</ele>
        <time>2011-09-29T18:05:03.16</time>
      </trkpt>
      <trkpt lat="32.871165" lon="35.236311666666666">
        <ele>190</ele>
        <time>2011-09-29T18:05:05.15</time>
      </trkpt>
      <trkpt lat="32.871161666666666" lon="35.23637">
        <ele>190</ele>
        <time>2011-09-29T18:05:07.15</time>
      </trkpt>
      <trkpt lat="32.87115333333333" lon="35.236465">
        <ele>190</ele>
        <time>2011-09-29T18:05:09.49</time>
      </trkpt>
      <trkpt lat="32.871155" lon="35.236558333333335">
        <ele>190</ele>
        <time>2011-09-29T18:05:11.15</time>
      </trkpt>
      <trkpt lat="32.87115333333333" lon="35.236628333333336">
        <ele>190</ele>
        <time>2011-09-29T18:05:13.15</time>
      </trkpt>
      <trkpt lat="32.871201666666664" lon="35.23672166666667">
        <ele>188</ele>
        <time>2011-09-29T18:05:15.15</time>
      </trkpt>
      <trkpt lat="32.871235" lon="35.23681">
        <ele>188.5</ele>
        <time>2011-09-29T18:05:19.89</time>
      </trkpt>
      <trkpt lat="32.871295" lon="35.23688833333333">
        <ele>189</ele>
        <time>2011-09-29T18:05:21.21</time>
      </trkpt>
      <trkpt lat="32.871355" lon="35.23697">
        <ele>188</ele>
        <time>2011-09-29T18:05:23.84</time>
      </trkpt>
      <trkpt lat="32.87139666666667" lon="35.237028333333335">
        <ele>188</ele>
        <time>2011-09-29T18:05:25.20</time>
      </trkpt>
      <trkpt lat="32.87146" lon="35.237093333333334">
        <ele>186.5</ele>
        <time>2011-09-29T18:05:27.21</time>
      </trkpt>
      <trkpt lat="32.87154666666667" lon="35.237175">
        <ele>187</ele>
        <time>2011-09-29T18:05:29.21</time>
      </trkpt>
      <trkpt lat="32.871631666666666" lon="35.237273333333334">
        <ele>188</ele>
        <time>2011-09-29T18:05:32.11</time>
      </trkpt>
      <trkpt lat="32.87170666666667" lon="35.23739666666667">
        <ele>187.5</ele>
        <time>2011-09-29T18:05:34.46</time>
      </trkpt>
      <trkpt lat="32.871748333333336" lon="35.237455">
        <ele>185.5</ele>
        <time>2011-09-29T18:05:36.21</time>
      </trkpt>
      <trkpt lat="32.87177166666667" lon="35.23752833333333">
        <ele>184</ele>
        <time>2011-09-29T18:05:38.21</time>
      </trkpt>
      <trkpt lat="32.87175666666667" lon="35.237606666666665">
        <ele>183.5</ele>
        <time>2011-09-29T18:05:40.55</time>
      </trkpt>
      <trkpt lat="32.871743333333335" lon="35.237658333333336">
        <ele>184</ele>
        <time>2011-09-29T18:05:43.75</time>
      </trkpt>
      <trkpt lat="32.871718333333334" lon="35.237701666666666">
        <ele>182.5</ele>
        <time>2011-09-29T18:05:46.17</time>
      </trkpt>
      <trkpt lat="32.87169" lon="35.237755">
        <ele>180</ele>
        <time>2011-09-29T18:05:48.52</time>
      </trkpt>
      <trkpt lat="32.87169" lon="35.23778166666666">
        <ele>180</ele>
        <time>2011-09-29T18:05:50.84</time>
      </trkpt>
      <trkpt lat="32.87168" lon="35.23779">
        <ele>179.5</ele>
        <time>2011-09-29T18:05:53.17</time>
      </trkpt>
      <trkpt lat="32.871633333333335" lon="35.237811666666666">
        <ele>180.5</ele>
        <time>2011-09-29T18:05:55.50</time>
      </trkpt>
      <trkpt lat="32.871563333333334" lon="35.237835">
        <ele>181</ele>
        <time>2011-09-29T18:05:57.83</time>
      </trkpt>
      <trkpt lat="32.87152" lon="35.237858333333335">
        <ele>181</ele>
        <time>2011-09-29T18:06:00.25</time>
      </trkpt>
      <trkpt lat="32.87145833333334" lon="35.23789166666667">
        <ele>181</ele>
        <time>2011-09-29T18:06:02.20</time>
      </trkpt>
      <trkpt lat="32.871415" lon="35.23789333333333">
        <ele>181</ele>
        <time>2011-09-29T18:06:04.54</time>
      </trkpt>
      <trkpt lat="32.871338333333334" lon="35.237883333333336">
        <ele>181</ele>
        <time>2011-09-29T18:06:06.89</time>
      </trkpt>
      <trkpt lat="32.87126166666667" lon="35.23788666666667">
        <ele>181</ele>
        <time>2011-09-29T18:06:09.62</time>
      </trkpt>
      <trkpt lat="32.87123" lon="35.237885">
        <ele>181</ele>
        <time>2011-09-29T18:06:11.95</time>
      </trkpt>
      <trkpt lat="32.871156666666664" lon="35.237921666666665">
        <ele>181</ele>
        <time>2011-09-29T18:06:14.66</time>
      </trkpt>
      <trkpt lat="32.87108" lon="35.237943333333334">
        <ele>181.5</ele>
        <time>2011-09-29T18:06:17.8</time>
      </trkpt>
      <trkpt lat="32.87105666666667" lon="35.23799666666667">
        <ele>181.5</ele>
        <time>2011-09-29T18:06:19.34</time>
      </trkpt>
      <trkpt lat="32.871046666666665" lon="35.238018333333336">
        <ele>181.5</ele>
        <time>2011-09-29T18:06:21.67</time>
      </trkpt>
      <trkpt lat="32.871008333333336" lon="35.238034999999996">
        <ele>181</ele>
        <time>2011-09-29T18:06:24.28</time>
      </trkpt>
      <trkpt lat="32.87091" lon="35.238096666666664">
        <ele>181</ele>
        <time>2011-09-29T18:06:26.37</time>
      </trkpt>
      <trkpt lat="32.87088333333333" lon="35.23813333333333">
        <ele>181</ele>
        <time>2011-09-29T18:06:28.71</time>
      </trkpt>
      <trkpt lat="32.870855" lon="35.23815666666667">
        <ele>181</ele>
        <time>2011-09-29T18:06:30.19</time>
      </trkpt>
      <trkpt lat="32.87081666666667" lon="35.238186666666664">
        <ele>181.5</ele>
        <time>2011-09-29T18:06:32.53</time>
      </trkpt>
      <trkpt lat="32.870778333333334" lon="35.23822166666667">
        <ele>181</ele>
        <time>2011-09-29T18:06:34.19</time>
      </trkpt>
      <trkpt lat="32.870781666666666" lon="35.238256666666665">
        <ele>181</ele>
        <time>2011-09-29T18:06:36.18</time>
      </trkpt>
      <trkpt lat="32.87076666666667" lon="35.23828">
        <ele>181.5</ele>
        <time>2011-09-29T18:06:38.52</time>
      </trkpt>
      <trkpt lat="32.870745" lon="35.238315">
        <ele>181</ele>
        <time>2011-09-29T18:06:40.18</time>
      </trkpt>
      <trkpt lat="32.87074833333333" lon="35.23838166666667">
        <ele>180</ele>
        <time>2011-09-29T18:06:42.52</time>
      </trkpt>
      <trkpt lat="32.870755" lon="35.238413333333334">
        <ele>180</ele>
        <time>2011-09-29T18:06:44.85</time>
      </trkpt>
      <trkpt lat="32.87076" lon="35.238435">
        <ele>180</ele>
        <time>2011-09-29T18:06:46.18</time>
      </trkpt>
      <trkpt lat="32.87075333333333" lon="35.238476666666664">
        <ele>180</ele>
        <time>2011-09-29T18:06:48.52</time>
      </trkpt>
      <trkpt lat="32.87072" lon="35.23858833333333">
        <ele>179</ele>
        <time>2011-09-29T18:06:50.89</time>
      </trkpt>
      <trkpt lat="32.87061166666667" lon="35.23876666666666">
        <ele>176.5</ele>
        <time>2011-09-29T18:06:53.73</time>
      </trkpt>
      <trkpt lat="32.870625" lon="35.238855">
        <ele>175.5</ele>
        <time>2011-09-29T18:06:56.88</time>
      </trkpt>
      <trkpt lat="32.870686666666664" lon="35.23902">
        <ele>175</ele>
        <time>2011-09-29T18:06:58.43</time>
      </trkpt>
      <trkpt lat="32.87072166666667" lon="35.23911833333333">
        <ele>175.5</ele>
        <time>2011-09-29T18:07:00.77</time>
      </trkpt>
      <trkpt lat="32.870763333333336" lon="35.239198333333334">
        <ele>175.5</ele>
        <time>2011-09-29T18:07:02.19</time>
      </trkpt>
      <trkpt lat="32.870785" lon="35.239268333333335">
        <ele>175</ele>
        <time>2011-09-29T18:07:04.52</time>
      </trkpt>
      <trkpt lat="32.8708" lon="35.239311666666666">
        <ele>175</ele>
        <time>2011-09-29T18:07:06.85</time>
      </trkpt>
      <trkpt lat="32.870821666666664" lon="35.23934166666667">
        <ele>175.5</ele>
        <time>2011-09-29T18:07:08.19</time>
      </trkpt>
      <trkpt lat="32.870855" lon="35.239383333333336">
        <ele>175.5</ele>
        <time>2011-09-29T18:07:10.51</time>
      </trkpt>
      <trkpt lat="32.87085666666667" lon="35.23941">
        <ele>175.5</ele>
        <time>2011-09-29T18:07:12.86</time>
      </trkpt>
      <trkpt lat="32.870866666666664" lon="35.239435">
        <ele>175</ele>
        <time>2011-09-29T18:07:14.18</time>
      </trkpt>
      <trkpt lat="32.87090833333333" lon="35.23956833333333">
        <ele>175.5</ele>
        <time>2011-09-29T18:07:16.53</time>
      </trkpt>
      <trkpt lat="32.870963333333336" lon="35.239668333333334">
        <ele>175.5</ele>
        <time>2011-09-29T18:07:18.88</time>
      </trkpt>
      <trkpt lat="32.871008333333336" lon="35.239715">
        <ele>176</ele>
        <time>2011-09-29T18:07:21.21</time>
      </trkpt>
      <trkpt lat="32.87106" lon="35.239823333333334">
        <ele>176.5</ele>
        <time>2011-09-29T18:07:23.54</time>
      </trkpt>
      <trkpt lat="32.871115" lon="35.239911666666664">
        <ele>177</ele>
        <time>2011-09-29T18:07:25.86</time>
      </trkpt>
      <trkpt lat="32.87126833333333" lon="35.24004166666667">
        <ele>178.5</ele>
        <time>2011-09-29T18:07:29.92</time>
      </trkpt>
      <trkpt lat="32.87131333333333" lon="35.24011">
        <ele>178.5</ele>
        <time>2011-09-29T18:07:32.26</time>
      </trkpt>
      <trkpt lat="32.871388333333336" lon="35.240161666666665">
        <ele>179</ele>
        <time>2011-09-29T18:07:35.38</time>
      </trkpt>
      <trkpt lat="32.87143666666667" lon="35.24022333333333">
        <ele>179.5</ele>
        <time>2011-09-29T18:07:37.38</time>
      </trkpt>
      <trkpt lat="32.871453333333335" lon="35.24025833333334">
        <ele>181</ele>
        <time>2011-09-29T18:07:39.72</time>
      </trkpt>
      <trkpt lat="32.871476666666666" lon="35.240215">
        <ele>181.5</ele>
        <time>2011-09-29T18:07:42.68</time>
      </trkpt>
      <trkpt lat="32.871535" lon="35.24023">
        <ele>182.5</ele>
        <time>2011-09-29T18:07:44.50</time>
      </trkpt>
      <trkpt lat="32.87159333333334" lon="35.240273333333334">
        <ele>183.5</ele>
        <time>2011-09-29T18:07:48.38</time>
      </trkpt>
      <trkpt lat="32.87161" lon="35.24031166666666">
        <ele>184</ele>
        <time>2011-09-29T18:07:50.84</time>
      </trkpt>
      <trkpt lat="32.87161666666667" lon="35.240368333333336">
        <ele>185</ele>
        <time>2011-09-29T18:07:53.17</time>
      </trkpt>
      <trkpt lat="32.871678333333335" lon="35.240435">
        <ele>184</ele>
        <time>2011-09-29T18:07:55.49</time>
      </trkpt>
      <trkpt lat="32.87170666666667" lon="35.240491666666664">
        <ele>183</ele>
        <time>2011-09-29T18:07:57.84</time>
      </trkpt>
      <trkpt lat="32.87171" lon="35.240525">
        <ele>183.5</ele>
        <time>2011-09-29T18:07:59.16</time>
      </trkpt>
      <trkpt lat="32.87172666666667" lon="35.240565">
        <ele>184</ele>
        <time>2011-09-29T18:08:01.50</time>
      </trkpt>
      <trkpt lat="32.87172833333333" lon="35.240585">
        <ele>184</ele>
        <time>2011-09-29T18:08:03.84</time>
      </trkpt>
      <trkpt lat="32.87173166666667" lon="35.24060166666667">
        <ele>184.5</ele>
        <time>2011-09-29T18:08:06.18</time>
      </trkpt>
      <trkpt lat="32.87173333333333" lon="35.24061">
        <ele>184.5</ele>
        <time>2011-09-29T18:08:08.53</time>
      </trkpt>
      <trkpt lat="32.87173333333333" lon="35.24063666666667">
        <ele>184</ele>
        <time>2011-09-29T18:08:10.86</time>
      </trkpt>
      <trkpt lat="32.87173" lon="35.240653333333334">
        <ele>183.5</ele>
        <time>2011-09-29T18:08:13.20</time>
      </trkpt>
      <trkpt lat="32.87173666666666" lon="35.24066166666667">
        <ele>183.5</ele>
        <time>2011-09-29T18:08:15.54</time>
      </trkpt>
      <trkpt lat="32.871741666666665" lon="35.24068166666667">
        <ele>184</ele>
        <time>2011-09-29T18:08:17.16</time>
      </trkpt>
      <trkpt lat="32.871743333333335" lon="35.24069333333333">
        <ele>184</ele>
        <time>2011-09-29T18:08:19.49</time>
      </trkpt>
      <trkpt lat="32.871741666666665" lon="35.24072">
        <ele>185</ele>
        <time>2011-09-29T18:08:21.16</time>
      </trkpt>
      <trkpt lat="32.871743333333335" lon="35.24077166666667">
        <ele>184.5</ele>
        <time>2011-09-29T18:08:23.16</time>
      </trkpt>
      <trkpt lat="32.87175166666667" lon="35.2409">
        <ele>184</ele>
        <time>2011-09-29T18:08:25.50</time>
      </trkpt>
      <trkpt lat="32.87172833333333" lon="35.241278333333334">
        <ele>181.5</ele>
        <time>2011-09-29T18:08:29.16</time>
      </trkpt>
      <trkpt lat="32.87169" lon="35.24136">
        <ele>183</ele>
        <time>2011-09-29T18:08:31.50</time>
      </trkpt>
      <trkpt lat="32.87161666666667" lon="35.24140333333333">
        <ele>183.5</ele>
        <time>2011-09-29T18:08:33.83</time>
      </trkpt>
      <trkpt lat="32.87151166666666" lon="35.24145333333333">
        <ele>185</ele>
        <time>2011-09-29T18:08:36.16</time>
      </trkpt>
      <trkpt lat="32.871426666666665" lon="35.24146833333333">
        <ele>186</ele>
        <time>2011-09-29T18:08:38.16</time>
      </trkpt>
      <trkpt lat="32.871381666666665" lon="35.24149833333333">
        <ele>187</ele>
        <time>2011-09-29T18:08:41.15</time>
      </trkpt>
      <trkpt lat="32.871340000000004" lon="35.24155">
        <ele>188</ele>
        <time>2011-09-29T18:08:44.84</time>
      </trkpt>
      <trkpt lat="32.871315" lon="35.24158166666667">
        <ele>188.5</ele>
        <time>2011-09-29T18:08:47.18</time>
      </trkpt>
      <trkpt lat="32.871275" lon="35.24162833333333">
        <ele>188.5</ele>
        <time>2011-09-29T18:08:49.52</time>
      </trkpt>
      <trkpt lat="32.871233333333336" lon="35.241663333333335">
        <ele>189</ele>
        <time>2011-09-29T18:08:51.86</time>
      </trkpt>
      <trkpt lat="32.871208333333335" lon="35.241733333333336">
        <ele>189.5</ele>
        <time>2011-09-29T18:08:54.21</time>
      </trkpt>
      <trkpt lat="32.871183333333335" lon="35.241825">
        <ele>189.5</ele>
        <time>2011-09-29T18:08:56.37</time>
      </trkpt>
      <trkpt lat="32.871155" lon="35.241881666666664">
        <ele>190.5</ele>
        <time>2011-09-29T18:08:59.14</time>
      </trkpt>
      <trkpt lat="32.87114166666667" lon="35.24193833333333">
        <ele>190.5</ele>
        <time>2011-09-29T18:09:01.15</time>
      </trkpt>
      <trkpt lat="32.871105" lon="35.24198333333333">
        <ele>192</ele>
        <time>2011-09-29T18:09:03.48</time>
      </trkpt>
      <trkpt lat="32.871073333333335" lon="35.242035">
        <ele>192.5</ele>
        <time>2011-09-29T18:09:06.28</time>
      </trkpt>
      <trkpt lat="32.871" lon="35.24212833333333">
        <ele>193.5</ele>
        <time>2011-09-29T18:09:08.36</time>
      </trkpt>
      <trkpt lat="32.87092166666667" lon="35.242198333333334">
        <ele>194.5</ele>
        <time>2011-09-29T18:09:10.69</time>
      </trkpt>
      <trkpt lat="32.870824999999996" lon="35.24225">
        <ele>194.5</ele>
        <time>2011-09-29T18:09:13.68</time>
      </trkpt>
      <trkpt lat="32.87072666666667" lon="35.24219166666666">
        <ele>196.5</ele>
        <time>2011-09-29T18:09:15.15</time>
      </trkpt>
      <trkpt lat="32.87066" lon="35.24216166666667">
        <ele>196</ele>
        <time>2011-09-29T18:09:17.49</time>
      </trkpt>
      <trkpt lat="32.870595" lon="35.242155">
        <ele>195.5</ele>
        <time>2011-09-29T18:09:19.83</time>
      </trkpt>
      <trkpt lat="32.87052666666666" lon="35.24218">
        <ele>193.5</ele>
        <time>2011-09-29T18:09:21.14</time>
      </trkpt>
      <trkpt lat="32.870505" lon="35.24214333333333">
        <ele>194.5</ele>
        <time>2011-09-29T18:09:23.49</time>
      </trkpt>
      <trkpt lat="32.87048333333333" lon="35.242113333333336">
        <ele>194</ele>
        <time>2011-09-29T18:09:25.83</time>
      </trkpt>
      <trkpt lat="32.870455" lon="35.24212166666667">
        <ele>192</ele>
        <time>2011-09-29T18:09:27.13</time>
      </trkpt>
      <trkpt lat="32.87043" lon="35.24212">
        <ele>192.5</ele>
        <time>2011-09-29T18:09:29.46</time>
      </trkpt>
      <trkpt lat="32.87041833333333" lon="35.242113333333336">
        <ele>192</ele>
        <time>2011-09-29T18:09:31.14</time>
      </trkpt>
      <trkpt lat="32.870405" lon="35.242105">
        <ele>192</ele>
        <time>2011-09-29T18:09:33.14</time>
      </trkpt>
      <trkpt lat="32.870403333333336" lon="35.242113333333336">
        <ele>192</ele>
        <time>2011-09-29T18:09:35.13</time>
      </trkpt>
      <trkpt lat="32.870405" lon="35.24212">
        <ele>192</ele>
        <time>2011-09-29T18:09:37.14</time>
      </trkpt>
      <trkpt lat="32.87040833333333" lon="35.242126666666664">
        <ele>192</ele>
        <time>2011-09-29T18:09:39.14</time>
      </trkpt>
      <trkpt lat="32.870405" lon="35.24211666666667">
        <ele>192.5</ele>
        <time>2011-09-29T18:09:41.14</time>
      </trkpt>
      <trkpt lat="32.87040833333333" lon="35.24212">
        <ele>192.5</ele>
        <time>2011-09-29T18:09:43.14</time>
      </trkpt>
      <trkpt lat="32.870405" lon="35.24212">
        <ele>192</ele>
        <time>2011-09-29T18:09:45.14</time>
      </trkpt>
      <trkpt lat="32.8704" lon="35.24211666666667">
        <ele>192</ele>
        <time>2011-09-29T18:09:47.13</time>
      </trkpt>
      <trkpt lat="32.8704" lon="35.242113333333336">
        <ele>192</ele>
        <time>2011-09-29T18:09:49.14</time>
      </trkpt>
      <trkpt lat="32.870396666666664" lon="35.242108333333334">
        <ele>193</ele>
        <time>2011-09-29T18:09:51.13</time>
      </trkpt>
      <trkpt lat="32.870385" lon="35.24209166666667">
        <ele>193.5</ele>
        <time>2011-09-29T18:09:53.13</time>
      </trkpt>
      <trkpt lat="32.870365" lon="35.242081666666664">
        <ele>194</ele>
        <time>2011-09-29T18:09:55.13</time>
      </trkpt>
      <trkpt lat="32.87034333333333" lon="35.242065">
        <ele>194.5</ele>
        <time>2011-09-29T18:09:57.13</time>
      </trkpt>
      <trkpt lat="32.87032" lon="35.24204">
        <ele>194</ele>
        <time>2011-09-29T18:09:59.45</time>
      </trkpt>
      <trkpt lat="32.870288333333335" lon="35.242025">
        <ele>193.5</ele>
        <time>2011-09-29T18:10:01.13</time>
      </trkpt>
      <trkpt lat="32.87024666666667" lon="35.242018333333334">
        <ele>194</ele>
        <time>2011-09-29T18:10:03.46</time>
      </trkpt>
      <trkpt lat="32.870205" lon="35.24202">
        <ele>193.5</ele>
        <time>2011-09-29T18:10:05.79</time>
      </trkpt>
      <trkpt lat="32.87015666666667" lon="35.24200333333334">
        <ele>193</ele>
        <time>2011-09-29T18:10:08.12</time>
      </trkpt>
      <trkpt lat="32.87007166666667" lon="35.24201333333333">
        <ele>191.5</ele>
        <time>2011-09-29T18:10:10.50</time>
      </trkpt>
      <trkpt lat="32.87000666666667" lon="35.242005">
        <ele>191.5</ele>
        <time>2011-09-29T18:10:12.13</time>
      </trkpt>
      <trkpt lat="32.869965" lon="35.24202">
        <ele>191.5</ele>
        <time>2011-09-29T18:10:14.97</time>
      </trkpt>
      <trkpt lat="32.86984833333333" lon="35.24203833333333">
        <ele>192</ele>
        <time>2011-09-29T18:10:17.32</time>
      </trkpt>
      <trkpt lat="32.869765" lon="35.24205166666667">
        <ele>192</ele>
        <time>2011-09-29T18:10:19.66</time>
      </trkpt>
      <trkpt lat="32.869706666666666" lon="35.24205333333333">
        <ele>193</ele>
        <time>2011-09-29T18:10:21.12</time>
      </trkpt>
      <trkpt lat="32.869665" lon="35.242063333333334">
        <ele>193.5</ele>
        <time>2011-09-29T18:10:23.45</time>
      </trkpt>
      <trkpt lat="32.869618333333335" lon="35.24207333333333">
        <ele>195</ele>
        <time>2011-09-29T18:10:25.81</time>
      </trkpt>
      <trkpt lat="32.869566666666664" lon="35.242088333333335">
        <ele>196</ele>
        <time>2011-09-29T18:10:28.14</time>
      </trkpt>
      <trkpt lat="32.86945333333333" lon="35.24214333333333">
        <ele>197</ele>
        <time>2011-09-29T18:10:30.47</time>
      </trkpt>
      <trkpt lat="32.86941" lon="35.242175">
        <ele>197</ele>
        <time>2011-09-29T18:10:32.81</time>
      </trkpt>
      <trkpt lat="32.86934333333333" lon="35.242221666666666">
        <ele>198</ele>
        <time>2011-09-29T18:10:34.12</time>
      </trkpt>
      <trkpt lat="32.86931666666667" lon="35.242261666666664">
        <ele>200</ele>
        <time>2011-09-29T18:10:36.12</time>
      </trkpt>
      <trkpt lat="32.86925166666666" lon="35.242285">
        <ele>200.5</ele>
        <time>2011-09-29T18:10:38.46</time>
      </trkpt>
      <trkpt lat="32.869215" lon="35.242306666666664">
        <ele>200.5</ele>
        <time>2011-09-29T18:10:40.96</time>
      </trkpt>
      <trkpt lat="32.869168333333334" lon="35.24232166666667">
        <ele>201</ele>
        <time>2011-09-29T18:10:43.31</time>
      </trkpt>
      <trkpt lat="32.869115" lon="35.24232666666666">
        <ele>201.5</ele>
        <time>2011-09-29T18:10:45.12</time>
      </trkpt>
      <trkpt lat="32.869036666666666" lon="35.242335">
        <ele>202</ele>
        <time>2011-09-29T18:10:47.46</time>
      </trkpt>
      <trkpt lat="32.86895166666667" lon="35.24234666666667">
        <ele>202</ele>
        <time>2011-09-29T18:10:49.11</time>
      </trkpt>
      <trkpt lat="32.868883333333336" lon="35.24237">
        <ele>202</ele>
        <time>2011-09-29T18:10:51.12</time>
      </trkpt>
      <trkpt lat="32.868833333333335" lon="35.242385">
        <ele>202.5</ele>
        <time>2011-09-29T18:10:53.45</time>
      </trkpt>
      <trkpt lat="32.868785" lon="35.24238166666667">
        <ele>202</ele>
        <time>2011-09-29T18:10:55.11</time>
      </trkpt>
      <trkpt lat="32.86873833333333" lon="35.242396666666664">
        <ele>202.5</ele>
        <time>2011-09-29T18:10:57.10</time>
      </trkpt>
      <trkpt lat="32.86871" lon="35.24239166666667">
        <ele>202.5</ele>
        <time>2011-09-29T18:10:59.10</time>
      </trkpt>
      <trkpt lat="32.868665" lon="35.242398333333334">
        <ele>202</ele>
        <time>2011-09-29T18:11:01.10</time>
      </trkpt>
      <trkpt lat="32.868615" lon="35.24240833333333">
        <ele>202</ele>
        <time>2011-09-29T18:11:03.45</time>
      </trkpt>
      <trkpt lat="32.86857" lon="35.242423333333335">
        <ele>202</ele>
        <time>2011-09-29T18:11:05.79</time>
      </trkpt>
      <trkpt lat="32.868555" lon="35.24243333333333">
        <ele>201.5</ele>
        <time>2011-09-29T18:11:07.11</time>
      </trkpt>
      <trkpt lat="32.86855" lon="35.242446666666666">
        <ele>201.5</ele>
        <time>2011-09-29T18:11:09.11</time>
      </trkpt>
      <trkpt lat="32.86853333333333" lon="35.24247666666667">
        <ele>202</ele>
        <time>2011-09-29T18:11:11.45</time>
      </trkpt>
      <trkpt lat="32.86852833333333" lon="35.24250333333333">
        <ele>202.5</ele>
        <time>2011-09-29T18:11:13.78</time>
      </trkpt>
      <trkpt lat="32.8685" lon="35.242576666666665">
        <ele>202.5</ele>
        <time>2011-09-29T18:11:16.11</time>
      </trkpt>
      <trkpt lat="32.868485" lon="35.24267">
        <ele>202</ele>
        <time>2011-09-29T18:11:18.43</time>
      </trkpt>
      <trkpt lat="32.86846166666667" lon="35.24272">
        <ele>201.5</ele>
        <time>2011-09-29T18:11:20.77</time>
      </trkpt>
      <trkpt lat="32.868430000000004" lon="35.24274333333334">
        <ele>201</ele>
        <time>2011-09-29T18:11:22.11</time>
      </trkpt>
      <trkpt lat="32.86843666666667" lon="35.242756666666665">
        <ele>201.5</ele>
        <time>2011-09-29T18:11:24.57</time>
      </trkpt>
      <trkpt lat="32.868433333333336" lon="35.24277333333333">
        <ele>201.5</ele>
        <time>2011-09-29T18:11:26.92</time>
      </trkpt>
      <trkpt lat="32.868431666666666" lon="35.24278">
        <ele>201.5</ele>
        <time>2011-09-29T18:11:29.27</time>
      </trkpt>
      <trkpt lat="32.86842" lon="35.242778333333334">
        <ele>201.5</ele>
        <time>2011-09-29T18:11:31.61</time>
      </trkpt>
      <trkpt lat="32.86840333333333" lon="35.24276833333333">
        <ele>201</ele>
        <time>2011-09-29T18:11:35.18</time>
      </trkpt>
      <trkpt lat="32.86834" lon="35.24272666666667">
        <ele>200.5</ele>
        <time>2011-09-29T18:11:37.35</time>
      </trkpt>
      <trkpt lat="32.868335" lon="35.24272333333333">
        <ele>200.5</ele>
        <time>2011-09-29T18:11:39.68</time>
      </trkpt>
      <trkpt lat="32.868305" lon="35.24272">
        <ele>200.5</ele>
        <time>2011-09-29T18:11:41.10</time>
      </trkpt>
      <trkpt lat="32.86825833333333" lon="35.24272166666667">
        <ele>200.5</ele>
        <time>2011-09-29T18:11:43.42</time>
      </trkpt>
      <trkpt lat="32.86823" lon="35.24272166666667">
        <ele>200</ele>
        <time>2011-09-29T18:11:45.10</time>
      </trkpt>
      <trkpt lat="32.868205" lon="35.24271666666667">
        <ele>200</ele>
        <time>2011-09-29T18:11:47.98</time>
      </trkpt>
      <trkpt lat="32.86819333333333" lon="35.24270833333333">
        <ele>200.5</ele>
        <time>2011-09-29T18:11:49.10</time>
      </trkpt>
      <trkpt lat="32.86817833333333" lon="35.2427">
        <ele>200.5</ele>
        <time>2011-09-29T18:11:51.98</time>
      </trkpt>
      <trkpt lat="32.868141666666666" lon="35.24269666666667">
        <ele>200.5</ele>
        <time>2011-09-29T18:11:53.31</time>
      </trkpt>
      <trkpt lat="32.86812666666667" lon="35.24270333333333">
        <ele>200.5</ele>
        <time>2011-09-29T18:11:55.66</time>
      </trkpt>
      <trkpt lat="32.86811" lon="35.24269833333334">
        <ele>201.5</ele>
        <time>2011-09-29T18:11:58.8</time>
      </trkpt>
      <trkpt lat="32.86810666666667" lon="35.24270833333333">
        <ele>201.5</ele>
        <time>2011-09-29T18:11:59.31</time>
      </trkpt>
      <trkpt lat="32.868098333333336" lon="35.24270666666666">
        <ele>202</ele>
        <time>2011-09-29T18:12:01.65</time>
      </trkpt>
      <trkpt lat="32.868091666666665" lon="35.24271666666667">
        <ele>202</ele>
        <time>2011-09-29T18:12:03.31</time>
      </trkpt>
      <trkpt lat="32.86809" lon="35.242731666666664">
        <ele>202.5</ele>
        <time>2011-09-29T18:12:05.63</time>
      </trkpt>
      <trkpt lat="32.86809" lon="35.24276166666667">
        <ele>202.5</ele>
        <time>2011-09-29T18:12:07.96</time>
      </trkpt>
      <trkpt lat="32.86808833333333" lon="35.242808333333336">
        <ele>203</ele>
        <time>2011-09-29T18:12:09.32</time>
      </trkpt>
      <trkpt lat="32.86811333333333" lon="35.24288833333333">
        <ele>203.5</ele>
        <time>2011-09-29T18:12:11.64</time>
      </trkpt>
      <trkpt lat="32.86812833333333" lon="35.242931666666664">
        <ele>204.5</ele>
        <time>2011-09-29T18:12:13.96</time>
      </trkpt>
      <trkpt lat="32.868141666666666" lon="35.242976666666664">
        <ele>204.5</ele>
        <time>2011-09-29T18:12:15.31</time>
      </trkpt>
      <trkpt lat="32.86815166666667" lon="35.243055">
        <ele>205</ele>
        <time>2011-09-29T18:12:17.31</time>
      </trkpt>
      <trkpt lat="32.86815" lon="35.243095">
        <ele>205</ele>
        <time>2011-09-29T18:12:19.64</time>
      </trkpt>
      <trkpt lat="32.86815333333333" lon="35.24313166666666">
        <ele>205</ele>
        <time>2011-09-29T18:12:22.8</time>
      </trkpt>
      <trkpt lat="32.868143333333336" lon="35.243145">
        <ele>205</ele>
        <time>2011-09-29T18:12:22.31</time>
      </trkpt>
      <trkpt lat="32.868145" lon="35.243143333333336">
        <ele>205.5</ele>
        <time>2011-09-29T18:12:23.31</time>
      </trkpt>
      <trkpt lat="32.868145" lon="35.24314">
        <ele>205</ele>
        <time>2011-09-29T18:12:24.31</time>
      </trkpt>
      <trkpt lat="32.868135" lon="35.24312666666667">
        <ele>205</ele>
        <time>2011-09-29T18:12:25.31</time>
      </trkpt>
      <trkpt lat="32.86812666666667" lon="35.243145">
        <ele>205.5</ele>
        <time>2011-09-29T18:12:26.31</time>
      </trkpt>
      <trkpt lat="32.868115" lon="35.24316833333334">
        <ele>205</ele>
        <time>2011-09-29T18:12:27.31</time>
      </trkpt>
      <trkpt lat="32.86812166666667" lon="35.24315166666667">
        <ele>206.5</ele>
        <time>2011-09-29T18:12:28.31</time>
      </trkpt>
      <trkpt lat="32.86812166666667" lon="35.24312833333333">
        <ele>206.5</ele>
        <time>2011-09-29T18:12:29.30</time>
      </trkpt>
      <trkpt lat="32.868116666666666" lon="35.24311333333333">
        <ele>206.5</ele>
        <time>2011-09-29T18:12:30.30</time>
      </trkpt>
      <trkpt lat="32.868125" lon="35.24312">
        <ele>206.5</ele>
        <time>2011-09-29T18:12:32.30</time>
      </trkpt>
      <trkpt lat="32.868125" lon="35.24310833333333">
        <ele>207</ele>
        <time>2011-09-29T18:12:33.30</time>
      </trkpt>
      <trkpt lat="32.86810833333333" lon="35.24310166666667">
        <ele>207</ele>
        <time>2011-09-29T18:12:34.30</time>
      </trkpt>
      <trkpt lat="32.868091666666665" lon="35.24309">
        <ele>207</ele>
        <time>2011-09-29T18:12:35.30</time>
      </trkpt>
      <trkpt lat="32.868085" lon="35.24308666666667">
        <ele>207</ele>
        <time>2011-09-29T18:12:36.31</time>
      </trkpt>
      <trkpt lat="32.86806333333333" lon="35.24308166666667">
        <ele>206.5</ele>
        <time>2011-09-29T18:12:37.30</time>
      </trkpt>
      <trkpt lat="32.86805666666667" lon="35.243075">
        <ele>207</ele>
        <time>2011-09-29T18:12:38.31</time>
      </trkpt>
      <trkpt lat="32.868051666666666" lon="35.243071666666665">
        <ele>207</ele>
        <time>2011-09-29T18:12:39.31</time>
      </trkpt>
      <trkpt lat="32.86803833333333" lon="35.243065">
        <ele>207</ele>
        <time>2011-09-29T18:12:40.30</time>
      </trkpt>
      <trkpt lat="32.86798666666667" lon="35.24306166666667">
        <ele>208.5</ele>
        <time>2011-09-29T18:12:42.30</time>
      </trkpt>
      <trkpt lat="32.86798" lon="35.243045">
        <ele>208.5</ele>
        <time>2011-09-29T18:12:43.30</time>
      </trkpt>
      <trkpt lat="32.86798" lon="35.24301833333333">
        <ele>208.5</ele>
        <time>2011-09-29T18:12:44.30</time>
      </trkpt>
      <trkpt lat="32.867965" lon="35.24301333333333">
        <ele>208.5</ele>
        <time>2011-09-29T18:12:45.30</time>
      </trkpt>
      <trkpt lat="32.86795" lon="35.243008333333336">
        <ele>209</ele>
        <time>2011-09-29T18:12:46.30</time>
      </trkpt>
      <trkpt lat="32.867935" lon="35.243006666666666">
        <ele>209.5</ele>
        <time>2011-09-29T18:12:47.30</time>
      </trkpt>
      <trkpt lat="32.86792166666667" lon="35.24301">
        <ele>210</ele>
        <time>2011-09-29T18:12:48.30</time>
      </trkpt>
      <trkpt lat="32.86790833333333" lon="35.243005">
        <ele>210</ele>
        <time>2011-09-29T18:12:49.30</time>
      </trkpt>
      <trkpt lat="32.86789666666667" lon="35.24299">
        <ele>210</ele>
        <time>2011-09-29T18:12:50.29</time>
      </trkpt>
      <trkpt lat="32.86788833333333" lon="35.242976666666664">
        <ele>211</ele>
        <time>2011-09-29T18:12:51.30</time>
      </trkpt>
      <trkpt lat="32.86788" lon="35.24297">
        <ele>211</ele>
        <time>2011-09-29T18:12:52.30</time>
      </trkpt>
      <trkpt lat="32.867868333333334" lon="35.242963333333336">
        <ele>212.5</ele>
        <time>2011-09-29T18:12:53.30</time>
      </trkpt>
      <trkpt lat="32.867853333333336" lon="35.242963333333336">
        <ele>212.5</ele>
        <time>2011-09-29T18:12:54.29</time>
      </trkpt>
      <trkpt lat="32.86783833333333" lon="35.24296666666667">
        <ele>210.5</ele>
        <time>2011-09-29T18:12:55.30</time>
      </trkpt>
      <trkpt lat="32.867823333333334" lon="35.242963333333336">
        <ele>210.5</ele>
        <time>2011-09-29T18:12:56.30</time>
      </trkpt>
      <trkpt lat="32.86781333333333" lon="35.242961666666666">
        <ele>210.5</ele>
        <time>2011-09-29T18:12:57.30</time>
      </trkpt>
      <trkpt lat="32.867801666666665" lon="35.242961666666666">
        <ele>210.5</ele>
        <time>2011-09-29T18:12:58.30</time>
      </trkpt>
      <trkpt lat="32.86783" lon="35.24290833333333">
        <ele>211</ele>
        <time>2011-09-29T18:13:00.30</time>
      </trkpt>
      <trkpt lat="32.86784166666666" lon="35.242893333333335">
        <ele>211</ele>
        <time>2011-09-29T18:13:01.30</time>
      </trkpt>
      <trkpt lat="32.86785" lon="35.24288">
        <ele>211</ele>
        <time>2011-09-29T18:13:02.30</time>
      </trkpt>
      <trkpt lat="32.867828333333335" lon="35.24287666666667">
        <ele>210</ele>
        <time>2011-09-29T18:13:03.30</time>
      </trkpt>
      <trkpt lat="32.86781166666667" lon="35.24288">
        <ele>210.5</ele>
        <time>2011-09-29T18:13:04.29</time>
      </trkpt>
      <trkpt lat="32.86779833333333" lon="35.24288333333333">
        <ele>210.5</ele>
        <time>2011-09-29T18:13:05.29</time>
      </trkpt>
      <trkpt lat="32.86778666666667" lon="35.242885">
        <ele>210.5</ele>
        <time>2011-09-29T18:13:06.30</time>
      </trkpt>
      <trkpt lat="32.86777" lon="35.24287833333333">
        <ele>211</ele>
        <time>2011-09-29T18:13:07.30</time>
      </trkpt>
      <trkpt lat="32.86775333333333" lon="35.242891666666665">
        <ele>211.5</ele>
        <time>2011-09-29T18:13:08.30</time>
      </trkpt>
      <trkpt lat="32.86774666666667" lon="35.24288833333333">
        <ele>212</ele>
        <time>2011-09-29T18:13:09.30</time>
      </trkpt>
      <trkpt lat="32.86774333333334" lon="35.24289">
        <ele>212.5</ele>
        <time>2011-09-29T18:13:10.29</time>
      </trkpt>
      <trkpt lat="32.86774166666667" lon="35.242891666666665">
        <ele>212.5</ele>
        <time>2011-09-29T18:13:11.29</time>
      </trkpt>
      <trkpt lat="32.867731666666664" lon="35.242905">
        <ele>211</ele>
        <time>2011-09-29T18:13:12.29</time>
      </trkpt>
      <trkpt lat="32.86772666666667" lon="35.24290666666667">
        <ele>211.5</ele>
        <time>2011-09-29T18:13:13.30</time>
      </trkpt>
      <trkpt lat="32.867718333333336" lon="35.24297333333333">
        <ele>211.5</ele>
        <time>2011-09-29T18:13:15.30</time>
      </trkpt>
      <trkpt lat="32.867713333333334" lon="35.24299166666667">
        <ele>211.5</ele>
        <time>2011-09-29T18:13:16.30</time>
      </trkpt>
      <trkpt lat="32.86770833333333" lon="35.24299666666667">
        <ele>212.5</ele>
        <time>2011-09-29T18:13:17.29</time>
      </trkpt>
      <trkpt lat="32.86770166666667" lon="35.243015">
        <ele>213</ele>
        <time>2011-09-29T18:13:18.29</time>
      </trkpt>
      <trkpt lat="32.867695" lon="35.24303">
        <ele>213</ele>
        <time>2011-09-29T18:13:19.29</time>
      </trkpt>
      <trkpt lat="32.86770333333333" lon="35.24305">
        <ele>213</ele>
        <time>2011-09-29T18:13:20.29</time>
      </trkpt>
      <trkpt lat="32.86770833333333" lon="35.24306333333333">
        <ele>213</ele>
        <time>2011-09-29T18:13:21.30</time>
      </trkpt>
      <trkpt lat="32.867713333333334" lon="35.24308833333333">
        <ele>213.5</ele>
        <time>2011-09-29T18:13:22.29</time>
      </trkpt>
      <trkpt lat="32.867715" lon="35.24310666666667">
        <ele>213.5</ele>
        <time>2011-09-29T18:13:23.29</time>
      </trkpt>
      <trkpt lat="32.86770166666667" lon="35.24312333333334">
        <ele>214</ele>
        <time>2011-09-29T18:13:24.30</time>
      </trkpt>
      <trkpt lat="32.867693333333335" lon="35.24313166666666">
        <ele>214.5</ele>
        <time>2011-09-29T18:13:25.30</time>
      </trkpt>
      <trkpt lat="32.867691666666666" lon="35.243158333333334">
        <ele>215.5</ele>
        <time>2011-09-29T18:13:26.29</time>
      </trkpt>
      <trkpt lat="32.86769666666667" lon="35.243188333333336">
        <ele>216</ele>
        <time>2011-09-29T18:13:27.29</time>
      </trkpt>
      <trkpt lat="32.867691666666666" lon="35.243208333333335">
        <ele>216.5</ele>
        <time>2011-09-29T18:13:28.29</time>
      </trkpt>
      <trkpt lat="32.867688333333334" lon="35.24319833333333">
        <ele>218</ele>
        <time>2011-09-29T18:13:29.29</time>
      </trkpt>
      <trkpt lat="32.86769833333334" lon="35.243233333333336">
        <ele>219</ele>
        <time>2011-09-29T18:13:30.29</time>
      </trkpt>
      <trkpt lat="32.867705" lon="35.243323333333336">
        <ele>221.5</ele>
        <time>2011-09-29T18:13:32.29</time>
      </trkpt>
      <trkpt lat="32.867711666666665" lon="35.24335">
        <ele>222</ele>
        <time>2011-09-29T18:13:33.29</time>
      </trkpt>
      <trkpt lat="32.86771666666667" lon="35.24337166666667">
        <ele>222</ele>
        <time>2011-09-29T18:13:34.29</time>
      </trkpt>
      <trkpt lat="32.867718333333336" lon="35.243395">
        <ele>222.5</ele>
        <time>2011-09-29T18:13:35.29</time>
      </trkpt>
      <trkpt lat="32.86771666666667" lon="35.24341166666667">
        <ele>222.5</ele>
        <time>2011-09-29T18:13:36.29</time>
      </trkpt>
      <trkpt lat="32.86772333333333" lon="35.24342">
        <ele>222.5</ele>
        <time>2011-09-29T18:13:37.29</time>
      </trkpt>
      <trkpt lat="32.86772333333333" lon="35.243426666666664">
        <ele>222.5</ele>
        <time>2011-09-29T18:13:38.29</time>
      </trkpt>
      <trkpt lat="32.86772833333333" lon="35.24343666666667">
        <ele>222.5</ele>
        <time>2011-09-29T18:13:39.29</time>
      </trkpt>
      <trkpt lat="32.86775333333333" lon="35.243485">
        <ele>224</ele>
        <time>2011-09-29T18:13:41.29</time>
      </trkpt>
      <trkpt lat="32.867745" lon="35.24351">
        <ele>223.5</ele>
        <time>2011-09-29T18:13:42.29</time>
      </trkpt>
      <trkpt lat="32.867745" lon="35.24353166666667">
        <ele>224</ele>
        <time>2011-09-29T18:13:43.29</time>
      </trkpt>
      <trkpt lat="32.86774833333333" lon="35.24355833333333">
        <ele>225</ele>
        <time>2011-09-29T18:13:44.29</time>
      </trkpt>
      <trkpt lat="32.86774833333333" lon="35.243565">
        <ele>226</ele>
        <time>2011-09-29T18:13:45.29</time>
      </trkpt>
      <trkpt lat="32.86774" lon="35.243581666666664">
        <ele>226</ele>
        <time>2011-09-29T18:13:46.29</time>
      </trkpt>
      <trkpt lat="32.8677" lon="35.243635">
        <ele>224.5</ele>
        <time>2011-09-29T18:13:48.29</time>
      </trkpt>
      <trkpt lat="32.867685" lon="35.243655">
        <ele>224.5</ele>
        <time>2011-09-29T18:13:49.29</time>
      </trkpt>
      <trkpt lat="32.867671666666666" lon="35.243678333333335">
        <ele>224</ele>
        <time>2011-09-29T18:13:50.29</time>
      </trkpt>
      <trkpt lat="32.86765333333334" lon="35.24370166666667">
        <ele>223</ele>
        <time>2011-09-29T18:13:51.29</time>
      </trkpt>
      <trkpt lat="32.86767" lon="35.24373666666666">
        <ele>222.5</ele>
        <time>2011-09-29T18:13:52.29</time>
      </trkpt>
      <trkpt lat="32.86766333333333" lon="35.24374666666667">
        <ele>225.5</ele>
        <time>2011-09-29T18:13:53.29</time>
      </trkpt>
      <trkpt lat="32.86766166666666" lon="35.243766666666666">
        <ele>225</ele>
        <time>2011-09-29T18:13:54.29</time>
      </trkpt>
      <trkpt lat="32.867673333333336" lon="35.24378333333333">
        <ele>223</ele>
        <time>2011-09-29T18:13:55.29</time>
      </trkpt>
      <trkpt lat="32.867671666666666" lon="35.24379666666667">
        <ele>221.5</ele>
        <time>2011-09-29T18:13:56.29</time>
      </trkpt>
      <trkpt lat="32.867646666666666" lon="35.24382166666667">
        <ele>222</ele>
        <time>2011-09-29T18:13:58.29</time>
      </trkpt>
      <trkpt lat="32.867646666666666" lon="35.243855">
        <ele>222</ele>
        <time>2011-09-29T18:13:59.28</time>
      </trkpt>
      <trkpt lat="32.8677" lon="35.24394">
        <ele>226</ele>
        <time>2011-09-29T18:14:01.28</time>
      </trkpt>
      <trkpt lat="32.86772333333333" lon="35.24395666666667">
        <ele>225.5</ele>
        <time>2011-09-29T18:14:02.28</time>
      </trkpt>
      <trkpt lat="32.86774166666667" lon="35.24397833333333">
        <ele>225.5</ele>
        <time>2011-09-29T18:14:03.28</time>
      </trkpt>
      <trkpt lat="32.86777166666667" lon="35.244038333333336">
        <ele>226</ele>
        <time>2011-09-29T18:14:05.28</time>
      </trkpt>
      <trkpt lat="32.86779" lon="35.244103333333335">
        <ele>225.5</ele>
        <time>2011-09-29T18:14:07.28</time>
      </trkpt>
      <trkpt lat="32.867801666666665" lon="35.244121666666665">
        <ele>225.5</ele>
        <time>2011-09-29T18:14:08.29</time>
      </trkpt>
      <trkpt lat="32.867808333333336" lon="35.244145">
        <ele>225</ele>
        <time>2011-09-29T18:14:09.28</time>
      </trkpt>
      <trkpt lat="32.86781166666667" lon="35.24415833333333">
        <ele>224.5</ele>
        <time>2011-09-29T18:14:10.28</time>
      </trkpt>
      <trkpt lat="32.86781166666667" lon="35.244168333333334">
        <ele>223.5</ele>
        <time>2011-09-29T18:14:11.28</time>
      </trkpt>
      <trkpt lat="32.86779833333333" lon="35.24419">
        <ele>223</ele>
        <time>2011-09-29T18:14:12.28</time>
      </trkpt>
      <trkpt lat="32.86778666666667" lon="35.244213333333335">
        <ele>222.5</ele>
        <time>2011-09-29T18:14:13.29</time>
      </trkpt>
      <trkpt lat="32.867775" lon="35.244236666666666">
        <ele>222.5</ele>
        <time>2011-09-29T18:14:14.28</time>
      </trkpt>
      <trkpt lat="32.867775" lon="35.244275">
        <ele>221</ele>
        <time>2011-09-29T18:14:15.28</time>
      </trkpt>
      <trkpt lat="32.86777166666667" lon="35.244305">
        <ele>221.5</ele>
        <time>2011-09-29T18:14:16.28</time>
      </trkpt>
      <trkpt lat="32.867765" lon="35.244328333333335">
        <ele>221</ele>
        <time>2011-09-29T18:14:17.28</time>
      </trkpt>
      <trkpt lat="32.867758333333335" lon="35.24436">
        <ele>221</ele>
        <time>2011-09-29T18:14:18.28</time>
      </trkpt>
      <trkpt lat="32.867758333333335" lon="35.24437666666667">
        <ele>221</ele>
        <time>2011-09-29T18:14:19.28</time>
      </trkpt>
      <trkpt lat="32.867756666666665" lon="35.244393333333335">
        <ele>221</ele>
        <time>2011-09-29T18:14:20.28</time>
      </trkpt>
      <trkpt lat="32.867755" lon="35.244415">
        <ele>221</ele>
        <time>2011-09-29T18:14:21.28</time>
      </trkpt>
      <trkpt lat="32.867763333333336" lon="35.244436666666665">
        <ele>222.5</ele>
        <time>2011-09-29T18:14:22.28</time>
      </trkpt>
      <trkpt lat="32.867765" lon="35.244456666666665">
        <ele>223.5</ele>
        <time>2011-09-29T18:14:23.28</time>
      </trkpt>
      <trkpt lat="32.86777333333333" lon="35.24449166666667">
        <ele>224</ele>
        <time>2011-09-29T18:14:24.28</time>
      </trkpt>
      <trkpt lat="32.867763333333336" lon="35.24452">
        <ele>223.5</ele>
        <time>2011-09-29T18:14:25.28</time>
      </trkpt>
      <trkpt lat="32.86775" lon="35.244545">
        <ele>223.5</ele>
        <time>2011-09-29T18:14:26.30</time>
      </trkpt>
      <trkpt lat="32.86774833333333" lon="35.244565">
        <ele>224</ele>
        <time>2011-09-29T18:14:27.27</time>
      </trkpt>
      <trkpt lat="32.86774833333333" lon="35.24458166666667">
        <ele>223.5</ele>
        <time>2011-09-29T18:14:28.28</time>
      </trkpt>
      <trkpt lat="32.867756666666665" lon="35.24458666666666">
        <ele>222.5</ele>
        <time>2011-09-29T18:14:29.28</time>
      </trkpt>
      <trkpt lat="32.86779833333333" lon="35.24460333333333">
        <ele>222</ele>
        <time>2011-09-29T18:14:31.27</time>
      </trkpt>
      <trkpt lat="32.86780666666667" lon="35.24464">
        <ele>221</ele>
        <time>2011-09-29T18:14:32.27</time>
      </trkpt>
      <trkpt lat="32.86781833333333" lon="35.24466666666667">
        <ele>220.5</ele>
        <time>2011-09-29T18:14:33.27</time>
      </trkpt>
      <trkpt lat="32.86783333333333" lon="35.244703333333334">
        <ele>220</ele>
        <time>2011-09-29T18:14:34.27</time>
      </trkpt>
      <trkpt lat="32.86788833333333" lon="35.24482833333333">
        <ele>219</ele>
        <time>2011-09-29T18:14:36.27</time>
      </trkpt>
      <trkpt lat="32.86791" lon="35.244881666666664">
        <ele>218</ele>
        <time>2011-09-29T18:14:37.27</time>
      </trkpt>
      <trkpt lat="32.86792833333333" lon="35.24491666666667">
        <ele>218</ele>
        <time>2011-09-29T18:14:38.27</time>
      </trkpt>
      <trkpt lat="32.86795" lon="35.24497">
        <ele>219</ele>
        <time>2011-09-29T18:14:39.26</time>
      </trkpt>
      <trkpt lat="32.867961666666666" lon="35.24502833333333">
        <ele>219</ele>
        <time>2011-09-29T18:14:40.27</time>
      </trkpt>
      <trkpt lat="32.86799" lon="35.24507166666667">
        <ele>219.5</ele>
        <time>2011-09-29T18:14:41.27</time>
      </trkpt>
      <trkpt lat="32.868005" lon="35.24512">
        <ele>220</ele>
        <time>2011-09-29T18:14:42.27</time>
      </trkpt>
      <trkpt lat="32.868053333333336" lon="35.245215">
        <ele>221</ele>
        <time>2011-09-29T18:14:44.27</time>
      </trkpt>
      <trkpt lat="32.86807" lon="35.245245">
        <ele>221.5</ele>
        <time>2011-09-29T18:14:45.27</time>
      </trkpt>
      <trkpt lat="32.868085" lon="35.245266666666666">
        <ele>221.5</ele>
        <time>2011-09-29T18:14:46.27</time>
      </trkpt>
      <trkpt lat="32.868096666666666" lon="35.245285">
        <ele>222</ele>
        <time>2011-09-29T18:14:47.28</time>
      </trkpt>
      <trkpt lat="32.868111666666664" lon="35.245311666666666">
        <ele>222.5</ele>
        <time>2011-09-29T18:14:49.27</time>
      </trkpt>
      <trkpt lat="32.868095" lon="35.24529">
        <ele>223</ele>
        <time>2011-09-29T18:14:51.27</time>
      </trkpt>
      <trkpt lat="32.868116666666666" lon="35.24527666666667">
        <ele>223.5</ele>
        <time>2011-09-29T18:14:53.27</time>
      </trkpt>
      <trkpt lat="32.868116666666666" lon="35.24527166666667">
        <ele>224</ele>
        <time>2011-09-29T18:14:54.27</time>
      </trkpt>
      <trkpt lat="32.86810833333333" lon="35.245285">
        <ele>224</ele>
        <time>2011-09-29T18:14:55.26</time>
      </trkpt>
      <trkpt lat="32.868115" lon="35.245288333333335">
        <ele>224.5</ele>
        <time>2011-09-29T18:14:56.27</time>
      </trkpt>
      <trkpt lat="32.86812" lon="35.245305">
        <ele>224.5</ele>
        <time>2011-09-29T18:14:57.27</time>
      </trkpt>
      <trkpt lat="32.86812333333334" lon="35.24530333333333">
        <ele>225</ele>
        <time>2011-09-29T18:14:58.27</time>
      </trkpt>
      <trkpt lat="32.86812333333334" lon="35.24529833333333">
        <ele>226</ele>
        <time>2011-09-29T18:14:59.27</time>
      </trkpt>
      <trkpt lat="32.868125" lon="35.245305">
        <ele>226.5</ele>
        <time>2011-09-29T18:15:00.27</time>
      </trkpt>
      <trkpt lat="32.868125" lon="35.24531">
        <ele>227</ele>
        <time>2011-09-29T18:15:01.27</time>
      </trkpt>
      <trkpt lat="32.868118333333335" lon="35.2453">
        <ele>227.5</ele>
        <time>2011-09-29T18:15:02.27</time>
      </trkpt>
      <trkpt lat="32.86812666666667" lon="35.245311666666666">
        <ele>228</ele>
        <time>2011-09-29T18:15:03.27</time>
      </trkpt>
      <trkpt lat="32.868125" lon="35.24530333333333">
        <ele>228</ele>
        <time>2011-09-29T18:15:04.27</time>
      </trkpt>
      <trkpt lat="32.86813333333333" lon="35.245308333333334">
        <ele>228</ele>
        <time>2011-09-29T18:15:05.27</time>
      </trkpt>
      <trkpt lat="32.86813333333333" lon="35.24532166666667">
        <ele>228</ele>
        <time>2011-09-29T18:15:06.27</time>
      </trkpt>
      <trkpt lat="32.868141666666666" lon="35.24533">
        <ele>229</ele>
        <time>2011-09-29T18:15:07.27</time>
      </trkpt>
      <trkpt lat="32.86814833333333" lon="35.245326666666664">
        <ele>229</ele>
        <time>2011-09-29T18:15:08.26</time>
      </trkpt>
      <trkpt lat="32.86815333333333" lon="35.24532333333333">
        <ele>229</ele>
        <time>2011-09-29T18:15:09.27</time>
      </trkpt>
      <trkpt lat="32.868165" lon="35.24532">
        <ele>229</ele>
        <time>2011-09-29T18:15:10.27</time>
      </trkpt>
      <trkpt lat="32.868165" lon="35.245313333333335">
        <ele>228</ele>
        <time>2011-09-29T18:15:11.27</time>
      </trkpt>
      <trkpt lat="32.86817" lon="35.24531">
        <ele>227</ele>
        <time>2011-09-29T18:15:12.26</time>
      </trkpt>
      <trkpt lat="32.86817666666666" lon="35.24530333333333">
        <ele>228.5</ele>
        <time>2011-09-29T18:15:13.26</time>
      </trkpt>
      <trkpt lat="32.868181666666665" lon="35.24530166666667">
        <ele>228.5</ele>
        <time>2011-09-29T18:15:14.27</time>
      </trkpt>
      <trkpt lat="32.86819" lon="35.24530333333333">
        <ele>228</ele>
        <time>2011-09-29T18:15:15.26</time>
      </trkpt>
      <trkpt lat="32.86819833333333" lon="35.24529833333333">
        <ele>227.5</ele>
        <time>2011-09-29T18:15:16.26</time>
      </trkpt>
      <trkpt lat="32.868201666666664" lon="35.24530333333333">
        <ele>227</ele>
        <time>2011-09-29T18:15:17.26</time>
      </trkpt>
      <trkpt lat="32.868205" lon="35.245306666666664">
        <ele>227.5</ele>
        <time>2011-09-29T18:15:18.26</time>
      </trkpt>
      <trkpt lat="32.868205" lon="35.245308333333334">
        <ele>227.5</ele>
        <time>2011-09-29T18:15:19.26</time>
      </trkpt>
      <trkpt lat="32.868203333333334" lon="35.24531">
        <ele>228</ele>
        <time>2011-09-29T18:15:20.26</time>
      </trkpt>
      <trkpt lat="32.868201666666664" lon="35.245311666666666">
        <ele>228.5</ele>
        <time>2011-09-29T18:15:21.26</time>
      </trkpt>
      <trkpt lat="32.868195" lon="35.245315">
        <ele>228</ele>
        <time>2011-09-29T18:15:22.26</time>
      </trkpt>
      <trkpt lat="32.868201666666664" lon="35.24531">
        <ele>229</ele>
        <time>2011-09-29T18:15:23.26</time>
      </trkpt>
      <trkpt lat="32.86819833333333" lon="35.245293333333336">
        <ele>230.5</ele>
        <time>2011-09-29T18:15:25.27</time>
      </trkpt>
      <trkpt lat="32.868206666666666" lon="35.24529666666667">
        <ele>231</ele>
        <time>2011-09-29T18:15:26.26</time>
      </trkpt>
      <trkpt lat="32.868215" lon="35.24529833333333">
        <ele>231.5</ele>
        <time>2011-09-29T18:15:27.26</time>
      </trkpt>
      <trkpt lat="32.868225" lon="35.2453">
        <ele>232.5</ele>
        <time>2011-09-29T18:15:28.26</time>
      </trkpt>
      <trkpt lat="32.86824333333333" lon="35.245295">
        <ele>234.5</ele>
        <time>2011-09-29T18:15:29.26</time>
      </trkpt>
      <trkpt lat="32.86825666666667" lon="35.24529166666667">
        <ele>237</ele>
        <time>2011-09-29T18:15:30.26</time>
      </trkpt>
      <trkpt lat="32.86826" lon="35.245295">
        <ele>237</ele>
        <time>2011-09-29T18:15:31.26</time>
      </trkpt>
      <trkpt lat="32.86826166666667" lon="35.24529666666667">
        <ele>236.5</ele>
        <time>2011-09-29T18:15:32.26</time>
      </trkpt>
      <trkpt lat="32.86826333333333" lon="35.24530333333333">
        <ele>236</ele>
        <time>2011-09-29T18:15:33.26</time>
      </trkpt>
      <trkpt lat="32.868265" lon="35.245308333333334">
        <ele>236</ele>
        <time>2011-09-29T18:15:34.26</time>
      </trkpt>
      <trkpt lat="32.868265" lon="35.245313333333335">
        <ele>236.5</ele>
        <time>2011-09-29T18:15:35.26</time>
      </trkpt>
      <trkpt lat="32.868265" lon="35.245325">
        <ele>236.5</ele>
        <time>2011-09-29T18:15:36.26</time>
      </trkpt>
      <trkpt lat="32.86826333333333" lon="35.245331666666665">
        <ele>236</ele>
        <time>2011-09-29T18:15:37.26</time>
      </trkpt>
      <trkpt lat="32.86826333333333" lon="35.245331666666665">
        <ele>235.5</ele>
        <time>2011-09-29T18:15:38.26</time>
      </trkpt>
      <trkpt lat="32.86826" lon="35.24533666666667">
        <ele>235.5</ele>
        <time>2011-09-29T18:15:39.25</time>
      </trkpt>
      <trkpt lat="32.86825833333333" lon="35.24534166666667">
        <ele>235</ele>
        <time>2011-09-29T18:15:40.25</time>
      </trkpt>
      <trkpt lat="32.868265" lon="35.245333333333335">
        <ele>235.5</ele>
        <time>2011-09-29T18:15:41.25</time>
      </trkpt>
      <trkpt lat="32.86826333333333" lon="35.245333333333335">
        <ele>236</ele>
        <time>2011-09-29T18:15:42.26</time>
      </trkpt>
      <trkpt lat="32.86826833333333" lon="35.245326666666664">
        <ele>234.5</ele>
        <time>2011-09-29T18:15:43.26</time>
      </trkpt>
      <trkpt lat="32.86827" lon="35.245325">
        <ele>234.5</ele>
        <time>2011-09-29T18:15:44.26</time>
      </trkpt>
      <trkpt lat="32.868275" lon="35.24532833333333">
        <ele>235</ele>
        <time>2011-09-29T18:15:45.25</time>
      </trkpt>
      <trkpt lat="32.86828166666667" lon="35.24533">
        <ele>235</ele>
        <time>2011-09-29T18:15:46.26</time>
      </trkpt>
      <trkpt lat="32.868285" lon="35.245326666666664">
        <ele>235.5</ele>
        <time>2011-09-29T18:15:47.25</time>
      </trkpt>
      <trkpt lat="32.86828666666667" lon="35.245326666666664">
        <ele>235.5</ele>
        <time>2011-09-29T18:15:48.26</time>
      </trkpt>
      <trkpt lat="32.86829" lon="35.245325">
        <ele>235.5</ele>
        <time>2011-09-29T18:15:49.25</time>
      </trkpt>
      <trkpt lat="32.868296666666666" lon="35.24532333333333">
        <ele>236</ele>
        <time>2011-09-29T18:15:50.25</time>
      </trkpt>
      <trkpt lat="32.868298333333335" lon="35.24532333333333">
        <ele>236</ele>
        <time>2011-09-29T18:15:51.25</time>
      </trkpt>
      <trkpt lat="32.868298333333335" lon="35.24532333333333">
        <ele>236</ele>
        <time>2011-09-29T18:15:52.25</time>
      </trkpt>
      <trkpt lat="32.8683" lon="35.24532833333333">
        <ele>236</ele>
        <time>2011-09-29T18:15:53.25</time>
      </trkpt>
      <trkpt lat="32.868305" lon="35.245331666666665">
        <ele>236</ele>
        <time>2011-09-29T18:15:54.25</time>
      </trkpt>
      <trkpt lat="32.868305" lon="35.245333333333335">
        <ele>236</ele>
        <time>2011-09-29T18:15:55.25</time>
      </trkpt>
      <trkpt lat="32.86830333333333" lon="35.245335">
        <ele>236</ele>
        <time>2011-09-29T18:15:56.25</time>
      </trkpt>
      <trkpt lat="32.868305" lon="35.24533666666667">
        <ele>236</ele>
        <time>2011-09-29T18:15:57.25</time>
      </trkpt>
      <trkpt lat="32.86830666666667" lon="35.24533666666667">
        <ele>236</ele>
        <time>2011-09-29T18:15:58.25</time>
      </trkpt>
      <trkpt lat="32.868305" lon="35.245338333333336">
        <ele>236</ele>
        <time>2011-09-29T18:15:59.24</time>
      </trkpt>
      <trkpt lat="32.868305" lon="35.245338333333336">
        <ele>236</ele>
        <time>2011-09-29T18:16:00.25</time>
      </trkpt>
      <trkpt lat="32.86830166666667" lon="35.24534">
        <ele>236</ele>
        <time>2011-09-29T18:16:01.25</time>
      </trkpt>
      <trkpt lat="32.8683" lon="35.245338333333336">
        <ele>236</ele>
        <time>2011-09-29T18:16:02.25</time>
      </trkpt>
      <trkpt lat="32.868298333333335" lon="35.24534">
        <ele>236</ele>
        <time>2011-09-29T18:16:03.25</time>
      </trkpt>
      <trkpt lat="32.86831333333333" lon="35.245371666666664">
        <ele>236</ele>
        <time>2011-09-29T18:16:05.25</time>
      </trkpt>
      <trkpt lat="32.868323333333336" lon="35.245385">
        <ele>236</ele>
        <time>2011-09-29T18:16:06.25</time>
      </trkpt>
      <trkpt lat="32.86832666666667" lon="35.245385">
        <ele>236</ele>
        <time>2011-09-29T18:16:07.25</time>
      </trkpt>
      <trkpt lat="32.86832833333333" lon="35.24538666666667">
        <ele>236</ele>
        <time>2011-09-29T18:16:08.25</time>
      </trkpt>
      <trkpt lat="32.86833" lon="35.24538833333333">
        <ele>236</ele>
        <time>2011-09-29T18:16:09.25</time>
      </trkpt>
      <trkpt lat="32.86833" lon="35.24538833333333">
        <ele>236</ele>
        <time>2011-09-29T18:16:10.25</time>
      </trkpt>
      <trkpt lat="32.86833" lon="35.24539">
        <ele>236</ele>
        <time>2011-09-29T18:16:11.25</time>
      </trkpt>
      <trkpt lat="32.86833" lon="35.24539333333333">
        <ele>236</ele>
        <time>2011-09-29T18:16:12.25</time>
      </trkpt>
      <trkpt lat="32.86833" lon="35.245398333333334">
        <ele>236</ele>
        <time>2011-09-29T18:16:13.25</time>
      </trkpt>
      <trkpt lat="32.86833" lon="35.24540666666667">
        <ele>236</ele>
        <time>2011-09-29T18:16:14.25</time>
      </trkpt>
      <trkpt lat="32.86828333333333" lon="35.24541166666667">
        <ele>236.5</ele>
        <time>2011-09-29T18:16:16.25</time>
      </trkpt>
      <trkpt lat="32.86828166666667" lon="35.24541166666667">
        <ele>236.5</ele>
        <time>2011-09-29T18:16:17.25</time>
      </trkpt>
      <trkpt lat="32.86827666666667" lon="35.24541333333333">
        <ele>236.5</ele>
        <time>2011-09-29T18:16:18.25</time>
      </trkpt>
      <trkpt lat="32.868273333333335" lon="35.24541833333333">
        <ele>236.5</ele>
        <time>2011-09-29T18:16:19.25</time>
      </trkpt>
      <trkpt lat="32.86827" lon="35.24542">
        <ele>236.5</ele>
        <time>2011-09-29T18:16:20.25</time>
      </trkpt>
      <trkpt lat="32.86826666666666" lon="35.24542833333334">
        <ele>235.5</ele>
        <time>2011-09-29T18:16:21.25</time>
      </trkpt>
      <trkpt lat="32.86826666666666" lon="35.24543333333333">
        <ele>235.5</ele>
        <time>2011-09-29T18:16:22.25</time>
      </trkpt>
      <trkpt lat="32.86826666666666" lon="35.24542833333334">
        <ele>235.5</ele>
        <time>2011-09-29T18:16:23.25</time>
      </trkpt>
      <trkpt lat="32.868271666666665" lon="35.245435">
        <ele>235</ele>
        <time>2011-09-29T18:16:24.25</time>
      </trkpt>
      <trkpt lat="32.86827666666667" lon="35.24543666666667">
        <ele>235.5</ele>
        <time>2011-09-29T18:16:25.25</time>
      </trkpt>
      <trkpt lat="32.868278333333336" lon="35.24542666666667">
        <ele>236</ele>
        <time>2011-09-29T18:16:26.24</time>
      </trkpt>
      <trkpt lat="32.86828333333333" lon="35.245421666666665">
        <ele>236</ele>
        <time>2011-09-29T18:16:27.25</time>
      </trkpt>
      <trkpt lat="32.86828" lon="35.24540666666667">
        <ele>236.5</ele>
        <time>2011-09-29T18:16:28.25</time>
      </trkpt>
      <trkpt lat="32.86828166666667" lon="35.245403333333336">
        <ele>236.5</ele>
        <time>2011-09-29T18:16:29.24</time>
      </trkpt>
      <trkpt lat="32.86828166666667" lon="35.245398333333334">
        <ele>236.5</ele>
        <time>2011-09-29T18:16:30.25</time>
      </trkpt>
      <trkpt lat="32.86828166666667" lon="35.24538833333333">
        <ele>236.5</ele>
        <time>2011-09-29T18:16:31.24</time>
      </trkpt>
      <trkpt lat="32.86828166666667" lon="35.245383333333336">
        <ele>237</ele>
        <time>2011-09-29T18:16:32.25</time>
      </trkpt>
      <trkpt lat="32.86828" lon="35.24538166666667">
        <ele>237</ele>
        <time>2011-09-29T18:16:33.25</time>
      </trkpt>
      <trkpt lat="32.86827666666667" lon="35.245378333333335">
        <ele>237.5</ele>
        <time>2011-09-29T18:16:34.24</time>
      </trkpt>
      <trkpt lat="32.868278333333336" lon="35.24537333333333">
        <ele>238</ele>
        <time>2011-09-29T18:16:35.24</time>
      </trkpt>
      <trkpt lat="32.86828833333333" lon="35.24536833333333">
        <ele>239.5</ele>
        <time>2011-09-29T18:16:36.24</time>
      </trkpt>
      <trkpt lat="32.868293333333334" lon="35.245365">
        <ele>240.5</ele>
        <time>2011-09-29T18:16:37.24</time>
      </trkpt>
      <trkpt lat="32.868296666666666" lon="35.24536">
        <ele>242</ele>
        <time>2011-09-29T18:16:38.24</time>
      </trkpt>
      <trkpt lat="32.86830666666667" lon="35.245365">
        <ele>242</ele>
        <time>2011-09-29T18:16:39.24</time>
      </trkpt>
      <trkpt lat="32.86830166666667" lon="35.245358333333336">
        <ele>242.5</ele>
        <time>2011-09-29T18:16:40.24</time>
      </trkpt>
      <trkpt lat="32.868296666666666" lon="35.245355">
        <ele>242.5</ele>
        <time>2011-09-29T18:16:41.24</time>
      </trkpt>
      <trkpt lat="32.868291666666664" lon="35.245345">
        <ele>243</ele>
        <time>2011-09-29T18:16:42.24</time>
      </trkpt>
      <trkpt lat="32.86829" lon="35.245335">
        <ele>244.5</ele>
        <time>2011-09-29T18:16:43.24</time>
      </trkpt>
      <trkpt lat="32.86828833333333" lon="35.24532166666667">
        <ele>245</ele>
        <time>2011-09-29T18:16:44.24</time>
      </trkpt>
      <trkpt lat="32.868285" lon="35.245308333333334">
        <ele>245.5</ele>
        <time>2011-09-29T18:16:45.24</time>
      </trkpt>
      <trkpt lat="32.86828166666667" lon="35.245293333333336">
        <ele>246</ele>
        <time>2011-09-29T18:16:46.24</time>
      </trkpt>
      <trkpt lat="32.868275" lon="35.24527333333333">
        <ele>246</ele>
        <time>2011-09-29T18:16:47.24</time>
      </trkpt>
      <trkpt lat="32.86827" lon="35.24529666666667">
        <ele>244</ele>
        <time>2011-09-29T18:16:48.24</time>
      </trkpt>
      <trkpt lat="32.86826666666666" lon="35.245295">
        <ele>244</ele>
        <time>2011-09-29T18:16:49.24</time>
      </trkpt>
      <trkpt lat="32.86826833333333" lon="35.24529666666667">
        <ele>244</ele>
        <time>2011-09-29T18:16:50.24</time>
      </trkpt>
      <trkpt lat="32.86827" lon="35.24529833333333">
        <ele>244</ele>
        <time>2011-09-29T18:16:51.23</time>
      </trkpt>
      <trkpt lat="32.86826833333333" lon="35.245306666666664">
        <ele>244.5</ele>
        <time>2011-09-29T18:16:52.23</time>
      </trkpt>
      <trkpt lat="32.86826333333333" lon="35.24531">
        <ele>244.5</ele>
        <time>2011-09-29T18:16:53.23</time>
      </trkpt>
      <trkpt lat="32.86826166666667" lon="35.245305">
        <ele>244.5</ele>
        <time>2011-09-29T18:16:54.24</time>
      </trkpt>
      <trkpt lat="32.86827" lon="35.2453">
        <ele>244.5</ele>
        <time>2011-09-29T18:16:55.24</time>
      </trkpt>
      <trkpt lat="32.868271666666665" lon="35.24529666666667">
        <ele>244.5</ele>
        <time>2011-09-29T18:16:56.24</time>
      </trkpt>
      <trkpt lat="32.868275" lon="35.245286666666665">
        <ele>245.5</ele>
        <time>2011-09-29T18:16:57.23</time>
      </trkpt>
      <trkpt lat="32.868278333333336" lon="35.245285">
        <ele>245.5</ele>
        <time>2011-09-29T18:16:58.23</time>
      </trkpt>
      <trkpt lat="32.868278333333336" lon="35.24527833333333">
        <ele>245.5</ele>
        <time>2011-09-29T18:16:59.24</time>
      </trkpt>
      <trkpt lat="32.86826666666666" lon="35.24527333333333">
        <ele>246</ele>
        <time>2011-09-29T18:17:00.24</time>
      </trkpt>
      <trkpt lat="32.86826" lon="35.245265">
        <ele>246.5</ele>
        <time>2011-09-29T18:17:01.23</time>
      </trkpt>
      <trkpt lat="32.868253333333335" lon="35.245263333333334">
        <ele>247</ele>
        <time>2011-09-29T18:17:02.23</time>
      </trkpt>
      <trkpt lat="32.868245" lon="35.24525166666667">
        <ele>247.5</ele>
        <time>2011-09-29T18:17:03.23</time>
      </trkpt>
      <trkpt lat="32.86824" lon="35.24524">
        <ele>248</ele>
        <time>2011-09-29T18:17:04.23</time>
      </trkpt>
      <trkpt lat="32.868233333333336" lon="35.24523166666667">
        <ele>248</ele>
        <time>2011-09-29T18:17:05.23</time>
      </trkpt>
      <trkpt lat="32.868235" lon="35.24522666666667">
        <ele>248.5</ele>
        <time>2011-09-29T18:17:06.23</time>
      </trkpt>
      <trkpt lat="32.868235" lon="35.245223333333335">
        <ele>249</ele>
        <time>2011-09-29T18:17:07.23</time>
      </trkpt>
      <trkpt lat="32.868245" lon="35.24521166666667">
        <ele>248.5</ele>
        <time>2011-09-29T18:17:08.23</time>
      </trkpt>
      <trkpt lat="32.868298333333335" lon="35.245216666666664">
        <ele>249</ele>
        <time>2011-09-29T18:17:10.23</time>
      </trkpt>
      <trkpt lat="32.86831" lon="35.24521333333333">
        <ele>248.5</ele>
        <time>2011-09-29T18:17:11.23</time>
      </trkpt>
      <trkpt lat="32.86831333333333" lon="35.24520833333333">
        <ele>248.5</ele>
        <time>2011-09-29T18:17:12.23</time>
      </trkpt>
      <trkpt lat="32.868316666666665" lon="35.24519">
        <ele>248</ele>
        <time>2011-09-29T18:17:13.23</time>
      </trkpt>
      <trkpt lat="32.868316666666665" lon="35.24518166666667">
        <ele>248</ele>
        <time>2011-09-29T18:17:14.23</time>
      </trkpt>
      <trkpt lat="32.868316666666665" lon="35.24518">
        <ele>248</ele>
        <time>2011-09-29T18:17:15.23</time>
      </trkpt>
      <trkpt lat="32.868323333333336" lon="35.24519166666666">
        <ele>248.5</ele>
        <time>2011-09-29T18:17:16.23</time>
      </trkpt>
      <trkpt lat="32.868323333333336" lon="35.24520833333333">
        <ele>248</ele>
        <time>2011-09-29T18:17:17.22</time>
      </trkpt>
      <trkpt lat="32.86832166666667" lon="35.245223333333335">
        <ele>247</ele>
        <time>2011-09-29T18:17:18.22</time>
      </trkpt>
      <trkpt lat="32.86833333333333" lon="35.24523666666666">
        <ele>247.5</ele>
        <time>2011-09-29T18:17:19.23</time>
      </trkpt>
      <trkpt lat="32.86833333333333" lon="35.24525666666667">
        <ele>247.5</ele>
        <time>2011-09-29T18:17:20.23</time>
      </trkpt>
      <trkpt lat="32.868325" lon="35.245345">
        <ele>246</ele>
        <time>2011-09-29T18:17:22.23</time>
      </trkpt>
      <trkpt lat="32.868325" lon="35.24535">
        <ele>246</ele>
        <time>2011-09-29T18:17:23.23</time>
      </trkpt>
      <trkpt lat="32.868325" lon="35.245365">
        <ele>246</ele>
        <time>2011-09-29T18:17:24.23</time>
      </trkpt>
      <trkpt lat="32.86832" lon="35.245385">
        <ele>244.5</ele>
        <time>2011-09-29T18:17:25.24</time>
      </trkpt>
      <trkpt lat="32.868318333333335" lon="35.245396666666664">
        <ele>244.5</ele>
        <time>2011-09-29T18:17:26.23</time>
      </trkpt>
      <trkpt lat="32.868315" lon="35.24540666666667">
        <ele>244</ele>
        <time>2011-09-29T18:17:27.23</time>
      </trkpt>
      <trkpt lat="32.86831" lon="35.24541333333333">
        <ele>244</ele>
        <time>2011-09-29T18:17:28.23</time>
      </trkpt>
      <trkpt lat="32.86831166666666" lon="35.245415">
        <ele>244</ele>
        <time>2011-09-29T18:17:29.23</time>
      </trkpt>
      <trkpt lat="32.86830666666667" lon="35.245405">
        <ele>243.5</ele>
        <time>2011-09-29T18:17:30.23</time>
      </trkpt>
      <trkpt lat="32.86830666666667" lon="35.245395">
        <ele>243</ele>
        <time>2011-09-29T18:17:31.23</time>
      </trkpt>
      <trkpt lat="32.86830833333333" lon="35.24538666666667">
        <ele>242</ele>
        <time>2011-09-29T18:17:32.23</time>
      </trkpt>
      <trkpt lat="32.86830833333333" lon="35.245375">
        <ele>241</ele>
        <time>2011-09-29T18:17:33.23</time>
      </trkpt>
      <trkpt lat="32.86830666666667" lon="35.24534166666667">
        <ele>240.5</ele>
        <time>2011-09-29T18:17:35.23</time>
      </trkpt>
      <trkpt lat="32.86831166666666" lon="35.245333333333335">
        <ele>240.5</ele>
        <time>2011-09-29T18:17:36.23</time>
      </trkpt>
      <trkpt lat="32.86831333333333" lon="35.245331666666665">
        <ele>240.5</ele>
        <time>2011-09-29T18:17:37.23</time>
      </trkpt>
      <trkpt lat="32.868315" lon="35.245325">
        <ele>240</ele>
        <time>2011-09-29T18:17:38.23</time>
      </trkpt>
      <trkpt lat="32.86831" lon="35.24531666666667">
        <ele>240</ele>
        <time>2011-09-29T18:17:39.23</time>
      </trkpt>
      <trkpt lat="32.86830666666667" lon="35.245311666666666">
        <ele>239</ele>
        <time>2011-09-29T18:17:40.23</time>
      </trkpt>
      <trkpt lat="32.86830666666667" lon="35.245306666666664">
        <ele>238</ele>
        <time>2011-09-29T18:17:41.23</time>
      </trkpt>
      <trkpt lat="32.86831166666666" lon="35.245275">
        <ele>238.5</ele>
        <time>2011-09-29T18:17:44.23</time>
      </trkpt>
      <trkpt lat="32.868318333333335" lon="35.24528">
        <ele>238</ele>
        <time>2011-09-29T18:17:45.23</time>
      </trkpt>
      <trkpt lat="32.868316666666665" lon="35.245275">
        <ele>238</ele>
        <time>2011-09-29T18:17:46.23</time>
      </trkpt>
      <trkpt lat="32.868316666666665" lon="35.245275">
        <ele>238</ele>
        <time>2011-09-29T18:17:47.23</time>
      </trkpt>
      <trkpt lat="32.86832" lon="35.24527833333333">
        <ele>237.5</ele>
        <time>2011-09-29T18:17:48.23</time>
      </trkpt>
      <trkpt lat="32.868323333333336" lon="35.24528166666666">
        <ele>237.5</ele>
        <time>2011-09-29T18:17:49.22</time>
      </trkpt>
      <trkpt lat="32.868323333333336" lon="35.24528333333333">
        <ele>237.5</ele>
        <time>2011-09-29T18:17:50.22</time>
      </trkpt>
      <trkpt lat="32.86832666666667" lon="35.245286666666665">
        <ele>237.5</ele>
        <time>2011-09-29T18:17:51.22</time>
      </trkpt>
      <trkpt lat="32.86832666666667" lon="35.245288333333335">
        <ele>237.5</ele>
        <time>2011-09-29T18:17:52.23</time>
      </trkpt>
      <trkpt lat="32.868325" lon="35.24529666666667">
        <ele>236.5</ele>
        <time>2011-09-29T18:17:53.22</time>
      </trkpt>
      <trkpt lat="32.86832166666667" lon="35.24529666666667">
        <ele>236.5</ele>
        <time>2011-09-29T18:17:54.22</time>
      </trkpt>
      <trkpt lat="32.868325" lon="35.245306666666664">
        <ele>236</ele>
        <time>2011-09-29T18:17:55.22</time>
      </trkpt>
      <trkpt lat="32.868323333333336" lon="35.245308333333334">
        <ele>236</ele>
        <time>2011-09-29T18:17:56.22</time>
      </trkpt>
      <trkpt lat="32.868323333333336" lon="35.245306666666664">
        <ele>235.5</ele>
        <time>2011-09-29T18:17:57.22</time>
      </trkpt>
      <trkpt lat="32.868325" lon="35.245308333333334">
        <ele>235.5</ele>
        <time>2011-09-29T18:17:58.22</time>
      </trkpt>
      <trkpt lat="32.868316666666665" lon="35.24529833333333">
        <ele>235.5</ele>
        <time>2011-09-29T18:17:59.22</time>
      </trkpt>
      <trkpt lat="32.868315" lon="35.245293333333336">
        <ele>235.5</ele>
        <time>2011-09-29T18:18:00.22</time>
      </trkpt>
      <trkpt lat="32.868316666666665" lon="35.245293333333336">
        <ele>235.5</ele>
        <time>2011-09-29T18:18:01.23</time>
      </trkpt>
      <trkpt lat="32.868316666666665" lon="35.245285">
        <ele>236.5</ele>
        <time>2011-09-29T18:18:02.22</time>
      </trkpt>
      <trkpt lat="32.868316666666665" lon="35.24529166666667">
        <ele>236.5</ele>
        <time>2011-09-29T18:18:03.22</time>
      </trkpt>
      <trkpt lat="32.86832" lon="35.24529833333333">
        <ele>236</ele>
        <time>2011-09-29T18:18:04.22</time>
      </trkpt>
      <trkpt lat="32.868323333333336" lon="35.24530166666667">
        <ele>236</ele>
        <time>2011-09-29T18:18:05.22</time>
      </trkpt>
      <trkpt lat="32.86832" lon="35.245308333333334">
        <ele>236</ele>
        <time>2011-09-29T18:18:06.22</time>
      </trkpt>
      <trkpt lat="32.868318333333335" lon="35.245305">
        <ele>236</ele>
        <time>2011-09-29T18:18:07.22</time>
      </trkpt>
      <trkpt lat="32.86831166666666" lon="35.24529833333333">
        <ele>236</ele>
        <time>2011-09-29T18:18:08.22</time>
      </trkpt>
      <trkpt lat="32.868315" lon="35.245308333333334">
        <ele>235.5</ele>
        <time>2011-09-29T18:18:09.22</time>
      </trkpt>
      <trkpt lat="32.868336666666664" lon="35.24534">
        <ele>235</ele>
        <time>2011-09-29T18:18:11.23</time>
      </trkpt>
      <trkpt lat="32.86832833333333" lon="35.24534666666667">
        <ele>234</ele>
        <time>2011-09-29T18:18:12.22</time>
      </trkpt>
      <trkpt lat="32.86832666666667" lon="35.24534333333333">
        <ele>234</ele>
        <time>2011-09-29T18:18:13.22</time>
      </trkpt>
      <trkpt lat="32.868325" lon="35.24534">
        <ele>233.5</ele>
        <time>2011-09-29T18:18:14.22</time>
      </trkpt>
      <trkpt lat="32.868325" lon="35.245338333333336">
        <ele>233</ele>
        <time>2011-09-29T18:18:15.22</time>
      </trkpt>
      <trkpt lat="32.86832666666667" lon="35.24533666666667">
        <ele>233</ele>
        <time>2011-09-29T18:18:16.22</time>
      </trkpt>
      <trkpt lat="32.86832666666667" lon="35.24533666666667">
        <ele>233</ele>
        <time>2011-09-29T18:18:17.22</time>
      </trkpt>
      <trkpt lat="32.86832833333333" lon="35.245335">
        <ele>233</ele>
        <time>2011-09-29T18:18:18.22</time>
      </trkpt>
      <trkpt lat="32.86832833333333" lon="35.245331666666665">
        <ele>233</ele>
        <time>2011-09-29T18:18:19.22</time>
      </trkpt>
      <trkpt lat="32.86832833333333" lon="35.245331666666665">
        <ele>233</ele>
        <time>2011-09-29T18:18:20.22</time>
      </trkpt>
      <trkpt lat="32.86833" lon="35.24533">
        <ele>233</ele>
        <time>2011-09-29T18:18:21.21</time>
      </trkpt>
      <trkpt lat="32.86833" lon="35.245325">
        <ele>233</ele>
        <time>2011-09-29T18:18:22.22</time>
      </trkpt>
      <trkpt lat="32.86832666666667" lon="35.24531666666667">
        <ele>231.5</ele>
        <time>2011-09-29T18:18:23.22</time>
      </trkpt>
      <trkpt lat="32.86832666666667" lon="35.24531666666667">
        <ele>231</ele>
        <time>2011-09-29T18:18:24.22</time>
      </trkpt>
      <trkpt lat="32.86832666666667" lon="35.24531833333333">
        <ele>231</ele>
        <time>2011-09-29T18:18:25.22</time>
      </trkpt>
      <trkpt lat="32.868336666666664" lon="35.24532166666667">
        <ele>230.5</ele>
        <time>2011-09-29T18:18:26.22</time>
      </trkpt>
      <trkpt lat="32.868336666666664" lon="35.24531">
        <ele>230.5</ele>
        <time>2011-09-29T18:18:27.22</time>
      </trkpt>
      <trkpt lat="32.86833333333333" lon="35.245311666666666">
        <ele>230.5</ele>
        <time>2011-09-29T18:18:28.21</time>
      </trkpt>
      <trkpt lat="32.868335" lon="35.245308333333334">
        <ele>231</ele>
        <time>2011-09-29T18:18:29.21</time>
      </trkpt>
      <trkpt lat="32.868335" lon="35.245306666666664">
        <ele>230.5</ele>
        <time>2011-09-29T18:18:30.21</time>
      </trkpt>
      <trkpt lat="32.868338333333334" lon="35.245306666666664">
        <ele>230.5</ele>
        <time>2011-09-29T18:18:31.21</time>
      </trkpt>
      <trkpt lat="32.868343333333335" lon="35.245308333333334">
        <ele>230</ele>
        <time>2011-09-29T18:18:32.21</time>
      </trkpt>
      <trkpt lat="32.868345" lon="35.245313333333335">
        <ele>230</ele>
        <time>2011-09-29T18:18:33.21</time>
      </trkpt>
      <trkpt lat="32.86834666666667" lon="35.24531">
        <ele>230</ele>
        <time>2011-09-29T18:18:34.22</time>
      </trkpt>
      <trkpt lat="32.86834666666667" lon="35.245306666666664">
        <ele>230</ele>
        <time>2011-09-29T18:18:35.21</time>
      </trkpt>
      <trkpt lat="32.86834833333333" lon="35.2453">
        <ele>230</ele>
        <time>2011-09-29T18:18:36.21</time>
      </trkpt>
      <trkpt lat="32.86835" lon="35.24529666666667">
        <ele>230.5</ele>
        <time>2011-09-29T18:18:37.22</time>
      </trkpt>
      <trkpt lat="32.86835" lon="35.24529166666667">
        <ele>230.5</ele>
        <time>2011-09-29T18:18:38.21</time>
      </trkpt>
      <trkpt lat="32.86835" lon="35.245286666666665">
        <ele>230.5</ele>
        <time>2011-09-29T18:18:39.22</time>
      </trkpt>
      <trkpt lat="32.86835166666667" lon="35.245285">
        <ele>231</ele>
        <time>2011-09-29T18:18:40.22</time>
      </trkpt>
      <trkpt lat="32.86835166666667" lon="35.245285">
        <ele>231</ele>
        <time>2011-09-29T18:18:41.21</time>
      </trkpt>
      <trkpt lat="32.86836" lon="35.24522833333333">
        <ele>233</ele>
        <time>2011-09-29T18:18:43.21</time>
      </trkpt>
      <trkpt lat="32.86835833333333" lon="35.24522666666667">
        <ele>232.5</ele>
        <time>2011-09-29T18:18:44.21</time>
      </trkpt>
      <trkpt lat="32.86835833333333" lon="35.24522833333333">
        <ele>232.5</ele>
        <time>2011-09-29T18:18:45.21</time>
      </trkpt>
      <trkpt lat="32.86835833333333" lon="35.24522833333333">
        <ele>232.5</ele>
        <time>2011-09-29T18:18:46.21</time>
      </trkpt>
      <trkpt lat="32.86835833333333" lon="35.24522833333333">
        <ele>233</ele>
        <time>2011-09-29T18:18:47.21</time>
      </trkpt>
      <trkpt lat="32.86835833333333" lon="35.24522666666667">
        <ele>233</ele>
        <time>2011-09-29T18:18:48.21</time>
      </trkpt>
      <trkpt lat="32.86836" lon="35.24522833333333">
        <ele>233</ele>
        <time>2011-09-29T18:18:49.21</time>
      </trkpt>
      <trkpt lat="32.868361666666665" lon="35.24522833333333">
        <ele>233.5</ele>
        <time>2011-09-29T18:18:50.21</time>
      </trkpt>
      <trkpt lat="32.86836666666667" lon="35.245225">
        <ele>234</ele>
        <time>2011-09-29T18:18:51.21</time>
      </trkpt>
      <trkpt lat="32.868365" lon="35.24522666666667">
        <ele>234.5</ele>
        <time>2011-09-29T18:18:52.21</time>
      </trkpt>
      <trkpt lat="32.868363333333335" lon="35.24522666666667">
        <ele>235</ele>
        <time>2011-09-29T18:18:53.21</time>
      </trkpt>
      <trkpt lat="32.868361666666665" lon="35.24523">
        <ele>235.5</ele>
        <time>2011-09-29T18:18:54.21</time>
      </trkpt>
      <trkpt lat="32.868361666666665" lon="35.24522833333333">
        <ele>236.5</ele>
        <time>2011-09-29T18:18:55.21</time>
      </trkpt>
      <trkpt lat="32.86835833333333" lon="35.24523166666667">
        <ele>236</ele>
        <time>2011-09-29T18:18:56.21</time>
      </trkpt>
      <trkpt lat="32.86835333333333" lon="35.245245">
        <ele>236</ele>
        <time>2011-09-29T18:18:57.21</time>
      </trkpt>
      <trkpt lat="32.86834666666667" lon="35.24525833333333">
        <ele>236.5</ele>
        <time>2011-09-29T18:18:58.21</time>
      </trkpt>
      <trkpt lat="32.868338333333334" lon="35.245275">
        <ele>236.5</ele>
        <time>2011-09-29T18:18:59.21</time>
      </trkpt>
      <trkpt lat="32.86832166666667" lon="35.24529666666667">
        <ele>236.5</ele>
        <time>2011-09-29T18:19:01.21</time>
      </trkpt>
      <trkpt lat="32.868315" lon="35.2453">
        <ele>237</ele>
        <time>2011-09-29T18:19:02.20</time>
      </trkpt>
      <trkpt lat="32.86831333333333" lon="35.24529">
        <ele>238.5</ele>
        <time>2011-09-29T18:19:03.21</time>
      </trkpt>
      <trkpt lat="32.868316666666665" lon="35.24528">
        <ele>240.5</ele>
        <time>2011-09-29T18:19:04.21</time>
      </trkpt>
      <trkpt lat="32.868315" lon="35.24527166666667">
        <ele>241.5</ele>
        <time>2011-09-29T18:19:05.21</time>
      </trkpt>
      <trkpt lat="32.86831333333333" lon="35.24527">
        <ele>241.5</ele>
        <time>2011-09-29T18:19:06.21</time>
      </trkpt>
      <trkpt lat="32.868315" lon="35.245255">
        <ele>242</ele>
        <time>2011-09-29T18:19:07.21</time>
      </trkpt>
      <trkpt lat="32.86831333333333" lon="35.245243333333335">
        <ele>243</ele>
        <time>2011-09-29T18:19:08.21</time>
      </trkpt>
      <trkpt lat="32.86831166666666" lon="35.245241666666665">
        <ele>243</ele>
        <time>2011-09-29T18:19:09.21</time>
      </trkpt>
      <trkpt lat="32.86831333333333" lon="35.24523">
        <ele>244</ele>
        <time>2011-09-29T18:19:10.21</time>
      </trkpt>
      <trkpt lat="32.86831166666666" lon="35.24522833333333">
        <ele>244</ele>
        <time>2011-09-29T18:19:11.21</time>
      </trkpt>
      <trkpt lat="32.868305" lon="35.245235">
        <ele>244</ele>
        <time>2011-09-29T18:19:12.21</time>
      </trkpt>
      <trkpt lat="32.86830333333333" lon="35.245235">
        <ele>244</ele>
        <time>2011-09-29T18:19:13.20</time>
      </trkpt>
      <trkpt lat="32.86830166666667" lon="35.245225">
        <ele>244.5</ele>
        <time>2011-09-29T18:19:14.20</time>
      </trkpt>
      <trkpt lat="32.8683" lon="35.245218333333334">
        <ele>244.5</ele>
        <time>2011-09-29T18:19:15.20</time>
      </trkpt>
      <trkpt lat="32.868296666666666" lon="35.24522">
        <ele>244.5</ele>
        <time>2011-09-29T18:19:16.20</time>
      </trkpt>
      <trkpt lat="32.868296666666666" lon="35.245218333333334">
        <ele>244.5</ele>
        <time>2011-09-29T18:19:17.21</time>
      </trkpt>
      <trkpt lat="32.868291666666664" lon="35.245223333333335">
        <ele>244</ele>
        <time>2011-09-29T18:19:18.20</time>
      </trkpt>
      <trkpt lat="32.86828833333333" lon="35.24523666666666">
        <ele>244</ele>
        <time>2011-09-29T18:19:19.20</time>
      </trkpt>
      <trkpt lat="32.86828166666667" lon="35.245243333333335">
        <ele>244.5</ele>
        <time>2011-09-29T18:19:20.20</time>
      </trkpt>
      <trkpt lat="32.86827666666667" lon="35.24525">
        <ele>244.5</ele>
        <time>2011-09-29T18:19:21.20</time>
      </trkpt>
      <trkpt lat="32.868273333333335" lon="35.24524">
        <ele>244.5</ele>
        <time>2011-09-29T18:19:22.21</time>
      </trkpt>
      <trkpt lat="32.868271666666665" lon="35.24523333333333">
        <ele>244.5</ele>
        <time>2011-09-29T18:19:23.20</time>
      </trkpt>
      <trkpt lat="32.86827666666667" lon="35.24522666666667">
        <ele>246</ele>
        <time>2011-09-29T18:19:24.20</time>
      </trkpt>
      <trkpt lat="32.86828" lon="35.245223333333335">
        <ele>245.5</ele>
        <time>2011-09-29T18:19:25.21</time>
      </trkpt>
      <trkpt lat="32.86828333333333" lon="35.24523166666667">
        <ele>245.5</ele>
        <time>2011-09-29T18:19:26.21</time>
      </trkpt>
      <trkpt lat="32.86828333333333" lon="35.24523">
        <ele>245.5</ele>
        <time>2011-09-29T18:19:27.20</time>
      </trkpt>
      <trkpt lat="32.86828" lon="35.245225">
        <ele>244</ele>
        <time>2011-09-29T18:19:28.20</time>
      </trkpt>
      <trkpt lat="32.86828166666667" lon="35.245218333333334">
        <ele>244</ele>
        <time>2011-09-29T18:19:29.20</time>
      </trkpt>
      <trkpt lat="32.86828" lon="35.2452">
        <ele>244</ele>
        <time>2011-09-29T18:19:30.20</time>
      </trkpt>
      <trkpt lat="32.86828166666667" lon="35.245195">
        <ele>244</ele>
        <time>2011-09-29T18:19:31.20</time>
      </trkpt>
      <trkpt lat="32.868285" lon="35.2452">
        <ele>242.5</ele>
        <time>2011-09-29T18:19:32.20</time>
      </trkpt>
      <trkpt lat="32.86828333333333" lon="35.24520166666667">
        <ele>241.5</ele>
        <time>2011-09-29T18:19:33.20</time>
      </trkpt>
      <trkpt lat="32.86829" lon="35.245203333333336">
        <ele>241</ele>
        <time>2011-09-29T18:19:34.20</time>
      </trkpt>
      <trkpt lat="32.86829" lon="35.245205">
        <ele>240</ele>
        <time>2011-09-29T18:19:35.20</time>
      </trkpt>
      <trkpt lat="32.86829" lon="35.24520166666667">
        <ele>240</ele>
        <time>2011-09-29T18:19:36.20</time>
      </trkpt>
      <trkpt lat="32.868291666666664" lon="35.245198333333335">
        <ele>240.5</ele>
        <time>2011-09-29T18:19:37.20</time>
      </trkpt>
      <trkpt lat="32.8683" lon="35.24521">
        <ele>240.5</ele>
        <time>2011-09-29T18:19:38.20</time>
      </trkpt>
      <trkpt lat="32.86830666666667" lon="35.24522">
        <ele>241</ele>
        <time>2011-09-29T18:19:39.20</time>
      </trkpt>
      <trkpt lat="32.86831166666666" lon="35.24522666666667">
        <ele>241.5</ele>
        <time>2011-09-29T18:19:40.20</time>
      </trkpt>
      <trkpt lat="32.868315" lon="35.245235">
        <ele>241.5</ele>
        <time>2011-09-29T18:19:41.20</time>
      </trkpt>
      <trkpt lat="32.868316666666665" lon="35.24523666666666">
        <ele>241</ele>
        <time>2011-09-29T18:19:42.20</time>
      </trkpt>
      <trkpt lat="32.868318333333335" lon="35.245243333333335">
        <ele>240.5</ele>
        <time>2011-09-29T18:19:43.20</time>
      </trkpt>
      <trkpt lat="32.868325" lon="35.24525666666667">
        <ele>241</ele>
        <time>2011-09-29T18:19:44.20</time>
      </trkpt>
      <trkpt lat="32.868343333333335" lon="35.24532333333333">
        <ele>239.5</ele>
        <time>2011-09-29T18:19:46.20</time>
      </trkpt>
      <trkpt lat="32.86835333333333" lon="35.24534333333333">
        <ele>239.5</ele>
        <time>2011-09-29T18:19:47.20</time>
      </trkpt>
      <trkpt lat="32.86836" lon="35.245375">
        <ele>238.5</ele>
        <time>2011-09-29T18:19:49.20</time>
      </trkpt>
      <trkpt lat="32.868375" lon="35.24540833333333">
        <ele>238.5</ele>
        <time>2011-09-29T18:19:51.20</time>
      </trkpt>
      <trkpt lat="32.868375" lon="35.245403333333336">
        <ele>239</ele>
        <time>2011-09-29T18:19:52.20</time>
      </trkpt>
      <trkpt lat="32.86837833333333" lon="35.24541166666667">
        <ele>239</ele>
        <time>2011-09-29T18:19:53.20</time>
      </trkpt>
      <trkpt lat="32.86838" lon="35.24541833333333">
        <ele>238.5</ele>
        <time>2011-09-29T18:19:54.20</time>
      </trkpt>
      <trkpt lat="32.86836666666667" lon="35.245398333333334">
        <ele>237.5</ele>
        <time>2011-09-29T18:19:56.20</time>
      </trkpt>
      <trkpt lat="32.86835833333333" lon="35.24541166666667">
        <ele>237</ele>
        <time>2011-09-29T18:19:57.20</time>
      </trkpt>
      <trkpt lat="32.868355" lon="35.24540666666667">
        <ele>237</ele>
        <time>2011-09-29T18:19:58.20</time>
      </trkpt>
      <trkpt lat="32.868336666666664" lon="35.24538">
        <ele>236.5</ele>
        <time>2011-09-29T18:20:00.20</time>
      </trkpt>
      <trkpt lat="32.868343333333335" lon="35.24538666666667">
        <ele>236</ele>
        <time>2011-09-29T18:20:01.19</time>
      </trkpt>
      <trkpt lat="32.868336666666664" lon="35.24539333333333">
        <ele>235.5</ele>
        <time>2011-09-29T18:20:02.20</time>
      </trkpt>
      <trkpt lat="32.86832666666667" lon="35.24538833333333">
        <ele>236</ele>
        <time>2011-09-29T18:20:03.20</time>
      </trkpt>
      <trkpt lat="32.86832" lon="35.24538">
        <ele>235.5</ele>
        <time>2011-09-29T18:20:04.19</time>
      </trkpt>
      <trkpt lat="32.868316666666665" lon="35.245365">
        <ele>236.5</ele>
        <time>2011-09-29T18:20:05.19</time>
      </trkpt>
      <trkpt lat="32.86831166666666" lon="35.245285">
        <ele>242</ele>
        <time>2011-09-29T18:20:07.19</time>
      </trkpt>
      <trkpt lat="32.86831" lon="35.24527833333333">
        <ele>242.5</ele>
        <time>2011-09-29T18:20:08.19</time>
      </trkpt>
      <trkpt lat="32.86830833333333" lon="35.245265">
        <ele>243.5</ele>
        <time>2011-09-29T18:20:09.19</time>
      </trkpt>
      <trkpt lat="32.868305" lon="35.24525333333333">
        <ele>242.5</ele>
        <time>2011-09-29T18:20:10.19</time>
      </trkpt>
      <trkpt lat="32.86830166666667" lon="35.245248333333336">
        <ele>242.5</ele>
        <time>2011-09-29T18:20:11.19</time>
      </trkpt>
      <trkpt lat="32.8683" lon="35.24525">
        <ele>241.5</ele>
        <time>2011-09-29T18:20:12.19</time>
      </trkpt>
      <trkpt lat="32.86830166666667" lon="35.24525333333333">
        <ele>242</ele>
        <time>2011-09-29T18:20:13.19</time>
      </trkpt>
      <trkpt lat="32.86830333333333" lon="35.24526">
        <ele>240</ele>
        <time>2011-09-29T18:20:14.19</time>
      </trkpt>
      <trkpt lat="32.868305" lon="35.24525833333333">
        <ele>240</ele>
        <time>2011-09-29T18:20:15.19</time>
      </trkpt>
      <trkpt lat="32.868305" lon="35.245261666666664">
        <ele>240</ele>
        <time>2011-09-29T18:20:16.19</time>
      </trkpt>
      <trkpt lat="32.868305" lon="35.245268333333335">
        <ele>239</ele>
        <time>2011-09-29T18:20:17.19</time>
      </trkpt>
      <trkpt lat="32.86830166666667" lon="35.245275">
        <ele>238</ele>
        <time>2011-09-29T18:20:18.19</time>
      </trkpt>
      <trkpt lat="32.8683" lon="35.24527333333333">
        <ele>237.5</ele>
        <time>2011-09-29T18:20:19.19</time>
      </trkpt>
      <trkpt lat="32.868296666666666" lon="35.24527333333333">
        <ele>236.5</ele>
        <time>2011-09-29T18:20:20.19</time>
      </trkpt>
      <trkpt lat="32.868295" lon="35.24527333333333">
        <ele>236</ele>
        <time>2011-09-29T18:20:21.19</time>
      </trkpt>
      <trkpt lat="32.868298333333335" lon="35.245261666666664">
        <ele>235</ele>
        <time>2011-09-29T18:20:22.19</time>
      </trkpt>
      <trkpt lat="32.868291666666664" lon="35.245263333333334">
        <ele>235</ele>
        <time>2011-09-29T18:20:23.19</time>
      </trkpt>
      <trkpt lat="32.86828166666667" lon="35.24526">
        <ele>235</ele>
        <time>2011-09-29T18:20:24.19</time>
      </trkpt>
      <trkpt lat="32.868275" lon="35.245261666666664">
        <ele>235</ele>
        <time>2011-09-29T18:20:26.19</time>
      </trkpt>
      <trkpt lat="32.86827" lon="35.24525833333333">
        <ele>235</ele>
        <time>2011-09-29T18:20:28.19</time>
      </trkpt>
      <trkpt lat="32.868273333333335" lon="35.245265">
        <ele>234.5</ele>
        <time>2011-09-29T18:20:29.19</time>
      </trkpt>
      <trkpt lat="32.868273333333335" lon="35.24525666666667">
        <ele>234.5</ele>
        <time>2011-09-29T18:20:30.19</time>
      </trkpt>
      <trkpt lat="32.868275" lon="35.245255">
        <ele>235</ele>
        <time>2011-09-29T18:20:31.19</time>
      </trkpt>
      <trkpt lat="32.868278333333336" lon="35.245263333333334">
        <ele>235</ele>
        <time>2011-09-29T18:20:32.19</time>
      </trkpt>
      <trkpt lat="32.86828166666667" lon="35.245265">
        <ele>235</ele>
        <time>2011-09-29T18:20:33.19</time>
      </trkpt>
      <trkpt lat="32.868285" lon="35.245265">
        <ele>235.5</ele>
        <time>2011-09-29T18:20:34.19</time>
      </trkpt>
      <trkpt lat="32.868285" lon="35.245268333333335">
        <ele>235.5</ele>
        <time>2011-09-29T18:20:35.19</time>
      </trkpt>
      <trkpt lat="32.868298333333335" lon="35.24527666666667">
        <ele>236.5</ele>
        <time>2011-09-29T18:20:36.19</time>
      </trkpt>
      <trkpt lat="32.86830166666667" lon="35.245275">
        <ele>236.5</ele>
        <time>2011-09-29T18:20:37.19</time>
      </trkpt>
      <trkpt lat="32.86830166666667" lon="35.24528">
        <ele>235.5</ele>
        <time>2011-09-29T18:20:38.19</time>
      </trkpt>
      <trkpt lat="32.8683" lon="35.245275">
        <ele>236</ele>
        <time>2011-09-29T18:20:39.19</time>
      </trkpt>
      <trkpt lat="32.86830166666667" lon="35.245286666666665">
        <ele>234.5</ele>
        <time>2011-09-29T18:20:40.19</time>
      </trkpt>
      <trkpt lat="32.8683" lon="35.24528333333333">
        <ele>235</ele>
        <time>2011-09-29T18:20:41.19</time>
      </trkpt>
      <trkpt lat="32.86830666666667" lon="35.245285">
        <ele>235.5</ele>
        <time>2011-09-29T18:20:42.18</time>
      </trkpt>
      <trkpt lat="32.868305" lon="35.24528166666666">
        <ele>236</ele>
        <time>2011-09-29T18:20:43.19</time>
      </trkpt>
      <trkpt lat="32.86830833333333" lon="35.245288333333335">
        <ele>236.5</ele>
        <time>2011-09-29T18:20:44.19</time>
      </trkpt>
      <trkpt lat="32.86831" lon="35.245293333333336">
        <ele>237.5</ele>
        <time>2011-09-29T18:20:45.19</time>
      </trkpt>
      <trkpt lat="32.86831166666666" lon="35.24529166666667">
        <ele>238</ele>
        <time>2011-09-29T18:20:46.19</time>
      </trkpt>
      <trkpt lat="32.86831333333333" lon="35.24529833333333">
        <ele>238.5</ele>
        <time>2011-09-29T18:20:47.19</time>
      </trkpt>
      <trkpt lat="32.868315" lon="35.245306666666664">
        <ele>238.5</ele>
        <time>2011-09-29T18:20:48.19</time>
      </trkpt>
      <trkpt lat="32.868318333333335" lon="35.245313333333335">
        <ele>238.5</ele>
        <time>2011-09-29T18:20:49.18</time>
      </trkpt>
      <trkpt lat="32.868323333333336" lon="35.245326666666664">
        <ele>238.5</ele>
        <time>2011-09-29T18:20:50.18</time>
      </trkpt>
      <trkpt lat="32.868335" lon="35.24536833333333">
        <ele>238.5</ele>
        <time>2011-09-29T18:20:52.18</time>
      </trkpt>
      <trkpt lat="32.868336666666664" lon="35.245375">
        <ele>238.5</ele>
        <time>2011-09-29T18:20:53.19</time>
      </trkpt>
      <trkpt lat="32.86833166666667" lon="35.24538166666667">
        <ele>238</ele>
        <time>2011-09-29T18:20:54.19</time>
      </trkpt>
      <trkpt lat="32.868325" lon="35.245358333333336">
        <ele>239</ele>
        <time>2011-09-29T18:20:56.18</time>
      </trkpt>
      <trkpt lat="32.868325" lon="35.245356666666666">
        <ele>239.5</ele>
        <time>2011-09-29T18:20:57.18</time>
      </trkpt>
      <trkpt lat="32.86832" lon="35.245355">
        <ele>239</ele>
        <time>2011-09-29T18:20:58.18</time>
      </trkpt>
      <trkpt lat="32.86832" lon="35.24536166666667">
        <ele>238.5</ele>
        <time>2011-09-29T18:20:59.18</time>
      </trkpt>
      <trkpt lat="32.868323333333336" lon="35.24536666666667">
        <ele>238.5</ele>
        <time>2011-09-29T18:21:00.18</time>
      </trkpt>
      <trkpt lat="32.868316666666665" lon="35.24538166666667">
        <ele>236.5</ele>
        <time>2011-09-29T18:21:01.18</time>
      </trkpt>
      <trkpt lat="32.868316666666665" lon="35.245395">
        <ele>236</ele>
        <time>2011-09-29T18:21:02.18</time>
      </trkpt>
      <trkpt lat="32.86831333333333" lon="35.245401666666666">
        <ele>235</ele>
        <time>2011-09-29T18:21:03.18</time>
      </trkpt>
      <trkpt lat="32.86831" lon="35.24541">
        <ele>234.5</ele>
        <time>2011-09-29T18:21:04.18</time>
      </trkpt>
      <trkpt lat="32.868305" lon="35.24541166666667">
        <ele>234</ele>
        <time>2011-09-29T18:21:05.18</time>
      </trkpt>
      <trkpt lat="32.8683" lon="35.24540666666667">
        <ele>234</ele>
        <time>2011-09-29T18:21:06.18</time>
      </trkpt>
      <trkpt lat="32.868291666666664" lon="35.245396666666664">
        <ele>233.5</ele>
        <time>2011-09-29T18:21:07.18</time>
      </trkpt>
      <trkpt lat="32.868291666666664" lon="35.245405">
        <ele>232.5</ele>
        <time>2011-09-29T18:21:08.18</time>
      </trkpt>
      <trkpt lat="32.86828333333333" lon="35.245401666666666">
        <ele>230.5</ele>
        <time>2011-09-29T18:21:09.18</time>
      </trkpt>
      <trkpt lat="32.868291666666664" lon="35.24542">
        <ele>230.5</ele>
        <time>2011-09-29T18:21:10.18</time>
      </trkpt>
      <trkpt lat="32.86828833333333" lon="35.24541833333333">
        <ele>230</ele>
        <time>2011-09-29T18:21:12.18</time>
      </trkpt>
      <trkpt lat="32.86829" lon="35.245423333333335">
        <ele>229.5</ele>
        <time>2011-09-29T18:21:13.18</time>
      </trkpt>
      <trkpt lat="32.86828833333333" lon="35.245425">
        <ele>228</ele>
        <time>2011-09-29T18:21:14.18</time>
      </trkpt>
      <trkpt lat="32.86830166666667" lon="35.245465">
        <ele>225.5</ele>
        <time>2011-09-29T18:21:16.18</time>
      </trkpt>
      <trkpt lat="32.86830166666667" lon="35.245465">
        <ele>225</ele>
        <time>2011-09-29T18:21:17.18</time>
      </trkpt>
      <trkpt lat="32.86828166666667" lon="35.24543166666667">
        <ele>224.5</ele>
        <time>2011-09-29T18:21:19.18</time>
      </trkpt>
      <trkpt lat="32.86827666666667" lon="35.245423333333335">
        <ele>224.5</ele>
        <time>2011-09-29T18:21:20.18</time>
      </trkpt>
      <trkpt lat="32.868275" lon="35.245421666666665">
        <ele>224.5</ele>
        <time>2011-09-29T18:21:21.18</time>
      </trkpt>
      <trkpt lat="32.86827666666667" lon="35.245421666666665">
        <ele>224</ele>
        <time>2011-09-29T18:21:22.18</time>
      </trkpt>
      <trkpt lat="32.868275" lon="35.245421666666665">
        <ele>223.5</ele>
        <time>2011-09-29T18:21:23.18</time>
      </trkpt>
      <trkpt lat="32.86827" lon="35.24541833333333">
        <ele>223.5</ele>
        <time>2011-09-29T18:21:24.18</time>
      </trkpt>
      <trkpt lat="32.868271666666665" lon="35.245403333333336">
        <ele>224.5</ele>
        <time>2011-09-29T18:21:25.18</time>
      </trkpt>
      <trkpt lat="32.868275" lon="35.245395">
        <ele>225.5</ele>
        <time>2011-09-29T18:21:26.18</time>
      </trkpt>
      <trkpt lat="32.868271666666665" lon="35.245401666666666">
        <ele>225.5</ele>
        <time>2011-09-29T18:21:27.18</time>
      </trkpt>
      <trkpt lat="32.868271666666665" lon="35.245401666666666">
        <ele>225</ele>
        <time>2011-09-29T18:21:28.17</time>
      </trkpt>
      <trkpt lat="32.86826833333333" lon="35.245403333333336">
        <ele>227</ele>
        <time>2011-09-29T18:21:29.18</time>
      </trkpt>
      <trkpt lat="32.868271666666665" lon="35.245403333333336">
        <ele>227</ele>
        <time>2011-09-29T18:21:30.18</time>
      </trkpt>
      <trkpt lat="32.868285" lon="35.245396666666664">
        <ele>227</ele>
        <time>2011-09-29T18:21:31.18</time>
      </trkpt>
      <trkpt lat="32.868293333333334" lon="35.24538833333333">
        <ele>227</ele>
        <time>2011-09-29T18:21:32.18</time>
      </trkpt>
      <trkpt lat="32.868291666666664" lon="35.24536833333333">
        <ele>226</ele>
        <time>2011-09-29T18:21:33.21</time>
      </trkpt>
      <trkpt lat="32.868305" lon="35.245353333333334">
        <ele>226.5</ele>
        <time>2011-09-29T18:21:34.18</time>
      </trkpt>
      <trkpt lat="32.868323333333336" lon="35.24534">
        <ele>227</ele>
        <time>2011-09-29T18:21:35.18</time>
      </trkpt>
      <trkpt lat="32.868336666666664" lon="35.24532833333333">
        <ele>227</ele>
        <time>2011-09-29T18:21:36.18</time>
      </trkpt>
      <trkpt lat="32.86835166666667" lon="35.245311666666666">
        <ele>227.5</ele>
        <time>2011-09-29T18:21:37.17</time>
      </trkpt>
      <trkpt lat="32.868361666666665" lon="35.245295">
        <ele>227.5</ele>
        <time>2011-09-29T18:21:38.18</time>
      </trkpt>
      <trkpt lat="32.86837666666667" lon="35.24527833333333">
        <ele>227.5</ele>
        <time>2011-09-29T18:21:39.18</time>
      </trkpt>
      <trkpt lat="32.86837333333333" lon="35.24526">
        <ele>227.5</ele>
        <time>2011-09-29T18:21:40.18</time>
      </trkpt>
      <trkpt lat="32.868433333333336" lon="35.245215">
        <ele>226.5</ele>
        <time>2011-09-29T18:21:42.26</time>
      </trkpt>
      <trkpt lat="32.86845666666667" lon="35.245195">
        <ele>227</ele>
        <time>2011-09-29T18:21:43.42</time>
      </trkpt>
      <trkpt lat="32.868476666666666" lon="35.245173333333334">
        <ele>227</ele>
        <time>2011-09-29T18:21:44.17</time>
      </trkpt>
      <trkpt lat="32.868491666666664" lon="35.24515666666667">
        <ele>227</ele>
        <time>2011-09-29T18:21:45.17</time>
      </trkpt>
      <trkpt lat="32.868515" lon="35.24514">
        <ele>227.5</ele>
        <time>2011-09-29T18:21:46.18</time>
      </trkpt>
      <trkpt lat="32.868545" lon="35.24512166666667">
        <ele>227.5</ele>
        <time>2011-09-29T18:21:47.17</time>
      </trkpt>
      <trkpt lat="32.868563333333334" lon="35.24510333333333">
        <ele>228</ele>
        <time>2011-09-29T18:21:48.16</time>
      </trkpt>
      <trkpt lat="32.86858" lon="35.245086666666666">
        <ele>228</ele>
        <time>2011-09-29T18:21:49.16</time>
      </trkpt>
      <trkpt lat="32.86859" lon="35.24507">
        <ele>230</ele>
        <time>2011-09-29T18:21:50.28</time>
      </trkpt>
      <trkpt lat="32.86859833333333" lon="35.24505166666667">
        <ele>231</ele>
        <time>2011-09-29T18:21:51.17</time>
      </trkpt>
      <trkpt lat="32.868606666666665" lon="35.24503166666667">
        <ele>231.5</ele>
        <time>2011-09-29T18:21:52.17</time>
      </trkpt>
      <trkpt lat="32.86868166666667" lon="35.24498833333333">
        <ele>232</ele>
        <time>2011-09-29T18:21:54.17</time>
      </trkpt>
      <trkpt lat="32.868696666666665" lon="35.24497">
        <ele>232.5</ele>
        <time>2011-09-29T18:21:55.17</time>
      </trkpt>
      <trkpt lat="32.868716666666664" lon="35.24494833333333">
        <ele>234</ele>
        <time>2011-09-29T18:21:56.17</time>
      </trkpt>
      <trkpt lat="32.868743333333335" lon="35.244925">
        <ele>236.5</ele>
        <time>2011-09-29T18:21:57.17</time>
      </trkpt>
      <trkpt lat="32.868763333333334" lon="35.2449">
        <ele>238.5</ele>
        <time>2011-09-29T18:21:58.17</time>
      </trkpt>
      <trkpt lat="32.86878" lon="35.24489166666667">
        <ele>238.5</ele>
        <time>2011-09-29T18:21:59.17</time>
      </trkpt>
      <trkpt lat="32.86877833333333" lon="35.244868333333336">
        <ele>238.5</ele>
        <time>2011-09-29T18:22:00.39</time>
      </trkpt>
      <trkpt lat="32.868825" lon="35.244823333333336">
        <ele>240</ele>
        <time>2011-09-29T18:22:02.17</time>
      </trkpt>
      <trkpt lat="32.868833333333335" lon="35.24481">
        <ele>240.5</ele>
        <time>2011-09-29T18:22:03.17</time>
      </trkpt>
      <trkpt lat="32.868853333333334" lon="35.24480166666667">
        <ele>241</ele>
        <time>2011-09-29T18:22:04.17</time>
      </trkpt>
      <trkpt lat="32.86886666666667" lon="35.244778333333336">
        <ele>242.5</ele>
        <time>2011-09-29T18:22:05.17</time>
      </trkpt>
      <trkpt lat="32.86888166666667" lon="35.24476333333333">
        <ele>241.5</ele>
        <time>2011-09-29T18:22:06.17</time>
      </trkpt>
      <trkpt lat="32.868896666666664" lon="35.244748333333334">
        <ele>241.5</ele>
        <time>2011-09-29T18:22:07.17</time>
      </trkpt>
      <trkpt lat="32.86891166666667" lon="35.24473666666667">
        <ele>241.5</ele>
        <time>2011-09-29T18:22:08.26</time>
      </trkpt>
      <trkpt lat="32.86892666666667" lon="35.244725">
        <ele>241.5</ele>
        <time>2011-09-29T18:22:09.17</time>
      </trkpt>
      <trkpt lat="32.86895" lon="35.24471166666667">
        <ele>242</ele>
        <time>2011-09-29T18:22:10.35</time>
      </trkpt>
      <trkpt lat="32.86897333333334" lon="35.24469666666667">
        <ele>242</ele>
        <time>2011-09-29T18:22:11.16</time>
      </trkpt>
      <trkpt lat="32.868985" lon="35.244685">
        <ele>242</ele>
        <time>2011-09-29T18:22:12.30</time>
      </trkpt>
      <trkpt lat="32.86900833333333" lon="35.24467166666667">
        <ele>242</ele>
        <time>2011-09-29T18:22:13.16</time>
      </trkpt>
      <trkpt lat="32.86902833333333" lon="35.24465333333333">
        <ele>243.5</ele>
        <time>2011-09-29T18:22:14.17</time>
      </trkpt>
      <trkpt lat="32.869045" lon="35.24463">
        <ele>243.5</ele>
        <time>2011-09-29T18:22:15.40</time>
      </trkpt>
      <trkpt lat="32.86906333333334" lon="35.244615">
        <ele>243.5</ele>
        <time>2011-09-29T18:22:16.17</time>
      </trkpt>
      <trkpt lat="32.869076666666665" lon="35.244595">
        <ele>243</ele>
        <time>2011-09-29T18:22:17.19</time>
      </trkpt>
      <trkpt lat="32.869085" lon="35.24457833333334">
        <ele>242.5</ele>
        <time>2011-09-29T18:22:18.17</time>
      </trkpt>
      <trkpt lat="32.869173333333336" lon="35.244528333333335">
        <ele>243</ele>
        <time>2011-09-29T18:22:20.17</time>
      </trkpt>
      <trkpt lat="32.86920166666667" lon="35.2445">
        <ele>243</ele>
        <time>2011-09-29T18:22:21.16</time>
      </trkpt>
      <trkpt lat="32.869236666666666" lon="35.244463333333336">
        <ele>243.5</ele>
        <time>2011-09-29T18:22:23.16</time>
      </trkpt>
      <trkpt lat="32.86934333333333" lon="35.24438833333333">
        <ele>243.5</ele>
        <time>2011-09-29T18:22:25.17</time>
      </trkpt>
      <trkpt lat="32.869371666666666" lon="35.244366666666664">
        <ele>244.5</ele>
        <time>2011-09-29T18:22:26.16</time>
      </trkpt>
      <trkpt lat="32.869391666666665" lon="35.244341666666664">
        <ele>244.5</ele>
        <time>2011-09-29T18:22:27.16</time>
      </trkpt>
      <trkpt lat="32.869411666666664" lon="35.24431833333333">
        <ele>244.5</ele>
        <time>2011-09-29T18:22:28.17</time>
      </trkpt>
      <trkpt lat="32.869445" lon="35.24429333333333">
        <ele>244</ele>
        <time>2011-09-29T18:22:29.16</time>
      </trkpt>
      <trkpt lat="32.869495" lon="35.244263333333336">
        <ele>243.5</ele>
        <time>2011-09-29T18:22:31.16</time>
      </trkpt>
      <trkpt lat="32.86989833333333" lon="35.244283333333335">
        <ele>244</ele>
        <time>2011-09-29T18:22:36.16</time>
      </trkpt>
      <trkpt lat="32.86995666666667" lon="35.244235">
        <ele>247.5</ele>
        <time>2011-09-29T18:22:42.16</time>
      </trkpt>
      <trkpt lat="32.869955" lon="35.24424166666667">
        <ele>248</ele>
        <time>2011-09-29T18:22:43.16</time>
      </trkpt>
      <trkpt lat="32.86996166666667" lon="35.24425333333333">
        <ele>249</ele>
        <time>2011-09-29T18:22:44.16</time>
      </trkpt>
      <trkpt lat="32.869946666666664" lon="35.244263333333336">
        <ele>249.5</ele>
        <time>2011-09-29T18:22:45.16</time>
      </trkpt>
      <trkpt lat="32.86994166666667" lon="35.24427">
        <ele>249.5</ele>
        <time>2011-09-29T18:22:46.16</time>
      </trkpt>
      <trkpt lat="32.86994333333333" lon="35.24428833333333">
        <ele>249</ele>
        <time>2011-09-29T18:22:47.16</time>
      </trkpt>
      <trkpt lat="32.86993833333333" lon="35.2443">
        <ele>248.5</ele>
        <time>2011-09-29T18:22:48.16</time>
      </trkpt>
      <trkpt lat="32.869881666666664" lon="35.244301666666665">
        <ele>243.5</ele>
        <time>2011-09-29T18:22:50.16</time>
      </trkpt>
      <trkpt lat="32.86987833333333" lon="35.244303333333335">
        <ele>243.5</ele>
        <time>2011-09-29T18:22:51.16</time>
      </trkpt>
      <trkpt lat="32.869865" lon="35.244303333333335">
        <ele>242</ele>
        <time>2011-09-29T18:22:52.16</time>
      </trkpt>
      <trkpt lat="32.869728333333335" lon="35.244345">
        <ele>244</ele>
        <time>2011-09-29T18:22:55.16</time>
      </trkpt>
      <trkpt lat="32.8697" lon="35.24435833333333">
        <ele>245</ele>
        <time>2011-09-29T18:22:56.16</time>
      </trkpt>
      <trkpt lat="32.86968666666667" lon="35.24437666666667">
        <ele>245</ele>
        <time>2011-09-29T18:22:57.16</time>
      </trkpt>
      <trkpt lat="32.869675" lon="35.244395">
        <ele>245</ele>
        <time>2011-09-29T18:22:58.16</time>
      </trkpt>
      <trkpt lat="32.869658333333334" lon="35.244415">
        <ele>245</ele>
        <time>2011-09-29T18:22:59.17</time>
      </trkpt>
      <trkpt lat="32.869643333333336" lon="35.244435">
        <ele>245</ele>
        <time>2011-09-29T18:23:00.15</time>
      </trkpt>
      <trkpt lat="32.86962333333334" lon="35.244445">
        <ele>245</ele>
        <time>2011-09-29T18:23:01.16</time>
      </trkpt>
      <trkpt lat="32.86958333333333" lon="35.24449166666667">
        <ele>245</ele>
        <time>2011-09-29T18:23:03.16</time>
      </trkpt>
      <trkpt lat="32.869565" lon="35.24447166666667">
        <ele>244.5</ele>
        <time>2011-09-29T18:23:04.33</time>
      </trkpt>
      <trkpt lat="32.86955" lon="35.244438333333335">
        <ele>244</ele>
        <time>2011-09-29T18:23:05.16</time>
      </trkpt>
      <trkpt lat="32.869535" lon="35.24441">
        <ele>244</ele>
        <time>2011-09-29T18:23:06.15</time>
      </trkpt>
      <trkpt lat="32.869506666666666" lon="35.244391666666665">
        <ele>243.5</ele>
        <time>2011-09-29T18:23:07.15</time>
      </trkpt>
      <trkpt lat="32.869485" lon="35.244386666666664">
        <ele>243.5</ele>
        <time>2011-09-29T18:23:08.15</time>
      </trkpt>
      <trkpt lat="32.86949333333333" lon="35.244386666666664">
        <ele>244</ele>
        <time>2011-09-29T18:23:09.15</time>
      </trkpt>
      <trkpt lat="32.86948833333334" lon="35.24442333333333">
        <ele>244</ele>
        <time>2011-09-29T18:23:11.15</time>
      </trkpt>
      <trkpt lat="32.869475" lon="35.24440833333333">
        <ele>244.5</ele>
        <time>2011-09-29T18:23:12.15</time>
      </trkpt>
      <trkpt lat="32.869463333333336" lon="35.244398333333336">
        <ele>244</ele>
        <time>2011-09-29T18:23:13.16</time>
      </trkpt>
      <trkpt lat="32.869465" lon="35.244391666666665">
        <ele>243</ele>
        <time>2011-09-29T18:23:14.16</time>
      </trkpt>
      <trkpt lat="32.869455" lon="35.24440833333333">
        <ele>243</ele>
        <time>2011-09-29T18:23:15.15</time>
      </trkpt>
      <trkpt lat="32.869456666666665" lon="35.24442166666667">
        <ele>243</ele>
        <time>2011-09-29T18:23:16.15</time>
      </trkpt>
      <trkpt lat="32.869398333333336" lon="35.244476666666664">
        <ele>243.5</ele>
        <time>2011-09-29T18:23:18.38</time>
      </trkpt>
      <trkpt lat="32.869391666666665" lon="35.24449333333333">
        <ele>243.5</ele>
        <time>2011-09-29T18:23:19.15</time>
      </trkpt>
      <trkpt lat="32.86938" lon="35.244505">
        <ele>243.5</ele>
        <time>2011-09-29T18:23:20.15</time>
      </trkpt>
      <trkpt lat="32.86936166666667" lon="35.24451833333333">
        <ele>243.5</ele>
        <time>2011-09-29T18:23:21.15</time>
      </trkpt>
      <trkpt lat="32.869346666666665" lon="35.244526666666665">
        <ele>243.5</ele>
        <time>2011-09-29T18:23:22.15</time>
      </trkpt>
      <trkpt lat="32.86933166666667" lon="35.24453166666667">
        <ele>243.5</ele>
        <time>2011-09-29T18:23:23.15</time>
      </trkpt>
      <trkpt lat="32.86933166666667" lon="35.24453666666667">
        <ele>243.5</ele>
        <time>2011-09-29T18:23:24.16</time>
      </trkpt>
      <trkpt lat="32.869315" lon="35.244546666666665">
        <ele>243</ele>
        <time>2011-09-29T18:23:25.16</time>
      </trkpt>
      <trkpt lat="32.869308333333336" lon="35.244551666666666">
        <ele>243</ele>
        <time>2011-09-29T18:23:26.15</time>
      </trkpt>
      <trkpt lat="32.86930666666667" lon="35.24456">
        <ele>243</ele>
        <time>2011-09-29T18:23:27.15</time>
      </trkpt>
      <trkpt lat="32.8693" lon="35.24456333333333">
        <ele>243</ele>
        <time>2011-09-29T18:23:28.15</time>
      </trkpt>
      <trkpt lat="32.86929666666666" lon="35.244566666666664">
        <ele>243</ele>
        <time>2011-09-29T18:23:29.16</time>
      </trkpt>
      <trkpt lat="32.86929333333333" lon="35.244571666666666">
        <ele>243</ele>
        <time>2011-09-29T18:23:30.15</time>
      </trkpt>
      <trkpt lat="32.86929" lon="35.244573333333335">
        <ele>243</ele>
        <time>2011-09-29T18:23:31.15</time>
      </trkpt>
      <trkpt lat="32.86927" lon="35.24458833333333">
        <ele>244</ele>
        <time>2011-09-29T18:23:32.22</time>
      </trkpt>
      <trkpt lat="32.86925333333333" lon="35.244598333333336">
        <ele>244.5</ele>
        <time>2011-09-29T18:23:33.15</time>
      </trkpt>
      <trkpt lat="32.86924333333333" lon="35.244598333333336">
        <ele>244.5</ele>
        <time>2011-09-29T18:23:34.15</time>
      </trkpt>
      <trkpt lat="32.86923" lon="35.244613333333334">
        <ele>245</ele>
        <time>2011-09-29T18:23:35.15</time>
      </trkpt>
      <trkpt lat="32.86911166666667" lon="35.244683333333334">
        <ele>247</ele>
        <time>2011-09-29T18:23:38.15</time>
      </trkpt>
      <trkpt lat="32.869051666666664" lon="35.244751666666666">
        <ele>247</ele>
        <time>2011-09-29T18:23:40.15</time>
      </trkpt>
      <trkpt lat="32.86904" lon="35.24477666666667">
        <ele>247</ele>
        <time>2011-09-29T18:23:41.15</time>
      </trkpt>
      <trkpt lat="32.869013333333335" lon="35.24480333333333">
        <ele>247.5</ele>
        <time>2011-09-29T18:23:42.14</time>
      </trkpt>
      <trkpt lat="32.86899666666667" lon="35.24483">
        <ele>247.5</ele>
        <time>2011-09-29T18:23:43.15</time>
      </trkpt>
      <trkpt lat="32.86898333333333" lon="35.24484666666667">
        <ele>247</ele>
        <time>2011-09-29T18:23:44.29</time>
      </trkpt>
      <trkpt lat="32.86897166666667" lon="35.24486">
        <ele>247</ele>
        <time>2011-09-29T18:23:45.15</time>
      </trkpt>
      <trkpt lat="32.86895333333333" lon="35.24487833333333">
        <ele>247</ele>
        <time>2011-09-29T18:23:46.14</time>
      </trkpt>
      <trkpt lat="32.868941666666665" lon="35.24489166666667">
        <ele>246.5</ele>
        <time>2011-09-29T18:23:47.14</time>
      </trkpt>
      <trkpt lat="32.86896333333333" lon="35.24494833333333">
        <ele>247</ele>
        <time>2011-09-29T18:23:49.14</time>
      </trkpt>
      <trkpt lat="32.86895166666667" lon="35.24495833333334">
        <ele>247</ele>
        <time>2011-09-29T18:23:50.14</time>
      </trkpt>
      <trkpt lat="32.868935" lon="35.244975">
        <ele>247</ele>
        <time>2011-09-29T18:23:51.14</time>
      </trkpt>
      <trkpt lat="32.868905" lon="35.244995">
        <ele>247</ele>
        <time>2011-09-29T18:23:52.15</time>
      </trkpt>
      <trkpt lat="32.86889333333333" lon="35.245005">
        <ele>246.5</ele>
        <time>2011-09-29T18:23:54.14</time>
      </trkpt>
      <trkpt lat="32.868883333333336" lon="35.24502">
        <ele>246.5</ele>
        <time>2011-09-29T18:23:55.15</time>
      </trkpt>
      <trkpt lat="32.86886333333333" lon="35.24505333333333">
        <ele>246.5</ele>
        <time>2011-09-29T18:23:56.14</time>
      </trkpt>
      <trkpt lat="32.86879666666667" lon="35.24514333333333">
        <ele>245</ele>
        <time>2011-09-29T18:23:58.14</time>
      </trkpt>
      <trkpt lat="32.868766666666666" lon="35.245203333333336">
        <ele>245.5</ele>
        <time>2011-09-29T18:24:00.14</time>
      </trkpt>
      <trkpt lat="32.86876" lon="35.245215">
        <ele>245.5</ele>
        <time>2011-09-29T18:24:01.13</time>
      </trkpt>
      <trkpt lat="32.86875" lon="35.24524">
        <ele>247</ele>
        <time>2011-09-29T18:24:02.14</time>
      </trkpt>
      <trkpt lat="32.86874" lon="35.245245">
        <ele>248</ele>
        <time>2011-09-29T18:24:03.14</time>
      </trkpt>
      <trkpt lat="32.86873166666667" lon="35.245255">
        <ele>249</ele>
        <time>2011-09-29T18:24:04.14</time>
      </trkpt>
      <trkpt lat="32.86872" lon="35.24527166666667">
        <ele>248.5</ele>
        <time>2011-09-29T18:24:05.13</time>
      </trkpt>
      <trkpt lat="32.86870833333333" lon="35.245293333333336">
        <ele>247</ele>
        <time>2011-09-29T18:24:06.14</time>
      </trkpt>
      <trkpt lat="32.86869166666666" lon="35.24532">
        <ele>246</ele>
        <time>2011-09-29T18:24:07.14</time>
      </trkpt>
      <trkpt lat="32.86864333333333" lon="35.24533666666667">
        <ele>247</ele>
        <time>2011-09-29T18:24:09.14</time>
      </trkpt>
      <trkpt lat="32.868631666666666" lon="35.245353333333334">
        <ele>246</ele>
        <time>2011-09-29T18:24:10.25</time>
      </trkpt>
      <trkpt lat="32.86859666666667" lon="35.245416666666664">
        <ele>248</ele>
        <time>2011-09-29T18:24:12.20</time>
      </trkpt>
      <trkpt lat="32.868585" lon="35.245448333333336">
        <ele>248</ele>
        <time>2011-09-29T18:24:13.29</time>
      </trkpt>
      <trkpt lat="32.86857666666667" lon="35.24547166666667">
        <ele>248</ele>
        <time>2011-09-29T18:24:14.14</time>
      </trkpt>
      <trkpt lat="32.86856" lon="35.24548333333333">
        <ele>249.5</ele>
        <time>2011-09-29T18:24:15.14</time>
      </trkpt>
      <trkpt lat="32.86854833333334" lon="35.24552">
        <ele>248.5</ele>
        <time>2011-09-29T18:24:16.14</time>
      </trkpt>
      <trkpt lat="32.86854" lon="35.24555333333333">
        <ele>248.5</ele>
        <time>2011-09-29T18:24:17.14</time>
      </trkpt>
      <trkpt lat="32.868535" lon="35.245583333333336">
        <ele>249</ele>
        <time>2011-09-29T18:24:18.14</time>
      </trkpt>
      <trkpt lat="32.868521666666666" lon="35.2456">
        <ele>250</ele>
        <time>2011-09-29T18:24:19.41</time>
      </trkpt>
      <trkpt lat="32.86851" lon="35.245615">
        <ele>250</ele>
        <time>2011-09-29T18:24:20.13</time>
      </trkpt>
      <trkpt lat="32.86850166666667" lon="35.245621666666665">
        <ele>249.5</ele>
        <time>2011-09-29T18:24:21.14</time>
      </trkpt>
      <trkpt lat="32.86849" lon="35.24563333333333">
        <ele>249</ele>
        <time>2011-09-29T18:24:22.14</time>
      </trkpt>
      <trkpt lat="32.86848166666667" lon="35.24563833333333">
        <ele>249</ele>
        <time>2011-09-29T18:24:23.32</time>
      </trkpt>
      <trkpt lat="32.868465" lon="35.245648333333335">
        <ele>249.5</ele>
        <time>2011-09-29T18:24:24.14</time>
      </trkpt>
      <trkpt lat="32.868433333333336" lon="35.245673333333336">
        <ele>251</ele>
        <time>2011-09-29T18:24:25.15</time>
      </trkpt>
      <trkpt lat="32.8684" lon="35.245693333333335">
        <ele>251</ele>
        <time>2011-09-29T18:24:26.14</time>
      </trkpt>
      <trkpt lat="32.868385" lon="35.245711666666665">
        <ele>251</ele>
        <time>2011-09-29T18:24:27.14</time>
      </trkpt>
      <trkpt lat="32.86837" lon="35.24572166666667">
        <ele>251.5</ele>
        <time>2011-09-29T18:24:28.14</time>
      </trkpt>
      <trkpt lat="32.868363333333335" lon="35.245738333333335">
        <ele>252</ele>
        <time>2011-09-29T18:24:29.13</time>
      </trkpt>
      <trkpt lat="32.868336666666664" lon="35.24576">
        <ele>251</ele>
        <time>2011-09-29T18:24:31.14</time>
      </trkpt>
      <trkpt lat="32.868305" lon="35.24581666666667">
        <ele>250.5</ele>
        <time>2011-09-29T18:24:33.14</time>
      </trkpt>
      <trkpt lat="32.86826333333333" lon="35.245848333333335">
        <ele>251.5</ele>
        <time>2011-09-29T18:24:35.13</time>
      </trkpt>
      <trkpt lat="32.86819" lon="35.245865">
        <ele>250.5</ele>
        <time>2011-09-29T18:24:37.19</time>
      </trkpt>
      <trkpt lat="32.86815166666667" lon="35.245875">
        <ele>250.5</ele>
        <time>2011-09-29T18:24:38.36</time>
      </trkpt>
      <trkpt lat="32.868125" lon="35.24588">
        <ele>250.5</ele>
        <time>2011-09-29T18:24:39.13</time>
      </trkpt>
      <trkpt lat="32.86810666666667" lon="35.245893333333335">
        <ele>250.5</ele>
        <time>2011-09-29T18:24:40.13</time>
      </trkpt>
      <trkpt lat="32.86803666666667" lon="35.24590833333333">
        <ele>249</ele>
        <time>2011-09-29T18:24:42.37</time>
      </trkpt>
      <trkpt lat="32.868008333333336" lon="35.245915">
        <ele>249.5</ele>
        <time>2011-09-29T18:24:43.14</time>
      </trkpt>
      <trkpt lat="32.86798666666667" lon="35.24592333333333">
        <ele>250</ele>
        <time>2011-09-29T18:24:44.14</time>
      </trkpt>
      <trkpt lat="32.86801166666667" lon="35.245916666666666">
        <ele>250</ele>
        <time>2011-09-29T18:24:45.13</time>
      </trkpt>
      <trkpt lat="32.86798666666667" lon="35.24592166666667">
        <ele>250</ele>
        <time>2011-09-29T18:24:47.22</time>
      </trkpt>
      <trkpt lat="32.86798" lon="35.245925">
        <ele>250.5</ele>
        <time>2011-09-29T18:24:48.13</time>
      </trkpt>
      <trkpt lat="32.867975" lon="35.24592333333333">
        <ele>251</ele>
        <time>2011-09-29T18:24:49.13</time>
      </trkpt>
      <trkpt lat="32.86797166666667" lon="35.24592333333333">
        <ele>251.5</ele>
        <time>2011-09-29T18:24:50.13</time>
      </trkpt>
      <trkpt lat="32.867965" lon="35.245925">
        <ele>252</ele>
        <time>2011-09-29T18:24:51.13</time>
      </trkpt>
      <trkpt lat="32.867958333333334" lon="35.245925">
        <ele>253</ele>
        <time>2011-09-29T18:24:52.13</time>
      </trkpt>
      <trkpt lat="32.86795333333333" lon="35.24592833333333">
        <ele>253.5</ele>
        <time>2011-09-29T18:24:53.12</time>
      </trkpt>
      <trkpt lat="32.86795166666667" lon="35.245931666666664">
        <ele>253.5</ele>
        <time>2011-09-29T18:24:54.12</time>
      </trkpt>
      <trkpt lat="32.86795" lon="35.24593333333333">
        <ele>253.5</ele>
        <time>2011-09-29T18:24:55.12</time>
      </trkpt>
      <trkpt lat="32.86795" lon="35.24593333333333">
        <ele>253.5</ele>
        <time>2011-09-29T18:24:56.13</time>
      </trkpt>
      <trkpt lat="32.867945" lon="35.24594166666667">
        <ele>253.5</ele>
        <time>2011-09-29T18:24:57.13</time>
      </trkpt>
      <trkpt lat="32.86794166666667" lon="35.24595">
        <ele>254</ele>
        <time>2011-09-29T18:24:58.13</time>
      </trkpt>
      <trkpt lat="32.867931666666664" lon="35.24596">
        <ele>254.5</ele>
        <time>2011-09-29T18:24:59.13</time>
      </trkpt>
      <trkpt lat="32.86792" lon="35.24596833333333">
        <ele>255</ele>
        <time>2011-09-29T18:25:00.13</time>
      </trkpt>
      <trkpt lat="32.86790666666667" lon="35.24597833333333">
        <ele>255.5</ele>
        <time>2011-09-29T18:25:01.12</time>
      </trkpt>
      <trkpt lat="32.86788833333333" lon="35.245985">
        <ele>255.5</ele>
        <time>2011-09-29T18:25:02.13</time>
      </trkpt>
      <trkpt lat="32.867868333333334" lon="35.24599666666667">
        <ele>255.5</ele>
        <time>2011-09-29T18:25:03.25</time>
      </trkpt>
      <trkpt lat="32.86785166666667" lon="35.246006666666666">
        <ele>255.5</ele>
        <time>2011-09-29T18:25:04.13</time>
      </trkpt>
      <trkpt lat="32.86783333333333" lon="35.24601833333333">
        <ele>256.5</ele>
        <time>2011-09-29T18:25:05.13</time>
      </trkpt>
      <trkpt lat="32.86781833333333" lon="35.24603333333334">
        <ele>256.5</ele>
        <time>2011-09-29T18:25:06.12</time>
      </trkpt>
      <trkpt lat="32.86781" lon="35.246046666666665">
        <ele>256.5</ele>
        <time>2011-09-29T18:25:07.13</time>
      </trkpt>
      <trkpt lat="32.867805" lon="35.246053333333336">
        <ele>256</ele>
        <time>2011-09-29T18:25:08.12</time>
      </trkpt>
      <trkpt lat="32.8678" lon="35.24605833333333">
        <ele>256</ele>
        <time>2011-09-29T18:25:09.38</time>
      </trkpt>
      <trkpt lat="32.86779666666666" lon="35.24606333333333">
        <ele>255.5</ele>
        <time>2011-09-29T18:25:10.13</time>
      </trkpt>
      <trkpt lat="32.86779333333333" lon="35.24607">
        <ele>255</ele>
        <time>2011-09-29T18:25:11.13</time>
      </trkpt>
      <trkpt lat="32.86779" lon="35.246055">
        <ele>254.5</ele>
        <time>2011-09-29T18:25:12.12</time>
      </trkpt>
      <trkpt lat="32.867781666666666" lon="35.24604">
        <ele>253.5</ele>
        <time>2011-09-29T18:25:13.12</time>
      </trkpt>
      <trkpt lat="32.86777333333333" lon="35.24603166666667">
        <ele>253</ele>
        <time>2011-09-29T18:25:14.12</time>
      </trkpt>
      <trkpt lat="32.86776666666667" lon="35.24601">
        <ele>252.5</ele>
        <time>2011-09-29T18:25:15.27</time>
      </trkpt>
      <trkpt lat="32.86774833333333" lon="35.245976666666664">
        <ele>252.5</ele>
        <time>2011-09-29T18:25:16.13</time>
      </trkpt>
      <trkpt lat="32.86774333333334" lon="35.245961666666666">
        <ele>252.5</ele>
        <time>2011-09-29T18:25:17.13</time>
      </trkpt>
      <trkpt lat="32.86774166666667" lon="35.24595333333333">
        <ele>252.5</ele>
        <time>2011-09-29T18:25:18.13</time>
      </trkpt>
      <trkpt lat="32.867735" lon="35.24594333333334">
        <ele>252.5</ele>
        <time>2011-09-29T18:25:19.12</time>
      </trkpt>
      <trkpt lat="32.867733333333334" lon="35.245925">
        <ele>254</ele>
        <time>2011-09-29T18:25:20.12</time>
      </trkpt>
      <trkpt lat="32.867725" lon="35.245911666666665">
        <ele>253</ele>
        <time>2011-09-29T18:25:21.12</time>
      </trkpt>
      <trkpt lat="32.86770166666667" lon="35.245886666666664">
        <ele>252.5</ele>
        <time>2011-09-29T18:25:22.12</time>
      </trkpt>
      <trkpt lat="32.86768" lon="35.24585833333333">
        <ele>252.5</ele>
        <time>2011-09-29T18:25:23.38</time>
      </trkpt>
      <trkpt lat="32.867675" lon="35.245845">
        <ele>252.5</ele>
        <time>2011-09-29T18:25:24.12</time>
      </trkpt>
      <trkpt lat="32.867665" lon="35.245846666666665">
        <ele>252</ele>
        <time>2011-09-29T18:25:25.13</time>
      </trkpt>
      <trkpt lat="32.86765666666667" lon="35.24583666666667">
        <ele>252</ele>
        <time>2011-09-29T18:25:26.12</time>
      </trkpt>
      <trkpt lat="32.867665" lon="35.245808333333336">
        <ele>252</ele>
        <time>2011-09-29T18:25:27.12</time>
      </trkpt>
      <trkpt lat="32.867671666666666" lon="35.24578666666667">
        <ele>251.5</ele>
        <time>2011-09-29T18:25:28.12</time>
      </trkpt>
      <trkpt lat="32.867675" lon="35.245763333333336">
        <ele>251.5</ele>
        <time>2011-09-29T18:25:29.12</time>
      </trkpt>
      <trkpt lat="32.86767666666667" lon="35.245745">
        <ele>251.5</ele>
        <time>2011-09-29T18:25:30.12</time>
      </trkpt>
      <trkpt lat="32.867673333333336" lon="35.24572833333333">
        <ele>252</ele>
        <time>2011-09-29T18:25:31.12</time>
      </trkpt>
      <trkpt lat="32.867668333333334" lon="35.24571">
        <ele>252</ele>
        <time>2011-09-29T18:25:32.12</time>
      </trkpt>
      <trkpt lat="32.867665" lon="35.24569833333333">
        <ele>252</ele>
        <time>2011-09-29T18:25:33.12</time>
      </trkpt>
      <trkpt lat="32.86765833333333" lon="35.245685">
        <ele>252.5</ele>
        <time>2011-09-29T18:25:34.12</time>
      </trkpt>
      <trkpt lat="32.86765833333333" lon="35.24568">
        <ele>253</ele>
        <time>2011-09-29T18:25:35.12</time>
      </trkpt>
      <trkpt lat="32.86765166666667" lon="35.24566166666666">
        <ele>253</ele>
        <time>2011-09-29T18:25:36.12</time>
      </trkpt>
      <trkpt lat="32.86767666666667" lon="35.245643333333334">
        <ele>253</ele>
        <time>2011-09-29T18:25:37.12</time>
      </trkpt>
      <trkpt lat="32.86767833333333" lon="35.245601666666666">
        <ele>253.5</ele>
        <time>2011-09-29T18:25:38.12</time>
      </trkpt>
      <trkpt lat="32.86768" lon="35.24557166666666">
        <ele>253.5</ele>
        <time>2011-09-29T18:25:39.12</time>
      </trkpt>
      <trkpt lat="32.86768" lon="35.24554666666667">
        <ele>253.5</ele>
        <time>2011-09-29T18:25:40.12</time>
      </trkpt>
      <trkpt lat="32.867668333333334" lon="35.245515">
        <ele>254.5</ele>
        <time>2011-09-29T18:25:42.12</time>
      </trkpt>
      <trkpt lat="32.86766333333333" lon="35.24549">
        <ele>255</ele>
        <time>2011-09-29T18:25:43.28</time>
      </trkpt>
      <trkpt lat="32.86765666666667" lon="35.24546333333333">
        <ele>255.5</ele>
        <time>2011-09-29T18:25:44.32</time>
      </trkpt>
      <trkpt lat="32.867655" lon="35.24543833333333">
        <ele>257</ele>
        <time>2011-09-29T18:25:45.12</time>
      </trkpt>
      <trkpt lat="32.86764333333333" lon="35.245416666666664">
        <ele>257</ele>
        <time>2011-09-29T18:25:46.12</time>
      </trkpt>
      <trkpt lat="32.86763166666667" lon="35.2454">
        <ele>257</ele>
        <time>2011-09-29T18:25:47.12</time>
      </trkpt>
      <trkpt lat="32.86761833333333" lon="35.24538">
        <ele>257</ele>
        <time>2011-09-29T18:25:48.12</time>
      </trkpt>
      <trkpt lat="32.867605" lon="35.245356666666666">
        <ele>256.5</ele>
        <time>2011-09-29T18:25:49.12</time>
      </trkpt>
      <trkpt lat="32.867576666666665" lon="35.24529">
        <ele>256</ele>
        <time>2011-09-29T18:25:51.12</time>
      </trkpt>
      <trkpt lat="32.867556666666665" lon="35.245265">
        <ele>256</ele>
        <time>2011-09-29T18:25:52.12</time>
      </trkpt>
      <trkpt lat="32.86754166666667" lon="35.245245">
        <ele>256</ele>
        <time>2011-09-29T18:25:53.12</time>
      </trkpt>
      <trkpt lat="32.86754" lon="35.245223333333335">
        <ele>256</ele>
        <time>2011-09-29T18:25:54.12</time>
      </trkpt>
      <trkpt lat="32.867536666666666" lon="35.24521">
        <ele>257</ele>
        <time>2011-09-29T18:25:55.12</time>
      </trkpt>
      <trkpt lat="32.867533333333334" lon="35.24518666666667">
        <ele>256.5</ele>
        <time>2011-09-29T18:25:56.12</time>
      </trkpt>
      <trkpt lat="32.86753" lon="35.245165">
        <ele>256.5</ele>
        <time>2011-09-29T18:25:57.12</time>
      </trkpt>
      <trkpt lat="32.86753" lon="35.245155">
        <ele>256.5</ele>
        <time>2011-09-29T18:25:58.12</time>
      </trkpt>
      <trkpt lat="32.86751666666667" lon="35.24513666666667">
        <ele>256.5</ele>
        <time>2011-09-29T18:25:59.24</time>
      </trkpt>
      <trkpt lat="32.86750833333333" lon="35.245125">
        <ele>257</ele>
        <time>2011-09-29T18:26:00.12</time>
      </trkpt>
      <trkpt lat="32.867506666666664" lon="35.245128333333334">
        <ele>257.5</ele>
        <time>2011-09-29T18:26:01.12</time>
      </trkpt>
      <trkpt lat="32.86747" lon="35.2451">
        <ele>257.5</ele>
        <time>2011-09-29T18:26:03.12</time>
      </trkpt>
      <trkpt lat="32.86746" lon="35.24507666666667">
        <ele>258.5</ele>
        <time>2011-09-29T18:26:04.12</time>
      </trkpt>
      <trkpt lat="32.86743666666667" lon="35.24505">
        <ele>258.5</ele>
        <time>2011-09-29T18:26:06.11</time>
      </trkpt>
      <trkpt lat="32.867423333333335" lon="35.245035">
        <ele>258.5</ele>
        <time>2011-09-29T18:26:07.32</time>
      </trkpt>
      <trkpt lat="32.8674" lon="35.24501333333333">
        <ele>258.5</ele>
        <time>2011-09-29T18:26:08.12</time>
      </trkpt>
      <trkpt lat="32.86736833333333" lon="35.244998333333335">
        <ele>258</ele>
        <time>2011-09-29T18:26:09.12</time>
      </trkpt>
      <trkpt lat="32.86734333333333" lon="35.24498666666667">
        <ele>257.5</ele>
        <time>2011-09-29T18:26:10.24</time>
      </trkpt>
      <trkpt lat="32.86732833333333" lon="35.244978333333336">
        <ele>257.5</ele>
        <time>2011-09-29T18:26:11.12</time>
      </trkpt>
      <trkpt lat="32.867308333333334" lon="35.24496666666667">
        <ele>257</ele>
        <time>2011-09-29T18:26:12.11</time>
      </trkpt>
      <trkpt lat="32.86728166666666" lon="35.24495833333334">
        <ele>257</ele>
        <time>2011-09-29T18:26:13.12</time>
      </trkpt>
      <trkpt lat="32.867261666666664" lon="35.244953333333335">
        <ele>257</ele>
        <time>2011-09-29T18:26:14.11</time>
      </trkpt>
      <trkpt lat="32.867245" lon="35.24495">
        <ele>256.5</ele>
        <time>2011-09-29T18:26:15.12</time>
      </trkpt>
      <trkpt lat="32.86723" lon="35.244926666666665">
        <ele>256.5</ele>
        <time>2011-09-29T18:26:16.12</time>
      </trkpt>
      <trkpt lat="32.86720833333333" lon="35.244906666666665">
        <ele>256</ele>
        <time>2011-09-29T18:26:17.12</time>
      </trkpt>
      <trkpt lat="32.86719166666666" lon="35.24489166666667">
        <ele>256</ele>
        <time>2011-09-29T18:26:18.12</time>
      </trkpt>
      <trkpt lat="32.86716666666667" lon="35.244881666666664">
        <ele>255.5</ele>
        <time>2011-09-29T18:26:19.11</time>
      </trkpt>
      <trkpt lat="32.86714666666666" lon="35.24486">
        <ele>255</ele>
        <time>2011-09-29T18:26:20.12</time>
      </trkpt>
      <trkpt lat="32.867133333333335" lon="35.244841666666666">
        <ele>254.5</ele>
        <time>2011-09-29T18:26:21.31</time>
      </trkpt>
      <trkpt lat="32.867126666666664" lon="35.244815">
        <ele>255.5</ele>
        <time>2011-09-29T18:26:22.12</time>
      </trkpt>
      <trkpt lat="32.86711833333333" lon="35.244798333333335">
        <ele>255.5</ele>
        <time>2011-09-29T18:26:23.11</time>
      </trkpt>
      <trkpt lat="32.867115" lon="35.244765">
        <ele>257.5</ele>
        <time>2011-09-29T18:26:24.11</time>
      </trkpt>
      <trkpt lat="32.867106666666665" lon="35.244746666666664">
        <ele>258</ele>
        <time>2011-09-29T18:26:25.13</time>
      </trkpt>
      <trkpt lat="32.867095" lon="35.24473">
        <ele>259</ele>
        <time>2011-09-29T18:26:26.11</time>
      </trkpt>
      <trkpt lat="32.86707666666667" lon="35.244725">
        <ele>259.5</ele>
        <time>2011-09-29T18:26:27.36</time>
      </trkpt>
      <trkpt lat="32.86706" lon="35.24471666666667">
        <ele>260.5</ele>
        <time>2011-09-29T18:26:28.11</time>
      </trkpt>
      <trkpt lat="32.867043333333335" lon="35.244708333333335">
        <ele>261</ele>
        <time>2011-09-29T18:26:29.11</time>
      </trkpt>
      <trkpt lat="32.867035" lon="35.24467833333333">
        <ele>261</ele>
        <time>2011-09-29T18:26:30.11</time>
      </trkpt>
      <trkpt lat="32.867018333333334" lon="35.24467">
        <ele>261.5</ele>
        <time>2011-09-29T18:26:31.11</time>
      </trkpt>
      <trkpt lat="32.86700333333334" lon="35.244655">
        <ele>261.5</ele>
        <time>2011-09-29T18:26:32.11</time>
      </trkpt>
      <trkpt lat="32.866985" lon="35.244658333333334">
        <ele>261.5</ele>
        <time>2011-09-29T18:26:33.11</time>
      </trkpt>
      <trkpt lat="32.866975" lon="35.24462833333333">
        <ele>261.5</ele>
        <time>2011-09-29T18:26:34.11</time>
      </trkpt>
      <trkpt lat="32.86696166666667" lon="35.244625">
        <ele>261.5</ele>
        <time>2011-09-29T18:26:35.11</time>
      </trkpt>
      <trkpt lat="32.866945" lon="35.244616666666666">
        <ele>261.5</ele>
        <time>2011-09-29T18:26:36.12</time>
      </trkpt>
      <trkpt lat="32.86691166666667" lon="35.24462">
        <ele>261.5</ele>
        <time>2011-09-29T18:26:37.11</time>
      </trkpt>
      <trkpt lat="32.86689666666667" lon="35.24461">
        <ele>261</ele>
        <time>2011-09-29T18:26:38.11</time>
      </trkpt>
      <trkpt lat="32.866881666666664" lon="35.244593333333334">
        <ele>261</ele>
        <time>2011-09-29T18:26:39.11</time>
      </trkpt>
      <trkpt lat="32.866865" lon="35.24456333333333">
        <ele>261</ele>
        <time>2011-09-29T18:26:40.11</time>
      </trkpt>
      <trkpt lat="32.86685" lon="35.24455666666667">
        <ele>259</ele>
        <time>2011-09-29T18:26:41.11</time>
      </trkpt>
      <trkpt lat="32.866836666666664" lon="35.24453333333334">
        <ele>259</ele>
        <time>2011-09-29T18:26:42.11</time>
      </trkpt>
      <trkpt lat="32.86682" lon="35.24451166666667">
        <ele>259</ele>
        <time>2011-09-29T18:26:43.11</time>
      </trkpt>
      <trkpt lat="32.86680166666667" lon="35.24449333333333">
        <ele>259</ele>
        <time>2011-09-29T18:26:44.11</time>
      </trkpt>
      <trkpt lat="32.86678" lon="35.244483333333335">
        <ele>258.5</ele>
        <time>2011-09-29T18:26:45.11</time>
      </trkpt>
      <trkpt lat="32.86676166666667" lon="35.244461666666666">
        <ele>259.5</ele>
        <time>2011-09-29T18:26:46.11</time>
      </trkpt>
      <trkpt lat="32.86673833333333" lon="35.244458333333334">
        <ele>259</ele>
        <time>2011-09-29T18:26:47.11</time>
      </trkpt>
      <trkpt lat="32.86671833333333" lon="35.244445">
        <ele>259.5</ele>
        <time>2011-09-29T18:26:48.11</time>
      </trkpt>
      <trkpt lat="32.86669666666667" lon="35.24444">
        <ele>259</ele>
        <time>2011-09-29T18:26:49.22</time>
      </trkpt>
      <trkpt lat="32.86667833333333" lon="35.244425">
        <ele>259</ele>
        <time>2011-09-29T18:26:50.10</time>
      </trkpt>
      <trkpt lat="32.86666" lon="35.24440833333333">
        <ele>259</ele>
        <time>2011-09-29T18:26:51.10</time>
      </trkpt>
      <trkpt lat="32.86663166666666" lon="35.244393333333335">
        <ele>261</ele>
        <time>2011-09-29T18:26:52.11</time>
      </trkpt>
      <trkpt lat="32.8666" lon="35.24439">
        <ele>260.5</ele>
        <time>2011-09-29T18:26:53.10</time>
      </trkpt>
      <trkpt lat="32.866573333333335" lon="35.244375">
        <ele>261</ele>
        <time>2011-09-29T18:26:54.10</time>
      </trkpt>
      <trkpt lat="32.86653833333333" lon="35.244371666666666">
        <ele>261</ele>
        <time>2011-09-29T18:26:55.10</time>
      </trkpt>
      <trkpt lat="32.866503333333334" lon="35.24436">
        <ele>261</ele>
        <time>2011-09-29T18:26:56.11</time>
      </trkpt>
      <trkpt lat="32.866475" lon="35.244366666666664">
        <ele>259.5</ele>
        <time>2011-09-29T18:26:57.11</time>
      </trkpt>
      <trkpt lat="32.866456666666664" lon="35.244365">
        <ele>259.5</ele>
        <time>2011-09-29T18:26:58.11</time>
      </trkpt>
      <trkpt lat="32.86642666666667" lon="35.244371666666666">
        <ele>259</ele>
        <time>2011-09-29T18:26:59.11</time>
      </trkpt>
      <trkpt lat="32.86640333333333" lon="35.244371666666666">
        <ele>259</ele>
        <time>2011-09-29T18:27:00.11</time>
      </trkpt>
      <trkpt lat="32.866385" lon="35.244375">
        <ele>259</ele>
        <time>2011-09-29T18:27:01.11</time>
      </trkpt>
      <trkpt lat="32.86638833333333" lon="35.24438">
        <ele>259</ele>
        <time>2011-09-29T18:27:03.27</time>
      </trkpt>
      <trkpt lat="32.86638" lon="35.24439">
        <ele>259</ele>
        <time>2011-09-29T18:27:04.36</time>
      </trkpt>
      <trkpt lat="32.86638166666667" lon="35.24440166666667">
        <ele>259</ele>
        <time>2011-09-29T18:27:05.11</time>
      </trkpt>
      <trkpt lat="32.86638" lon="35.24440666666667">
        <ele>259</ele>
        <time>2011-09-29T18:27:06.11</time>
      </trkpt>
      <trkpt lat="32.86638333333333" lon="35.24440666666667">
        <ele>259</ele>
        <time>2011-09-29T18:27:07.11</time>
      </trkpt>
      <trkpt lat="32.86631833333333" lon="35.244445">
        <ele>259</ele>
        <time>2011-09-29T18:27:09.11</time>
      </trkpt>
      <trkpt lat="32.86631333333333" lon="35.24445166666667">
        <ele>259</ele>
        <time>2011-09-29T18:27:10.10</time>
      </trkpt>
      <trkpt lat="32.866305" lon="35.244456666666665">
        <ele>259</ele>
        <time>2011-09-29T18:27:11.11</time>
      </trkpt>
      <trkpt lat="32.866281666666666" lon="35.24447166666667">
        <ele>259</ele>
        <time>2011-09-29T18:27:12.10</time>
      </trkpt>
      <trkpt lat="32.866278333333334" lon="35.244475">
        <ele>259</ele>
        <time>2011-09-29T18:27:13.10</time>
      </trkpt>
      <trkpt lat="32.86627166666667" lon="35.24449333333333">
        <ele>259</ele>
        <time>2011-09-29T18:27:14.10</time>
      </trkpt>
      <trkpt lat="32.86625" lon="35.24447833333333">
        <ele>258.5</ele>
        <time>2011-09-29T18:27:15.10</time>
      </trkpt>
      <trkpt lat="32.866211666666665" lon="35.24453166666667">
        <ele>258.5</ele>
        <time>2011-09-29T18:27:17.18</time>
      </trkpt>
      <trkpt lat="32.86619833333334" lon="35.24455">
        <ele>258</ele>
        <time>2011-09-29T18:27:18.10</time>
      </trkpt>
      <trkpt lat="32.86619" lon="35.24456">
        <ele>258</ele>
        <time>2011-09-29T18:27:19.10</time>
      </trkpt>
      <trkpt lat="32.866186666666664" lon="35.24456333333333">
        <ele>258.5</ele>
        <time>2011-09-29T18:27:20.10</time>
      </trkpt>
      <trkpt lat="32.866186666666664" lon="35.24456833333333">
        <ele>258.5</ele>
        <time>2011-09-29T18:27:21.28</time>
      </trkpt>
      <trkpt lat="32.866185" lon="35.244575">
        <ele>258.5</ele>
        <time>2011-09-29T18:27:22.10</time>
      </trkpt>
      <trkpt lat="32.86616333333333" lon="35.24459">
        <ele>258.5</ele>
        <time>2011-09-29T18:27:23.98</time>
      </trkpt>
      <trkpt lat="32.866148333333335" lon="35.24460666666667">
        <ele>258.5</ele>
        <time>2011-09-29T18:27:24.10</time>
      </trkpt>
      <trkpt lat="32.86612" lon="35.244625">
        <ele>258.5</ele>
        <time>2011-09-29T18:27:25.11</time>
      </trkpt>
      <trkpt lat="32.86611" lon="35.24464">
        <ele>258.5</ele>
        <time>2011-09-29T18:27:26.17</time>
      </trkpt>
      <trkpt lat="32.866105" lon="35.244655">
        <ele>258.5</ele>
        <time>2011-09-29T18:27:27.10</time>
      </trkpt>
      <trkpt lat="32.866115" lon="35.24467333333333">
        <ele>259</ele>
        <time>2011-09-29T18:27:28.10</time>
      </trkpt>
      <trkpt lat="32.86611833333333" lon="35.244683333333334">
        <ele>259</ele>
        <time>2011-09-29T18:27:29.10</time>
      </trkpt>
      <trkpt lat="32.86611" lon="35.244705">
        <ele>259</ele>
        <time>2011-09-29T18:27:30.10</time>
      </trkpt>
      <trkpt lat="32.866105" lon="35.24473">
        <ele>259.5</ele>
        <time>2011-09-29T18:27:31.10</time>
      </trkpt>
      <trkpt lat="32.866103333333335" lon="35.24476">
        <ele>259.5</ele>
        <time>2011-09-29T18:27:32.10</time>
      </trkpt>
      <trkpt lat="32.86608" lon="35.24478166666667">
        <ele>259.5</ele>
        <time>2011-09-29T18:27:33.10</time>
      </trkpt>
      <trkpt lat="32.86607166666667" lon="35.24480333333333">
        <ele>260</ele>
        <time>2011-09-29T18:27:34.98</time>
      </trkpt>
      <trkpt lat="32.86606166666667" lon="35.24482666666667">
        <ele>259.5</ele>
        <time>2011-09-29T18:27:35.10</time>
      </trkpt>
      <trkpt lat="32.866056666666665" lon="35.244835">
        <ele>260.5</ele>
        <time>2011-09-29T18:27:36.10</time>
      </trkpt>
      <trkpt lat="32.86604833333333" lon="35.24484833333333">
        <ele>260.5</ele>
        <time>2011-09-29T18:27:37.10</time>
      </trkpt>
      <trkpt lat="32.866036666666666" lon="35.244855">
        <ele>260.5</ele>
        <time>2011-09-29T18:27:38.10</time>
      </trkpt>
      <trkpt lat="32.86602166666667" lon="35.244861666666665">
        <ele>261</ele>
        <time>2011-09-29T18:27:39.10</time>
      </trkpt>
      <trkpt lat="32.86600333333333" lon="35.244881666666664">
        <ele>261.5</ele>
        <time>2011-09-29T18:27:40.10</time>
      </trkpt>
      <trkpt lat="32.86599" lon="35.244886666666666">
        <ele>261.5</ele>
        <time>2011-09-29T18:27:41.27</time>
      </trkpt>
      <trkpt lat="32.86593333333333" lon="35.24491">
        <ele>264</ele>
        <time>2011-09-29T18:27:43.10</time>
      </trkpt>
      <trkpt lat="32.865923333333335" lon="35.244925">
        <ele>264</ele>
        <time>2011-09-29T18:27:44.10</time>
      </trkpt>
      <trkpt lat="32.865921666666665" lon="35.244931666666666">
        <ele>264</ele>
        <time>2011-09-29T18:27:45.29</time>
      </trkpt>
      <trkpt lat="32.86591333333333" lon="35.24494">
        <ele>264</ele>
        <time>2011-09-29T18:27:46.10</time>
      </trkpt>
      <trkpt lat="32.86591" lon="35.24494833333333">
        <ele>264</ele>
        <time>2011-09-29T18:27:47.10</time>
      </trkpt>
      <trkpt lat="32.865788333333334" lon="35.244883333333334">
        <ele>262.5</ele>
        <time>2011-09-29T18:27:50.10</time>
      </trkpt>
      <trkpt lat="32.865745" lon="35.24486666666667">
        <ele>262.5</ele>
        <time>2011-09-29T18:27:52.10</time>
      </trkpt>
      <trkpt lat="32.86570666666667" lon="35.24484833333333">
        <ele>262.5</ele>
        <time>2011-09-29T18:27:55.10</time>
      </trkpt>
      <trkpt lat="32.865676666666666" lon="35.244883333333334">
        <ele>262</ele>
        <time>2011-09-29T18:27:57.22</time>
      </trkpt>
      <trkpt lat="32.86567" lon="35.244908333333335">
        <ele>261.5</ele>
        <time>2011-09-29T18:27:58.98</time>
      </trkpt>
      <trkpt lat="32.86566333333333" lon="35.24493">
        <ele>259.5</ele>
        <time>2011-09-29T18:27:59.10</time>
      </trkpt>
      <trkpt lat="32.86566" lon="35.24495666666667">
        <ele>259.5</ele>
        <time>2011-09-29T18:28:00.10</time>
      </trkpt>
      <trkpt lat="32.865655" lon="35.244991666666664">
        <ele>258</ele>
        <time>2011-09-29T18:28:01.98</time>
      </trkpt>
      <trkpt lat="32.865656666666666" lon="35.24501333333333">
        <ele>257</ele>
        <time>2011-09-29T18:28:02.10</time>
      </trkpt>
      <trkpt lat="32.865655" lon="35.24504">
        <ele>258</ele>
        <time>2011-09-29T18:28:03.98</time>
      </trkpt>
      <trkpt lat="32.865658333333336" lon="35.24505333333333">
        <ele>258</ele>
        <time>2011-09-29T18:28:04.98</time>
      </trkpt>
      <trkpt lat="32.865656666666666" lon="35.24508333333333">
        <ele>258.5</ele>
        <time>2011-09-29T18:28:05.98</time>
      </trkpt>
      <trkpt lat="32.86564333333333" lon="35.245111666666666">
        <ele>258.5</ele>
        <time>2011-09-29T18:28:06.10</time>
      </trkpt>
      <trkpt lat="32.865605" lon="35.245198333333335">
        <ele>257.5</ele>
        <time>2011-09-29T18:28:08.30</time>
      </trkpt>
      <trkpt lat="32.865595" lon="35.245223333333335">
        <ele>257.5</ele>
        <time>2011-09-29T18:28:09.98</time>
      </trkpt>
      <trkpt lat="32.865586666666665" lon="35.24524">
        <ele>257.5</ele>
        <time>2011-09-29T18:28:10.98</time>
      </trkpt>
      <trkpt lat="32.86557833333333" lon="35.245255">
        <ele>257.5</ele>
        <time>2011-09-29T18:28:11.10</time>
      </trkpt>
      <trkpt lat="32.865568333333336" lon="35.24528">
        <ele>258</ele>
        <time>2011-09-29T18:28:12.10</time>
      </trkpt>
      <trkpt lat="32.865561666666665" lon="35.24530333333333">
        <ele>258</ele>
        <time>2011-09-29T18:28:13.37</time>
      </trkpt>
      <trkpt lat="32.86555333333333" lon="35.24532">
        <ele>258.5</ele>
        <time>2011-09-29T18:28:14.98</time>
      </trkpt>
      <trkpt lat="32.865543333333335" lon="35.245333333333335">
        <ele>258.5</ele>
        <time>2011-09-29T18:28:15.98</time>
      </trkpt>
      <trkpt lat="32.86553833333333" lon="35.24534166666667">
        <ele>258.5</ele>
        <time>2011-09-29T18:28:16.23</time>
      </trkpt>
      <trkpt lat="32.865545" lon="35.24536833333333">
        <ele>258.5</ele>
        <time>2011-09-29T18:28:17.98</time>
      </trkpt>
      <trkpt lat="32.86554" lon="35.24537333333333">
        <ele>258.5</ele>
        <time>2011-09-29T18:28:18.88</time>
      </trkpt>
      <trkpt lat="32.865516666666664" lon="35.24548333333333">
        <ele>259</ele>
        <time>2011-09-29T18:28:20.98</time>
      </trkpt>
      <trkpt lat="32.86551" lon="35.24556666666667">
        <ele>259</ele>
        <time>2011-09-29T18:28:22.98</time>
      </trkpt>
      <trkpt lat="32.86548833333333" lon="35.24559166666667">
        <ele>258</ele>
        <time>2011-09-29T18:28:23.98</time>
      </trkpt>
      <trkpt lat="32.86547" lon="35.24561166666667">
        <ele>258</ele>
        <time>2011-09-29T18:28:24.98</time>
      </trkpt>
      <trkpt lat="32.86543833333333" lon="35.245713333333335">
        <ele>259</ele>
        <time>2011-09-29T18:28:26.98</time>
      </trkpt>
      <trkpt lat="32.86544" lon="35.245825">
        <ele>260.5</ele>
        <time>2011-09-29T18:28:28.88</time>
      </trkpt>
      <trkpt lat="32.865431666666666" lon="35.245845">
        <ele>260.5</ele>
        <time>2011-09-29T18:28:29.88</time>
      </trkpt>
      <trkpt lat="32.86542166666667" lon="35.24586166666667">
        <ele>260.5</ele>
        <time>2011-09-29T18:28:30.78</time>
      </trkpt>
      <trkpt lat="32.86541666666667" lon="35.245873333333336">
        <ele>260.5</ele>
        <time>2011-09-29T18:28:31.88</time>
      </trkpt>
      <trkpt lat="32.865413333333336" lon="35.24590833333333">
        <ele>260.5</ele>
        <time>2011-09-29T18:28:32.88</time>
      </trkpt>
      <trkpt lat="32.865408333333335" lon="35.245935">
        <ele>261</ele>
        <time>2011-09-29T18:28:33.88</time>
      </trkpt>
      <trkpt lat="32.865408333333335" lon="35.245958333333334">
        <ele>261</ele>
        <time>2011-09-29T18:28:34.88</time>
      </trkpt>
      <trkpt lat="32.865405" lon="35.24597333333333">
        <ele>261</ele>
        <time>2011-09-29T18:28:35.22</time>
      </trkpt>
      <trkpt lat="32.86540333333333" lon="35.24599833333333">
        <ele>261</ele>
        <time>2011-09-29T18:28:36.88</time>
      </trkpt>
      <trkpt lat="32.86540166666666" lon="35.24601333333333">
        <ele>261.5</ele>
        <time>2011-09-29T18:28:37.88</time>
      </trkpt>
      <trkpt lat="32.865428333333334" lon="35.246091666666665">
        <ele>262.5</ele>
        <time>2011-09-29T18:28:39.36</time>
      </trkpt>
      <trkpt lat="32.865433333333335" lon="35.246115">
        <ele>263</ele>
        <time>2011-09-29T18:28:40.88</time>
      </trkpt>
      <trkpt lat="32.86545" lon="35.246143333333336">
        <ele>263</ele>
        <time>2011-09-29T18:28:41.88</time>
      </trkpt>
      <trkpt lat="32.86546166666667" lon="35.24617833333333">
        <ele>263</ele>
        <time>2011-09-29T18:28:42.98</time>
      </trkpt>
      <trkpt lat="32.86547" lon="35.24619166666667">
        <ele>263</ele>
        <time>2011-09-29T18:28:43.88</time>
      </trkpt>
      <trkpt lat="32.865475" lon="35.246205">
        <ele>263</ele>
        <time>2011-09-29T18:28:44.98</time>
      </trkpt>
      <trkpt lat="32.86548166666667" lon="35.24621666666667">
        <ele>263</ele>
        <time>2011-09-29T18:28:45.88</time>
      </trkpt>
      <trkpt lat="32.86548166666667" lon="35.24624166666667">
        <ele>263.5</ele>
        <time>2011-09-29T18:28:46.88</time>
      </trkpt>
      <trkpt lat="32.865478333333336" lon="35.246265">
        <ele>264</ele>
        <time>2011-09-29T18:28:47.88</time>
      </trkpt>
      <trkpt lat="32.865478333333336" lon="35.246278333333336">
        <ele>264</ele>
        <time>2011-09-29T18:28:48.88</time>
      </trkpt>
      <trkpt lat="32.86548333333333" lon="35.246293333333334">
        <ele>263.5</ele>
        <time>2011-09-29T18:28:49.88</time>
      </trkpt>
      <trkpt lat="32.86548166666667" lon="35.246311666666664">
        <ele>264.5</ele>
        <time>2011-09-29T18:28:50.98</time>
      </trkpt>
      <trkpt lat="32.865485" lon="35.24634833333333">
        <ele>266</ele>
        <time>2011-09-29T18:28:51.98</time>
      </trkpt>
      <trkpt lat="32.86544833333333" lon="35.24643">
        <ele>267</ele>
        <time>2011-09-29T18:28:53.88</time>
      </trkpt>
      <trkpt lat="32.865433333333335" lon="35.24645666666667">
        <ele>267.5</ele>
        <time>2011-09-29T18:28:54.88</time>
      </trkpt>
      <trkpt lat="32.86542333333333" lon="35.24648666666667">
        <ele>268.5</ele>
        <time>2011-09-29T18:28:55.88</time>
      </trkpt>
      <trkpt lat="32.8654" lon="35.24648333333333">
        <ele>270.5</ele>
        <time>2011-09-29T18:28:56.88</time>
      </trkpt>
      <trkpt lat="32.865385" lon="35.24648833333333">
        <ele>272.5</ele>
        <time>2011-09-29T18:28:57.88</time>
      </trkpt>
      <trkpt lat="32.86536666666667" lon="35.24649">
        <ele>273.5</ele>
        <time>2011-09-29T18:28:58.88</time>
      </trkpt>
      <trkpt lat="32.86535666666666" lon="35.2465">
        <ele>274.5</ele>
        <time>2011-09-29T18:28:59.88</time>
      </trkpt>
      <trkpt lat="32.865341666666666" lon="35.24650333333334">
        <ele>276</ele>
        <time>2011-09-29T18:29:00.30</time>
      </trkpt>
      <trkpt lat="32.86530666666667" lon="35.24650833333333">
        <ele>279.5</ele>
        <time>2011-09-29T18:29:01.78</time>
      </trkpt>
      <trkpt lat="32.865136666666665" lon="35.24670666666667">
        <ele>286.5</ele>
        <time>2011-09-29T18:29:04.88</time>
      </trkpt>
      <trkpt lat="32.86508" lon="35.24677833333333">
        <ele>287</ele>
        <time>2011-09-29T18:29:06.88</time>
      </trkpt>
      <trkpt lat="32.86497" lon="35.246808333333334">
        <ele>289.5</ele>
        <time>2011-09-29T18:29:09.88</time>
      </trkpt>
      <trkpt lat="32.86493333333333" lon="35.24679666666667">
        <ele>289.5</ele>
        <time>2011-09-29T18:29:10.78</time>
      </trkpt>
      <trkpt lat="32.864885" lon="35.246786666666665">
        <ele>289.5</ele>
        <time>2011-09-29T18:29:11.78</time>
      </trkpt>
      <trkpt lat="32.86483833333333" lon="35.246768333333335">
        <ele>289.5</ele>
        <time>2011-09-29T18:29:12.88</time>
      </trkpt>
      <trkpt lat="32.864803333333334" lon="35.246735">
        <ele>289.5</ele>
        <time>2011-09-29T18:29:13.25</time>
      </trkpt>
      <trkpt lat="32.864776666666664" lon="35.246721666666666">
        <ele>289.5</ele>
        <time>2011-09-29T18:29:14.78</time>
      </trkpt>
      <trkpt lat="32.86475166666666" lon="35.246716666666664">
        <ele>289.5</ele>
        <time>2011-09-29T18:29:15.88</time>
      </trkpt>
      <trkpt lat="32.86472166666667" lon="35.24670666666667">
        <ele>290</ele>
        <time>2011-09-29T18:29:16.78</time>
      </trkpt>
      <trkpt lat="32.86469833333334" lon="35.24670666666667">
        <ele>290</ele>
        <time>2011-09-29T18:29:17.78</time>
      </trkpt>
      <trkpt lat="32.864675" lon="35.24670166666667">
        <ele>290</ele>
        <time>2011-09-29T18:29:18.78</time>
      </trkpt>
      <trkpt lat="32.864655" lon="35.246698333333335">
        <ele>290</ele>
        <time>2011-09-29T18:29:19.78</time>
      </trkpt>
      <trkpt lat="32.864626666666666" lon="35.246715">
        <ele>289</ele>
        <time>2011-09-29T18:29:20.88</time>
      </trkpt>
      <trkpt lat="32.864605" lon="35.24672">
        <ele>288.5</ele>
        <time>2011-09-29T18:29:21.78</time>
      </trkpt>
      <trkpt lat="32.864575" lon="35.246723333333335">
        <ele>288.5</ele>
        <time>2011-09-29T18:29:22.28</time>
      </trkpt>
      <trkpt lat="32.86454833333333" lon="35.24672">
        <ele>288.5</ele>
        <time>2011-09-29T18:29:23.78</time>
      </trkpt>
      <trkpt lat="32.86452333333333" lon="35.246718333333334">
        <ele>288</ele>
        <time>2011-09-29T18:29:24.78</time>
      </trkpt>
      <trkpt lat="32.864506666666664" lon="35.24672">
        <ele>288</ele>
        <time>2011-09-29T18:29:25.25</time>
      </trkpt>
      <trkpt lat="32.864491666666666" lon="35.246721666666666">
        <ele>288</ele>
        <time>2011-09-29T18:29:26.78</time>
      </trkpt>
      <trkpt lat="32.864475" lon="35.246723333333335">
        <ele>287.5</ele>
        <time>2011-09-29T18:29:28.78</time>
      </trkpt>
      <trkpt lat="32.86448" lon="35.24675333333333">
        <ele>287</ele>
        <time>2011-09-29T18:29:29.78</time>
      </trkpt>
      <trkpt lat="32.864488333333334" lon="35.24677166666667">
        <ele>287.5</ele>
        <time>2011-09-29T18:29:30.78</time>
      </trkpt>
      <trkpt lat="32.864448333333335" lon="35.246806666666664">
        <ele>287</ele>
        <time>2011-09-29T18:29:32.78</time>
      </trkpt>
      <trkpt lat="32.864415" lon="35.246826666666664">
        <ele>287.5</ele>
        <time>2011-09-29T18:29:33.18</time>
      </trkpt>
      <trkpt lat="32.86438666666667" lon="35.24684333333333">
        <ele>288</ele>
        <time>2011-09-29T18:29:34.78</time>
      </trkpt>
      <trkpt lat="32.86432833333333" lon="35.246858333333336">
        <ele>286.5</ele>
        <time>2011-09-29T18:29:36.78</time>
      </trkpt>
      <trkpt lat="32.86434" lon="35.246826666666664">
        <ele>286.5</ele>
        <time>2011-09-29T18:29:38.78</time>
      </trkpt>
      <trkpt lat="32.86436333333333" lon="35.24681833333333">
        <ele>285.5</ele>
        <time>2011-09-29T18:29:39.78</time>
      </trkpt>
      <trkpt lat="32.864365" lon="35.24678333333333">
        <ele>285</ele>
        <time>2011-09-29T18:29:40.68</time>
      </trkpt>
      <trkpt lat="32.86441" lon="35.24673">
        <ele>286</ele>
        <time>2011-09-29T18:29:42.78</time>
      </trkpt>
      <trkpt lat="32.86441833333333" lon="35.246718333333334">
        <ele>286.5</ele>
        <time>2011-09-29T18:29:44.78</time>
      </trkpt>
      <trkpt lat="32.86434833333333" lon="35.24673666666666">
        <ele>286</ele>
        <time>2011-09-29T18:29:45.73</time>
      </trkpt>
      <trkpt lat="32.86427666666667" lon="35.246743333333335">
        <ele>286</ele>
        <time>2011-09-29T18:29:47.74</time>
      </trkpt>
      <trkpt lat="32.864216666666664" lon="35.246781666666664">
        <ele>286.5</ele>
        <time>2011-09-29T18:29:49.73</time>
      </trkpt>
      <trkpt lat="32.86418833333333" lon="35.24679">
        <ele>286.5</ele>
        <time>2011-09-29T18:29:50.74</time>
      </trkpt>
      <trkpt lat="32.864178333333335" lon="35.246788333333335">
        <ele>286.5</ele>
        <time>2011-09-29T18:29:51.73</time>
      </trkpt>
      <trkpt lat="32.86416166666667" lon="35.24679666666667">
        <ele>287</ele>
        <time>2011-09-29T18:29:52.73</time>
      </trkpt>
      <trkpt lat="32.864086666666665" lon="35.24682166666667">
        <ele>288.5</ele>
        <time>2011-09-29T18:29:54.73</time>
      </trkpt>
      <trkpt lat="32.86405333333333" lon="35.24684333333333">
        <ele>289</ele>
        <time>2011-09-29T18:29:55.73</time>
      </trkpt>
      <trkpt lat="32.86404666666667" lon="35.246851666666664">
        <ele>289.5</ele>
        <time>2011-09-29T18:29:56.73</time>
      </trkpt>
      <trkpt lat="32.86398166666667" lon="35.24687333333333">
        <ele>290.5</ele>
        <time>2011-09-29T18:29:58.73</time>
      </trkpt>
      <trkpt lat="32.86397" lon="35.246895">
        <ele>291</ele>
        <time>2011-09-29T18:29:59.73</time>
      </trkpt>
      <trkpt lat="32.86394333333333" lon="35.24690666666667">
        <ele>291.5</ele>
        <time>2011-09-29T18:30:00.74</time>
      </trkpt>
      <trkpt lat="32.863931666666666" lon="35.246916666666664">
        <ele>291.5</ele>
        <time>2011-09-29T18:30:01.73</time>
      </trkpt>
      <trkpt lat="32.86392" lon="35.24692666666667">
        <ele>291.5</ele>
        <time>2011-09-29T18:30:02.84</time>
      </trkpt>
      <trkpt lat="32.86391666666667" lon="35.24693666666667">
        <ele>291.5</ele>
        <time>2011-09-29T18:30:03.97</time>
      </trkpt>
      <trkpt lat="32.863888333333335" lon="35.24697">
        <ele>291.5</ele>
        <time>2011-09-29T18:30:05.73</time>
      </trkpt>
      <trkpt lat="32.86389" lon="35.24697333333334">
        <ele>291.5</ele>
        <time>2011-09-29T18:30:06.86</time>
      </trkpt>
      <trkpt lat="32.86389166666667" lon="35.246975">
        <ele>291.5</ele>
        <time>2011-09-29T18:30:07.73</time>
      </trkpt>
      <trkpt lat="32.863895" lon="35.24699">
        <ele>291.5</ele>
        <time>2011-09-29T18:30:08.73</time>
      </trkpt>
      <trkpt lat="32.863885" lon="35.24698">
        <ele>292</ele>
        <time>2011-09-29T18:30:09.75</time>
      </trkpt>
      <trkpt lat="32.863865" lon="35.246993333333336">
        <ele>290.5</ele>
        <time>2011-09-29T18:30:10.73</time>
      </trkpt>
      <trkpt lat="32.863845" lon="35.24700166666667">
        <ele>290.5</ele>
        <time>2011-09-29T18:30:11.73</time>
      </trkpt>
      <trkpt lat="32.86383" lon="35.24700833333333">
        <ele>290.5</ele>
        <time>2011-09-29T18:30:12.73</time>
      </trkpt>
      <trkpt lat="32.86382166666667" lon="35.247013333333335">
        <ele>290.5</ele>
        <time>2011-09-29T18:30:13.73</time>
      </trkpt>
      <trkpt lat="32.86380666666667" lon="35.247015">
        <ele>290</ele>
        <time>2011-09-29T18:30:14.73</time>
      </trkpt>
      <trkpt lat="32.863798333333335" lon="35.24701833333334">
        <ele>290</ele>
        <time>2011-09-29T18:30:15.73</time>
      </trkpt>
      <trkpt lat="32.86378833333333" lon="35.24702333333333">
        <ele>290</ele>
        <time>2011-09-29T18:30:16.73</time>
      </trkpt>
      <trkpt lat="32.86378" lon="35.247025">
        <ele>290</ele>
        <time>2011-09-29T18:30:17.99</time>
      </trkpt>
      <trkpt lat="32.863775" lon="35.24702">
        <ele>290</ele>
        <time>2011-09-29T18:30:18.72</time>
      </trkpt>
      <trkpt lat="32.86376333333333" lon="35.247013333333335">
        <ele>290</ele>
        <time>2011-09-29T18:30:19.72</time>
      </trkpt>
      <trkpt lat="32.86370333333333" lon="35.247045">
        <ele>288</ele>
        <time>2011-09-29T18:30:21.72</time>
      </trkpt>
      <trkpt lat="32.86369833333333" lon="35.247056666666666">
        <ele>287.5</ele>
        <time>2011-09-29T18:30:22.95</time>
      </trkpt>
      <trkpt lat="32.86369166666667" lon="35.247058333333335">
        <ele>288</ele>
        <time>2011-09-29T18:30:23.73</time>
      </trkpt>
      <trkpt lat="32.863683333333334" lon="35.247056666666666">
        <ele>288</ele>
        <time>2011-09-29T18:30:24.74</time>
      </trkpt>
      <trkpt lat="32.863675" lon="35.24706">
        <ele>288</ele>
        <time>2011-09-29T18:30:25.73</time>
      </trkpt>
      <trkpt lat="32.86366666666667" lon="35.247056666666666">
        <ele>288</ele>
        <time>2011-09-29T18:30:26.73</time>
      </trkpt>
      <trkpt lat="32.86364833333333" lon="35.24707166666666">
        <ele>288</ele>
        <time>2011-09-29T18:30:27.73</time>
      </trkpt>
      <trkpt lat="32.863643333333336" lon="35.247076666666665">
        <ele>288</ele>
        <time>2011-09-29T18:30:28.73</time>
      </trkpt>
      <trkpt lat="32.86363333333333" lon="35.247083333333336">
        <ele>288</ele>
        <time>2011-09-29T18:30:29.73</time>
      </trkpt>
      <trkpt lat="32.86362666666667" lon="35.2471">
        <ele>288</ele>
        <time>2011-09-29T18:30:30.73</time>
      </trkpt>
      <trkpt lat="32.86361" lon="35.24712">
        <ele>287.5</ele>
        <time>2011-09-29T18:30:31.73</time>
      </trkpt>
      <trkpt lat="32.86357666666667" lon="35.24713166666667">
        <ele>287.5</ele>
        <time>2011-09-29T18:30:32.96</time>
      </trkpt>
      <trkpt lat="32.863555" lon="35.247145">
        <ele>287.5</ele>
        <time>2011-09-29T18:30:33.73</time>
      </trkpt>
      <trkpt lat="32.863548333333334" lon="35.24715166666667">
        <ele>287.5</ele>
        <time>2011-09-29T18:30:34.73</time>
      </trkpt>
      <trkpt lat="32.863545" lon="35.24716">
        <ele>287.5</ele>
        <time>2011-09-29T18:30:35.73</time>
      </trkpt>
      <trkpt lat="32.86354" lon="35.247168333333335">
        <ele>287.5</ele>
        <time>2011-09-29T18:30:36.73</time>
      </trkpt>
      <trkpt lat="32.863533333333336" lon="35.24717666666667">
        <ele>287.5</ele>
        <time>2011-09-29T18:30:37.73</time>
      </trkpt>
      <trkpt lat="32.86352333333333" lon="35.24719">
        <ele>287</ele>
        <time>2011-09-29T18:30:38.72</time>
      </trkpt>
      <trkpt lat="32.863515" lon="35.24723">
        <ele>286.5</ele>
        <time>2011-09-29T18:30:39.73</time>
      </trkpt>
      <trkpt lat="32.863508333333336" lon="35.24724">
        <ele>286.5</ele>
        <time>2011-09-29T18:30:40.72</time>
      </trkpt>
      <trkpt lat="32.8635" lon="35.24726">
        <ele>286.5</ele>
        <time>2011-09-29T18:30:41.72</time>
      </trkpt>
      <trkpt lat="32.863443333333336" lon="35.24731666666667">
        <ele>287</ele>
        <time>2011-09-29T18:30:43.72</time>
      </trkpt>
      <trkpt lat="32.863275" lon="35.24744833333333">
        <ele>289</ele>
        <time>2011-09-29T18:30:46.73</time>
      </trkpt>
      <trkpt lat="32.863255" lon="35.24747166666667">
        <ele>289.5</ele>
        <time>2011-09-29T18:30:47.72</time>
      </trkpt>
      <trkpt lat="32.86323333333333" lon="35.24748833333334">
        <ele>290</ele>
        <time>2011-09-29T18:30:48.72</time>
      </trkpt>
      <trkpt lat="32.86292" lon="35.247703333333334">
        <ele>291.5</ele>
        <time>2011-09-29T18:30:53.72</time>
      </trkpt>
      <trkpt lat="32.862855" lon="35.24776833333333">
        <ele>293.5</ele>
        <time>2011-09-29T18:30:55.72</time>
      </trkpt>
      <trkpt lat="32.86282" lon="35.247771666666665">
        <ele>294</ele>
        <time>2011-09-29T18:30:56.72</time>
      </trkpt>
      <trkpt lat="32.862811666666666" lon="35.24782833333333">
        <ele>294</ele>
        <time>2011-09-29T18:30:57.73</time>
      </trkpt>
      <trkpt lat="32.862806666666664" lon="35.24787166666667">
        <ele>294</ele>
        <time>2011-09-29T18:30:58.72</time>
      </trkpt>
      <trkpt lat="32.86276333333333" lon="35.24791833333333">
        <ele>292</ele>
        <time>2011-09-29T18:30:59.72</time>
      </trkpt>
      <trkpt lat="32.86268" lon="35.24801166666666">
        <ele>289</ele>
        <time>2011-09-29T18:31:01.72</time>
      </trkpt>
      <trkpt lat="32.862656666666666" lon="35.24804">
        <ele>289</ele>
        <time>2011-09-29T18:31:02.72</time>
      </trkpt>
      <trkpt lat="32.86263" lon="35.24807">
        <ele>289</ele>
        <time>2011-09-29T18:31:03.72</time>
      </trkpt>
      <trkpt lat="32.86262" lon="35.24809166666667">
        <ele>289</ele>
        <time>2011-09-29T18:31:04.72</time>
      </trkpt>
      <trkpt lat="32.862605" lon="35.24811">
        <ele>289</ele>
        <time>2011-09-29T18:31:05.72</time>
      </trkpt>
      <trkpt lat="32.862593333333336" lon="35.248131666666666">
        <ele>289.5</ele>
        <time>2011-09-29T18:31:06.72</time>
      </trkpt>
      <trkpt lat="32.86257333333333" lon="35.248151666666665">
        <ele>290</ele>
        <time>2011-09-29T18:31:07.72</time>
      </trkpt>
      <trkpt lat="32.862563333333334" lon="35.248175">
        <ele>290</ele>
        <time>2011-09-29T18:31:08.72</time>
      </trkpt>
      <trkpt lat="32.86255" lon="35.248196666666665">
        <ele>290.5</ele>
        <time>2011-09-29T18:31:09.72</time>
      </trkpt>
      <trkpt lat="32.86252833333333" lon="35.24822">
        <ele>290.5</ele>
        <time>2011-09-29T18:31:10.71</time>
      </trkpt>
      <trkpt lat="32.86250833333333" lon="35.24824">
        <ele>290</ele>
        <time>2011-09-29T18:31:11.72</time>
      </trkpt>
      <trkpt lat="32.86248333333333" lon="35.248268333333336">
        <ele>290</ele>
        <time>2011-09-29T18:31:12.72</time>
      </trkpt>
      <trkpt lat="32.862465" lon="35.248293333333336">
        <ele>290.5</ele>
        <time>2011-09-29T18:31:13.72</time>
      </trkpt>
      <trkpt lat="32.86244833333333" lon="35.248313333333336">
        <ele>291</ele>
        <time>2011-09-29T18:31:14.72</time>
      </trkpt>
      <trkpt lat="32.86242333333333" lon="35.248338333333336">
        <ele>292</ele>
        <time>2011-09-29T18:31:15.71</time>
      </trkpt>
      <trkpt lat="32.862405" lon="35.24836666666667">
        <ele>292.5</ele>
        <time>2011-09-29T18:31:16.76</time>
      </trkpt>
      <trkpt lat="32.862388333333335" lon="35.24839">
        <ele>292.5</ele>
        <time>2011-09-29T18:31:17.72</time>
      </trkpt>
      <trkpt lat="32.86237666666667" lon="35.24840833333333">
        <ele>293</ele>
        <time>2011-09-29T18:31:18.72</time>
      </trkpt>
      <trkpt lat="32.86235666666666" lon="35.24844">
        <ele>293</ele>
        <time>2011-09-29T18:31:19.71</time>
      </trkpt>
      <trkpt lat="32.862335" lon="35.248468333333335">
        <ele>293</ele>
        <time>2011-09-29T18:31:20.71</time>
      </trkpt>
      <trkpt lat="32.862316666666665" lon="35.24849">
        <ele>293</ele>
        <time>2011-09-29T18:31:21.71</time>
      </trkpt>
      <trkpt lat="32.862298333333335" lon="35.248506666666664">
        <ele>293.5</ele>
        <time>2011-09-29T18:31:22.71</time>
      </trkpt>
      <trkpt lat="32.862278333333336" lon="35.248525">
        <ele>293.5</ele>
        <time>2011-09-29T18:31:23.71</time>
      </trkpt>
      <trkpt lat="32.86226333333333" lon="35.248538333333336">
        <ele>294</ele>
        <time>2011-09-29T18:31:24.72</time>
      </trkpt>
      <trkpt lat="32.862251666666666" lon="35.24855">
        <ele>294</ele>
        <time>2011-09-29T18:31:25.71</time>
      </trkpt>
      <trkpt lat="32.86224166666667" lon="35.248575">
        <ele>294</ele>
        <time>2011-09-29T18:31:26.71</time>
      </trkpt>
      <trkpt lat="32.862233333333336" lon="35.248595">
        <ele>294</ele>
        <time>2011-09-29T18:31:27.71</time>
      </trkpt>
      <trkpt lat="32.86223833333333" lon="35.2486">
        <ele>295</ele>
        <time>2011-09-29T18:31:28.71</time>
      </trkpt>
      <trkpt lat="32.86223833333333" lon="35.24861666666666">
        <ele>295.5</ele>
        <time>2011-09-29T18:31:29.71</time>
      </trkpt>
      <trkpt lat="32.86225666666667" lon="35.24863">
        <ele>295.5</ele>
        <time>2011-09-29T18:31:30.71</time>
      </trkpt>
      <trkpt lat="32.86226833333333" lon="35.248635">
        <ele>295.5</ele>
        <time>2011-09-29T18:31:31.71</time>
      </trkpt>
      <trkpt lat="32.862276666666666" lon="35.248646666666666">
        <ele>295.5</ele>
        <time>2011-09-29T18:31:32.94</time>
      </trkpt>
      <trkpt lat="32.86228" lon="35.24865666666667">
        <ele>295.5</ele>
        <time>2011-09-29T18:31:33.73</time>
      </trkpt>
      <trkpt lat="32.86226333333333" lon="35.24867833333333">
        <ele>294.5</ele>
        <time>2011-09-29T18:31:34.71</time>
      </trkpt>
      <trkpt lat="32.86225" lon="35.248705">
        <ele>294</ele>
        <time>2011-09-29T18:31:35.71</time>
      </trkpt>
      <trkpt lat="32.862185" lon="35.248781666666666">
        <ele>292</ele>
        <time>2011-09-29T18:31:37.72</time>
      </trkpt>
      <trkpt lat="32.86213333333333" lon="35.24888333333333">
        <ele>290</ele>
        <time>2011-09-29T18:31:39.71</time>
      </trkpt>
      <trkpt lat="32.86212" lon="35.248913333333334">
        <ele>290</ele>
        <time>2011-09-29T18:31:40.71</time>
      </trkpt>
      <trkpt lat="32.862116666666665" lon="35.248936666666665">
        <ele>290</ele>
        <time>2011-09-29T18:31:41.71</time>
      </trkpt>
      <trkpt lat="32.86210166666667" lon="35.248965">
        <ele>290.5</ele>
        <time>2011-09-29T18:31:42.71</time>
      </trkpt>
      <trkpt lat="32.86209" lon="35.24899333333333">
        <ele>291</ele>
        <time>2011-09-29T18:31:43.71</time>
      </trkpt>
      <trkpt lat="32.862028333333335" lon="35.24903833333333">
        <ele>289.5</ele>
        <time>2011-09-29T18:31:45.71</time>
      </trkpt>
      <trkpt lat="32.862003333333334" lon="35.24905666666667">
        <ele>288.5</ele>
        <time>2011-09-29T18:31:46.71</time>
      </trkpt>
      <trkpt lat="32.86199" lon="35.24906">
        <ele>288.5</ele>
        <time>2011-09-29T18:31:47.71</time>
      </trkpt>
      <trkpt lat="32.86197833333333" lon="35.24908666666666">
        <ele>288</ele>
        <time>2011-09-29T18:31:48.71</time>
      </trkpt>
      <trkpt lat="32.861958333333334" lon="35.249093333333334">
        <ele>287.5</ele>
        <time>2011-09-29T18:31:49.71</time>
      </trkpt>
      <trkpt lat="32.86194166666667" lon="35.24910666666667">
        <ele>288</ele>
        <time>2011-09-29T18:31:50.95</time>
      </trkpt>
      <trkpt lat="32.86194666666667" lon="35.249095">
        <ele>288</ele>
        <time>2011-09-29T18:31:51.71</time>
      </trkpt>
      <trkpt lat="32.86194" lon="35.249111666666664">
        <ele>288</ele>
        <time>2011-09-29T18:31:52.70</time>
      </trkpt>
      <trkpt lat="32.861935" lon="35.249118333333335">
        <ele>288</ele>
        <time>2011-09-29T18:31:53.71</time>
      </trkpt>
      <trkpt lat="32.86193" lon="35.249118333333335">
        <ele>288</ele>
        <time>2011-09-29T18:31:54.70</time>
      </trkpt>
      <trkpt lat="32.861925" lon="35.24912333333333">
        <ele>288</ele>
        <time>2011-09-29T18:31:55.85</time>
      </trkpt>
      <trkpt lat="32.861913333333334" lon="35.24914166666667">
        <ele>287.5</ele>
        <time>2011-09-29T18:31:56.70</time>
      </trkpt>
      <trkpt lat="32.861893333333335" lon="35.249163333333335">
        <ele>288</ele>
        <time>2011-09-29T18:31:57.98</time>
      </trkpt>
      <trkpt lat="32.861873333333335" lon="35.24917333333333">
        <ele>288</ele>
        <time>2011-09-29T18:31:58.70</time>
      </trkpt>
      <trkpt lat="32.86185833333333" lon="35.24918">
        <ele>288</ele>
        <time>2011-09-29T18:31:59.70</time>
      </trkpt>
      <trkpt lat="32.861845" lon="35.24917">
        <ele>288.5</ele>
        <time>2011-09-29T18:32:00.87</time>
      </trkpt>
      <trkpt lat="32.86183166666667" lon="35.24917333333333">
        <ele>288</ele>
        <time>2011-09-29T18:32:01.87</time>
      </trkpt>
      <trkpt lat="32.86182" lon="35.249181666666665">
        <ele>288</ele>
        <time>2011-09-29T18:32:02.70</time>
      </trkpt>
      <trkpt lat="32.861808333333336" lon="35.24919166666667">
        <ele>288</ele>
        <time>2011-09-29T18:32:03.70</time>
      </trkpt>
      <trkpt lat="32.861801666666665" lon="35.24919666666667">
        <ele>288</ele>
        <time>2011-09-29T18:32:04.70</time>
      </trkpt>
      <trkpt lat="32.86179" lon="35.249215">
        <ele>288</ele>
        <time>2011-09-29T18:32:05.70</time>
      </trkpt>
      <trkpt lat="32.861781666666666" lon="35.249225">
        <ele>288</ele>
        <time>2011-09-29T18:32:06.70</time>
      </trkpt>
      <trkpt lat="32.86176666666667" lon="35.249225">
        <ele>288</ele>
        <time>2011-09-29T18:32:07.70</time>
      </trkpt>
      <trkpt lat="32.861745" lon="35.249208333333335">
        <ele>288.5</ele>
        <time>2011-09-29T18:32:08.70</time>
      </trkpt>
      <trkpt lat="32.86170666666666" lon="35.249195">
        <ele>288.5</ele>
        <time>2011-09-29T18:32:10.70</time>
      </trkpt>
      <trkpt lat="32.86170666666666" lon="35.24913">
        <ele>291.5</ele>
        <time>2011-09-29T18:32:12.70</time>
      </trkpt>
      <trkpt lat="32.86170166666667" lon="35.24912333333333">
        <ele>291.5</ele>
        <time>2011-09-29T18:32:13.70</time>
      </trkpt>
      <trkpt lat="32.86168833333333" lon="35.24912166666667">
        <ele>291.5</ele>
        <time>2011-09-29T18:32:14.82</time>
      </trkpt>
      <trkpt lat="32.861666666666665" lon="35.249111666666664">
        <ele>291.5</ele>
        <time>2011-09-29T18:32:15.70</time>
      </trkpt>
      <trkpt lat="32.86159833333333" lon="35.249111666666664">
        <ele>292.5</ele>
        <time>2011-09-29T18:32:17.70</time>
      </trkpt>
      <trkpt lat="32.86158666666667" lon="35.24910166666667">
        <ele>292.5</ele>
        <time>2011-09-29T18:32:18.70</time>
      </trkpt>
      <trkpt lat="32.861580000000004" lon="35.2491">
        <ele>292.5</ele>
        <time>2011-09-29T18:32:19.70</time>
      </trkpt>
      <trkpt lat="32.86156666666667" lon="35.2491">
        <ele>292.5</ele>
        <time>2011-09-29T18:32:20.70</time>
      </trkpt>
      <trkpt lat="32.86156166666667" lon="35.249105">
        <ele>292.5</ele>
        <time>2011-09-29T18:32:21.70</time>
      </trkpt>
      <trkpt lat="32.86156166666667" lon="35.24909">
        <ele>292.5</ele>
        <time>2011-09-29T18:32:23.70</time>
      </trkpt>
      <trkpt lat="32.86156166666667" lon="35.24907833333334">
        <ele>293</ele>
        <time>2011-09-29T18:32:24.70</time>
      </trkpt>
      <trkpt lat="32.861563333333336" lon="35.249071666666666">
        <ele>293</ele>
        <time>2011-09-29T18:32:25.70</time>
      </trkpt>
      <trkpt lat="32.861565" lon="35.249066666666664">
        <ele>293</ele>
        <time>2011-09-29T18:32:26.70</time>
      </trkpt>
      <trkpt lat="32.86156666666667" lon="35.24906166666667">
        <ele>293.5</ele>
        <time>2011-09-29T18:32:27.70</time>
      </trkpt>
      <trkpt lat="32.861556666666665" lon="35.24906">
        <ele>293.5</ele>
        <time>2011-09-29T18:32:28.70</time>
      </trkpt>
      <trkpt lat="32.86155" lon="35.24905666666667">
        <ele>294</ele>
        <time>2011-09-29T18:32:29.81</time>
      </trkpt>
      <trkpt lat="32.86154666666667" lon="35.24905166666667">
        <ele>294.5</ele>
        <time>2011-09-29T18:32:30.70</time>
      </trkpt>
      <trkpt lat="32.86154" lon="35.24905166666667">
        <ele>294.5</ele>
        <time>2011-09-29T18:32:31.69</time>
      </trkpt>
      <trkpt lat="32.86152666666667" lon="35.249045">
        <ele>294</ele>
        <time>2011-09-29T18:32:32.69</time>
      </trkpt>
      <trkpt lat="32.861515" lon="35.24904166666666">
        <ele>294</ele>
        <time>2011-09-29T18:32:33.70</time>
      </trkpt>
      <trkpt lat="32.86151666666667" lon="35.248981666666666">
        <ele>294</ele>
        <time>2011-09-29T18:32:35.69</time>
      </trkpt>
      <trkpt lat="32.86150666666666" lon="35.24894666666667">
        <ele>293.5</ele>
        <time>2011-09-29T18:32:36.70</time>
      </trkpt>
      <trkpt lat="32.86150166666667" lon="35.248935">
        <ele>294</ele>
        <time>2011-09-29T18:32:37.69</time>
      </trkpt>
      <trkpt lat="32.86146166666666" lon="35.24888">
        <ele>297</ele>
        <time>2011-09-29T18:32:39.69</time>
      </trkpt>
      <trkpt lat="32.861448333333335" lon="35.248868333333334">
        <ele>297</ele>
        <time>2011-09-29T18:32:40.72</time>
      </trkpt>
      <trkpt lat="32.86143833333333" lon="35.24886">
        <ele>297</ele>
        <time>2011-09-29T18:32:41.93</time>
      </trkpt>
      <trkpt lat="32.861423333333335" lon="35.24883">
        <ele>298.5</ele>
        <time>2011-09-29T18:32:44.98</time>
      </trkpt>
      <trkpt lat="32.86141833333333" lon="35.248825">
        <ele>299</ele>
        <time>2011-09-29T18:32:45.13</time>
      </trkpt>
      <trkpt lat="32.8614" lon="35.24880666666667">
        <ele>301.5</ele>
        <time>2011-09-29T18:32:46.8</time>
      </trkpt>
      <trkpt lat="32.86138166666667" lon="35.24879833333333">
        <ele>303</ele>
        <time>2011-09-29T18:32:47.18</time>
      </trkpt>
      <trkpt lat="32.86136666666667" lon="35.248781666666666">
        <ele>303</ele>
        <time>2011-09-29T18:32:48.8</time>
      </trkpt>
      <trkpt lat="32.861345" lon="35.24876">
        <ele>303.5</ele>
        <time>2011-09-29T18:32:49.10</time>
      </trkpt>
      <trkpt lat="32.86132833333333" lon="35.24874166666667">
        <ele>303</ele>
        <time>2011-09-29T18:32:50.8</time>
      </trkpt>
      <trkpt lat="32.86126" lon="35.24872">
        <ele>300.5</ele>
        <time>2011-09-29T18:32:52.18</time>
      </trkpt>
      <trkpt lat="32.86124" lon="35.248718333333336">
        <ele>300.5</ele>
        <time>2011-09-29T18:32:53.8</time>
      </trkpt>
      <trkpt lat="32.861225" lon="35.248718333333336">
        <ele>301</ele>
        <time>2011-09-29T18:32:54.8</time>
      </trkpt>
      <trkpt lat="32.86120833333333" lon="35.248705">
        <ele>301</ele>
        <time>2011-09-29T18:32:55.11</time>
      </trkpt>
      <trkpt lat="32.861195" lon="35.248695">
        <ele>301</ele>
        <time>2011-09-29T18:32:56.8</time>
      </trkpt>
      <trkpt lat="32.861171666666664" lon="35.248668333333335">
        <ele>300.5</ele>
        <time>2011-09-29T18:32:57.8</time>
      </trkpt>
      <trkpt lat="32.861151666666665" lon="35.248668333333335">
        <ele>300</ele>
        <time>2011-09-29T18:32:58.8</time>
      </trkpt>
      <trkpt lat="32.861133333333335" lon="35.248646666666666">
        <ele>301</ele>
        <time>2011-09-29T18:32:59.8</time>
      </trkpt>
      <trkpt lat="32.861108333333334" lon="35.24864">
        <ele>301</ele>
        <time>2011-09-29T18:33:00.8</time>
      </trkpt>
      <trkpt lat="32.86113666666667" lon="35.248423333333335">
        <ele>300</ele>
        <time>2011-09-29T18:33:04.8</time>
      </trkpt>
      <trkpt lat="32.861085" lon="35.248465">
        <ele>299.5</ele>
        <time>2011-09-29T18:33:09.8</time>
      </trkpt>
      <trkpt lat="32.86110166666667" lon="35.24856333333334">
        <ele>299</ele>
        <time>2011-09-29T18:33:13.8</time>
      </trkpt>
      <trkpt lat="32.861105" lon="35.248583333333336">
        <ele>299</ele>
        <time>2011-09-29T18:33:14.8</time>
      </trkpt>
      <trkpt lat="32.86110333333333" lon="35.2486">
        <ele>299</ele>
        <time>2011-09-29T18:33:15.8</time>
      </trkpt>
      <trkpt lat="32.86109" lon="35.24861166666667">
        <ele>300</ele>
        <time>2011-09-29T18:33:16.18</time>
      </trkpt>
      <trkpt lat="32.86109" lon="35.24862666666667">
        <ele>300</ele>
        <time>2011-09-29T18:33:17.27</time>
      </trkpt>
      <trkpt lat="32.861086666666665" lon="35.24864">
        <ele>300</ele>
        <time>2011-09-29T18:33:18.8</time>
      </trkpt>
      <trkpt lat="32.86108333333333" lon="35.24865333333333">
        <ele>300</ele>
        <time>2011-09-29T18:33:19.22</time>
      </trkpt>
      <trkpt lat="32.86107833333333" lon="35.248666666666665">
        <ele>300</ele>
        <time>2011-09-29T18:33:20.8</time>
      </trkpt>
      <trkpt lat="32.86101" lon="35.24871666666667">
        <ele>298</ele>
        <time>2011-09-29T18:33:22.8</time>
      </trkpt>
      <trkpt lat="32.86098833333333" lon="35.248775">
        <ele>297</ele>
        <time>2011-09-29T18:33:24.18</time>
      </trkpt>
      <trkpt lat="32.86098833333333" lon="35.24878">
        <ele>297</ele>
        <time>2011-09-29T18:33:25.8</time>
      </trkpt>
      <trkpt lat="32.86098666666667" lon="35.248785">
        <ele>297</ele>
        <time>2011-09-29T18:33:26.8</time>
      </trkpt>
      <trkpt lat="32.86098166666667" lon="35.24879333333333">
        <ele>297</ele>
        <time>2011-09-29T18:33:27.8</time>
      </trkpt>
      <trkpt lat="32.86098166666667" lon="35.24881166666667">
        <ele>297</ele>
        <time>2011-09-29T18:33:28.8</time>
      </trkpt>
      <trkpt lat="32.86099333333333" lon="35.248821666666664">
        <ele>297</ele>
        <time>2011-09-29T18:33:29.68</time>
      </trkpt>
      <trkpt lat="32.86099166666666" lon="35.24883166666667">
        <ele>297.5</ele>
        <time>2011-09-29T18:33:30.8</time>
      </trkpt>
      <trkpt lat="32.86099333333333" lon="35.248835">
        <ele>297.5</ele>
        <time>2011-09-29T18:33:31.8</time>
      </trkpt>
      <trkpt lat="32.86098666666667" lon="35.24884">
        <ele>297.5</ele>
        <time>2011-09-29T18:33:32.10</time>
      </trkpt>
      <trkpt lat="32.860976666666666" lon="35.24885">
        <ele>298</ele>
        <time>2011-09-29T18:33:33.18</time>
      </trkpt>
      <trkpt lat="32.86098" lon="35.248846666666665">
        <ele>298.5</ele>
        <time>2011-09-29T18:33:34.8</time>
      </trkpt>
      <trkpt lat="32.860976666666666" lon="35.24885">
        <ele>299</ele>
        <time>2011-09-29T18:33:35.8</time>
      </trkpt>
      <trkpt lat="32.860978333333335" lon="35.24885166666667">
        <ele>299</ele>
        <time>2011-09-29T18:33:36.8</time>
      </trkpt>
      <trkpt lat="32.86098333333333" lon="35.248866666666665">
        <ele>299</ele>
        <time>2011-09-29T18:33:37.8</time>
      </trkpt>
      <trkpt lat="32.86099" lon="35.248875">
        <ele>299.5</ele>
        <time>2011-09-29T18:33:38.8</time>
      </trkpt>
      <trkpt lat="32.860996666666665" lon="35.24890333333333">
        <ele>299.5</ele>
        <time>2011-09-29T18:33:39.8</time>
      </trkpt>
      <trkpt lat="32.861003333333336" lon="35.24894333333334">
        <ele>300</ele>
        <time>2011-09-29T18:33:40.8</time>
      </trkpt>
      <trkpt lat="32.861018333333334" lon="35.24898">
        <ele>301</ele>
        <time>2011-09-29T18:33:41.8</time>
      </trkpt>
      <trkpt lat="32.86101166666667" lon="35.24907833333334">
        <ele>302.5</ele>
        <time>2011-09-29T18:33:43.8</time>
      </trkpt>
      <trkpt lat="32.86101333333333" lon="35.24910166666667">
        <ele>303</ele>
        <time>2011-09-29T18:33:44.28</time>
      </trkpt>
      <trkpt lat="32.861015" lon="35.24912666666667">
        <ele>303</ele>
        <time>2011-09-29T18:33:45.8</time>
      </trkpt>
      <trkpt lat="32.86101166666667" lon="35.249155">
        <ele>303</ele>
        <time>2011-09-29T18:33:46.21</time>
      </trkpt>
      <trkpt lat="32.861016666666664" lon="35.249245">
        <ele>303.5</ele>
        <time>2011-09-29T18:33:48.8</time>
      </trkpt>
      <trkpt lat="32.861021666666666" lon="35.249273333333335">
        <ele>303.5</ele>
        <time>2011-09-29T18:33:49.8</time>
      </trkpt>
      <trkpt lat="32.86102" lon="35.249296666666666">
        <ele>304</ele>
        <time>2011-09-29T18:33:50.21</time>
      </trkpt>
      <trkpt lat="32.861021666666666" lon="35.24938">
        <ele>303.5</ele>
        <time>2011-09-29T18:33:52.8</time>
      </trkpt>
      <trkpt lat="32.86102666666667" lon="35.24939833333333">
        <ele>304</ele>
        <time>2011-09-29T18:33:53.8</time>
      </trkpt>
      <trkpt lat="32.86103333333333" lon="35.24941833333333">
        <ele>304</ele>
        <time>2011-09-29T18:33:54.8</time>
      </trkpt>
      <trkpt lat="32.86103166666667" lon="35.249451666666666">
        <ele>304.5</ele>
        <time>2011-09-29T18:33:54.99</time>
      </trkpt>
      <trkpt lat="32.861021666666666" lon="35.24948333333333">
        <ele>305</ele>
        <time>2011-09-29T18:33:56.8</time>
      </trkpt>
      <trkpt lat="32.86102" lon="35.249493333333334">
        <ele>306</ele>
        <time>2011-09-29T18:33:57.26</time>
      </trkpt>
      <trkpt lat="32.86102833333333" lon="35.24948166666667">
        <ele>307</ele>
        <time>2011-09-29T18:33:57.99</time>
      </trkpt>
      <trkpt lat="32.861021666666666" lon="35.249478333333336">
        <ele>307</ele>
        <time>2011-09-29T18:33:58.99</time>
      </trkpt>
      <trkpt lat="32.86102666666667" lon="35.249478333333336">
        <ele>306</ele>
        <time>2011-09-29T18:34:00.99</time>
      </trkpt>
      <trkpt lat="32.861016666666664" lon="35.24944833333333">
        <ele>307</ele>
        <time>2011-09-29T18:34:01.99</time>
      </trkpt>
      <trkpt lat="32.861003333333336" lon="35.24941833333333">
        <ele>308.5</ele>
        <time>2011-09-29T18:34:03.18</time>
      </trkpt>
      <trkpt lat="32.86098666666667" lon="35.24939666666667">
        <ele>308.5</ele>
        <time>2011-09-29T18:34:03.99</time>
      </trkpt>
      <trkpt lat="32.860973333333334" lon="35.24939166666667">
        <ele>310</ele>
        <time>2011-09-29T18:34:04.99</time>
      </trkpt>
      <trkpt lat="32.860965" lon="35.249386666666666">
        <ele>310.5</ele>
        <time>2011-09-29T18:34:05.99</time>
      </trkpt>
      <trkpt lat="32.860958333333336" lon="35.249381666666665">
        <ele>310.5</ele>
        <time>2011-09-29T18:34:06.99</time>
      </trkpt>
      <trkpt lat="32.860955" lon="35.24937333333333">
        <ele>310.5</ele>
        <time>2011-09-29T18:34:07.99</time>
      </trkpt>
      <trkpt lat="32.860953333333335" lon="35.24936833333334">
        <ele>311.5</ele>
        <time>2011-09-29T18:34:09.68</time>
      </trkpt>
      <trkpt lat="32.86094833333333" lon="35.249361666666665">
        <ele>311.5</ele>
        <time>2011-09-29T18:34:09.99</time>
      </trkpt>
      <trkpt lat="32.86093833333334" lon="35.249365">
        <ele>312</ele>
        <time>2011-09-29T18:34:10.99</time>
      </trkpt>
      <trkpt lat="32.86092166666667" lon="35.24936">
        <ele>312.5</ele>
        <time>2011-09-29T18:34:11.99</time>
      </trkpt>
      <trkpt lat="32.860913333333336" lon="35.249363333333335">
        <ele>313</ele>
        <time>2011-09-29T18:34:13.48</time>
      </trkpt>
      <trkpt lat="32.860908333333334" lon="35.24937">
        <ele>314</ele>
        <time>2011-09-29T18:34:14.88</time>
      </trkpt>
      <trkpt lat="32.86090333333333" lon="35.24937">
        <ele>314</ele>
        <time>2011-09-29T18:34:15.26</time>
      </trkpt>
      <trkpt lat="32.86089833333333" lon="35.24936666666667">
        <ele>314.5</ele>
        <time>2011-09-29T18:34:15.99</time>
      </trkpt>
      <trkpt lat="32.860883333333334" lon="35.249355">
        <ele>313.5</ele>
        <time>2011-09-29T18:34:16.99</time>
      </trkpt>
      <trkpt lat="32.86087166666667" lon="35.249341666666666">
        <ele>313.5</ele>
        <time>2011-09-29T18:34:17.99</time>
      </trkpt>
      <trkpt lat="32.86085666666666" lon="35.249318333333335">
        <ele>313.5</ele>
        <time>2011-09-29T18:34:18.99</time>
      </trkpt>
      <trkpt lat="32.86084833333334" lon="35.249298333333336">
        <ele>313.5</ele>
        <time>2011-09-29T18:34:19.99</time>
      </trkpt>
      <trkpt lat="32.860843333333335" lon="35.24927">
        <ele>313</ele>
        <time>2011-09-29T18:34:20.99</time>
      </trkpt>
      <trkpt lat="32.860836666666664" lon="35.249251666666666">
        <ele>313</ele>
        <time>2011-09-29T18:34:21.99</time>
      </trkpt>
      <trkpt lat="32.86083" lon="35.24924">
        <ele>313</ele>
        <time>2011-09-29T18:34:22.99</time>
      </trkpt>
      <trkpt lat="32.860825" lon="35.249226666666665">
        <ele>313</ele>
        <time>2011-09-29T18:34:24.8</time>
      </trkpt>
      <trkpt lat="32.86079" lon="35.24914166666667">
        <ele>314.5</ele>
        <time>2011-09-29T18:34:25.99</time>
      </trkpt>
      <trkpt lat="32.860765" lon="35.24910333333333">
        <ele>315</ele>
        <time>2011-09-29T18:34:26.99</time>
      </trkpt>
      <trkpt lat="32.860745" lon="35.249065">
        <ele>316</ele>
        <time>2011-09-29T18:34:27.98</time>
      </trkpt>
      <trkpt lat="32.860726666666665" lon="35.249035">
        <ele>316.5</ele>
        <time>2011-09-29T18:34:29.13</time>
      </trkpt>
      <trkpt lat="32.86071666666667" lon="35.24901166666667">
        <ele>316.5</ele>
        <time>2011-09-29T18:34:29.97</time>
      </trkpt>
      <trkpt lat="32.860695" lon="35.248981666666666">
        <ele>316.5</ele>
        <time>2011-09-29T18:34:30.98</time>
      </trkpt>
      <trkpt lat="32.860675" lon="35.24895166666666">
        <ele>317</ele>
        <time>2011-09-29T18:34:31.98</time>
      </trkpt>
      <trkpt lat="32.86064" lon="35.248925">
        <ele>317</ele>
        <time>2011-09-29T18:34:32.99</time>
      </trkpt>
      <trkpt lat="32.86060666666667" lon="35.24890833333333">
        <ele>318</ele>
        <time>2011-09-29T18:34:33.99</time>
      </trkpt>
      <trkpt lat="32.86051333333333" lon="35.24885333333334">
        <ele>320.5</ele>
        <time>2011-09-29T18:34:35.99</time>
      </trkpt>
      <trkpt lat="32.860505" lon="35.24877333333333">
        <ele>321</ele>
        <time>2011-09-29T18:34:37.98</time>
      </trkpt>
      <trkpt lat="32.860483333333335" lon="35.24875333333333">
        <ele>321</ele>
        <time>2011-09-29T18:34:38.99</time>
      </trkpt>
      <trkpt lat="32.860465" lon="35.248736666666666">
        <ele>321</ele>
        <time>2011-09-29T18:34:39.98</time>
      </trkpt>
      <trkpt lat="32.860435" lon="35.24872833333333">
        <ele>321</ele>
        <time>2011-09-29T18:34:40.98</time>
      </trkpt>
      <trkpt lat="32.860416666666666" lon="35.248713333333335">
        <ele>321.5</ele>
        <time>2011-09-29T18:34:41.98</time>
      </trkpt>
      <trkpt lat="32.860393333333334" lon="35.24869666666667">
        <ele>321.5</ele>
        <time>2011-09-29T18:34:43.12</time>
      </trkpt>
      <trkpt lat="32.86037666666667" lon="35.24868166666667">
        <ele>321.5</ele>
        <time>2011-09-29T18:34:43.98</time>
      </trkpt>
      <trkpt lat="32.860373333333335" lon="35.248665">
        <ele>321</ele>
        <time>2011-09-29T18:34:44.98</time>
      </trkpt>
      <trkpt lat="32.860303333333334" lon="35.248601666666666">
        <ele>320.5</ele>
        <time>2011-09-29T18:34:46.99</time>
      </trkpt>
      <trkpt lat="32.860215" lon="35.24858833333333">
        <ele>321</ele>
        <time>2011-09-29T18:34:49.24</time>
      </trkpt>
      <trkpt lat="32.860185" lon="35.24858666666667">
        <ele>321</ele>
        <time>2011-09-29T18:34:49.98</time>
      </trkpt>
      <trkpt lat="32.86015166666667" lon="35.248576666666665">
        <ele>320.5</ele>
        <time>2011-09-29T18:34:50.98</time>
      </trkpt>
      <trkpt lat="32.860126666666666" lon="35.24857">
        <ele>320.5</ele>
        <time>2011-09-29T18:34:51.98</time>
      </trkpt>
      <trkpt lat="32.860101666666665" lon="35.24856">
        <ele>320</ele>
        <time>2011-09-29T18:34:52.98</time>
      </trkpt>
      <trkpt lat="32.860079999999996" lon="35.248545">
        <ele>320</ele>
        <time>2011-09-29T18:34:53.98</time>
      </trkpt>
      <trkpt lat="32.860063333333336" lon="35.248536666666666">
        <ele>319.5</ele>
        <time>2011-09-29T18:34:55.68</time>
      </trkpt>
      <trkpt lat="32.86004666666667" lon="35.248525">
        <ele>319</ele>
        <time>2011-09-29T18:34:55.98</time>
      </trkpt>
      <trkpt lat="32.85997666666667" lon="35.248513333333335">
        <ele>319.5</ele>
        <time>2011-09-29T18:34:57.98</time>
      </trkpt>
      <trkpt lat="32.859955" lon="35.24852166666667">
        <ele>319.5</ele>
        <time>2011-09-29T18:34:59.27</time>
      </trkpt>
      <trkpt lat="32.85993" lon="35.248533333333334">
        <ele>319</ele>
        <time>2011-09-29T18:34:59.98</time>
      </trkpt>
      <trkpt lat="32.859915" lon="35.24854333333333">
        <ele>319</ele>
        <time>2011-09-29T18:35:00.98</time>
      </trkpt>
      <trkpt lat="32.859881666666666" lon="35.248558333333335">
        <ele>319</ele>
        <time>2011-09-29T18:35:01.98</time>
      </trkpt>
      <trkpt lat="32.85986" lon="35.24856666666667">
        <ele>320.5</ele>
        <time>2011-09-29T18:35:03.97</time>
      </trkpt>
      <trkpt lat="32.85984333333333" lon="35.248578333333334">
        <ele>320.5</ele>
        <time>2011-09-29T18:35:04.98</time>
      </trkpt>
      <trkpt lat="32.85983" lon="35.24859166666667">
        <ele>320.5</ele>
        <time>2011-09-29T18:35:05.97</time>
      </trkpt>
      <trkpt lat="32.85981833333334" lon="35.2486">
        <ele>321</ele>
        <time>2011-09-29T18:35:07.98</time>
      </trkpt>
      <trkpt lat="32.85979833333333" lon="35.248623333333335">
        <ele>320.5</ele>
        <time>2011-09-29T18:35:09.97</time>
      </trkpt>
      <trkpt lat="32.85979833333333" lon="35.24863666666667">
        <ele>321</ele>
        <time>2011-09-29T18:35:11.18</time>
      </trkpt>
      <trkpt lat="32.8598" lon="35.24865333333333">
        <ele>321</ele>
        <time>2011-09-29T18:35:11.97</time>
      </trkpt>
      <trkpt lat="32.85980166666667" lon="35.248668333333335">
        <ele>321</ele>
        <time>2011-09-29T18:35:12.97</time>
      </trkpt>
      <trkpt lat="32.8598" lon="35.24869666666667">
        <ele>321</ele>
        <time>2011-09-29T18:35:13.98</time>
      </trkpt>
      <trkpt lat="32.85980333333333" lon="35.248713333333335">
        <ele>321.5</ele>
        <time>2011-09-29T18:35:14.97</time>
      </trkpt>
      <trkpt lat="32.85980166666667" lon="35.24873">
        <ele>322</ele>
        <time>2011-09-29T18:35:15.97</time>
      </trkpt>
      <trkpt lat="32.85979833333333" lon="35.24874166666667">
        <ele>322</ele>
        <time>2011-09-29T18:35:16.97</time>
      </trkpt>
      <trkpt lat="32.8598" lon="35.24876">
        <ele>320.5</ele>
        <time>2011-09-29T18:35:21.77</time>
      </trkpt>
      <trkpt lat="32.85979666666667" lon="35.24869833333333">
        <ele>320.5</ele>
        <time>2011-09-29T18:35:23.77</time>
      </trkpt>
      <trkpt lat="32.859795" lon="35.24868">
        <ele>321</ele>
        <time>2011-09-29T18:35:24.77</time>
      </trkpt>
      <trkpt lat="32.859786666666665" lon="35.248666666666665">
        <ele>322</ele>
        <time>2011-09-29T18:35:26.38</time>
      </trkpt>
      <trkpt lat="32.85977833333333" lon="35.24866333333333">
        <ele>322.5</ele>
        <time>2011-09-29T18:35:26.78</time>
      </trkpt>
      <trkpt lat="32.85978333333333" lon="35.248665">
        <ele>323</ele>
        <time>2011-09-29T18:35:27.77</time>
      </trkpt>
      <trkpt lat="32.85976" lon="35.24862">
        <ele>323.5</ele>
        <time>2011-09-29T18:35:29.77</time>
      </trkpt>
      <trkpt lat="32.85975333333333" lon="35.24861">
        <ele>323.5</ele>
        <time>2011-09-29T18:35:30.77</time>
      </trkpt>
      <trkpt lat="32.859746666666666" lon="35.248605">
        <ele>323.5</ele>
        <time>2011-09-29T18:35:31.78</time>
      </trkpt>
      <trkpt lat="32.85968166666667" lon="35.24861">
        <ele>325</ele>
        <time>2011-09-29T18:35:33.77</time>
      </trkpt>
      <trkpt lat="32.85966666666667" lon="35.248625">
        <ele>326</ele>
        <time>2011-09-29T18:35:34.88</time>
      </trkpt>
      <trkpt lat="32.859635" lon="35.24862666666667">
        <ele>326</ele>
        <time>2011-09-29T18:35:35.77</time>
      </trkpt>
      <trkpt lat="32.859605" lon="35.24861833333333">
        <ele>326.5</ele>
        <time>2011-09-29T18:35:36.77</time>
      </trkpt>
      <trkpt lat="32.85957333333333" lon="35.24862">
        <ele>327</ele>
        <time>2011-09-29T18:35:37.77</time>
      </trkpt>
      <trkpt lat="32.85954666666667" lon="35.248628333333336">
        <ele>326.5</ele>
        <time>2011-09-29T18:35:38.76</time>
      </trkpt>
      <trkpt lat="32.859515" lon="35.248625">
        <ele>326.5</ele>
        <time>2011-09-29T18:35:39.77</time>
      </trkpt>
      <trkpt lat="32.85949333333333" lon="35.248621666666665">
        <ele>326.5</ele>
        <time>2011-09-29T18:35:40.76</time>
      </trkpt>
      <trkpt lat="32.859476666666666" lon="35.248621666666665">
        <ele>326.5</ele>
        <time>2011-09-29T18:35:41.76</time>
      </trkpt>
      <trkpt lat="32.859453333333335" lon="35.24863333333333">
        <ele>326</ele>
        <time>2011-09-29T18:35:43.76</time>
      </trkpt>
      <trkpt lat="32.85944333333333" lon="35.248635">
        <ele>326</ele>
        <time>2011-09-29T18:35:44.76</time>
      </trkpt>
      <trkpt lat="32.85943666666667" lon="35.24863833333333">
        <ele>326</ele>
        <time>2011-09-29T18:35:45.76</time>
      </trkpt>
      <trkpt lat="32.859431666666666" lon="35.248655">
        <ele>326</ele>
        <time>2011-09-29T18:35:46.76</time>
      </trkpt>
      <trkpt lat="32.859428333333334" lon="35.248673333333336">
        <ele>325.5</ele>
        <time>2011-09-29T18:35:47.76</time>
      </trkpt>
      <trkpt lat="32.85942166666667" lon="35.24869666666667">
        <ele>324</ele>
        <time>2011-09-29T18:35:48.76</time>
      </trkpt>
      <trkpt lat="32.859425" lon="35.24869666666667">
        <ele>324</ele>
        <time>2011-09-29T18:35:49.76</time>
      </trkpt>
      <trkpt lat="32.85943666666667" lon="35.24869">
        <ele>323.5</ele>
        <time>2011-09-29T18:35:50.76</time>
      </trkpt>
      <trkpt lat="32.85945666666667" lon="35.24868166666667">
        <ele>323.5</ele>
        <time>2011-09-29T18:35:51.95</time>
      </trkpt>
      <trkpt lat="32.859465" lon="35.24867833333333">
        <ele>323.5</ele>
        <time>2011-09-29T18:35:52.76</time>
      </trkpt>
      <trkpt lat="32.85947" lon="35.24867666666667">
        <ele>323.5</ele>
        <time>2011-09-29T18:35:53.76</time>
      </trkpt>
      <trkpt lat="32.85948166666667" lon="35.24867166666667">
        <ele>323.5</ele>
        <time>2011-09-29T18:35:54.85</time>
      </trkpt>
      <trkpt lat="32.85948833333333" lon="35.24867166666667">
        <ele>323.5</ele>
        <time>2011-09-29T18:35:55.76</time>
      </trkpt>
      <trkpt lat="32.859515" lon="35.24867666666667">
        <ele>323.5</ele>
        <time>2011-09-29T18:35:56.76</time>
      </trkpt>
      <trkpt lat="32.85953666666666" lon="35.248685">
        <ele>323</ele>
        <time>2011-09-29T18:35:57.76</time>
      </trkpt>
      <trkpt lat="32.85955166666667" lon="35.248691666666666">
        <ele>323</ele>
        <time>2011-09-29T18:35:58.76</time>
      </trkpt>
      <trkpt lat="32.859566666666666" lon="35.24869666666667">
        <ele>323</ele>
        <time>2011-09-29T18:35:59.76</time>
      </trkpt>
      <trkpt lat="32.85959" lon="35.248691666666666">
        <ele>323</ele>
        <time>2011-09-29T18:36:00.76</time>
      </trkpt>
      <trkpt lat="32.85960333333333" lon="35.24869">
        <ele>323</ele>
        <time>2011-09-29T18:36:01.77</time>
      </trkpt>
      <trkpt lat="32.859625" lon="35.248688333333334">
        <ele>323</ele>
        <time>2011-09-29T18:36:03.76</time>
      </trkpt>
      <trkpt lat="32.85964" lon="35.248693333333335">
        <ele>322</ele>
        <time>2011-09-29T18:36:04.89</time>
      </trkpt>
      <trkpt lat="32.859655000000004" lon="35.24870833333333">
        <ele>321.5</ele>
        <time>2011-09-29T18:36:05.76</time>
      </trkpt>
      <trkpt lat="32.85966333333333" lon="35.248725">
        <ele>321</ele>
        <time>2011-09-29T18:36:06.76</time>
      </trkpt>
      <trkpt lat="32.859685" lon="35.24874">
        <ele>322</ele>
        <time>2011-09-29T18:36:07.76</time>
      </trkpt>
      <trkpt lat="32.85971" lon="35.24874833333333">
        <ele>323</ele>
        <time>2011-09-29T18:36:08.76</time>
      </trkpt>
      <trkpt lat="32.85973166666667" lon="35.24876833333333">
        <ele>324.5</ele>
        <time>2011-09-29T18:36:09.76</time>
      </trkpt>
      <trkpt lat="32.859741666666665" lon="35.248785">
        <ele>324.5</ele>
        <time>2011-09-29T18:36:10.76</time>
      </trkpt>
      <trkpt lat="32.85975833333333" lon="35.24879333333333">
        <ele>325.5</ele>
        <time>2011-09-29T18:36:11.76</time>
      </trkpt>
      <trkpt lat="32.85976333333333" lon="35.248803333333335">
        <ele>326</ele>
        <time>2011-09-29T18:36:12.76</time>
      </trkpt>
      <trkpt lat="32.859761666666664" lon="35.24881333333333">
        <ele>325.5</ele>
        <time>2011-09-29T18:36:13.76</time>
      </trkpt>
      <trkpt lat="32.859761666666664" lon="35.248821666666664">
        <ele>325.5</ele>
        <time>2011-09-29T18:36:14.76</time>
      </trkpt>
      <trkpt lat="32.859761666666664" lon="35.24884">
        <ele>326</ele>
        <time>2011-09-29T18:36:15.76</time>
      </trkpt>
      <trkpt lat="32.85975" lon="35.248866666666665">
        <ele>326</ele>
        <time>2011-09-29T18:36:16.75</time>
      </trkpt>
      <trkpt lat="32.859745" lon="35.248893333333335">
        <ele>325</ele>
        <time>2011-09-29T18:36:18</time>
      </trkpt>
      <trkpt lat="32.859695" lon="35.248931666666664">
        <ele>325.5</ele>
        <time>2011-09-29T18:36:19.76</time>
      </trkpt>
      <trkpt lat="32.85968666666667" lon="35.248958333333334">
        <ele>326</ele>
        <time>2011-09-29T18:36:20.76</time>
      </trkpt>
      <trkpt lat="32.85968666666667" lon="35.24897">
        <ele>326.5</ele>
        <time>2011-09-29T18:36:22.74</time>
      </trkpt>
      <trkpt lat="32.85972" lon="35.24896666666667">
        <ele>326</ele>
        <time>2011-09-29T18:36:23.76</time>
      </trkpt>
      <trkpt lat="32.859696666666665" lon="35.249003333333334">
        <ele>326.5</ele>
        <time>2011-09-29T18:36:24.75</time>
      </trkpt>
      <trkpt lat="32.859678333333335" lon="35.24903166666667">
        <ele>326.5</ele>
        <time>2011-09-29T18:36:25.75</time>
      </trkpt>
      <trkpt lat="32.859705" lon="35.24905833333333">
        <ele>326.5</ele>
        <time>2011-09-29T18:36:26.76</time>
      </trkpt>
      <trkpt lat="32.859725" lon="35.24908166666667">
        <ele>326</ele>
        <time>2011-09-29T18:36:27.76</time>
      </trkpt>
      <trkpt lat="32.859741666666665" lon="35.24910166666667">
        <ele>326</ele>
        <time>2011-09-29T18:36:28.89</time>
      </trkpt>
      <trkpt lat="32.859755" lon="35.249116666666666">
        <ele>325.5</ele>
        <time>2011-09-29T18:36:29.75</time>
      </trkpt>
      <trkpt lat="32.859735" lon="35.24913333333333">
        <ele>325.5</ele>
        <time>2011-09-29T18:36:31.75</time>
      </trkpt>
      <trkpt lat="32.85973" lon="35.249136666666665">
        <ele>325.5</ele>
        <time>2011-09-29T18:36:32.75</time>
      </trkpt>
      <trkpt lat="32.85972666666667" lon="35.24914">
        <ele>325.5</ele>
        <time>2011-09-29T18:36:33.75</time>
      </trkpt>
      <trkpt lat="32.859721666666665" lon="35.249143333333336">
        <ele>325.5</ele>
        <time>2011-09-29T18:36:34.76</time>
      </trkpt>
      <trkpt lat="32.85971166666667" lon="35.249156666666664">
        <ele>325</ele>
        <time>2011-09-29T18:36:35.75</time>
      </trkpt>
      <trkpt lat="32.85971" lon="35.24917666666666">
        <ele>324.5</ele>
        <time>2011-09-29T18:36:36.75</time>
      </trkpt>
      <trkpt lat="32.85971166666667" lon="35.24918666666667">
        <ele>324.5</ele>
        <time>2011-09-29T18:36:37.75</time>
      </trkpt>
      <trkpt lat="32.85970833333333" lon="35.249195">
        <ele>324.5</ele>
        <time>2011-09-29T18:36:38.75</time>
      </trkpt>
      <trkpt lat="32.85971" lon="35.249271666666665">
        <ele>323.5</ele>
        <time>2011-09-29T18:36:40.75</time>
      </trkpt>
      <trkpt lat="32.85970833333333" lon="35.249296666666666">
        <ele>323.5</ele>
        <time>2011-09-29T18:36:41.75</time>
      </trkpt>
      <trkpt lat="32.859705" lon="35.24931333333333">
        <ele>323.5</ele>
        <time>2011-09-29T18:36:42.75</time>
      </trkpt>
      <trkpt lat="32.85968833333333" lon="35.24935166666667">
        <ele>322.5</ele>
        <time>2011-09-29T18:36:43.75</time>
      </trkpt>
      <trkpt lat="32.859696666666665" lon="35.24936833333334">
        <ele>322.5</ele>
        <time>2011-09-29T18:36:44.75</time>
      </trkpt>
      <trkpt lat="32.859705" lon="35.249383333333334">
        <ele>322.5</ele>
        <time>2011-09-29T18:36:45.89</time>
      </trkpt>
      <trkpt lat="32.85971166666667" lon="35.24939333333333">
        <ele>322.5</ele>
        <time>2011-09-29T18:36:46.75</time>
      </trkpt>
      <trkpt lat="32.85970833333333" lon="35.24941166666667">
        <ele>322.5</ele>
        <time>2011-09-29T18:36:47.76</time>
      </trkpt>
      <trkpt lat="32.85971333333333" lon="35.24941833333333">
        <ele>322.5</ele>
        <time>2011-09-29T18:36:48.75</time>
      </trkpt>
      <trkpt lat="32.859716666666664" lon="35.249431666666666">
        <ele>322.5</ele>
        <time>2011-09-29T18:36:49.75</time>
      </trkpt>
      <trkpt lat="32.85972" lon="35.249451666666666">
        <ele>322</ele>
        <time>2011-09-29T18:36:50.75</time>
      </trkpt>
      <trkpt lat="32.85973166666667" lon="35.24947">
        <ele>321.5</ele>
        <time>2011-09-29T18:36:51.76</time>
      </trkpt>
      <trkpt lat="32.85973666666667" lon="35.24948166666667">
        <ele>321</ele>
        <time>2011-09-29T18:36:52.32</time>
      </trkpt>
      <trkpt lat="32.859745" lon="35.24950333333334">
        <ele>320.5</ele>
        <time>2011-09-29T18:36:53.30</time>
      </trkpt>
      <trkpt lat="32.85975833333333" lon="35.249518333333334">
        <ele>320</ele>
        <time>2011-09-29T18:36:54.30</time>
      </trkpt>
      <trkpt lat="32.859765" lon="35.249525">
        <ele>319.5</ele>
        <time>2011-09-29T18:36:55.30</time>
      </trkpt>
      <trkpt lat="32.85979" lon="35.24954833333334">
        <ele>319.5</ele>
        <time>2011-09-29T18:36:56.30</time>
      </trkpt>
      <trkpt lat="32.85981" lon="35.24957666666667">
        <ele>319</ele>
        <time>2011-09-29T18:36:57.30</time>
      </trkpt>
      <trkpt lat="32.85982666666666" lon="35.249615">
        <ele>318.5</ele>
        <time>2011-09-29T18:36:58.34</time>
      </trkpt>
      <trkpt lat="32.859851666666664" lon="35.249633333333335">
        <ele>318.5</ele>
        <time>2011-09-29T18:36:59.50</time>
      </trkpt>
      <trkpt lat="32.85986833333333" lon="35.24963833333333">
        <ele>318</ele>
        <time>2011-09-29T18:37:00.54</time>
      </trkpt>
      <trkpt lat="32.859986666666664" lon="35.249716666666664">
        <ele>317</ele>
        <time>2011-09-29T18:37:03.51</time>
      </trkpt>
      <trkpt lat="32.86003" lon="35.24977833333333">
        <ele>316.5</ele>
        <time>2011-09-29T18:37:05.29</time>
      </trkpt>
      <trkpt lat="32.860036666666666" lon="35.2498">
        <ele>316</ele>
        <time>2011-09-29T18:37:06.29</time>
      </trkpt>
      <trkpt lat="32.860083333333336" lon="35.24980166666667">
        <ele>316</ele>
        <time>2011-09-29T18:37:08.30</time>
      </trkpt>
      <trkpt lat="32.860095" lon="35.249811666666666">
        <ele>316</ele>
        <time>2011-09-29T18:37:09.35</time>
      </trkpt>
      <trkpt lat="32.86011666666667" lon="35.249813333333336">
        <ele>316</ele>
        <time>2011-09-29T18:37:10.29</time>
      </trkpt>
      <trkpt lat="32.860125" lon="35.24981666666667">
        <ele>316.5</ele>
        <time>2011-09-29T18:37:11.29</time>
      </trkpt>
      <trkpt lat="32.86018166666667" lon="35.249845">
        <ele>316.5</ele>
        <time>2011-09-29T18:37:13.29</time>
      </trkpt>
      <trkpt lat="32.860205" lon="35.24986666666667">
        <ele>317</ele>
        <time>2011-09-29T18:37:14.29</time>
      </trkpt>
      <trkpt lat="32.860231666666664" lon="35.24988666666667">
        <ele>317.5</ele>
        <time>2011-09-29T18:37:15.29</time>
      </trkpt>
      <trkpt lat="32.86025166666667" lon="35.249903333333336">
        <ele>317.5</ele>
        <time>2011-09-29T18:37:16.42</time>
      </trkpt>
      <trkpt lat="32.86026666666667" lon="35.249916666666664">
        <ele>318</ele>
        <time>2011-09-29T18:37:17.29</time>
      </trkpt>
      <trkpt lat="32.860281666666666" lon="35.24993666666666">
        <ele>318.5</ele>
        <time>2011-09-29T18:37:18.29</time>
      </trkpt>
      <trkpt lat="32.86029333333333" lon="35.24995">
        <ele>319</ele>
        <time>2011-09-29T18:37:19.28</time>
      </trkpt>
      <trkpt lat="32.86031" lon="35.24997333333334">
        <ele>319.5</ele>
        <time>2011-09-29T18:37:20.29</time>
      </trkpt>
      <trkpt lat="32.86033666666667" lon="35.24998">
        <ele>319.5</ele>
        <time>2011-09-29T18:37:21.55</time>
      </trkpt>
      <trkpt lat="32.860351666666666" lon="35.25">
        <ele>319.5</ele>
        <time>2011-09-29T18:37:22.29</time>
      </trkpt>
      <trkpt lat="32.86048" lon="35.250085">
        <ele>319.5</ele>
        <time>2011-09-29T18:37:25.29</time>
      </trkpt>
      <trkpt lat="32.8605" lon="35.250121666666665">
        <ele>319</ele>
        <time>2011-09-29T18:37:26.29</time>
      </trkpt>
      <trkpt lat="32.86051" lon="35.250186666666664">
        <ele>319</ele>
        <time>2011-09-29T18:37:28.26</time>
      </trkpt>
      <trkpt lat="32.86051666666667" lon="35.250218333333336">
        <ele>318.5</ele>
        <time>2011-09-29T18:37:29.25</time>
      </trkpt>
      <trkpt lat="32.860515" lon="35.25025333333333">
        <ele>319</ele>
        <time>2011-09-29T18:37:30.25</time>
      </trkpt>
      <trkpt lat="32.860553333333336" lon="35.25036">
        <ele>319</ele>
        <time>2011-09-29T18:37:32.25</time>
      </trkpt>
      <trkpt lat="32.86058" lon="35.25041">
        <ele>318.5</ele>
        <time>2011-09-29T18:37:33.26</time>
      </trkpt>
      <trkpt lat="32.860605" lon="35.25042333333333">
        <ele>318</ele>
        <time>2011-09-29T18:37:34.25</time>
      </trkpt>
      <trkpt lat="32.86063166666667" lon="35.250435">
        <ele>318</ele>
        <time>2011-09-29T18:37:35.25</time>
      </trkpt>
      <trkpt lat="32.860638333333334" lon="35.25045333333333">
        <ele>318.5</ele>
        <time>2011-09-29T18:37:36.25</time>
      </trkpt>
      <trkpt lat="32.86065833333333" lon="35.25046833333333">
        <ele>318.5</ele>
        <time>2011-09-29T18:37:37.24</time>
      </trkpt>
      <trkpt lat="32.86067" lon="35.25048666666667">
        <ele>317.5</ele>
        <time>2011-09-29T18:37:38.26</time>
      </trkpt>
      <trkpt lat="32.86069666666667" lon="35.25049166666667">
        <ele>317</ele>
        <time>2011-09-29T18:37:39.49</time>
      </trkpt>
      <trkpt lat="32.86072333333333" lon="35.250503333333334">
        <ele>316.5</ele>
        <time>2011-09-29T18:37:40.24</time>
      </trkpt>
      <trkpt lat="32.86074333333333" lon="35.25052">
        <ele>317</ele>
        <time>2011-09-29T18:37:41.25</time>
      </trkpt>
      <trkpt lat="32.86076333333333" lon="35.250535">
        <ele>317</ele>
        <time>2011-09-29T18:37:42.31</time>
      </trkpt>
      <trkpt lat="32.86078666666667" lon="35.25055666666667">
        <ele>317.5</ele>
        <time>2011-09-29T18:37:43.25</time>
      </trkpt>
      <trkpt lat="32.860805" lon="35.25057">
        <ele>318</ele>
        <time>2011-09-29T18:37:44.24</time>
      </trkpt>
      <trkpt lat="32.86082833333333" lon="35.25056">
        <ele>318.5</ele>
        <time>2011-09-29T18:37:45.25</time>
      </trkpt>
      <trkpt lat="32.86084666666667" lon="35.250555">
        <ele>318.5</ele>
        <time>2011-09-29T18:37:46.26</time>
      </trkpt>
      <trkpt lat="32.860928333333334" lon="35.25055166666667">
        <ele>320</ele>
        <time>2011-09-29T18:37:48.25</time>
      </trkpt>
      <trkpt lat="32.860955" lon="35.25055666666667">
        <ele>320</ele>
        <time>2011-09-29T18:37:49.25</time>
      </trkpt>
      <trkpt lat="32.860976666666666" lon="35.25056166666667">
        <ele>320</ele>
        <time>2011-09-29T18:37:50.25</time>
      </trkpt>
      <trkpt lat="32.86100833333333" lon="35.250573333333335">
        <ele>319.5</ele>
        <time>2011-09-29T18:37:52.25</time>
      </trkpt>
      <trkpt lat="32.86103833333333" lon="35.25058">
        <ele>319.5</ele>
        <time>2011-09-29T18:37:53.25</time>
      </trkpt>
      <trkpt lat="32.86105833333333" lon="35.250585">
        <ele>319.5</ele>
        <time>2011-09-29T18:37:54.44</time>
      </trkpt>
      <trkpt lat="32.86109166666667" lon="35.250598333333336">
        <ele>319.5</ele>
        <time>2011-09-29T18:37:56.24</time>
      </trkpt>
      <trkpt lat="32.861125" lon="35.25060666666667">
        <ele>319</ele>
        <time>2011-09-29T18:37:57.25</time>
      </trkpt>
      <trkpt lat="32.861158333333336" lon="35.25060833333333">
        <ele>319</ele>
        <time>2011-09-29T18:37:58.25</time>
      </trkpt>
      <trkpt lat="32.86118" lon="35.250613333333334">
        <ele>319</ele>
        <time>2011-09-29T18:37:59.25</time>
      </trkpt>
      <trkpt lat="32.861185" lon="35.250598333333336">
        <ele>320.5</ele>
        <time>2011-09-29T18:38:00.25</time>
      </trkpt>
      <trkpt lat="32.861198333333334" lon="35.25060333333333">
        <ele>321.5</ele>
        <time>2011-09-29T18:38:01.24</time>
      </trkpt>
      <trkpt lat="32.86120833333333" lon="35.2506">
        <ele>321.5</ele>
        <time>2011-09-29T18:38:02.25</time>
      </trkpt>
      <trkpt lat="32.86120666666667" lon="35.250593333333335">
        <ele>321.5</ele>
        <time>2011-09-29T18:38:03.25</time>
      </trkpt>
      <trkpt lat="32.86119166666667" lon="35.250555">
        <ele>321.5</ele>
        <time>2011-09-29T18:38:05.25</time>
      </trkpt>
      <trkpt lat="32.86118833333333" lon="35.250555">
        <ele>322.5</ele>
        <time>2011-09-29T18:38:06.25</time>
      </trkpt>
      <trkpt lat="32.86118333333334" lon="35.25055166666667">
        <ele>323</ele>
        <time>2011-09-29T18:38:07.25</time>
      </trkpt>
      <trkpt lat="32.861171666666664" lon="35.25054166666666">
        <ele>323.5</ele>
        <time>2011-09-29T18:38:08.25</time>
      </trkpt>
      <trkpt lat="32.861153333333334" lon="35.25053833333333">
        <ele>324</ele>
        <time>2011-09-29T18:38:09.25</time>
      </trkpt>
      <trkpt lat="32.86114166666667" lon="35.25054">
        <ele>325</ele>
        <time>2011-09-29T18:38:10.25</time>
      </trkpt>
      <trkpt lat="32.861125" lon="35.25054">
        <ele>325.5</ele>
        <time>2011-09-29T18:38:11.25</time>
      </trkpt>
      <trkpt lat="32.86110333333333" lon="35.250548333333334">
        <ele>326.5</ele>
        <time>2011-09-29T18:38:12.25</time>
      </trkpt>
      <trkpt lat="32.861086666666665" lon="35.25057666666667">
        <ele>329</ele>
        <time>2011-09-29T18:38:13.25</time>
      </trkpt>
      <trkpt lat="32.86108333333333" lon="35.25058333333333">
        <ele>330</ele>
        <time>2011-09-29T18:38:14.47</time>
      </trkpt>
      <trkpt lat="32.861088333333335" lon="35.2506">
        <ele>331</ele>
        <time>2011-09-29T18:38:15.25</time>
      </trkpt>
      <trkpt lat="32.861088333333335" lon="35.25060666666667">
        <ele>332</ele>
        <time>2011-09-29T18:38:16.25</time>
      </trkpt>
      <trkpt lat="32.861088333333335" lon="35.25060833333333">
        <ele>332</ele>
        <time>2011-09-29T18:38:17.25</time>
      </trkpt>
      <trkpt lat="32.86109" lon="35.25060833333333">
        <ele>332</ele>
        <time>2011-09-29T18:38:18.24</time>
      </trkpt>
      <trkpt lat="32.861093333333336" lon="35.250618333333335">
        <ele>332.5</ele>
        <time>2011-09-29T18:38:19.24</time>
      </trkpt>
      <trkpt lat="32.86110166666667" lon="35.25062833333333">
        <ele>333</ele>
        <time>2011-09-29T18:38:20.42</time>
      </trkpt>
      <trkpt lat="32.86109833333333" lon="35.25063333333333">
        <ele>333</ele>
        <time>2011-09-29T18:38:21.24</time>
      </trkpt>
      <trkpt lat="32.8611" lon="35.250635">
        <ele>333</ele>
        <time>2011-09-29T18:38:22.25</time>
      </trkpt>
      <trkpt lat="32.861095" lon="35.25066666666667">
        <ele>333.5</ele>
        <time>2011-09-29T18:38:23.46</time>
      </trkpt>
      <trkpt lat="32.86110166666667" lon="35.2507">
        <ele>334</ele>
        <time>2011-09-29T18:38:24.25</time>
      </trkpt>
      <trkpt lat="32.86110166666667" lon="35.25071833333333">
        <ele>334</ele>
        <time>2011-09-29T18:38:25.25</time>
      </trkpt>
      <trkpt lat="32.86110166666667" lon="35.25073166666667">
        <ele>334</ele>
        <time>2011-09-29T18:38:26.25</time>
      </trkpt>
      <trkpt lat="32.86110333333333" lon="35.250753333333336">
        <ele>333.5</ele>
        <time>2011-09-29T18:38:27.24</time>
      </trkpt>
      <trkpt lat="32.861113333333336" lon="35.25077666666667">
        <ele>333.5</ele>
        <time>2011-09-29T18:38:28.50</time>
      </trkpt>
      <trkpt lat="32.861108333333334" lon="35.250805">
        <ele>333</ele>
        <time>2011-09-29T18:38:29.24</time>
      </trkpt>
      <trkpt lat="32.86111666666667" lon="35.250836666666665">
        <ele>333.5</ele>
        <time>2011-09-29T18:38:30.24</time>
      </trkpt>
      <trkpt lat="32.86111666666667" lon="35.250863333333335">
        <ele>333.5</ele>
        <time>2011-09-29T18:38:31.24</time>
      </trkpt>
      <trkpt lat="32.861125" lon="35.250905">
        <ele>333.5</ele>
        <time>2011-09-29T18:38:32.24</time>
      </trkpt>
      <trkpt lat="32.86114" lon="35.250971666666665">
        <ele>333.5</ele>
        <time>2011-09-29T18:38:34.24</time>
      </trkpt>
      <trkpt lat="32.86114833333333" lon="35.25098833333333">
        <ele>333</ele>
        <time>2011-09-29T18:38:35.24</time>
      </trkpt>
      <trkpt lat="32.861158333333336" lon="35.251">
        <ele>333</ele>
        <time>2011-09-29T18:38:36.24</time>
      </trkpt>
      <trkpt lat="32.86116833333333" lon="35.25100666666667">
        <ele>333</ele>
        <time>2011-09-29T18:38:37.24</time>
      </trkpt>
      <trkpt lat="32.86116833333333" lon="35.25103">
        <ele>332.5</ele>
        <time>2011-09-29T18:38:38.24</time>
      </trkpt>
      <trkpt lat="32.86115" lon="35.25105666666666">
        <ele>331.5</ele>
        <time>2011-09-29T18:38:39.24</time>
      </trkpt>
      <trkpt lat="32.861156666666666" lon="35.251068333333336">
        <ele>331</ele>
        <time>2011-09-29T18:38:40.25</time>
      </trkpt>
      <trkpt lat="32.86116833333333" lon="35.251088333333335">
        <ele>330</ele>
        <time>2011-09-29T18:38:41.24</time>
      </trkpt>
      <trkpt lat="32.86124" lon="35.25114">
        <ele>330.5</ele>
        <time>2011-09-29T18:38:43.24</time>
      </trkpt>
      <trkpt lat="32.861221666666665" lon="35.251173333333334">
        <ele>330</ele>
        <time>2011-09-29T18:38:45.25</time>
      </trkpt>
      <trkpt lat="32.861225" lon="35.251196666666665">
        <ele>329.5</ele>
        <time>2011-09-29T18:38:46.24</time>
      </trkpt>
      <trkpt lat="32.861288333333334" lon="35.251245">
        <ele>328</ele>
        <time>2011-09-29T18:38:48.24</time>
      </trkpt>
      <trkpt lat="32.861306666666664" lon="35.251268333333336">
        <ele>327.5</ele>
        <time>2011-09-29T18:38:49.23</time>
      </trkpt>
      <trkpt lat="32.86134" lon="35.251275">
        <ele>327.5</ele>
        <time>2011-09-29T18:38:50.37</time>
      </trkpt>
      <trkpt lat="32.861356666666666" lon="35.25127666666667">
        <ele>327.5</ele>
        <time>2011-09-29T18:38:51.24</time>
      </trkpt>
      <trkpt lat="32.861365" lon="35.25128">
        <ele>327.5</ele>
        <time>2011-09-29T18:38:52.24</time>
      </trkpt>
      <trkpt lat="32.861376666666665" lon="35.25129666666667">
        <ele>328.5</ele>
        <time>2011-09-29T18:38:53.24</time>
      </trkpt>
      <trkpt lat="32.8614" lon="35.25129">
        <ele>329.5</ele>
        <time>2011-09-29T18:38:54.24</time>
      </trkpt>
      <trkpt lat="32.86145833333333" lon="35.25134333333333">
        <ele>328.5</ele>
        <time>2011-09-29T18:38:56.27</time>
      </trkpt>
      <trkpt lat="32.86146166666666" lon="35.25136666666667">
        <ele>329.5</ele>
        <time>2011-09-29T18:38:57.23</time>
      </trkpt>
      <trkpt lat="32.86156166666667" lon="35.251401666666666">
        <ele>329</ele>
        <time>2011-09-29T18:38:59.24</time>
      </trkpt>
      <trkpt lat="32.86160666666667" lon="35.251416666666664">
        <ele>328.5</ele>
        <time>2011-09-29T18:39:00.24</time>
      </trkpt>
      <trkpt lat="32.861641666666664" lon="35.25142833333334">
        <ele>328.5</ele>
        <time>2011-09-29T18:39:01.24</time>
      </trkpt>
      <trkpt lat="32.86167" lon="35.251446666666666">
        <ele>328.5</ele>
        <time>2011-09-29T18:39:02.24</time>
      </trkpt>
      <trkpt lat="32.86169666666667" lon="35.25147333333334">
        <ele>328.5</ele>
        <time>2011-09-29T18:39:03.23</time>
      </trkpt>
      <trkpt lat="32.861763333333336" lon="35.25154">
        <ele>329</ele>
        <time>2011-09-29T18:39:05.37</time>
      </trkpt>
      <trkpt lat="32.86176666666667" lon="35.25157">
        <ele>330.5</ele>
        <time>2011-09-29T18:39:06.24</time>
      </trkpt>
      <trkpt lat="32.86177" lon="35.25161">
        <ele>330.5</ele>
        <time>2011-09-29T18:39:07.30</time>
      </trkpt>
      <trkpt lat="32.86179" lon="35.251628333333336">
        <ele>331.5</ele>
        <time>2011-09-29T18:39:08.24</time>
      </trkpt>
      <trkpt lat="32.86183666666667" lon="35.25166">
        <ele>331.5</ele>
        <time>2011-09-29T18:39:10.23</time>
      </trkpt>
      <trkpt lat="32.86185833333333" lon="35.251675">
        <ele>331</ele>
        <time>2011-09-29T18:39:11.23</time>
      </trkpt>
      <trkpt lat="32.861873333333335" lon="35.251685">
        <ele>330.5</ele>
        <time>2011-09-29T18:39:12.23</time>
      </trkpt>
      <trkpt lat="32.86188333333333" lon="35.25168333333333">
        <ele>332</ele>
        <time>2011-09-29T18:39:13.23</time>
      </trkpt>
      <trkpt lat="32.86190333333333" lon="35.25167833333333">
        <ele>330.5</ele>
        <time>2011-09-29T18:39:14.38</time>
      </trkpt>
      <trkpt lat="32.861915" lon="35.25166">
        <ele>329.5</ele>
        <time>2011-09-29T18:39:15.24</time>
      </trkpt>
      <trkpt lat="32.86190833333333" lon="35.251645">
        <ele>329.5</ele>
        <time>2011-09-29T18:39:16.23</time>
      </trkpt>
      <trkpt lat="32.861963333333335" lon="35.25161333333333">
        <ele>329</ele>
        <time>2011-09-29T18:39:18.23</time>
      </trkpt>
      <trkpt lat="32.86197333333333" lon="35.251598333333334">
        <ele>328</ele>
        <time>2011-09-29T18:39:19.23</time>
      </trkpt>
      <trkpt lat="32.861983333333335" lon="35.25158">
        <ele>327.5</ele>
        <time>2011-09-29T18:39:20.24</time>
      </trkpt>
      <trkpt lat="32.861985" lon="35.25156333333333">
        <ele>326.5</ele>
        <time>2011-09-29T18:39:21.23</time>
      </trkpt>
      <trkpt lat="32.86199166666667" lon="35.25154666666667">
        <ele>326.5</ele>
        <time>2011-09-29T18:39:22.23</time>
      </trkpt>
      <trkpt lat="32.86199" lon="35.25152833333333">
        <ele>325.5</ele>
        <time>2011-09-29T18:39:23.23</time>
      </trkpt>
      <trkpt lat="32.86199166666667" lon="35.25151">
        <ele>326</ele>
        <time>2011-09-29T18:39:24.23</time>
      </trkpt>
      <trkpt lat="32.86199833333333" lon="35.251486666666665">
        <ele>325.5</ele>
        <time>2011-09-29T18:39:25.24</time>
      </trkpt>
      <trkpt lat="32.862" lon="35.251463333333334">
        <ele>324</ele>
        <time>2011-09-29T18:39:26.23</time>
      </trkpt>
      <trkpt lat="32.86201666666667" lon="35.25143833333333">
        <ele>321.5</ele>
        <time>2011-09-29T18:39:27.23</time>
      </trkpt>
      <trkpt lat="32.862028333333335" lon="35.25140833333333">
        <ele>321</ele>
        <time>2011-09-29T18:39:28.23</time>
      </trkpt>
      <trkpt lat="32.86201333333333" lon="35.25138">
        <ele>318</ele>
        <time>2011-09-29T18:39:29.23</time>
      </trkpt>
      <trkpt lat="32.861983333333335" lon="35.25139166666666">
        <ele>316</ele>
        <time>2011-09-29T18:39:31.23</time>
      </trkpt>
      <trkpt lat="32.86198" lon="35.25142">
        <ele>316</ele>
        <time>2011-09-29T18:39:33.23</time>
      </trkpt>
      <trkpt lat="32.861981666666665" lon="35.251443333333334">
        <ele>316</ele>
        <time>2011-09-29T18:39:34.23</time>
      </trkpt>
      <trkpt lat="32.861988333333336" lon="35.25147166666667">
        <ele>316</ele>
        <time>2011-09-29T18:39:35.23</time>
      </trkpt>
      <trkpt lat="32.861995" lon="35.25149">
        <ele>316.5</ele>
        <time>2011-09-29T18:39:36.22</time>
      </trkpt>
      <trkpt lat="32.862005" lon="35.25152">
        <ele>317.5</ele>
        <time>2011-09-29T18:39:37.22</time>
      </trkpt>
      <trkpt lat="32.862006666666666" lon="35.251553333333334">
        <ele>318</ele>
        <time>2011-09-29T18:39:38.22</time>
      </trkpt>
      <trkpt lat="32.862008333333335" lon="35.251641666666664">
        <ele>318.5</ele>
        <time>2011-09-29T18:39:40.23</time>
      </trkpt>
      <trkpt lat="32.862005" lon="35.251675">
        <ele>318.5</ele>
        <time>2011-09-29T18:39:41.22</time>
      </trkpt>
      <trkpt lat="32.862001666666664" lon="35.25170333333333">
        <ele>318</ele>
        <time>2011-09-29T18:39:42.23</time>
      </trkpt>
      <trkpt lat="32.861936666666665" lon="35.25185166666667">
        <ele>318</ele>
        <time>2011-09-29T18:39:44.22</time>
      </trkpt>
      <trkpt lat="32.86190666666667" lon="35.25192">
        <ele>317</ele>
        <time>2011-09-29T18:39:45.22</time>
      </trkpt>
      <trkpt lat="32.861875" lon="35.25197">
        <ele>316.5</ele>
        <time>2011-09-29T18:39:46.22</time>
      </trkpt>
      <trkpt lat="32.86184" lon="35.252208333333336">
        <ele>317</ele>
        <time>2011-09-29T18:39:48.23</time>
      </trkpt>
      <trkpt lat="32.861776666666664" lon="35.252455">
        <ele>317</ele>
        <time>2011-09-29T18:39:50.22</time>
      </trkpt>
      <trkpt lat="32.86174166666667" lon="35.252545">
        <ele>316.5</ele>
        <time>2011-09-29T18:39:51.23</time>
      </trkpt>
      <trkpt lat="32.86168833333333" lon="35.252725">
        <ele>315.5</ele>
        <time>2011-09-29T18:39:54.26</time>
      </trkpt>
      <trkpt lat="32.86156666666667" lon="35.25297666666667">
        <ele>315</ele>
        <time>2011-09-29T18:39:57.44</time>
      </trkpt>
      <trkpt lat="32.86145166666667" lon="35.253115">
        <ele>315</ele>
        <time>2011-09-29T18:39:59.22</time>
      </trkpt>
      <trkpt lat="32.861428333333336" lon="35.25315333333333">
        <ele>315</ele>
        <time>2011-09-29T18:40:00.21</time>
      </trkpt>
      <trkpt lat="32.861403333333335" lon="35.253185">
        <ele>315</ele>
        <time>2011-09-29T18:40:01.22</time>
      </trkpt>
      <trkpt lat="32.861375" lon="35.25324833333333">
        <ele>315</ele>
        <time>2011-09-29T18:40:02.22</time>
      </trkpt>
      <trkpt lat="32.861221666666665" lon="35.25340333333333">
        <ele>315.5</ele>
        <time>2011-09-29T18:40:04.84</time>
      </trkpt>
      <trkpt lat="32.860976666666666" lon="35.253525">
        <ele>315</ele>
        <time>2011-09-29T18:40:07.85</time>
      </trkpt>
      <trkpt lat="32.86090166666666" lon="35.25355166666667">
        <ele>315</ele>
        <time>2011-09-29T18:40:08.85</time>
      </trkpt>
      <trkpt lat="32.86074" lon="35.25364833333333">
        <ele>314.5</ele>
        <time>2011-09-29T18:40:10.84</time>
      </trkpt>
      <trkpt lat="32.860675" lon="35.25367">
        <ele>315</ele>
        <time>2011-09-29T18:40:11.85</time>
      </trkpt>
      <trkpt lat="32.86062" lon="35.253705">
        <ele>315</ele>
        <time>2011-09-29T18:40:12.84</time>
      </trkpt>
      <trkpt lat="32.860565" lon="35.25373666666667">
        <ele>315.5</ele>
        <time>2011-09-29T18:40:13.95</time>
      </trkpt>
      <trkpt lat="32.860505" lon="35.253773333333335">
        <ele>313</ele>
        <time>2011-09-29T18:40:14.84</time>
      </trkpt>
      <trkpt lat="32.86045166666667" lon="35.25382666666667">
        <ele>314</ele>
        <time>2011-09-29T18:40:15.84</time>
      </trkpt>
      <trkpt lat="32.860413333333334" lon="35.25389166666667">
        <ele>314</ele>
        <time>2011-09-29T18:40:16.84</time>
      </trkpt>
      <trkpt lat="32.860375" lon="35.253951666666666">
        <ele>314</ele>
        <time>2011-09-29T18:40:17.85</time>
      </trkpt>
      <trkpt lat="32.860348333333334" lon="35.254005">
        <ele>316</ele>
        <time>2011-09-29T18:40:18.84</time>
      </trkpt>
      <trkpt lat="32.86032333333333" lon="35.25406">
        <ele>315</ele>
        <time>2011-09-29T18:40:19.84</time>
      </trkpt>
      <trkpt lat="32.860305" lon="35.254108333333335">
        <ele>315.5</ele>
        <time>2011-09-29T18:40:20.85</time>
      </trkpt>
      <trkpt lat="32.860295" lon="35.254191666666664">
        <ele>315.5</ele>
        <time>2011-09-29T18:40:22.84</time>
      </trkpt>
      <trkpt lat="32.86028833333334" lon="35.25422666666667">
        <ele>315</ele>
        <time>2011-09-29T18:40:23.84</time>
      </trkpt>
      <trkpt lat="32.86028833333334" lon="35.25425666666667">
        <ele>315</ele>
        <time>2011-09-29T18:40:24.85</time>
      </trkpt>
      <trkpt lat="32.86027" lon="35.25429666666667">
        <ele>315</ele>
        <time>2011-09-29T18:40:25.83</time>
      </trkpt>
      <trkpt lat="32.860256666666665" lon="35.25432833333333">
        <ele>315.5</ele>
        <time>2011-09-29T18:40:26.84</time>
      </trkpt>
      <trkpt lat="32.86024166666667" lon="35.254355">
        <ele>315.5</ele>
        <time>2011-09-29T18:40:27.83</time>
      </trkpt>
      <trkpt lat="32.86024166666667" lon="35.254376666666666">
        <ele>315</ele>
        <time>2011-09-29T18:40:28.84</time>
      </trkpt>
      <trkpt lat="32.860238333333335" lon="35.254401666666666">
        <ele>314.5</ele>
        <time>2011-09-29T18:40:29.99</time>
      </trkpt>
      <trkpt lat="32.86022833333333" lon="35.25443333333333">
        <ele>313</ele>
        <time>2011-09-29T18:40:31.10</time>
      </trkpt>
      <trkpt lat="32.860225" lon="35.25445">
        <ele>314</ele>
        <time>2011-09-29T18:40:31.84</time>
      </trkpt>
      <trkpt lat="32.860205" lon="35.25448333333333">
        <ele>313</ele>
        <time>2011-09-29T18:40:32.84</time>
      </trkpt>
      <trkpt lat="32.86018166666667" lon="35.254506666666664">
        <ele>313.5</ele>
        <time>2011-09-29T18:40:33.84</time>
      </trkpt>
      <trkpt lat="32.86016166666667" lon="35.254515">
        <ele>315</ele>
        <time>2011-09-29T18:40:34.84</time>
      </trkpt>
      <trkpt lat="32.86014333333333" lon="35.25451833333333">
        <ele>316</ele>
        <time>2011-09-29T18:40:35.84</time>
      </trkpt>
      <trkpt lat="32.86011833333333" lon="35.25454333333333">
        <ele>315</ele>
        <time>2011-09-29T18:40:36.84</time>
      </trkpt>
      <trkpt lat="32.86011333333333" lon="35.25455">
        <ele>315.5</ele>
        <time>2011-09-29T18:40:37.84</time>
      </trkpt>
      <trkpt lat="32.8601" lon="35.25456833333333">
        <ele>315.5</ele>
        <time>2011-09-29T18:40:38.84</time>
      </trkpt>
      <trkpt lat="32.860101666666665" lon="35.254583333333336">
        <ele>315</ele>
        <time>2011-09-29T18:40:39.84</time>
      </trkpt>
      <trkpt lat="32.860095" lon="35.2546">
        <ele>313.5</ele>
        <time>2011-09-29T18:40:40.84</time>
      </trkpt>
      <trkpt lat="32.860076666666664" lon="35.254616666666664">
        <ele>314</ele>
        <time>2011-09-29T18:40:41.84</time>
      </trkpt>
      <trkpt lat="32.860063333333336" lon="35.254635">
        <ele>313.5</ele>
        <time>2011-09-29T18:40:42.84</time>
      </trkpt>
      <trkpt lat="32.86005166666666" lon="35.25465166666667">
        <ele>313.5</ele>
        <time>2011-09-29T18:40:43.84</time>
      </trkpt>
      <trkpt lat="32.86004333333333" lon="35.254665">
        <ele>313</ele>
        <time>2011-09-29T18:40:44.84</time>
      </trkpt>
      <trkpt lat="32.86002833333333" lon="35.254691666666666">
        <ele>312</ele>
        <time>2011-09-29T18:40:45.84</time>
      </trkpt>
      <trkpt lat="32.860013333333335" lon="35.25471666666667">
        <ele>311.5</ele>
        <time>2011-09-29T18:40:46.84</time>
      </trkpt>
      <trkpt lat="32.86000833333333" lon="35.25475">
        <ele>311.5</ele>
        <time>2011-09-29T18:40:47.84</time>
      </trkpt>
      <trkpt lat="32.86000166666667" lon="35.254781666666666">
        <ele>311.5</ele>
        <time>2011-09-29T18:40:48.84</time>
      </trkpt>
      <trkpt lat="32.85999833333333" lon="35.254815">
        <ele>310.5</ele>
        <time>2011-09-29T18:40:49.84</time>
      </trkpt>
      <trkpt lat="32.85997666666667" lon="35.254841666666664">
        <ele>310.5</ele>
        <time>2011-09-29T18:40:50.84</time>
      </trkpt>
      <trkpt lat="32.859968333333335" lon="35.254871666666666">
        <ele>310.5</ele>
        <time>2011-09-29T18:40:51.84</time>
      </trkpt>
      <trkpt lat="32.859955" lon="35.25490166666667">
        <ele>310</ele>
        <time>2011-09-29T18:40:52.83</time>
      </trkpt>
      <trkpt lat="32.859943333333334" lon="35.25492833333333">
        <ele>309.5</ele>
        <time>2011-09-29T18:40:53.83</time>
      </trkpt>
      <trkpt lat="32.859923333333334" lon="35.254955">
        <ele>309.5</ele>
        <time>2011-09-29T18:40:54.83</time>
      </trkpt>
      <trkpt lat="32.859915" lon="35.254981666666666">
        <ele>309.5</ele>
        <time>2011-09-29T18:40:55.83</time>
      </trkpt>
      <trkpt lat="32.859901666666666" lon="35.25501166666667">
        <ele>309</ele>
        <time>2011-09-29T18:40:56.84</time>
      </trkpt>
      <trkpt lat="32.85991666666666" lon="35.255055">
        <ele>307.5</ele>
        <time>2011-09-29T18:40:57.83</time>
      </trkpt>
      <trkpt lat="32.859898333333334" lon="35.25508">
        <ele>308</ele>
        <time>2011-09-29T18:40:58.84</time>
      </trkpt>
      <trkpt lat="32.85989166666667" lon="35.2551">
        <ele>307.5</ele>
        <time>2011-09-29T18:40:59.84</time>
      </trkpt>
      <trkpt lat="32.85987166666666" lon="35.255131666666664">
        <ele>306.5</ele>
        <time>2011-09-29T18:41:00.83</time>
      </trkpt>
      <trkpt lat="32.85987" lon="35.25515333333333">
        <ele>306.5</ele>
        <time>2011-09-29T18:41:01.82</time>
      </trkpt>
      <trkpt lat="32.85986" lon="35.255183333333335">
        <ele>306.5</ele>
        <time>2011-09-29T18:41:02.84</time>
      </trkpt>
      <trkpt lat="32.85985" lon="35.255215">
        <ele>306</ele>
        <time>2011-09-29T18:41:03.83</time>
      </trkpt>
      <trkpt lat="32.859855" lon="35.25523">
        <ele>305.5</ele>
        <time>2011-09-29T18:41:04.83</time>
      </trkpt>
      <trkpt lat="32.859853333333334" lon="35.255248333333334">
        <ele>306</ele>
        <time>2011-09-29T18:41:05.83</time>
      </trkpt>
      <trkpt lat="32.859855" lon="35.25526333333333">
        <ele>306</ele>
        <time>2011-09-29T18:41:06.83</time>
      </trkpt>
      <trkpt lat="32.85985" lon="35.255291666666665">
        <ele>306.5</ele>
        <time>2011-09-29T18:41:07.83</time>
      </trkpt>
      <trkpt lat="32.85984833333333" lon="35.255305">
        <ele>307</ele>
        <time>2011-09-29T18:41:08.83</time>
      </trkpt>
      <trkpt lat="32.85984833333333" lon="35.255315">
        <ele>307</ele>
        <time>2011-09-29T18:41:09.83</time>
      </trkpt>
      <trkpt lat="32.859853333333334" lon="35.25532833333333">
        <ele>307</ele>
        <time>2011-09-29T18:41:10.83</time>
      </trkpt>
      <trkpt lat="32.859875" lon="35.255356666666664">
        <ele>308</ele>
        <time>2011-09-29T18:41:11.83</time>
      </trkpt>
      <trkpt lat="32.859883333333336" lon="35.25537666666666">
        <ele>307.5</ele>
        <time>2011-09-29T18:41:13.8</time>
      </trkpt>
      <trkpt lat="32.85988666666667" lon="35.25539">
        <ele>307.5</ele>
        <time>2011-09-29T18:41:13.83</time>
      </trkpt>
      <trkpt lat="32.85988833333333" lon="35.25539666666667">
        <ele>307.5</ele>
        <time>2011-09-29T18:41:14.83</time>
      </trkpt>
      <trkpt lat="32.85990833333334" lon="35.255451666666666">
        <ele>309</ele>
        <time>2011-09-29T18:41:16.28</time>
      </trkpt>
      <trkpt lat="32.85991333333333" lon="35.255473333333335">
        <ele>309</ele>
        <time>2011-09-29T18:41:17.28</time>
      </trkpt>
      <trkpt lat="32.85992" lon="35.255491666666664">
        <ele>309</ele>
        <time>2011-09-29T18:41:18.28</time>
      </trkpt>
      <trkpt lat="32.85992" lon="35.255515">
        <ele>308.5</ele>
        <time>2011-09-29T18:41:19.28</time>
      </trkpt>
      <trkpt lat="32.85993" lon="35.25553">
        <ele>308.5</ele>
        <time>2011-09-29T18:41:20.28</time>
      </trkpt>
      <trkpt lat="32.859928333333336" lon="35.255561666666665">
        <ele>308.5</ele>
        <time>2011-09-29T18:41:21.29</time>
      </trkpt>
      <trkpt lat="32.85993166666667" lon="35.25559166666667">
        <ele>309.5</ele>
        <time>2011-09-29T18:41:22.27</time>
      </trkpt>
      <trkpt lat="32.85994" lon="35.25561666666667">
        <ele>309.5</ele>
        <time>2011-09-29T18:41:23.50</time>
      </trkpt>
      <trkpt lat="32.859955" lon="35.25564333333333">
        <ele>309</ele>
        <time>2011-09-29T18:41:24.28</time>
      </trkpt>
      <trkpt lat="32.859955" lon="35.255676666666666">
        <ele>309</ele>
        <time>2011-09-29T18:41:25.28</time>
      </trkpt>
      <trkpt lat="32.859948333333335" lon="35.25570333333334">
        <ele>309</ele>
        <time>2011-09-29T18:41:26.28</time>
      </trkpt>
      <trkpt lat="32.859941666666664" lon="35.25573166666667">
        <ele>308.5</ele>
        <time>2011-09-29T18:41:27.28</time>
      </trkpt>
      <trkpt lat="32.85994" lon="35.25575166666667">
        <ele>309</ele>
        <time>2011-09-29T18:41:28.28</time>
      </trkpt>
      <trkpt lat="32.85995166666667" lon="35.25577166666667">
        <ele>309</ele>
        <time>2011-09-29T18:41:29.33</time>
      </trkpt>
      <trkpt lat="32.859946666666666" lon="35.25580166666666">
        <ele>309</ele>
        <time>2011-09-29T18:41:30.28</time>
      </trkpt>
      <trkpt lat="32.85995333333334" lon="35.255833333333335">
        <ele>308</ele>
        <time>2011-09-29T18:41:31.28</time>
      </trkpt>
      <trkpt lat="32.85995666666667" lon="35.255851666666665">
        <ele>308</ele>
        <time>2011-09-29T18:41:32.28</time>
      </trkpt>
      <trkpt lat="32.85995166666667" lon="35.255941666666665">
        <ele>307</ele>
        <time>2011-09-29T18:41:34.28</time>
      </trkpt>
      <trkpt lat="32.859943333333334" lon="35.25597666666667">
        <ele>308</ele>
        <time>2011-09-29T18:41:35.28</time>
      </trkpt>
      <trkpt lat="32.85995333333334" lon="35.256005">
        <ele>308.5</ele>
        <time>2011-09-29T18:41:36.28</time>
      </trkpt>
      <trkpt lat="32.85995166666667" lon="35.256038333333336">
        <ele>309</ele>
        <time>2011-09-29T18:41:38.28</time>
      </trkpt>
      <trkpt lat="32.85995166666667" lon="35.256053333333334">
        <ele>309</ele>
        <time>2011-09-29T18:41:39.28</time>
      </trkpt>
      <trkpt lat="32.859946666666666" lon="35.25607">
        <ele>309.5</ele>
        <time>2011-09-29T18:41:40.36</time>
      </trkpt>
      <trkpt lat="32.859941666666664" lon="35.256083333333336">
        <ele>309.5</ele>
        <time>2011-09-29T18:41:41.28</time>
      </trkpt>
      <trkpt lat="32.859941666666664" lon="35.2561">
        <ele>309</ele>
        <time>2011-09-29T18:41:42.28</time>
      </trkpt>
      <trkpt lat="32.859946666666666" lon="35.256191666666666">
        <ele>309</ele>
        <time>2011-09-29T18:41:44.28</time>
      </trkpt>
      <trkpt lat="32.859945" lon="35.25622666666667">
        <ele>310</ele>
        <time>2011-09-29T18:41:45.28</time>
      </trkpt>
      <trkpt lat="32.859973333333336" lon="35.25630666666667">
        <ele>309.5</ele>
        <time>2011-09-29T18:41:47.28</time>
      </trkpt>
      <trkpt lat="32.859985" lon="35.25633">
        <ele>309.5</ele>
        <time>2011-09-29T18:41:48.28</time>
      </trkpt>
      <trkpt lat="32.85999666666667" lon="35.25638166666667">
        <ele>308.5</ele>
        <time>2011-09-29T18:41:49.28</time>
      </trkpt>
      <trkpt lat="32.86000166666667" lon="35.256405">
        <ele>308.5</ele>
        <time>2011-09-29T18:41:50.28</time>
      </trkpt>
      <trkpt lat="32.86001" lon="35.25643">
        <ele>308.5</ele>
        <time>2011-09-29T18:41:51.28</time>
      </trkpt>
      <trkpt lat="32.860013333333335" lon="35.25645">
        <ele>308.5</ele>
        <time>2011-09-29T18:41:52.28</time>
      </trkpt>
      <trkpt lat="32.86002166666667" lon="35.256501666666665">
        <ele>307.5</ele>
        <time>2011-09-29T18:41:53.28</time>
      </trkpt>
      <trkpt lat="32.860033333333334" lon="35.25653666666667">
        <ele>307.5</ele>
        <time>2011-09-29T18:41:54.28</time>
      </trkpt>
      <trkpt lat="32.86006" lon="35.25666833333333">
        <ele>308</ele>
        <time>2011-09-29T18:41:56.28</time>
      </trkpt>
      <trkpt lat="32.860085" lon="35.25672">
        <ele>308</ele>
        <time>2011-09-29T18:41:57.28</time>
      </trkpt>
      <trkpt lat="32.86013666666667" lon="35.256845">
        <ele>307.5</ele>
        <time>2011-09-29T18:41:59.28</time>
      </trkpt>
      <trkpt lat="32.860166666666665" lon="35.25689666666667">
        <ele>307</ele>
        <time>2011-09-29T18:42:00.28</time>
      </trkpt>
      <trkpt lat="32.86019833333334" lon="35.25694">
        <ele>306.5</ele>
        <time>2011-09-29T18:42:01.28</time>
      </trkpt>
      <trkpt lat="32.860235" lon="35.256978333333336">
        <ele>306.5</ele>
        <time>2011-09-29T18:42:02.28</time>
      </trkpt>
      <trkpt lat="32.860258333333334" lon="35.25701333333333">
        <ele>306.5</ele>
        <time>2011-09-29T18:42:03.28</time>
      </trkpt>
      <trkpt lat="32.86029166666667" lon="35.257045">
        <ele>306.5</ele>
        <time>2011-09-29T18:42:04.27</time>
      </trkpt>
      <trkpt lat="32.86033166666667" lon="35.25707166666667">
        <ele>306.5</ele>
        <time>2011-09-29T18:42:05.27</time>
      </trkpt>
      <trkpt lat="32.860366666666664" lon="35.25709">
        <ele>305.5</ele>
        <time>2011-09-29T18:42:06.27</time>
      </trkpt>
      <trkpt lat="32.860405" lon="35.2571">
        <ele>303.5</ele>
        <time>2011-09-29T18:42:07.28</time>
      </trkpt>
      <trkpt lat="32.860438333333335" lon="35.257115">
        <ele>303</ele>
        <time>2011-09-29T18:42:08.27</time>
      </trkpt>
      <trkpt lat="32.860481666666665" lon="35.257131666666666">
        <ele>302</ele>
        <time>2011-09-29T18:42:09.37</time>
      </trkpt>
      <trkpt lat="32.860515" lon="35.25715">
        <ele>302.5</ele>
        <time>2011-09-29T18:42:10.26</time>
      </trkpt>
      <trkpt lat="32.860546666666664" lon="35.257173333333334">
        <ele>305</ele>
        <time>2011-09-29T18:42:11.26</time>
      </trkpt>
      <trkpt lat="32.860575" lon="35.25718666666667">
        <ele>307.5</ele>
        <time>2011-09-29T18:42:12.27</time>
      </trkpt>
      <trkpt lat="32.86060166666667" lon="35.25720166666667">
        <ele>310</ele>
        <time>2011-09-29T18:42:13.26</time>
      </trkpt>
      <trkpt lat="32.86063333333333" lon="35.25720833333333">
        <ele>310.5</ele>
        <time>2011-09-29T18:42:14.31</time>
      </trkpt>
      <trkpt lat="32.86065" lon="35.257223333333336">
        <ele>312.5</ele>
        <time>2011-09-29T18:42:15.34</time>
      </trkpt>
      <trkpt lat="32.86067" lon="35.25723">
        <ele>313.5</ele>
        <time>2011-09-29T18:42:16.27</time>
      </trkpt>
      <trkpt lat="32.86069666666667" lon="35.257235">
        <ele>313.5</ele>
        <time>2011-09-29T18:42:17.38</time>
      </trkpt>
      <trkpt lat="32.86072166666667" lon="35.25723833333333">
        <ele>313</ele>
        <time>2011-09-29T18:42:18.43</time>
      </trkpt>
      <trkpt lat="32.86075" lon="35.257243333333335">
        <ele>313</ele>
        <time>2011-09-29T18:42:19.26</time>
      </trkpt>
      <trkpt lat="32.860775" lon="35.25725833333333">
        <ele>314.5</ele>
        <time>2011-09-29T18:42:20.27</time>
      </trkpt>
      <trkpt lat="32.86080333333334" lon="35.25727166666667">
        <ele>316</ele>
        <time>2011-09-29T18:42:21.30</time>
      </trkpt>
      <trkpt lat="32.860835" lon="35.25727333333333">
        <ele>316</ele>
        <time>2011-09-29T18:42:22.32</time>
      </trkpt>
      <trkpt lat="32.860866666666666" lon="35.25728">
        <ele>317.5</ele>
        <time>2011-09-29T18:42:23.27</time>
      </trkpt>
      <trkpt lat="32.860895" lon="35.25729166666667">
        <ele>319</ele>
        <time>2011-09-29T18:42:24.28</time>
      </trkpt>
      <trkpt lat="32.86092333333333" lon="35.257305">
        <ele>319</ele>
        <time>2011-09-29T18:42:25.49</time>
      </trkpt>
      <trkpt lat="32.860953333333335" lon="35.257335">
        <ele>319</ele>
        <time>2011-09-29T18:42:26.27</time>
      </trkpt>
      <trkpt lat="32.860985" lon="35.25736333333333">
        <ele>319</ele>
        <time>2011-09-29T18:42:27.27</time>
      </trkpt>
      <trkpt lat="32.860998333333335" lon="35.25738666666667">
        <ele>319.5</ele>
        <time>2011-09-29T18:42:28.27</time>
      </trkpt>
      <trkpt lat="32.86101" lon="35.25740666666667">
        <ele>319.5</ele>
        <time>2011-09-29T18:42:29.27</time>
      </trkpt>
      <trkpt lat="32.861025" lon="35.25745333333333">
        <ele>320</ele>
        <time>2011-09-29T18:42:30.27</time>
      </trkpt>
      <trkpt lat="32.86105166666667" lon="35.257508333333334">
        <ele>320</ele>
        <time>2011-09-29T18:42:31.27</time>
      </trkpt>
      <trkpt lat="32.861075" lon="35.25763666666667">
        <ele>320.5</ele>
        <time>2011-09-29T18:42:33.27</time>
      </trkpt>
      <trkpt lat="32.860996666666665" lon="35.25776333333334">
        <ele>317.5</ele>
        <time>2011-09-29T18:42:35.27</time>
      </trkpt>
      <trkpt lat="32.86094333333333" lon="35.257823333333334">
        <ele>316.5</ele>
        <time>2011-09-29T18:42:36.27</time>
      </trkpt>
      <trkpt lat="32.86090333333333" lon="35.25787666666667">
        <ele>316.5</ele>
        <time>2011-09-29T18:42:37.27</time>
      </trkpt>
      <trkpt lat="32.860843333333335" lon="35.25795166666666">
        <ele>316.5</ele>
        <time>2011-09-29T18:42:39.27</time>
      </trkpt>
      <trkpt lat="32.86079333333333" lon="35.25798833333333">
        <ele>316</ele>
        <time>2011-09-29T18:42:40.27</time>
      </trkpt>
      <trkpt lat="32.86075666666667" lon="35.25802">
        <ele>314.5</ele>
        <time>2011-09-29T18:42:41.27</time>
      </trkpt>
      <trkpt lat="32.860726666666665" lon="35.258045">
        <ele>315</ele>
        <time>2011-09-29T18:42:43.27</time>
      </trkpt>
      <trkpt lat="32.860731666666666" lon="35.25805833333333">
        <ele>314.5</ele>
        <time>2011-09-29T18:42:45.26</time>
      </trkpt>
      <trkpt lat="32.86074" lon="35.25806166666667">
        <ele>313</ele>
        <time>2011-09-29T18:42:46.26</time>
      </trkpt>
      <trkpt lat="32.86074166666667" lon="35.25806166666667">
        <ele>312.5</ele>
        <time>2011-09-29T18:42:47.26</time>
      </trkpt>
      <trkpt lat="32.860745" lon="35.25806">
        <ele>311.5</ele>
        <time>2011-09-29T18:42:48.26</time>
      </trkpt>
      <trkpt lat="32.86074333333333" lon="35.25806166666667">
        <ele>311</ele>
        <time>2011-09-29T18:42:49.27</time>
      </trkpt>
      <trkpt lat="32.86074833333333" lon="35.25806166666667">
        <ele>310</ele>
        <time>2011-09-29T18:42:50.27</time>
      </trkpt>
      <trkpt lat="32.860765" lon="35.25807">
        <ele>307</ele>
        <time>2011-09-29T18:42:51.53</time>
      </trkpt>
      <trkpt lat="32.860776666666666" lon="35.25807833333333">
        <ele>305.5</ele>
        <time>2011-09-29T18:42:52.26</time>
      </trkpt>
      <trkpt lat="32.860775" lon="35.25808333333333">
        <ele>305</ele>
        <time>2011-09-29T18:42:53.26</time>
      </trkpt>
      <trkpt lat="32.860775" lon="35.25808166666667">
        <ele>305</ele>
        <time>2011-09-29T18:42:54.26</time>
      </trkpt>
      <trkpt lat="32.86078166666667" lon="35.25808833333333">
        <ele>304.5</ele>
        <time>2011-09-29T18:42:55.26</time>
      </trkpt>
      <trkpt lat="32.86078833333333" lon="35.25808833333333">
        <ele>304</ele>
        <time>2011-09-29T18:42:56.26</time>
      </trkpt>
      <trkpt lat="32.86078833333333" lon="35.25807833333333">
        <ele>303.5</ele>
        <time>2011-09-29T18:42:57.26</time>
      </trkpt>
      <trkpt lat="32.860805" lon="35.2581">
        <ele>302</ele>
        <time>2011-09-29T18:42:58.26</time>
      </trkpt>
      <trkpt lat="32.86080833333333" lon="35.25810166666667">
        <ele>302</ele>
        <time>2011-09-29T18:42:59.26</time>
      </trkpt>
      <trkpt lat="32.86081166666666" lon="35.25810333333333">
        <ele>302</ele>
        <time>2011-09-29T18:43:00.26</time>
      </trkpt>
      <trkpt lat="32.860816666666665" lon="35.25810333333333">
        <ele>301.5</ele>
        <time>2011-09-29T18:43:01.26</time>
      </trkpt>
      <trkpt lat="32.860823333333336" lon="35.25810166666667">
        <ele>301.5</ele>
        <time>2011-09-29T18:43:02.26</time>
      </trkpt>
      <trkpt lat="32.86083333333333" lon="35.258111666666665">
        <ele>301</ele>
        <time>2011-09-29T18:43:03.26</time>
      </trkpt>
      <trkpt lat="32.860836666666664" lon="35.258118333333336">
        <ele>300.5</ele>
        <time>2011-09-29T18:43:04.26</time>
      </trkpt>
      <trkpt lat="32.860843333333335" lon="35.258125">
        <ele>300</ele>
        <time>2011-09-29T18:43:05.26</time>
      </trkpt>
      <trkpt lat="32.860845" lon="35.25812333333333">
        <ele>300</ele>
        <time>2011-09-29T18:43:06.26</time>
      </trkpt>
      <trkpt lat="32.860845" lon="35.25812166666667">
        <ele>300.5</ele>
        <time>2011-09-29T18:43:07.26</time>
      </trkpt>
      <trkpt lat="32.860845" lon="35.258118333333336">
        <ele>300.5</ele>
        <time>2011-09-29T18:43:08.26</time>
      </trkpt>
      <trkpt lat="32.860845" lon="35.258116666666666">
        <ele>300.5</ele>
        <time>2011-09-29T18:43:09.26</time>
      </trkpt>
      <trkpt lat="32.860843333333335" lon="35.258116666666666">
        <ele>300.5</ele>
        <time>2011-09-29T18:43:10.26</time>
      </trkpt>
      <trkpt lat="32.860838333333334" lon="35.25811">
        <ele>300.5</ele>
        <time>2011-09-29T18:43:11.26</time>
      </trkpt>
      <trkpt lat="32.86083" lon="35.25810333333333">
        <ele>301</ele>
        <time>2011-09-29T18:43:12.26</time>
      </trkpt>
      <trkpt lat="32.860836666666664" lon="35.258111666666665">
        <ele>300.5</ele>
        <time>2011-09-29T18:43:13.26</time>
      </trkpt>
      <trkpt lat="32.860835" lon="35.25810833333333">
        <ele>301</ele>
        <time>2011-09-29T18:43:14.26</time>
      </trkpt>
      <trkpt lat="32.86082833333333" lon="35.25810166666667">
        <ele>301.5</ele>
        <time>2011-09-29T18:43:15.26</time>
      </trkpt>
      <trkpt lat="32.860825" lon="35.258098333333336">
        <ele>302</ele>
        <time>2011-09-29T18:43:16.26</time>
      </trkpt>
      <trkpt lat="32.860823333333336" lon="35.25809666666667">
        <ele>302.5</ele>
        <time>2011-09-29T18:43:17.26</time>
      </trkpt>
      <trkpt lat="32.860835" lon="35.258098333333336">
        <ele>302.5</ele>
        <time>2011-09-29T18:43:18.26</time>
      </trkpt>
      <trkpt lat="32.86083166666667" lon="35.258093333333335">
        <ele>303.5</ele>
        <time>2011-09-29T18:43:19.26</time>
      </trkpt>
      <trkpt lat="32.86083333333333" lon="35.258105">
        <ele>303.5</ele>
        <time>2011-09-29T18:43:20.26</time>
      </trkpt>
      <trkpt lat="32.86083333333333" lon="35.25811">
        <ele>303.5</ele>
        <time>2011-09-29T18:43:21.26</time>
      </trkpt>
      <trkpt lat="32.86082666666667" lon="35.25810666666667">
        <ele>304</ele>
        <time>2011-09-29T18:43:22.26</time>
      </trkpt>
      <trkpt lat="32.86081333333333" lon="35.258091666666665">
        <ele>305</ele>
        <time>2011-09-29T18:43:23.26</time>
      </trkpt>
      <trkpt lat="32.860805" lon="35.25808333333333">
        <ele>305</ele>
        <time>2011-09-29T18:43:24.27</time>
      </trkpt>
      <trkpt lat="32.860791666666664" lon="35.258073333333336">
        <ele>306</ele>
        <time>2011-09-29T18:43:25.26</time>
      </trkpt>
      <trkpt lat="32.860778333333336" lon="35.25805833333333">
        <ele>307</ele>
        <time>2011-09-29T18:43:26.26</time>
      </trkpt>
      <trkpt lat="32.86077" lon="35.258053333333336">
        <ele>307</ele>
        <time>2011-09-29T18:43:27.25</time>
      </trkpt>
      <trkpt lat="32.86077" lon="35.25805166666667">
        <ele>307</ele>
        <time>2011-09-29T18:43:28.26</time>
      </trkpt>
      <trkpt lat="32.860765" lon="35.258041666666664">
        <ele>308</ele>
        <time>2011-09-29T18:43:29.26</time>
      </trkpt>
      <trkpt lat="32.86076166666667" lon="35.258035">
        <ele>309</ele>
        <time>2011-09-29T18:43:30.26</time>
      </trkpt>
      <trkpt lat="32.86075666666667" lon="35.258028333333336">
        <ele>310</ele>
        <time>2011-09-29T18:43:31.25</time>
      </trkpt>
      <trkpt lat="32.860755" lon="35.258023333333334">
        <ele>310</ele>
        <time>2011-09-29T18:43:32.25</time>
      </trkpt>
      <trkpt lat="32.860755" lon="35.258026666666666">
        <ele>310</ele>
        <time>2011-09-29T18:43:33.26</time>
      </trkpt>
      <trkpt lat="32.860755" lon="35.258026666666666">
        <ele>310</ele>
        <time>2011-09-29T18:43:34.25</time>
      </trkpt>
      <trkpt lat="32.860751666666665" lon="35.25801">
        <ele>311</ele>
        <time>2011-09-29T18:43:35.25</time>
      </trkpt>
      <trkpt lat="32.86074833333333" lon="35.25799666666666">
        <ele>312.5</ele>
        <time>2011-09-29T18:43:36.25</time>
      </trkpt>
      <trkpt lat="32.86074333333333" lon="35.25799833333333">
        <ele>311.5</ele>
        <time>2011-09-29T18:43:37.25</time>
      </trkpt>
      <trkpt lat="32.86074166666667" lon="35.25799666666666">
        <ele>312</ele>
        <time>2011-09-29T18:43:38.25</time>
      </trkpt>
      <trkpt lat="32.86073666666667" lon="35.25799666666666">
        <ele>312.5</ele>
        <time>2011-09-29T18:43:39.25</time>
      </trkpt>
      <trkpt lat="32.860733333333336" lon="35.25799833333333">
        <ele>312.5</ele>
        <time>2011-09-29T18:43:40.25</time>
      </trkpt>
      <trkpt lat="32.860733333333336" lon="35.25799833333333">
        <ele>312.5</ele>
        <time>2011-09-29T18:43:41.25</time>
      </trkpt>
      <trkpt lat="32.860733333333336" lon="35.258001666666665">
        <ele>313</ele>
        <time>2011-09-29T18:43:42.25</time>
      </trkpt>
      <trkpt lat="32.86073666666667" lon="35.25801333333333">
        <ele>312</ele>
        <time>2011-09-29T18:43:43.25</time>
      </trkpt>
      <trkpt lat="32.86073833333333" lon="35.258015">
        <ele>313.5</ele>
        <time>2011-09-29T18:43:44.25</time>
      </trkpt>
      <trkpt lat="32.86074" lon="35.25801166666667">
        <ele>314</ele>
        <time>2011-09-29T18:43:45.25</time>
      </trkpt>
      <trkpt lat="32.86073833333333" lon="35.25801166666667">
        <ele>314.5</ele>
        <time>2011-09-29T18:43:46.25</time>
      </trkpt>
      <trkpt lat="32.86073833333333" lon="35.258005">
        <ele>315.5</ele>
        <time>2011-09-29T18:43:47.25</time>
      </trkpt>
      <trkpt lat="32.86074333333333" lon="35.257995">
        <ele>317.5</ele>
        <time>2011-09-29T18:43:48.25</time>
      </trkpt>
      <trkpt lat="32.86074166666667" lon="35.25798">
        <ele>320.5</ele>
        <time>2011-09-29T18:43:49.25</time>
      </trkpt>
      <trkpt lat="32.860746666666664" lon="35.25797333333333">
        <ele>322.5</ele>
        <time>2011-09-29T18:43:50.25</time>
      </trkpt>
      <trkpt lat="32.86075" lon="35.257978333333334">
        <ele>322</ele>
        <time>2011-09-29T18:43:51.25</time>
      </trkpt>
      <trkpt lat="32.86075" lon="35.25798">
        <ele>322</ele>
        <time>2011-09-29T18:43:52.25</time>
      </trkpt>
      <trkpt lat="32.86075666666667" lon="35.257981666666666">
        <ele>322</ele>
        <time>2011-09-29T18:43:53.25</time>
      </trkpt>
      <trkpt lat="32.86075666666667" lon="35.257978333333334">
        <ele>321.5</ele>
        <time>2011-09-29T18:43:54.25</time>
      </trkpt>
      <trkpt lat="32.86077" lon="35.25799">
        <ele>320.5</ele>
        <time>2011-09-29T18:43:55.25</time>
      </trkpt>
      <trkpt lat="32.860776666666666" lon="35.258">
        <ele>320</ele>
        <time>2011-09-29T18:43:56.25</time>
      </trkpt>
      <trkpt lat="32.86078833333333" lon="35.258003333333335">
        <ele>319</ele>
        <time>2011-09-29T18:43:57.25</time>
      </trkpt>
      <trkpt lat="32.86080333333334" lon="35.25799">
        <ele>320.5</ele>
        <time>2011-09-29T18:43:58.25</time>
      </trkpt>
      <trkpt lat="32.86080666666667" lon="35.258003333333335">
        <ele>320</ele>
        <time>2011-09-29T18:43:59.25</time>
      </trkpt>
      <trkpt lat="32.860816666666665" lon="35.258015">
        <ele>319.5</ele>
        <time>2011-09-29T18:44:00.25</time>
      </trkpt>
      <trkpt lat="32.860823333333336" lon="35.25804333333333">
        <ele>315.5</ele>
        <time>2011-09-29T18:44:01.25</time>
      </trkpt>
      <trkpt lat="32.860823333333336" lon="35.258053333333336">
        <ele>314.5</ele>
        <time>2011-09-29T18:44:02.25</time>
      </trkpt>
      <trkpt lat="32.860821666666666" lon="35.25805166666667">
        <ele>314.5</ele>
        <time>2011-09-29T18:44:03.25</time>
      </trkpt>
      <trkpt lat="32.86082" lon="35.258053333333336">
        <ele>314</ele>
        <time>2011-09-29T18:44:04.25</time>
      </trkpt>
      <trkpt lat="32.860818333333334" lon="35.258055">
        <ele>314</ele>
        <time>2011-09-29T18:44:05.25</time>
      </trkpt>
      <trkpt lat="32.86081333333333" lon="35.258046666666665">
        <ele>314.5</ele>
        <time>2011-09-29T18:44:06.25</time>
      </trkpt>
      <trkpt lat="32.86081166666666" lon="35.258045">
        <ele>314.5</ele>
        <time>2011-09-29T18:44:07.24</time>
      </trkpt>
      <trkpt lat="32.86080833333333" lon="35.25804">
        <ele>314.5</ele>
        <time>2011-09-29T18:44:08.25</time>
      </trkpt>
      <trkpt lat="32.86080666666667" lon="35.25803833333333">
        <ele>315</ele>
        <time>2011-09-29T18:44:09.25</time>
      </trkpt>
      <trkpt lat="32.860805" lon="35.25803333333333">
        <ele>315.5</ele>
        <time>2011-09-29T18:44:10.25</time>
      </trkpt>
      <trkpt lat="32.86080333333334" lon="35.25803">
        <ele>315.5</ele>
        <time>2011-09-29T18:44:11.24</time>
      </trkpt>
      <trkpt lat="32.8608" lon="35.25803">
        <ele>315</ele>
        <time>2011-09-29T18:44:13.24</time>
      </trkpt>
      <trkpt lat="32.860798333333335" lon="35.258028333333336">
        <ele>314.5</ele>
        <time>2011-09-29T18:44:14.25</time>
      </trkpt>
      <trkpt lat="32.860796666666666" lon="35.25803">
        <ele>314.5</ele>
        <time>2011-09-29T18:44:15.25</time>
      </trkpt>
      <trkpt lat="32.86079333333333" lon="35.25803833333333">
        <ele>313</ele>
        <time>2011-09-29T18:44:16.25</time>
      </trkpt>
      <trkpt lat="32.860791666666664" lon="35.258048333333335">
        <ele>311.5</ele>
        <time>2011-09-29T18:44:17.25</time>
      </trkpt>
      <trkpt lat="32.860791666666664" lon="35.258055">
        <ele>310.5</ele>
        <time>2011-09-29T18:44:18.24</time>
      </trkpt>
      <trkpt lat="32.860791666666664" lon="35.25806166666667">
        <ele>310</ele>
        <time>2011-09-29T18:44:19.24</time>
      </trkpt>
      <trkpt lat="32.86079333333333" lon="35.25806333333333">
        <ele>310</ele>
        <time>2011-09-29T18:44:20.25</time>
      </trkpt>
      <trkpt lat="32.860795" lon="35.25806166666667">
        <ele>310</ele>
        <time>2011-09-29T18:44:21.25</time>
      </trkpt>
      <trkpt lat="32.860795" lon="35.25806166666667">
        <ele>310</ele>
        <time>2011-09-29T18:44:22.24</time>
      </trkpt>
      <trkpt lat="32.860796666666666" lon="35.25806">
        <ele>310</ele>
        <time>2011-09-29T18:44:23.24</time>
      </trkpt>
      <trkpt lat="32.860796666666666" lon="35.25805833333333">
        <ele>310</ele>
        <time>2011-09-29T18:44:24.25</time>
      </trkpt>
      <trkpt lat="32.860798333333335" lon="35.25805833333333">
        <ele>310</ele>
        <time>2011-09-29T18:44:25.23</time>
      </trkpt>
      <trkpt lat="32.860798333333335" lon="35.25805833333333">
        <ele>310</ele>
        <time>2011-09-29T18:44:26.23</time>
      </trkpt>
      <trkpt lat="32.860796666666666" lon="35.25805666666667">
        <ele>310</ele>
        <time>2011-09-29T18:44:27.24</time>
      </trkpt>
      <trkpt lat="32.86081" lon="35.25805833333333">
        <ele>311.5</ele>
        <time>2011-09-29T18:44:28.23</time>
      </trkpt>
      <trkpt lat="32.86081" lon="35.25805833333333">
        <ele>311.5</ele>
        <time>2011-09-29T18:44:29.23</time>
      </trkpt>
      <trkpt lat="32.86080833333333" lon="35.25805833333333">
        <ele>311.5</ele>
        <time>2011-09-29T18:44:30.23</time>
      </trkpt>
      <trkpt lat="32.86080666666667" lon="35.25805666666667">
        <ele>311</ele>
        <time>2011-09-29T18:44:31.24</time>
      </trkpt>
      <trkpt lat="32.860805" lon="35.25805666666667">
        <ele>311</ele>
        <time>2011-09-29T18:44:32.24</time>
      </trkpt>
      <trkpt lat="32.860805" lon="35.25805666666667">
        <ele>311</ele>
        <time>2011-09-29T18:44:33.24</time>
      </trkpt>
      <trkpt lat="32.860805" lon="35.25805666666667">
        <ele>311</ele>
        <time>2011-09-29T18:44:34.24</time>
      </trkpt>
      <trkpt lat="32.860805" lon="35.25805666666667">
        <ele>311</ele>
        <time>2011-09-29T18:44:35.24</time>
      </trkpt>
      <trkpt lat="32.860805" lon="35.25805666666667">
        <ele>310.5</ele>
        <time>2011-09-29T18:44:36.24</time>
      </trkpt>
      <trkpt lat="32.86080333333334" lon="35.25805166666667">
        <ele>311</ele>
        <time>2011-09-29T18:44:37.24</time>
      </trkpt>
      <trkpt lat="32.8608" lon="35.258055">
        <ele>310.5</ele>
        <time>2011-09-29T18:44:38.24</time>
      </trkpt>
      <trkpt lat="32.8608" lon="35.258055">
        <ele>310.5</ele>
        <time>2011-09-29T18:44:39.24</time>
      </trkpt>
      <trkpt lat="32.8608" lon="35.258048333333335">
        <ele>311</ele>
        <time>2011-09-29T18:44:40.24</time>
      </trkpt>
      <trkpt lat="32.8608" lon="35.258046666666665">
        <ele>311</ele>
        <time>2011-09-29T18:44:41.24</time>
      </trkpt>
      <trkpt lat="32.860798333333335" lon="35.258046666666665">
        <ele>311</ele>
        <time>2011-09-29T18:44:42.24</time>
      </trkpt>
      <trkpt lat="32.860798333333335" lon="35.258045">
        <ele>311</ele>
        <time>2011-09-29T18:44:43.24</time>
      </trkpt>
      <trkpt lat="32.860798333333335" lon="35.258045">
        <ele>311</ele>
        <time>2011-09-29T18:44:44.24</time>
      </trkpt>
      <trkpt lat="32.860798333333335" lon="35.258045">
        <ele>311</ele>
        <time>2011-09-29T18:44:45.23</time>
      </trkpt>
      <trkpt lat="32.860798333333335" lon="35.25804333333333">
        <ele>310.5</ele>
        <time>2011-09-29T18:44:46.24</time>
      </trkpt>
      <trkpt lat="32.860798333333335" lon="35.25804333333333">
        <ele>310.5</ele>
        <time>2011-09-29T18:44:47.24</time>
      </trkpt>
      <trkpt lat="32.860798333333335" lon="35.258041666666664">
        <ele>310.5</ele>
        <time>2011-09-29T18:44:48.24</time>
      </trkpt>
      <trkpt lat="32.860795" lon="35.25804">
        <ele>310</ele>
        <time>2011-09-29T18:44:49.24</time>
      </trkpt>
      <trkpt lat="32.860795" lon="35.25803666666667">
        <ele>310</ele>
        <time>2011-09-29T18:44:50.24</time>
      </trkpt>
      <trkpt lat="32.860795" lon="35.25803666666667">
        <ele>310</ele>
        <time>2011-09-29T18:44:51.24</time>
      </trkpt>
      <trkpt lat="32.860795" lon="35.258035">
        <ele>310</ele>
        <time>2011-09-29T18:44:52.24</time>
      </trkpt>
      <trkpt lat="32.860795" lon="35.258035">
        <ele>310</ele>
        <time>2011-09-29T18:44:53.23</time>
      </trkpt>
      <trkpt lat="32.860795" lon="35.25803333333333">
        <ele>310</ele>
        <time>2011-09-29T18:44:54.24</time>
      </trkpt>
      <trkpt lat="32.860795" lon="35.25803166666667">
        <ele>310</ele>
        <time>2011-09-29T18:44:55.24</time>
      </trkpt>
      <trkpt lat="32.860796666666666" lon="35.25803">
        <ele>310</ele>
        <time>2011-09-29T18:44:56.24</time>
      </trkpt>
      <trkpt lat="32.860796666666666" lon="35.25803">
        <ele>309.5</ele>
        <time>2011-09-29T18:44:57.23</time>
      </trkpt>
      <trkpt lat="32.860796666666666" lon="35.258028333333336">
        <ele>309.5</ele>
        <time>2011-09-29T18:44:58.24</time>
      </trkpt>
      <trkpt lat="32.860796666666666" lon="35.258028333333336">
        <ele>309</ele>
        <time>2011-09-29T18:44:59.24</time>
      </trkpt>
      <trkpt lat="32.860798333333335" lon="35.258025">
        <ele>308.5</ele>
        <time>2011-09-29T18:45:00.24</time>
      </trkpt>
      <trkpt lat="32.860798333333335" lon="35.258021666666664">
        <ele>308.5</ele>
        <time>2011-09-29T18:45:01.24</time>
      </trkpt>
      <trkpt lat="32.8608" lon="35.25801833333333">
        <ele>308.5</ele>
        <time>2011-09-29T18:45:02.23</time>
      </trkpt>
      <trkpt lat="32.8608" lon="35.25801666666667">
        <ele>309</ele>
        <time>2011-09-29T18:45:03.23</time>
      </trkpt>
      <trkpt lat="32.86080166666667" lon="35.25801333333333">
        <ele>309</ele>
        <time>2011-09-29T18:45:04.23</time>
      </trkpt>
      <trkpt lat="32.86080166666667" lon="35.25801166666667">
        <ele>309.5</ele>
        <time>2011-09-29T18:45:05.23</time>
      </trkpt>
      <trkpt lat="32.86080333333334" lon="35.25801">
        <ele>309.5</ele>
        <time>2011-09-29T18:45:06.23</time>
      </trkpt>
      <trkpt lat="32.86080333333334" lon="35.25801">
        <ele>309.5</ele>
        <time>2011-09-29T18:45:07.23</time>
      </trkpt>
      <trkpt lat="32.86080333333334" lon="35.25801166666667">
        <ele>310</ele>
        <time>2011-09-29T18:45:08.23</time>
      </trkpt>
      <trkpt lat="32.86080666666667" lon="35.258008333333336">
        <ele>310</ele>
        <time>2011-09-29T18:45:09.23</time>
      </trkpt>
      <trkpt lat="32.860805" lon="35.258015">
        <ele>309.5</ele>
        <time>2011-09-29T18:45:10.24</time>
      </trkpt>
      <trkpt lat="32.86081166666666" lon="35.25801">
        <ele>310</ele>
        <time>2011-09-29T18:45:11.23</time>
      </trkpt>
      <trkpt lat="32.86081333333333" lon="35.25801">
        <ele>310</ele>
        <time>2011-09-29T18:45:12.24</time>
      </trkpt>
      <trkpt lat="32.86081166666666" lon="35.258015">
        <ele>310</ele>
        <time>2011-09-29T18:45:13.23</time>
      </trkpt>
      <trkpt lat="32.86081333333333" lon="35.25801166666667">
        <ele>310</ele>
        <time>2011-09-29T18:45:14.23</time>
      </trkpt>
      <trkpt lat="32.860805" lon="35.25801166666667">
        <ele>310</ele>
        <time>2011-09-29T18:45:15.24</time>
      </trkpt>
      <trkpt lat="32.860796666666666" lon="35.25801333333333">
        <ele>310</ele>
        <time>2011-09-29T18:45:16.23</time>
      </trkpt>
      <trkpt lat="32.860791666666664" lon="35.258023333333334">
        <ele>310</ele>
        <time>2011-09-29T18:45:17.23</time>
      </trkpt>
      <trkpt lat="32.860791666666664" lon="35.258025">
        <ele>310</ele>
        <time>2011-09-29T18:45:18.29</time>
      </trkpt>
      <trkpt lat="32.86079333333333" lon="35.25802">
        <ele>309.5</ele>
        <time>2011-09-29T18:45:20.23</time>
      </trkpt>
      <trkpt lat="32.86080666666667" lon="35.258026666666666">
        <ele>310</ele>
        <time>2011-09-29T18:45:21.23</time>
      </trkpt>
      <trkpt lat="32.860795" lon="35.258048333333335">
        <ele>309.5</ele>
        <time>2011-09-29T18:45:22.23</time>
      </trkpt>
      <trkpt lat="32.860795" lon="35.258048333333335">
        <ele>309.5</ele>
        <time>2011-09-29T18:45:23.54</time>
      </trkpt>
    </trkseg>
  </trk>
</gpx>